<?xml version="1.0" encoding="UTF-8" standalone="no" ?>
<gpx xmlns="http://www.topografix.com/GPX/1/1" xmlns:xsi="http://www.w3.org/2001/XMLSchema-instance" xsi:schemaLocation="http://www.topografix.com/GPX/1/1 http://www.topografix.com/GPX/1/1/gpx.xsd" version="1.1" creator="VisuGPX - https://www.visugpx.com">
  <metadata>
    <name>pour les filles</name>
    <desc><![CDATA[sens horaire]]></desc>
  </metadata>
  <trk>
    <name><![CDATA[les filles on GPSies.com]]></name>
    <trkseg>
      <trkpt lat="47.66739" lon="5.9743">
        <ele>231</ele>
        <time>2010-01-01T00:00:00Z</time>
      </trkpt>
      <trkpt lat="47.6674" lon="5.97428">
        <ele>231</ele>
        <time>2010-01-01T00:00:00Z</time>
      </trkpt>
      <trkpt lat="47.66741" lon="5.97425">
        <ele>231</ele>
        <time>2010-01-01T00:00:01Z</time>
      </trkpt>
      <trkpt lat="47.66742" lon="5.97421">
        <ele>231</ele>
        <time>2010-01-01T00:00:02Z</time>
      </trkpt>
      <trkpt lat="47.66743" lon="5.97416">
        <ele>231</ele>
        <time>2010-01-01T00:00:04Z</time>
      </trkpt>
      <trkpt lat="47.66742" lon="5.97411">
        <ele>231</ele>
        <time>2010-01-01T00:00:05Z</time>
      </trkpt>
      <trkpt lat="47.66741" lon="5.97407">
        <ele>231</ele>
        <time>2010-01-01T00:00:06Z</time>
      </trkpt>
      <trkpt lat="47.66739" lon="5.97403">
        <ele>231</ele>
        <time>2010-01-01T00:00:08Z</time>
      </trkpt>
      <trkpt lat="47.66736" lon="5.97398">
        <ele>231</ele>
        <time>2010-01-01T00:00:09Z</time>
      </trkpt>
      <trkpt lat="47.66736" lon="5.97393">
        <ele>231</ele>
        <time>2010-01-01T00:00:11Z</time>
      </trkpt>
      <trkpt lat="47.66738" lon="5.97391">
        <ele>231</ele>
        <time>2010-01-01T00:00:12Z</time>
      </trkpt>
      <trkpt lat="47.66741" lon="5.97391">
        <ele>231</ele>
        <time>2010-01-01T00:00:13Z</time>
      </trkpt>
      <trkpt lat="47.66743" lon="5.97393">
        <ele>231</ele>
        <time>2010-01-01T00:00:14Z</time>
      </trkpt>
      <trkpt lat="47.66746" lon="5.97395">
        <ele>231</ele>
        <time>2010-01-01T00:00:15Z</time>
      </trkpt>
      <trkpt lat="47.66749" lon="5.97397">
        <ele>231</ele>
        <time>2010-01-01T00:00:16Z</time>
      </trkpt>
      <trkpt lat="47.66752" lon="5.97399">
        <ele>231</ele>
        <time>2010-01-01T00:00:18Z</time>
      </trkpt>
      <trkpt lat="47.66755" lon="5.97402">
        <ele>231</ele>
        <time>2010-01-01T00:00:19Z</time>
      </trkpt>
      <trkpt lat="47.66758" lon="5.97405">
        <ele>231</ele>
        <time>2010-01-01T00:00:20Z</time>
      </trkpt>
      <trkpt lat="47.66761" lon="5.97408">
        <ele>231</ele>
        <time>2010-01-01T00:00:22Z</time>
      </trkpt>
      <trkpt lat="47.66764" lon="5.97411">
        <ele>231</ele>
        <time>2010-01-01T00:00:24Z</time>
      </trkpt>
      <trkpt lat="47.66767" lon="5.97414">
        <ele>231</ele>
        <time>2010-01-01T00:00:25Z</time>
      </trkpt>
      <trkpt lat="47.66771" lon="5.97417">
        <ele>231</ele>
        <time>2010-01-01T00:00:27Z</time>
      </trkpt>
      <trkpt lat="47.66775" lon="5.97421">
        <ele>231</ele>
        <time>2010-01-01T00:00:28Z</time>
      </trkpt>
      <trkpt lat="47.66779" lon="5.97425">
        <ele>231</ele>
        <time>2010-01-01T00:00:30Z</time>
      </trkpt>
      <trkpt lat="47.66783" lon="5.97428">
        <ele>231</ele>
        <time>2010-01-01T00:00:32Z</time>
      </trkpt>
      <trkpt lat="47.66786" lon="5.97432">
        <ele>231</ele>
        <time>2010-01-01T00:00:34Z</time>
      </trkpt>
      <trkpt lat="47.6679" lon="5.97435">
        <ele>231</ele>
        <time>2010-01-01T00:00:36Z</time>
      </trkpt>
      <trkpt lat="47.66794" lon="5.97439">
        <ele>231</ele>
        <time>2010-01-01T00:00:38Z</time>
      </trkpt>
      <trkpt lat="47.66798" lon="5.97443">
        <ele>231</ele>
        <time>2010-01-01T00:00:40Z</time>
      </trkpt>
      <trkpt lat="47.66802" lon="5.97447">
        <ele>231</ele>
        <time>2010-01-01T00:00:41Z</time>
      </trkpt>
      <trkpt lat="47.66805" lon="5.97451">
        <ele>231</ele>
        <time>2010-01-01T00:00:43Z</time>
      </trkpt>
      <trkpt lat="47.66809" lon="5.97455">
        <ele>231</ele>
        <time>2010-01-01T00:00:45Z</time>
      </trkpt>
      <trkpt lat="47.66813" lon="5.97459">
        <ele>231</ele>
        <time>2010-01-01T00:00:47Z</time>
      </trkpt>
      <trkpt lat="47.66818" lon="5.97462">
        <ele>231</ele>
        <time>2010-01-01T00:00:49Z</time>
      </trkpt>
      <trkpt lat="47.66822" lon="5.97466">
        <ele>231</ele>
        <time>2010-01-01T00:00:51Z</time>
      </trkpt>
      <trkpt lat="47.66826" lon="5.9747">
        <ele>231</ele>
        <time>2010-01-01T00:00:53Z</time>
      </trkpt>
      <trkpt lat="47.6683" lon="5.97473">
        <ele>231</ele>
        <time>2010-01-01T00:00:55Z</time>
      </trkpt>
      <trkpt lat="47.66834" lon="5.97477">
        <ele>231</ele>
        <time>2010-01-01T00:00:57Z</time>
      </trkpt>
      <trkpt lat="47.66838" lon="5.9748">
        <ele>231</ele>
        <time>2010-01-01T00:00:58Z</time>
      </trkpt>
      <trkpt lat="47.66842" lon="5.97484">
        <ele>231</ele>
        <time>2010-01-01T00:01:00Z</time>
      </trkpt>
      <trkpt lat="47.66845" lon="5.97488">
        <ele>231</ele>
        <time>2010-01-01T00:01:02Z</time>
      </trkpt>
      <trkpt lat="47.66849" lon="5.97492">
        <ele>231</ele>
        <time>2010-01-01T00:01:04Z</time>
      </trkpt>
      <trkpt lat="47.66854" lon="5.97496">
        <ele>231</ele>
        <time>2010-01-01T00:01:06Z</time>
      </trkpt>
      <trkpt lat="47.66858" lon="5.975">
        <ele>231</ele>
        <time>2010-01-01T00:01:08Z</time>
      </trkpt>
      <trkpt lat="47.66862" lon="5.97504">
        <ele>231</ele>
        <time>2010-01-01T00:01:10Z</time>
      </trkpt>
      <trkpt lat="47.66866" lon="5.97508">
        <ele>231</ele>
        <time>2010-01-01T00:01:12Z</time>
      </trkpt>
      <trkpt lat="47.66871" lon="5.97511">
        <ele>231</ele>
        <time>2010-01-01T00:01:14Z</time>
      </trkpt>
      <trkpt lat="47.66875" lon="5.97515">
        <ele>231</ele>
        <time>2010-01-01T00:01:16Z</time>
      </trkpt>
      <trkpt lat="47.66879" lon="5.97519">
        <ele>231</ele>
        <time>2010-01-01T00:01:18Z</time>
      </trkpt>
      <trkpt lat="47.66883" lon="5.97523">
        <ele>231</ele>
        <time>2010-01-01T00:01:20Z</time>
      </trkpt>
      <trkpt lat="47.66887" lon="5.97527">
        <ele>231</ele>
        <time>2010-01-01T00:01:22Z</time>
      </trkpt>
      <trkpt lat="47.66891" lon="5.97531">
        <ele>231</ele>
        <time>2010-01-01T00:01:24Z</time>
      </trkpt>
      <trkpt lat="47.66895" lon="5.97535">
        <ele>231</ele>
        <time>2010-01-01T00:01:26Z</time>
      </trkpt>
      <trkpt lat="47.66899" lon="5.97539">
        <ele>231</ele>
        <time>2010-01-01T00:01:28Z</time>
      </trkpt>
      <trkpt lat="47.66904" lon="5.97543">
        <ele>231</ele>
        <time>2010-01-01T00:01:30Z</time>
      </trkpt>
      <trkpt lat="47.66908" lon="5.97546">
        <ele>231</ele>
        <time>2010-01-01T00:01:32Z</time>
      </trkpt>
      <trkpt lat="47.66912" lon="5.9755">
        <ele>231</ele>
        <time>2010-01-01T00:01:34Z</time>
      </trkpt>
      <trkpt lat="47.66916" lon="5.97554">
        <ele>231</ele>
        <time>2010-01-01T00:01:35Z</time>
      </trkpt>
      <trkpt lat="47.6692" lon="5.97558">
        <ele>231</ele>
        <time>2010-01-01T00:01:37Z</time>
      </trkpt>
      <trkpt lat="47.66924" lon="5.97562">
        <ele>231</ele>
        <time>2010-01-01T00:01:39Z</time>
      </trkpt>
      <trkpt lat="47.66927" lon="5.97566">
        <ele>231</ele>
        <time>2010-01-01T00:01:41Z</time>
      </trkpt>
      <trkpt lat="47.66931" lon="5.97569">
        <ele>231</ele>
        <time>2010-01-01T00:01:43Z</time>
      </trkpt>
      <trkpt lat="47.66936" lon="5.97573">
        <ele>231</ele>
        <time>2010-01-01T00:01:45Z</time>
      </trkpt>
      <trkpt lat="47.6694" lon="5.97577">
        <ele>231</ele>
        <time>2010-01-01T00:01:47Z</time>
      </trkpt>
      <trkpt lat="47.66944" lon="5.97581">
        <ele>231</ele>
        <time>2010-01-01T00:01:49Z</time>
      </trkpt>
      <trkpt lat="47.66948" lon="5.97585">
        <ele>231</ele>
        <time>2010-01-01T00:01:51Z</time>
      </trkpt>
      <trkpt lat="47.66952" lon="5.97589">
        <ele>231</ele>
        <time>2010-01-01T00:01:53Z</time>
      </trkpt>
      <trkpt lat="47.66956" lon="5.97592">
        <ele>231</ele>
        <time>2010-01-01T00:01:55Z</time>
      </trkpt>
      <trkpt lat="47.6696" lon="5.97596">
        <ele>231</ele>
        <time>2010-01-01T00:01:56Z</time>
      </trkpt>
      <trkpt lat="47.66964" lon="5.976">
        <ele>231</ele>
        <time>2010-01-01T00:01:58Z</time>
      </trkpt>
      <trkpt lat="47.66968" lon="5.97604">
        <ele>231</ele>
        <time>2010-01-01T00:02:00Z</time>
      </trkpt>
      <trkpt lat="47.66972" lon="5.97608">
        <ele>231</ele>
        <time>2010-01-01T00:02:02Z</time>
      </trkpt>
      <trkpt lat="47.66976" lon="5.97612">
        <ele>231</ele>
        <time>2010-01-01T00:02:04Z</time>
      </trkpt>
      <trkpt lat="47.6698" lon="5.97615">
        <ele>231</ele>
        <time>2010-01-01T00:02:06Z</time>
      </trkpt>
      <trkpt lat="47.66984" lon="5.97619">
        <ele>231</ele>
        <time>2010-01-01T00:02:08Z</time>
      </trkpt>
      <trkpt lat="47.66988" lon="5.97623">
        <ele>231</ele>
        <time>2010-01-01T00:02:10Z</time>
      </trkpt>
      <trkpt lat="47.66992" lon="5.97626">
        <ele>231</ele>
        <time>2010-01-01T00:02:12Z</time>
      </trkpt>
      <trkpt lat="47.66996" lon="5.9763">
        <ele>231</ele>
        <time>2010-01-01T00:02:13Z</time>
      </trkpt>
      <trkpt lat="47.66999" lon="5.97633">
        <ele>231</ele>
        <time>2010-01-01T00:02:15Z</time>
      </trkpt>
      <trkpt lat="47.67003" lon="5.97636">
        <ele>231</ele>
        <time>2010-01-01T00:02:17Z</time>
      </trkpt>
      <trkpt lat="47.67007" lon="5.97639">
        <ele>231</ele>
        <time>2010-01-01T00:02:18Z</time>
      </trkpt>
      <trkpt lat="47.6701" lon="5.97643">
        <ele>231</ele>
        <time>2010-01-01T00:02:20Z</time>
      </trkpt>
      <trkpt lat="47.67014" lon="5.97647">
        <ele>231</ele>
        <time>2010-01-01T00:02:22Z</time>
      </trkpt>
      <trkpt lat="47.67021" lon="5.97653">
        <ele>231</ele>
        <time>2010-01-01T00:02:25Z</time>
      </trkpt>
      <trkpt lat="47.67024" lon="5.97657">
        <ele>231</ele>
        <time>2010-01-01T00:02:27Z</time>
      </trkpt>
      <trkpt lat="47.67027" lon="5.9766">
        <ele>231</ele>
        <time>2010-01-01T00:02:28Z</time>
      </trkpt>
      <trkpt lat="47.6703" lon="5.97663">
        <ele>231</ele>
        <time>2010-01-01T00:02:30Z</time>
      </trkpt>
      <trkpt lat="47.67034" lon="5.97666">
        <ele>231</ele>
        <time>2010-01-01T00:02:31Z</time>
      </trkpt>
      <trkpt lat="47.67037" lon="5.97669">
        <ele>232</ele>
        <time>2010-01-01T00:02:33Z</time>
      </trkpt>
      <trkpt lat="47.6704" lon="5.97671">
        <ele>232</ele>
        <time>2010-01-01T00:02:34Z</time>
      </trkpt>
      <trkpt lat="47.67043" lon="5.97674">
        <ele>233</ele>
        <time>2010-01-01T00:02:36Z</time>
      </trkpt>
      <trkpt lat="47.67047" lon="5.97678">
        <ele>233</ele>
        <time>2010-01-01T00:02:37Z</time>
      </trkpt>
      <trkpt lat="47.6705" lon="5.9768">
        <ele>233</ele>
        <time>2010-01-01T00:02:39Z</time>
      </trkpt>
      <trkpt lat="47.67053" lon="5.97683">
        <ele>233</ele>
        <time>2010-01-01T00:02:40Z</time>
      </trkpt>
      <trkpt lat="47.67056" lon="5.97687">
        <ele>233</ele>
        <time>2010-01-01T00:02:42Z</time>
      </trkpt>
      <trkpt lat="47.67059" lon="5.9769">
        <ele>233</ele>
        <time>2010-01-01T00:02:43Z</time>
      </trkpt>
      <trkpt lat="47.67062" lon="5.97693">
        <ele>233</ele>
        <time>2010-01-01T00:02:45Z</time>
      </trkpt>
      <trkpt lat="47.67065" lon="5.97695">
        <ele>233</ele>
        <time>2010-01-01T00:02:46Z</time>
      </trkpt>
      <trkpt lat="47.67068" lon="5.97698">
        <ele>233</ele>
        <time>2010-01-01T00:02:48Z</time>
      </trkpt>
      <trkpt lat="47.67071" lon="5.97701">
        <ele>233</ele>
        <time>2010-01-01T00:02:49Z</time>
      </trkpt>
      <trkpt lat="47.67074" lon="5.97703">
        <ele>234</ele>
        <time>2010-01-01T00:02:50Z</time>
      </trkpt>
      <trkpt lat="47.67076" lon="5.97706">
        <ele>234</ele>
        <time>2010-01-01T00:02:52Z</time>
      </trkpt>
      <trkpt lat="47.6708" lon="5.97709">
        <ele>235</ele>
        <time>2010-01-01T00:02:53Z</time>
      </trkpt>
      <trkpt lat="47.67083" lon="5.97712">
        <ele>235</ele>
        <time>2010-01-01T00:02:55Z</time>
      </trkpt>
      <trkpt lat="47.67086" lon="5.97715">
        <ele>235</ele>
        <time>2010-01-01T00:02:56Z</time>
      </trkpt>
      <trkpt lat="47.67089" lon="5.97719">
        <ele>235</ele>
        <time>2010-01-01T00:02:58Z</time>
      </trkpt>
      <trkpt lat="47.67092" lon="5.97722">
        <ele>235</ele>
        <time>2010-01-01T00:02:59Z</time>
      </trkpt>
      <trkpt lat="47.67095" lon="5.97724">
        <ele>235</ele>
        <time>2010-01-01T00:03:01Z</time>
      </trkpt>
      <trkpt lat="47.67098" lon="5.97727">
        <ele>235</ele>
        <time>2010-01-01T00:03:02Z</time>
      </trkpt>
      <trkpt lat="47.67101" lon="5.97729">
        <ele>235</ele>
        <time>2010-01-01T00:03:03Z</time>
      </trkpt>
      <trkpt lat="47.67104" lon="5.97732">
        <ele>235</ele>
        <time>2010-01-01T00:03:05Z</time>
      </trkpt>
      <trkpt lat="47.67107" lon="5.97735">
        <ele>235</ele>
        <time>2010-01-01T00:03:06Z</time>
      </trkpt>
      <trkpt lat="47.6711" lon="5.97738">
        <ele>235</ele>
        <time>2010-01-01T00:03:08Z</time>
      </trkpt>
      <trkpt lat="47.67113" lon="5.97741">
        <ele>236</ele>
        <time>2010-01-01T00:03:09Z</time>
      </trkpt>
      <trkpt lat="47.67117" lon="5.97744">
        <ele>236</ele>
        <time>2010-01-01T00:03:11Z</time>
      </trkpt>
      <trkpt lat="47.6712" lon="5.97747">
        <ele>237</ele>
        <time>2010-01-01T00:03:12Z</time>
      </trkpt>
      <trkpt lat="47.67123" lon="5.9775">
        <ele>237</ele>
        <time>2010-01-01T00:03:14Z</time>
      </trkpt>
      <trkpt lat="47.67126" lon="5.97753">
        <ele>237</ele>
        <time>2010-01-01T00:03:15Z</time>
      </trkpt>
      <trkpt lat="47.67128" lon="5.97756">
        <ele>237</ele>
        <time>2010-01-01T00:03:16Z</time>
      </trkpt>
      <trkpt lat="47.67131" lon="5.97759">
        <ele>237</ele>
        <time>2010-01-01T00:03:18Z</time>
      </trkpt>
      <trkpt lat="47.67134" lon="5.97763">
        <ele>237</ele>
        <time>2010-01-01T00:03:19Z</time>
      </trkpt>
      <trkpt lat="47.67137" lon="5.97766">
        <ele>237</ele>
        <time>2010-01-01T00:03:21Z</time>
      </trkpt>
      <trkpt lat="47.6714" lon="5.97769">
        <ele>237</ele>
        <time>2010-01-01T00:03:22Z</time>
      </trkpt>
      <trkpt lat="47.67143" lon="5.97772">
        <ele>237</ele>
        <time>2010-01-01T00:03:24Z</time>
      </trkpt>
      <trkpt lat="47.67146" lon="5.97776">
        <ele>237</ele>
        <time>2010-01-01T00:03:25Z</time>
      </trkpt>
      <trkpt lat="47.67149" lon="5.97779">
        <ele>237</ele>
        <time>2010-01-01T00:03:27Z</time>
      </trkpt>
      <trkpt lat="47.67152" lon="5.97783">
        <ele>237</ele>
        <time>2010-01-01T00:03:28Z</time>
      </trkpt>
      <trkpt lat="47.67154" lon="5.97787">
        <ele>237</ele>
        <time>2010-01-01T00:03:30Z</time>
      </trkpt>
      <trkpt lat="47.67157" lon="5.97791">
        <ele>237</ele>
        <time>2010-01-01T00:03:31Z</time>
      </trkpt>
      <trkpt lat="47.6716" lon="5.97794">
        <ele>238</ele>
        <time>2010-01-01T00:03:33Z</time>
      </trkpt>
      <trkpt lat="47.67163" lon="5.97797">
        <ele>238</ele>
        <time>2010-01-01T00:03:34Z</time>
      </trkpt>
      <trkpt lat="47.67166" lon="5.97801">
        <ele>239</ele>
        <time>2010-01-01T00:03:36Z</time>
      </trkpt>
      <trkpt lat="47.67169" lon="5.97804">
        <ele>239</ele>
        <time>2010-01-01T00:03:37Z</time>
      </trkpt>
      <trkpt lat="47.67172" lon="5.97808">
        <ele>239</ele>
        <time>2010-01-01T00:03:39Z</time>
      </trkpt>
      <trkpt lat="47.67174" lon="5.97812">
        <ele>239</ele>
        <time>2010-01-01T00:03:40Z</time>
      </trkpt>
      <trkpt lat="47.67177" lon="5.97815">
        <ele>239</ele>
        <time>2010-01-01T00:03:42Z</time>
      </trkpt>
      <trkpt lat="47.6718" lon="5.97819">
        <ele>239</ele>
        <time>2010-01-01T00:03:43Z</time>
      </trkpt>
      <trkpt lat="47.67182" lon="5.97823">
        <ele>239</ele>
        <time>2010-01-01T00:03:45Z</time>
      </trkpt>
      <trkpt lat="47.67185" lon="5.97827">
        <ele>239</ele>
        <time>2010-01-01T00:03:46Z</time>
      </trkpt>
      <trkpt lat="47.67187" lon="5.97831">
        <ele>239</ele>
        <time>2010-01-01T00:03:48Z</time>
      </trkpt>
      <trkpt lat="47.67189" lon="5.97836">
        <ele>239</ele>
        <time>2010-01-01T00:03:49Z</time>
      </trkpt>
      <trkpt lat="47.67192" lon="5.9784">
        <ele>239</ele>
        <time>2010-01-01T00:03:51Z</time>
      </trkpt>
      <trkpt lat="47.67194" lon="5.97845">
        <ele>239</ele>
        <time>2010-01-01T00:03:52Z</time>
      </trkpt>
      <trkpt lat="47.67196" lon="5.97849">
        <ele>239</ele>
        <time>2010-01-01T00:03:54Z</time>
      </trkpt>
      <trkpt lat="47.67199" lon="5.97854">
        <ele>239</ele>
        <time>2010-01-01T00:03:55Z</time>
      </trkpt>
      <trkpt lat="47.67201" lon="5.97858">
        <ele>240</ele>
        <time>2010-01-01T00:03:57Z</time>
      </trkpt>
      <trkpt lat="47.67203" lon="5.97863">
        <ele>240</ele>
        <time>2010-01-01T00:03:58Z</time>
      </trkpt>
      <trkpt lat="47.67205" lon="5.97868">
        <ele>241</ele>
        <time>2010-01-01T00:04:00Z</time>
      </trkpt>
      <trkpt lat="47.67208" lon="5.97872">
        <ele>241</ele>
        <time>2010-01-01T00:04:01Z</time>
      </trkpt>
      <trkpt lat="47.6721" lon="5.97877">
        <ele>241</ele>
        <time>2010-01-01T00:04:03Z</time>
      </trkpt>
      <trkpt lat="47.67212" lon="5.97882">
        <ele>241</ele>
        <time>2010-01-01T00:04:05Z</time>
      </trkpt>
      <trkpt lat="47.67214" lon="5.97887">
        <ele>241</ele>
        <time>2010-01-01T00:04:06Z</time>
      </trkpt>
      <trkpt lat="47.67217" lon="5.97892">
        <ele>241</ele>
        <time>2010-01-01T00:04:08Z</time>
      </trkpt>
      <trkpt lat="47.67219" lon="5.97896">
        <ele>241</ele>
        <time>2010-01-01T00:04:09Z</time>
      </trkpt>
      <trkpt lat="47.67221" lon="5.97901">
        <ele>241</ele>
        <time>2010-01-01T00:04:11Z</time>
      </trkpt>
      <trkpt lat="47.67224" lon="5.97905">
        <ele>241</ele>
        <time>2010-01-01T00:04:12Z</time>
      </trkpt>
      <trkpt lat="47.67226" lon="5.9791">
        <ele>241</ele>
        <time>2010-01-01T00:04:14Z</time>
      </trkpt>
      <trkpt lat="47.67229" lon="5.97915">
        <ele>241</ele>
        <time>2010-01-01T00:04:16Z</time>
      </trkpt>
      <trkpt lat="47.67231" lon="5.9792">
        <ele>241</ele>
        <time>2010-01-01T00:04:17Z</time>
      </trkpt>
      <trkpt lat="47.67233" lon="5.97924">
        <ele>241</ele>
        <time>2010-01-01T00:04:19Z</time>
      </trkpt>
      <trkpt lat="47.67235" lon="5.97929">
        <ele>241</ele>
        <time>2010-01-01T00:04:20Z</time>
      </trkpt>
      <trkpt lat="47.67237" lon="5.97934">
        <ele>241</ele>
        <time>2010-01-01T00:04:22Z</time>
      </trkpt>
      <trkpt lat="47.6724" lon="5.97939">
        <ele>241</ele>
        <time>2010-01-01T00:04:23Z</time>
      </trkpt>
      <trkpt lat="47.67242" lon="5.97944">
        <ele>242</ele>
        <time>2010-01-01T00:04:25Z</time>
      </trkpt>
      <trkpt lat="47.67244" lon="5.97948">
        <ele>242</ele>
        <time>2010-01-01T00:04:27Z</time>
      </trkpt>
      <trkpt lat="47.67247" lon="5.97953">
        <ele>243</ele>
        <time>2010-01-01T00:04:28Z</time>
      </trkpt>
      <trkpt lat="47.67249" lon="5.97958">
        <ele>243</ele>
        <time>2010-01-01T00:04:30Z</time>
      </trkpt>
      <trkpt lat="47.67251" lon="5.97963">
        <ele>244</ele>
        <time>2010-01-01T00:04:31Z</time>
      </trkpt>
      <trkpt lat="47.67254" lon="5.97967">
        <ele>244</ele>
        <time>2010-01-01T00:04:33Z</time>
      </trkpt>
      <trkpt lat="47.67256" lon="5.97972">
        <ele>244</ele>
        <time>2010-01-01T00:04:34Z</time>
      </trkpt>
      <trkpt lat="47.67258" lon="5.97976">
        <ele>244</ele>
        <time>2010-01-01T00:04:36Z</time>
      </trkpt>
      <trkpt lat="47.67261" lon="5.97981">
        <ele>244</ele>
        <time>2010-01-01T00:04:38Z</time>
      </trkpt>
      <trkpt lat="47.67263" lon="5.97986">
        <ele>244</ele>
        <time>2010-01-01T00:04:39Z</time>
      </trkpt>
      <trkpt lat="47.67265" lon="5.97991">
        <ele>244</ele>
        <time>2010-01-01T00:04:41Z</time>
      </trkpt>
      <trkpt lat="47.67268" lon="5.97995">
        <ele>244</ele>
        <time>2010-01-01T00:04:42Z</time>
      </trkpt>
      <trkpt lat="47.6727" lon="5.98">
        <ele>244</ele>
        <time>2010-01-01T00:04:44Z</time>
      </trkpt>
      <trkpt lat="47.67272" lon="5.98005">
        <ele>244</ele>
        <time>2010-01-01T00:04:45Z</time>
      </trkpt>
      <trkpt lat="47.67275" lon="5.98009">
        <ele>244</ele>
        <time>2010-01-01T00:04:47Z</time>
      </trkpt>
      <trkpt lat="47.67277" lon="5.98014">
        <ele>244</ele>
        <time>2010-01-01T00:04:49Z</time>
      </trkpt>
      <trkpt lat="47.67279" lon="5.98019">
        <ele>244</ele>
        <time>2010-01-01T00:04:50Z</time>
      </trkpt>
      <trkpt lat="47.67282" lon="5.98024">
        <ele>244</ele>
        <time>2010-01-01T00:04:52Z</time>
      </trkpt>
      <trkpt lat="47.67284" lon="5.98029">
        <ele>244</ele>
        <time>2010-01-01T00:04:53Z</time>
      </trkpt>
      <trkpt lat="47.67286" lon="5.98033">
        <ele>244</ele>
        <time>2010-01-01T00:04:55Z</time>
      </trkpt>
      <trkpt lat="47.67288" lon="5.98038">
        <ele>244</ele>
        <time>2010-01-01T00:04:56Z</time>
      </trkpt>
      <trkpt lat="47.67291" lon="5.98042">
        <ele>244</ele>
        <time>2010-01-01T00:04:58Z</time>
      </trkpt>
      <trkpt lat="47.67293" lon="5.98047">
        <ele>244</ele>
        <time>2010-01-01T00:05:00Z</time>
      </trkpt>
      <trkpt lat="47.67296" lon="5.98052">
        <ele>244</ele>
        <time>2010-01-01T00:05:01Z</time>
      </trkpt>
      <trkpt lat="47.67298" lon="5.98057">
        <ele>244</ele>
        <time>2010-01-01T00:05:03Z</time>
      </trkpt>
      <trkpt lat="47.67301" lon="5.98062">
        <ele>244</ele>
        <time>2010-01-01T00:05:05Z</time>
      </trkpt>
      <trkpt lat="47.67308" lon="5.98077">
        <ele>244</ele>
        <time>2010-01-01T00:05:10Z</time>
      </trkpt>
      <trkpt lat="47.6731" lon="5.98082">
        <ele>244</ele>
        <time>2010-01-01T00:05:11Z</time>
      </trkpt>
      <trkpt lat="47.67315" lon="5.98092">
        <ele>245</ele>
        <time>2010-01-01T00:05:15Z</time>
      </trkpt>
      <trkpt lat="47.67318" lon="5.98097">
        <ele>245</ele>
        <time>2010-01-01T00:05:16Z</time>
      </trkpt>
      <trkpt lat="47.6732" lon="5.98102">
        <ele>246</ele>
        <time>2010-01-01T00:05:18Z</time>
      </trkpt>
      <trkpt lat="47.67322" lon="5.98107">
        <ele>246</ele>
        <time>2010-01-01T00:05:20Z</time>
      </trkpt>
      <trkpt lat="47.67324" lon="5.98112">
        <ele>246</ele>
        <time>2010-01-01T00:05:21Z</time>
      </trkpt>
      <trkpt lat="47.67331" lon="5.98128">
        <ele>246</ele>
        <time>2010-01-01T00:05:26Z</time>
      </trkpt>
      <trkpt lat="47.67334" lon="5.98134">
        <ele>246</ele>
        <time>2010-01-01T00:05:28Z</time>
      </trkpt>
      <trkpt lat="47.67336" lon="5.98139">
        <ele>246</ele>
        <time>2010-01-01T00:05:30Z</time>
      </trkpt>
      <trkpt lat="47.67339" lon="5.98144">
        <ele>246</ele>
        <time>2010-01-01T00:05:32Z</time>
      </trkpt>
      <trkpt lat="47.67342" lon="5.98148">
        <ele>246</ele>
        <time>2010-01-01T00:05:33Z</time>
      </trkpt>
      <trkpt lat="47.67345" lon="5.98152">
        <ele>246</ele>
        <time>2010-01-01T00:05:35Z</time>
      </trkpt>
      <trkpt lat="47.67348" lon="5.98156">
        <ele>246</ele>
        <time>2010-01-01T00:05:36Z</time>
      </trkpt>
      <trkpt lat="47.67351" lon="5.9816">
        <ele>246</ele>
        <time>2010-01-01T00:05:38Z</time>
      </trkpt>
      <trkpt lat="47.67354" lon="5.98163">
        <ele>246</ele>
        <time>2010-01-01T00:05:39Z</time>
      </trkpt>
      <trkpt lat="47.67357" lon="5.98166">
        <ele>246</ele>
        <time>2010-01-01T00:05:41Z</time>
      </trkpt>
      <trkpt lat="47.6736" lon="5.98169">
        <ele>246</ele>
        <time>2010-01-01T00:05:43Z</time>
      </trkpt>
      <trkpt lat="47.67364" lon="5.98172">
        <ele>246</ele>
        <time>2010-01-01T00:05:44Z</time>
      </trkpt>
      <trkpt lat="47.67368" lon="5.98174">
        <ele>246</ele>
        <time>2010-01-01T00:05:46Z</time>
      </trkpt>
      <trkpt lat="47.67372" lon="5.98177">
        <ele>246</ele>
        <time>2010-01-01T00:05:48Z</time>
      </trkpt>
      <trkpt lat="47.67377" lon="5.9818">
        <ele>246</ele>
        <time>2010-01-01T00:05:50Z</time>
      </trkpt>
      <trkpt lat="47.67382" lon="5.98185">
        <ele>246</ele>
        <time>2010-01-01T00:05:52Z</time>
      </trkpt>
      <trkpt lat="47.67388" lon="5.98189">
        <ele>246</ele>
        <time>2010-01-01T00:05:55Z</time>
      </trkpt>
      <trkpt lat="47.67393" lon="5.98194">
        <ele>246</ele>
        <time>2010-01-01T00:05:57Z</time>
      </trkpt>
      <trkpt lat="47.67399" lon="5.98198">
        <ele>246</ele>
        <time>2010-01-01T00:06:00Z</time>
      </trkpt>
      <trkpt lat="47.67404" lon="5.98203">
        <ele>246</ele>
        <time>2010-01-01T00:06:02Z</time>
      </trkpt>
      <trkpt lat="47.6741" lon="5.98208">
        <ele>246</ele>
        <time>2010-01-01T00:06:05Z</time>
      </trkpt>
      <trkpt lat="47.67415" lon="5.98213">
        <ele>246</ele>
        <time>2010-01-01T00:06:07Z</time>
      </trkpt>
      <trkpt lat="47.6742" lon="5.98218">
        <ele>246</ele>
        <time>2010-01-01T00:06:10Z</time>
      </trkpt>
      <trkpt lat="47.67426" lon="5.98224">
        <ele>246</ele>
        <time>2010-01-01T00:06:13Z</time>
      </trkpt>
      <trkpt lat="47.67431" lon="5.98229">
        <ele>246</ele>
        <time>2010-01-01T00:06:15Z</time>
      </trkpt>
      <trkpt lat="47.67436" lon="5.98235">
        <ele>246</ele>
        <time>2010-01-01T00:06:18Z</time>
      </trkpt>
      <trkpt lat="47.6744" lon="5.98241">
        <ele>245</ele>
        <time>2010-01-01T00:06:20Z</time>
      </trkpt>
      <trkpt lat="47.67445" lon="5.98246">
        <ele>245</ele>
        <time>2010-01-01T00:06:22Z</time>
      </trkpt>
      <trkpt lat="47.6745" lon="5.98252">
        <ele>244</ele>
        <time>2010-01-01T00:06:25Z</time>
      </trkpt>
      <trkpt lat="47.67454" lon="5.98258">
        <ele>244</ele>
        <time>2010-01-01T00:06:27Z</time>
      </trkpt>
      <trkpt lat="47.67458" lon="5.98264">
        <ele>243</ele>
        <time>2010-01-01T00:06:29Z</time>
      </trkpt>
      <trkpt lat="47.67462" lon="5.98269">
        <ele>243</ele>
        <time>2010-01-01T00:06:32Z</time>
      </trkpt>
      <trkpt lat="47.67466" lon="5.98275">
        <ele>243</ele>
        <time>2010-01-01T00:06:34Z</time>
      </trkpt>
      <trkpt lat="47.67469" lon="5.98281">
        <ele>243</ele>
        <time>2010-01-01T00:06:36Z</time>
      </trkpt>
      <trkpt lat="47.67473" lon="5.98285">
        <ele>243</ele>
        <time>2010-01-01T00:06:38Z</time>
      </trkpt>
      <trkpt lat="47.67476" lon="5.9829">
        <ele>243</ele>
        <time>2010-01-01T00:06:40Z</time>
      </trkpt>
      <trkpt lat="47.6748" lon="5.98294">
        <ele>243</ele>
        <time>2010-01-01T00:06:42Z</time>
      </trkpt>
      <trkpt lat="47.67483" lon="5.98299">
        <ele>243</ele>
        <time>2010-01-01T00:06:43Z</time>
      </trkpt>
      <trkpt lat="47.67487" lon="5.98304">
        <ele>243</ele>
        <time>2010-01-01T00:06:45Z</time>
      </trkpt>
      <trkpt lat="47.67491" lon="5.98308">
        <ele>243</ele>
        <time>2010-01-01T00:06:47Z</time>
      </trkpt>
      <trkpt lat="47.67494" lon="5.98314">
        <ele>243</ele>
        <time>2010-01-01T00:06:49Z</time>
      </trkpt>
      <trkpt lat="47.67497" lon="5.98318">
        <ele>243</ele>
        <time>2010-01-01T00:06:51Z</time>
      </trkpt>
      <trkpt lat="47.67501" lon="5.98323">
        <ele>243</ele>
        <time>2010-01-01T00:06:53Z</time>
      </trkpt>
      <trkpt lat="47.67504" lon="5.98327">
        <ele>243</ele>
        <time>2010-01-01T00:06:55Z</time>
      </trkpt>
      <trkpt lat="47.67507" lon="5.98332">
        <ele>243</ele>
        <time>2010-01-01T00:06:56Z</time>
      </trkpt>
      <trkpt lat="47.6751" lon="5.98336">
        <ele>243</ele>
        <time>2010-01-01T00:06:58Z</time>
      </trkpt>
      <trkpt lat="47.67513" lon="5.98341">
        <ele>243</ele>
        <time>2010-01-01T00:07:00Z</time>
      </trkpt>
      <trkpt lat="47.67516" lon="5.98346">
        <ele>243</ele>
        <time>2010-01-01T00:07:02Z</time>
      </trkpt>
      <trkpt lat="47.67519" lon="5.98351">
        <ele>243</ele>
        <time>2010-01-01T00:07:03Z</time>
      </trkpt>
      <trkpt lat="47.67523" lon="5.98356">
        <ele>243</ele>
        <time>2010-01-01T00:07:05Z</time>
      </trkpt>
      <trkpt lat="47.67526" lon="5.9836">
        <ele>243</ele>
        <time>2010-01-01T00:07:07Z</time>
      </trkpt>
      <trkpt lat="47.67529" lon="5.98365">
        <ele>243</ele>
        <time>2010-01-01T00:07:09Z</time>
      </trkpt>
      <trkpt lat="47.67533" lon="5.98369">
        <ele>243</ele>
        <time>2010-01-01T00:07:11Z</time>
      </trkpt>
      <trkpt lat="47.67536" lon="5.98373">
        <ele>243</ele>
        <time>2010-01-01T00:07:13Z</time>
      </trkpt>
      <trkpt lat="47.6754" lon="5.98378">
        <ele>243</ele>
        <time>2010-01-01T00:07:14Z</time>
      </trkpt>
      <trkpt lat="47.67544" lon="5.98382">
        <ele>243</ele>
        <time>2010-01-01T00:07:16Z</time>
      </trkpt>
      <trkpt lat="47.67547" lon="5.98387">
        <ele>243</ele>
        <time>2010-01-01T00:07:18Z</time>
      </trkpt>
      <trkpt lat="47.67551" lon="5.98391">
        <ele>243</ele>
        <time>2010-01-01T00:07:20Z</time>
      </trkpt>
      <trkpt lat="47.67555" lon="5.98395">
        <ele>243</ele>
        <time>2010-01-01T00:07:22Z</time>
      </trkpt>
      <trkpt lat="47.67559" lon="5.98399">
        <ele>243</ele>
        <time>2010-01-01T00:07:24Z</time>
      </trkpt>
      <trkpt lat="47.67562" lon="5.98403">
        <ele>243</ele>
        <time>2010-01-01T00:07:26Z</time>
      </trkpt>
      <trkpt lat="47.67566" lon="5.98407">
        <ele>243</ele>
        <time>2010-01-01T00:07:27Z</time>
      </trkpt>
      <trkpt lat="47.6757" lon="5.98411">
        <ele>243</ele>
        <time>2010-01-01T00:07:29Z</time>
      </trkpt>
      <trkpt lat="47.67574" lon="5.98415">
        <ele>243</ele>
        <time>2010-01-01T00:07:31Z</time>
      </trkpt>
      <trkpt lat="47.67577" lon="5.98418">
        <ele>243</ele>
        <time>2010-01-01T00:07:33Z</time>
      </trkpt>
      <trkpt lat="47.67581" lon="5.98422">
        <ele>243</ele>
        <time>2010-01-01T00:07:35Z</time>
      </trkpt>
      <trkpt lat="47.67585" lon="5.98426">
        <ele>243</ele>
        <time>2010-01-01T00:07:37Z</time>
      </trkpt>
      <trkpt lat="47.67589" lon="5.98428">
        <ele>243</ele>
        <time>2010-01-01T00:07:38Z</time>
      </trkpt>
      <trkpt lat="47.67604" lon="5.98428">
        <ele>243</ele>
        <time>2010-01-01T00:07:44Z</time>
      </trkpt>
      <trkpt lat="47.67608" lon="5.98427">
        <ele>243</ele>
        <time>2010-01-01T00:07:46Z</time>
      </trkpt>
      <trkpt lat="47.67613" lon="5.98425">
        <ele>243</ele>
        <time>2010-01-01T00:07:48Z</time>
      </trkpt>
      <trkpt lat="47.67618" lon="5.98423">
        <ele>243</ele>
        <time>2010-01-01T00:07:50Z</time>
      </trkpt>
      <trkpt lat="47.67623" lon="5.98421">
        <ele>243</ele>
        <time>2010-01-01T00:07:52Z</time>
      </trkpt>
      <trkpt lat="47.67627" lon="5.98418">
        <ele>243</ele>
        <time>2010-01-01T00:07:54Z</time>
      </trkpt>
      <trkpt lat="47.67632" lon="5.98417">
        <ele>243</ele>
        <time>2010-01-01T00:07:56Z</time>
      </trkpt>
      <trkpt lat="47.67637" lon="5.98415">
        <ele>243</ele>
        <time>2010-01-01T00:07:58Z</time>
      </trkpt>
      <trkpt lat="47.67642" lon="5.98413">
        <ele>243</ele>
        <time>2010-01-01T00:08:00Z</time>
      </trkpt>
      <trkpt lat="47.67646" lon="5.98411">
        <ele>243</ele>
        <time>2010-01-01T00:08:02Z</time>
      </trkpt>
      <trkpt lat="47.6765" lon="5.98409">
        <ele>244</ele>
        <time>2010-01-01T00:08:04Z</time>
      </trkpt>
      <trkpt lat="47.67655" lon="5.98407">
        <ele>244</ele>
        <time>2010-01-01T00:08:05Z</time>
      </trkpt>
      <trkpt lat="47.67659" lon="5.98406">
        <ele>245</ele>
        <time>2010-01-01T00:08:07Z</time>
      </trkpt>
      <trkpt lat="47.67663" lon="5.98404">
        <ele>246</ele>
        <time>2010-01-01T00:08:09Z</time>
      </trkpt>
      <trkpt lat="47.67666" lon="5.98403">
        <ele>246</ele>
        <time>2010-01-01T00:08:10Z</time>
      </trkpt>
      <trkpt lat="47.6767" lon="5.98401">
        <ele>246</ele>
        <time>2010-01-01T00:08:12Z</time>
      </trkpt>
      <trkpt lat="47.67674" lon="5.984">
        <ele>246</ele>
        <time>2010-01-01T00:08:13Z</time>
      </trkpt>
      <trkpt lat="47.67677" lon="5.98398">
        <ele>246</ele>
        <time>2010-01-01T00:08:15Z</time>
      </trkpt>
      <trkpt lat="47.6768" lon="5.98397">
        <ele>246</ele>
        <time>2010-01-01T00:08:16Z</time>
      </trkpt>
      <trkpt lat="47.67683" lon="5.98396">
        <ele>246</ele>
        <time>2010-01-01T00:08:17Z</time>
      </trkpt>
      <trkpt lat="47.67687" lon="5.98394">
        <ele>246</ele>
        <time>2010-01-01T00:08:19Z</time>
      </trkpt>
      <trkpt lat="47.6769" lon="5.98393">
        <ele>246</ele>
        <time>2010-01-01T00:08:20Z</time>
      </trkpt>
      <trkpt lat="47.67694" lon="5.98392">
        <ele>247</ele>
        <time>2010-01-01T00:08:22Z</time>
      </trkpt>
      <trkpt lat="47.67697" lon="5.98391">
        <ele>247</ele>
        <time>2010-01-01T00:08:23Z</time>
      </trkpt>
      <trkpt lat="47.67701" lon="5.9839">
        <ele>248</ele>
        <time>2010-01-01T00:08:24Z</time>
      </trkpt>
      <trkpt lat="47.67704" lon="5.98389">
        <ele>248</ele>
        <time>2010-01-01T00:08:26Z</time>
      </trkpt>
      <trkpt lat="47.67707" lon="5.98388">
        <ele>248</ele>
        <time>2010-01-01T00:08:27Z</time>
      </trkpt>
      <trkpt lat="47.6771" lon="5.98387">
        <ele>248</ele>
        <time>2010-01-01T00:08:28Z</time>
      </trkpt>
      <trkpt lat="47.67713" lon="5.98386">
        <ele>248</ele>
        <time>2010-01-01T00:08:29Z</time>
      </trkpt>
      <trkpt lat="47.67716" lon="5.98386">
        <ele>248</ele>
        <time>2010-01-01T00:08:31Z</time>
      </trkpt>
      <trkpt lat="47.67718" lon="5.98386">
        <ele>248</ele>
        <time>2010-01-01T00:08:32Z</time>
      </trkpt>
      <trkpt lat="47.67721" lon="5.98385">
        <ele>248</ele>
        <time>2010-01-01T00:08:33Z</time>
      </trkpt>
      <trkpt lat="47.67724" lon="5.98385">
        <ele>248</ele>
        <time>2010-01-01T00:08:34Z</time>
      </trkpt>
      <trkpt lat="47.67727" lon="5.98385">
        <ele>248</ele>
        <time>2010-01-01T00:08:35Z</time>
      </trkpt>
      <trkpt lat="47.6773" lon="5.98385">
        <ele>249</ele>
        <time>2010-01-01T00:08:36Z</time>
      </trkpt>
      <trkpt lat="47.67733" lon="5.98385">
        <ele>249</ele>
        <time>2010-01-01T00:08:37Z</time>
      </trkpt>
      <trkpt lat="47.67736" lon="5.98385">
        <ele>250</ele>
        <time>2010-01-01T00:08:39Z</time>
      </trkpt>
      <trkpt lat="47.67739" lon="5.98385">
        <ele>250</ele>
        <time>2010-01-01T00:08:40Z</time>
      </trkpt>
      <trkpt lat="47.67742" lon="5.98384">
        <ele>250</ele>
        <time>2010-01-01T00:08:41Z</time>
      </trkpt>
      <trkpt lat="47.67745" lon="5.98385">
        <ele>250</ele>
        <time>2010-01-01T00:08:42Z</time>
      </trkpt>
      <trkpt lat="47.67749" lon="5.98385">
        <ele>250</ele>
        <time>2010-01-01T00:08:44Z</time>
      </trkpt>
      <trkpt lat="47.67752" lon="5.98385">
        <ele>250</ele>
        <time>2010-01-01T00:08:45Z</time>
      </trkpt>
      <trkpt lat="47.67756" lon="5.98386">
        <ele>250</ele>
        <time>2010-01-01T00:08:47Z</time>
      </trkpt>
      <trkpt lat="47.6776" lon="5.98385">
        <ele>251</ele>
        <time>2010-01-01T00:08:48Z</time>
      </trkpt>
      <trkpt lat="47.67763" lon="5.98386">
        <ele>251</ele>
        <time>2010-01-01T00:08:50Z</time>
      </trkpt>
      <trkpt lat="47.67767" lon="5.98386">
        <ele>251</ele>
        <time>2010-01-01T00:08:51Z</time>
      </trkpt>
      <trkpt lat="47.6777" lon="5.98387">
        <ele>252</ele>
        <time>2010-01-01T00:08:52Z</time>
      </trkpt>
      <trkpt lat="47.67774" lon="5.98387">
        <ele>252</ele>
        <time>2010-01-01T00:08:54Z</time>
      </trkpt>
      <trkpt lat="47.67777" lon="5.98388">
        <ele>252</ele>
        <time>2010-01-01T00:08:55Z</time>
      </trkpt>
      <trkpt lat="47.6778" lon="5.98389">
        <ele>252</ele>
        <time>2010-01-01T00:08:57Z</time>
      </trkpt>
      <trkpt lat="47.67784" lon="5.9839">
        <ele>252</ele>
        <time>2010-01-01T00:08:58Z</time>
      </trkpt>
      <trkpt lat="47.67787" lon="5.98392">
        <ele>252</ele>
        <time>2010-01-01T00:08:59Z</time>
      </trkpt>
      <trkpt lat="47.6779" lon="5.98393">
        <ele>253</ele>
        <time>2010-01-01T00:09:00Z</time>
      </trkpt>
      <trkpt lat="47.67793" lon="5.98395">
        <ele>253</ele>
        <time>2010-01-01T00:09:02Z</time>
      </trkpt>
      <trkpt lat="47.67796" lon="5.98396">
        <ele>254</ele>
        <time>2010-01-01T00:09:03Z</time>
      </trkpt>
      <trkpt lat="47.67799" lon="5.98398">
        <ele>254</ele>
        <time>2010-01-01T00:09:04Z</time>
      </trkpt>
      <trkpt lat="47.67802" lon="5.98399">
        <ele>254</ele>
        <time>2010-01-01T00:09:06Z</time>
      </trkpt>
      <trkpt lat="47.67805" lon="5.984">
        <ele>254</ele>
        <time>2010-01-01T00:09:07Z</time>
      </trkpt>
      <trkpt lat="47.67809" lon="5.984">
        <ele>254</ele>
        <time>2010-01-01T00:09:08Z</time>
      </trkpt>
      <trkpt lat="47.67812" lon="5.98401">
        <ele>254</ele>
        <time>2010-01-01T00:09:10Z</time>
      </trkpt>
      <trkpt lat="47.67815" lon="5.98401">
        <ele>254</ele>
        <time>2010-01-01T00:09:11Z</time>
      </trkpt>
      <trkpt lat="47.67818" lon="5.98401">
        <ele>254</ele>
        <time>2010-01-01T00:09:12Z</time>
      </trkpt>
      <trkpt lat="47.67822" lon="5.98402">
        <ele>254</ele>
        <time>2010-01-01T00:09:14Z</time>
      </trkpt>
      <trkpt lat="47.67825" lon="5.98402">
        <ele>255</ele>
        <time>2010-01-01T00:09:15Z</time>
      </trkpt>
      <trkpt lat="47.67829" lon="5.98402">
        <ele>255</ele>
        <time>2010-01-01T00:09:16Z</time>
      </trkpt>
      <trkpt lat="47.67832" lon="5.98402">
        <ele>256</ele>
        <time>2010-01-01T00:09:18Z</time>
      </trkpt>
      <trkpt lat="47.67835" lon="5.98402">
        <ele>256</ele>
        <time>2010-01-01T00:09:19Z</time>
      </trkpt>
      <trkpt lat="47.67839" lon="5.98401">
        <ele>256</ele>
        <time>2010-01-01T00:09:20Z</time>
      </trkpt>
      <trkpt lat="47.67842" lon="5.98401">
        <ele>256</ele>
        <time>2010-01-01T00:09:22Z</time>
      </trkpt>
      <trkpt lat="47.67845" lon="5.98401">
        <ele>256</ele>
        <time>2010-01-01T00:09:23Z</time>
      </trkpt>
      <trkpt lat="47.67849" lon="5.98401">
        <ele>256</ele>
        <time>2010-01-01T00:09:24Z</time>
      </trkpt>
      <trkpt lat="47.67852" lon="5.98402">
        <ele>256</ele>
        <time>2010-01-01T00:09:26Z</time>
      </trkpt>
      <trkpt lat="47.67855" lon="5.98402">
        <ele>256</ele>
        <time>2010-01-01T00:09:27Z</time>
      </trkpt>
      <trkpt lat="47.67858" lon="5.98403">
        <ele>257</ele>
        <time>2010-01-01T00:09:28Z</time>
      </trkpt>
      <trkpt lat="47.67862" lon="5.98403">
        <ele>257</ele>
        <time>2010-01-01T00:09:30Z</time>
      </trkpt>
      <trkpt lat="47.67865" lon="5.98404">
        <ele>257</ele>
        <time>2010-01-01T00:09:31Z</time>
      </trkpt>
      <trkpt lat="47.67868" lon="5.98403">
        <ele>258</ele>
        <time>2010-01-01T00:09:32Z</time>
      </trkpt>
      <trkpt lat="47.67872" lon="5.98403">
        <ele>258</ele>
        <time>2010-01-01T00:09:34Z</time>
      </trkpt>
      <trkpt lat="47.67875" lon="5.98403">
        <ele>258</ele>
        <time>2010-01-01T00:09:35Z</time>
      </trkpt>
      <trkpt lat="47.67879" lon="5.98403">
        <ele>258</ele>
        <time>2010-01-01T00:09:36Z</time>
      </trkpt>
      <trkpt lat="47.67882" lon="5.98404">
        <ele>258</ele>
        <time>2010-01-01T00:09:38Z</time>
      </trkpt>
      <trkpt lat="47.67886" lon="5.98404">
        <ele>258</ele>
        <time>2010-01-01T00:09:39Z</time>
      </trkpt>
      <trkpt lat="47.67889" lon="5.98404">
        <ele>258</ele>
        <time>2010-01-01T00:09:41Z</time>
      </trkpt>
      <trkpt lat="47.67893" lon="5.98405">
        <ele>258</ele>
        <time>2010-01-01T00:09:42Z</time>
      </trkpt>
      <trkpt lat="47.67896" lon="5.98405">
        <ele>258</ele>
        <time>2010-01-01T00:09:43Z</time>
      </trkpt>
      <trkpt lat="47.679" lon="5.98406">
        <ele>258</ele>
        <time>2010-01-01T00:09:45Z</time>
      </trkpt>
      <trkpt lat="47.67903" lon="5.98407">
        <ele>258</ele>
        <time>2010-01-01T00:09:46Z</time>
      </trkpt>
      <trkpt lat="47.67907" lon="5.98408">
        <ele>258</ele>
        <time>2010-01-01T00:09:48Z</time>
      </trkpt>
      <trkpt lat="47.6791" lon="5.98409">
        <ele>258</ele>
        <time>2010-01-01T00:09:49Z</time>
      </trkpt>
      <trkpt lat="47.67914" lon="5.98409">
        <ele>259</ele>
        <time>2010-01-01T00:09:51Z</time>
      </trkpt>
      <trkpt lat="47.67917" lon="5.9841">
        <ele>259</ele>
        <time>2010-01-01T00:09:52Z</time>
      </trkpt>
      <trkpt lat="47.67921" lon="5.98412">
        <ele>259</ele>
        <time>2010-01-01T00:09:54Z</time>
      </trkpt>
      <trkpt lat="47.67924" lon="5.98414">
        <ele>260</ele>
        <time>2010-01-01T00:09:55Z</time>
      </trkpt>
      <trkpt lat="47.67928" lon="5.98416">
        <ele>260</ele>
        <time>2010-01-01T00:09:57Z</time>
      </trkpt>
      <trkpt lat="47.67931" lon="5.98418">
        <ele>260</ele>
        <time>2010-01-01T00:09:58Z</time>
      </trkpt>
      <trkpt lat="47.67935" lon="5.9842">
        <ele>260</ele>
        <time>2010-01-01T00:10:00Z</time>
      </trkpt>
      <trkpt lat="47.67938" lon="5.98423">
        <ele>260</ele>
        <time>2010-01-01T00:10:01Z</time>
      </trkpt>
      <trkpt lat="47.67942" lon="5.98425">
        <ele>260</ele>
        <time>2010-01-01T00:10:03Z</time>
      </trkpt>
      <trkpt lat="47.67945" lon="5.98427">
        <ele>260</ele>
        <time>2010-01-01T00:10:04Z</time>
      </trkpt>
      <trkpt lat="47.67949" lon="5.98429">
        <ele>260</ele>
        <time>2010-01-01T00:10:06Z</time>
      </trkpt>
      <trkpt lat="47.67952" lon="5.98432">
        <ele>260</ele>
        <time>2010-01-01T00:10:07Z</time>
      </trkpt>
      <trkpt lat="47.67956" lon="5.98435">
        <ele>260</ele>
        <time>2010-01-01T00:10:09Z</time>
      </trkpt>
      <trkpt lat="47.67959" lon="5.98437">
        <ele>260</ele>
        <time>2010-01-01T00:10:10Z</time>
      </trkpt>
      <trkpt lat="47.67963" lon="5.9844">
        <ele>260</ele>
        <time>2010-01-01T00:10:12Z</time>
      </trkpt>
      <trkpt lat="47.67967" lon="5.98443">
        <ele>260</ele>
        <time>2010-01-01T00:10:14Z</time>
      </trkpt>
      <trkpt lat="47.6797" lon="5.98445">
        <ele>260</ele>
        <time>2010-01-01T00:10:15Z</time>
      </trkpt>
      <trkpt lat="47.67974" lon="5.98448">
        <ele>260</ele>
        <time>2010-01-01T00:10:17Z</time>
      </trkpt>
      <trkpt lat="47.67978" lon="5.98451">
        <ele>260</ele>
        <time>2010-01-01T00:10:19Z</time>
      </trkpt>
      <trkpt lat="47.67981" lon="5.98453">
        <ele>260</ele>
        <time>2010-01-01T00:10:20Z</time>
      </trkpt>
      <trkpt lat="47.67985" lon="5.98456">
        <ele>260</ele>
        <time>2010-01-01T00:10:22Z</time>
      </trkpt>
      <trkpt lat="47.67989" lon="5.98459">
        <ele>260</ele>
        <time>2010-01-01T00:10:24Z</time>
      </trkpt>
      <trkpt lat="47.67993" lon="5.98462">
        <ele>260</ele>
        <time>2010-01-01T00:10:25Z</time>
      </trkpt>
      <trkpt lat="47.67997" lon="5.98465">
        <ele>260</ele>
        <time>2010-01-01T00:10:27Z</time>
      </trkpt>
      <trkpt lat="47.68001" lon="5.98467">
        <ele>260</ele>
        <time>2010-01-01T00:10:29Z</time>
      </trkpt>
      <trkpt lat="47.68005" lon="5.9847">
        <ele>260</ele>
        <time>2010-01-01T00:10:31Z</time>
      </trkpt>
      <trkpt lat="47.68009" lon="5.98473">
        <ele>260</ele>
        <time>2010-01-01T00:10:32Z</time>
      </trkpt>
      <trkpt lat="47.68013" lon="5.98476">
        <ele>260</ele>
        <time>2010-01-01T00:10:34Z</time>
      </trkpt>
      <trkpt lat="47.68016" lon="5.98479">
        <ele>260</ele>
        <time>2010-01-01T00:10:36Z</time>
      </trkpt>
      <trkpt lat="47.6802" lon="5.98482">
        <ele>260</ele>
        <time>2010-01-01T00:10:38Z</time>
      </trkpt>
      <trkpt lat="47.68024" lon="5.98484">
        <ele>260</ele>
        <time>2010-01-01T00:10:39Z</time>
      </trkpt>
      <trkpt lat="47.68028" lon="5.98487">
        <ele>260</ele>
        <time>2010-01-01T00:10:41Z</time>
      </trkpt>
      <trkpt lat="47.68032" lon="5.9849">
        <ele>260</ele>
        <time>2010-01-01T00:10:43Z</time>
      </trkpt>
      <trkpt lat="47.68036" lon="5.98493">
        <ele>260</ele>
        <time>2010-01-01T00:10:45Z</time>
      </trkpt>
      <trkpt lat="47.68041" lon="5.98495">
        <ele>260</ele>
        <time>2010-01-01T00:10:47Z</time>
      </trkpt>
      <trkpt lat="47.68045" lon="5.98498">
        <ele>260</ele>
        <time>2010-01-01T00:10:48Z</time>
      </trkpt>
      <trkpt lat="47.68049" lon="5.98501">
        <ele>260</ele>
        <time>2010-01-01T00:10:50Z</time>
      </trkpt>
      <trkpt lat="47.68053" lon="5.98504">
        <ele>260</ele>
        <time>2010-01-01T00:10:52Z</time>
      </trkpt>
      <trkpt lat="47.68057" lon="5.98507">
        <ele>260</ele>
        <time>2010-01-01T00:10:54Z</time>
      </trkpt>
      <trkpt lat="47.68061" lon="5.9851">
        <ele>261</ele>
        <time>2010-01-01T00:10:56Z</time>
      </trkpt>
      <trkpt lat="47.68065" lon="5.98512">
        <ele>261</ele>
        <time>2010-01-01T00:10:57Z</time>
      </trkpt>
      <trkpt lat="47.6807" lon="5.98515">
        <ele>261</ele>
        <time>2010-01-01T00:10:59Z</time>
      </trkpt>
      <trkpt lat="47.68074" lon="5.98518">
        <ele>262</ele>
        <time>2010-01-01T00:11:01Z</time>
      </trkpt>
      <trkpt lat="47.68078" lon="5.9852">
        <ele>262</ele>
        <time>2010-01-01T00:11:03Z</time>
      </trkpt>
      <trkpt lat="47.68082" lon="5.98523">
        <ele>262</ele>
        <time>2010-01-01T00:11:05Z</time>
      </trkpt>
      <trkpt lat="47.68086" lon="5.98525">
        <ele>262</ele>
        <time>2010-01-01T00:11:06Z</time>
      </trkpt>
      <trkpt lat="47.68089" lon="5.98528">
        <ele>262</ele>
        <time>2010-01-01T00:11:08Z</time>
      </trkpt>
      <trkpt lat="47.68093" lon="5.9853">
        <ele>262</ele>
        <time>2010-01-01T00:11:10Z</time>
      </trkpt>
      <trkpt lat="47.68097" lon="5.98533">
        <ele>262</ele>
        <time>2010-01-01T00:11:11Z</time>
      </trkpt>
      <trkpt lat="47.68101" lon="5.98535">
        <ele>262</ele>
        <time>2010-01-01T00:11:13Z</time>
      </trkpt>
      <trkpt lat="47.68105" lon="5.98537">
        <ele>262</ele>
        <time>2010-01-01T00:11:15Z</time>
      </trkpt>
      <trkpt lat="47.68109" lon="5.9854">
        <ele>262</ele>
        <time>2010-01-01T00:11:16Z</time>
      </trkpt>
      <trkpt lat="47.68113" lon="5.98542">
        <ele>262</ele>
        <time>2010-01-01T00:11:18Z</time>
      </trkpt>
      <trkpt lat="47.68117" lon="5.98544">
        <ele>262</ele>
        <time>2010-01-01T00:11:20Z</time>
      </trkpt>
      <trkpt lat="47.68121" lon="5.98547">
        <ele>262</ele>
        <time>2010-01-01T00:11:21Z</time>
      </trkpt>
      <trkpt lat="47.68124" lon="5.98549">
        <ele>263</ele>
        <time>2010-01-01T00:11:23Z</time>
      </trkpt>
      <trkpt lat="47.68128" lon="5.98551">
        <ele>263</ele>
        <time>2010-01-01T00:11:25Z</time>
      </trkpt>
      <trkpt lat="47.68132" lon="5.98553">
        <ele>264</ele>
        <time>2010-01-01T00:11:26Z</time>
      </trkpt>
      <trkpt lat="47.68136" lon="5.98556">
        <ele>264</ele>
        <time>2010-01-01T00:11:28Z</time>
      </trkpt>
      <trkpt lat="47.6814" lon="5.98558">
        <ele>264</ele>
        <time>2010-01-01T00:11:30Z</time>
      </trkpt>
      <trkpt lat="47.68144" lon="5.9856">
        <ele>264</ele>
        <time>2010-01-01T00:11:32Z</time>
      </trkpt>
      <trkpt lat="47.68148" lon="5.98562">
        <ele>264</ele>
        <time>2010-01-01T00:11:33Z</time>
      </trkpt>
      <trkpt lat="47.68152" lon="5.98564">
        <ele>264</ele>
        <time>2010-01-01T00:11:35Z</time>
      </trkpt>
      <trkpt lat="47.68157" lon="5.98566">
        <ele>264</ele>
        <time>2010-01-01T00:11:37Z</time>
      </trkpt>
      <trkpt lat="47.68161" lon="5.98569">
        <ele>264</ele>
        <time>2010-01-01T00:11:38Z</time>
      </trkpt>
      <trkpt lat="47.68164" lon="5.98571">
        <ele>264</ele>
        <time>2010-01-01T00:11:40Z</time>
      </trkpt>
      <trkpt lat="47.68168" lon="5.98573">
        <ele>264</ele>
        <time>2010-01-01T00:11:42Z</time>
      </trkpt>
      <trkpt lat="47.68172" lon="5.98575">
        <ele>264</ele>
        <time>2010-01-01T00:11:43Z</time>
      </trkpt>
      <trkpt lat="47.68176" lon="5.98577">
        <ele>264</ele>
        <time>2010-01-01T00:11:45Z</time>
      </trkpt>
      <trkpt lat="47.6818" lon="5.98579">
        <ele>264</ele>
        <time>2010-01-01T00:11:47Z</time>
      </trkpt>
      <trkpt lat="47.68184" lon="5.98582">
        <ele>264</ele>
        <time>2010-01-01T00:11:48Z</time>
      </trkpt>
      <trkpt lat="47.68187" lon="5.98584">
        <ele>265</ele>
        <time>2010-01-01T00:11:50Z</time>
      </trkpt>
      <trkpt lat="47.68191" lon="5.98586">
        <ele>265</ele>
        <time>2010-01-01T00:11:52Z</time>
      </trkpt>
      <trkpt lat="47.68195" lon="5.98588">
        <ele>266</ele>
        <time>2010-01-01T00:11:53Z</time>
      </trkpt>
      <trkpt lat="47.68199" lon="5.9859">
        <ele>266</ele>
        <time>2010-01-01T00:11:55Z</time>
      </trkpt>
      <trkpt lat="47.68203" lon="5.98593">
        <ele>266</ele>
        <time>2010-01-01T00:11:57Z</time>
      </trkpt>
      <trkpt lat="47.68207" lon="5.98595">
        <ele>266</ele>
        <time>2010-01-01T00:11:58Z</time>
      </trkpt>
      <trkpt lat="47.68211" lon="5.98597">
        <ele>266</ele>
        <time>2010-01-01T00:12:00Z</time>
      </trkpt>
      <trkpt lat="47.68215" lon="5.986">
        <ele>266</ele>
        <time>2010-01-01T00:12:02Z</time>
      </trkpt>
      <trkpt lat="47.68219" lon="5.98602">
        <ele>266</ele>
        <time>2010-01-01T00:12:03Z</time>
      </trkpt>
      <trkpt lat="47.68223" lon="5.98605">
        <ele>266</ele>
        <time>2010-01-01T00:12:05Z</time>
      </trkpt>
      <trkpt lat="47.68226" lon="5.98607">
        <ele>266</ele>
        <time>2010-01-01T00:12:07Z</time>
      </trkpt>
      <trkpt lat="47.6823" lon="5.98609">
        <ele>266</ele>
        <time>2010-01-01T00:12:08Z</time>
      </trkpt>
      <trkpt lat="47.68234" lon="5.98611">
        <ele>266</ele>
        <time>2010-01-01T00:12:10Z</time>
      </trkpt>
      <trkpt lat="47.68238" lon="5.98614">
        <ele>266</ele>
        <time>2010-01-01T00:12:12Z</time>
      </trkpt>
      <trkpt lat="47.68242" lon="5.98616">
        <ele>266</ele>
        <time>2010-01-01T00:12:13Z</time>
      </trkpt>
      <trkpt lat="47.68246" lon="5.98618">
        <ele>267</ele>
        <time>2010-01-01T00:12:15Z</time>
      </trkpt>
      <trkpt lat="47.6825" lon="5.9862">
        <ele>267</ele>
        <time>2010-01-01T00:12:17Z</time>
      </trkpt>
      <trkpt lat="47.68254" lon="5.98623">
        <ele>268</ele>
        <time>2010-01-01T00:12:19Z</time>
      </trkpt>
      <trkpt lat="47.68258" lon="5.98625">
        <ele>268</ele>
        <time>2010-01-01T00:12:20Z</time>
      </trkpt>
      <trkpt lat="47.68262" lon="5.98627">
        <ele>268</ele>
        <time>2010-01-01T00:12:22Z</time>
      </trkpt>
      <trkpt lat="47.68266" lon="5.98629">
        <ele>268</ele>
        <time>2010-01-01T00:12:24Z</time>
      </trkpt>
      <trkpt lat="47.68269" lon="5.98631">
        <ele>268</ele>
        <time>2010-01-01T00:12:25Z</time>
      </trkpt>
      <trkpt lat="47.68273" lon="5.98633">
        <ele>268</ele>
        <time>2010-01-01T00:12:27Z</time>
      </trkpt>
      <trkpt lat="47.68277" lon="5.98634">
        <ele>268</ele>
        <time>2010-01-01T00:12:28Z</time>
      </trkpt>
      <trkpt lat="47.68281" lon="5.98637">
        <ele>268</ele>
        <time>2010-01-01T00:12:30Z</time>
      </trkpt>
      <trkpt lat="47.68284" lon="5.98638">
        <ele>268</ele>
        <time>2010-01-01T00:12:31Z</time>
      </trkpt>
      <trkpt lat="47.68288" lon="5.9864">
        <ele>268</ele>
        <time>2010-01-01T00:12:33Z</time>
      </trkpt>
      <trkpt lat="47.68292" lon="5.98642">
        <ele>269</ele>
        <time>2010-01-01T00:12:35Z</time>
      </trkpt>
      <trkpt lat="47.68296" lon="5.98644">
        <ele>269</ele>
        <time>2010-01-01T00:12:36Z</time>
      </trkpt>
      <trkpt lat="47.683" lon="5.98646">
        <ele>270</ele>
        <time>2010-01-01T00:12:38Z</time>
      </trkpt>
      <trkpt lat="47.68303" lon="5.98648">
        <ele>270</ele>
        <time>2010-01-01T00:12:39Z</time>
      </trkpt>
      <trkpt lat="47.68307" lon="5.98649">
        <ele>271</ele>
        <time>2010-01-01T00:12:41Z</time>
      </trkpt>
      <trkpt lat="47.68311" lon="5.98651">
        <ele>271</ele>
        <time>2010-01-01T00:12:43Z</time>
      </trkpt>
      <trkpt lat="47.68315" lon="5.98653">
        <ele>271</ele>
        <time>2010-01-01T00:12:44Z</time>
      </trkpt>
      <trkpt lat="47.68319" lon="5.98654">
        <ele>271</ele>
        <time>2010-01-01T00:12:46Z</time>
      </trkpt>
      <trkpt lat="47.68323" lon="5.98656">
        <ele>271</ele>
        <time>2010-01-01T00:12:48Z</time>
      </trkpt>
      <trkpt lat="47.68327" lon="5.98657">
        <ele>271</ele>
        <time>2010-01-01T00:12:49Z</time>
      </trkpt>
      <trkpt lat="47.68331" lon="5.9866">
        <ele>271</ele>
        <time>2010-01-01T00:12:51Z</time>
      </trkpt>
      <trkpt lat="47.68335" lon="5.98662">
        <ele>271</ele>
        <time>2010-01-01T00:12:53Z</time>
      </trkpt>
      <trkpt lat="47.68339" lon="5.98664">
        <ele>271</ele>
        <time>2010-01-01T00:12:55Z</time>
      </trkpt>
      <trkpt lat="47.68343" lon="5.98666">
        <ele>271</ele>
        <time>2010-01-01T00:12:56Z</time>
      </trkpt>
      <trkpt lat="47.68347" lon="5.98667">
        <ele>271</ele>
        <time>2010-01-01T00:12:58Z</time>
      </trkpt>
      <trkpt lat="47.68351" lon="5.98669">
        <ele>272</ele>
        <time>2010-01-01T00:13:00Z</time>
      </trkpt>
      <trkpt lat="47.68355" lon="5.98671">
        <ele>272</ele>
        <time>2010-01-01T00:13:01Z</time>
      </trkpt>
      <trkpt lat="47.6836" lon="5.98673">
        <ele>273</ele>
        <time>2010-01-01T00:13:03Z</time>
      </trkpt>
      <trkpt lat="47.68364" lon="5.98675">
        <ele>273</ele>
        <time>2010-01-01T00:13:05Z</time>
      </trkpt>
      <trkpt lat="47.68368" lon="5.98677">
        <ele>273</ele>
        <time>2010-01-01T00:13:07Z</time>
      </trkpt>
      <trkpt lat="47.68372" lon="5.98678">
        <ele>273</ele>
        <time>2010-01-01T00:13:08Z</time>
      </trkpt>
      <trkpt lat="47.68376" lon="5.9868">
        <ele>273</ele>
        <time>2010-01-01T00:13:10Z</time>
      </trkpt>
      <trkpt lat="47.6838" lon="5.98682">
        <ele>273</ele>
        <time>2010-01-01T00:13:12Z</time>
      </trkpt>
      <trkpt lat="47.68384" lon="5.98684">
        <ele>273</ele>
        <time>2010-01-01T00:13:13Z</time>
      </trkpt>
      <trkpt lat="47.68388" lon="5.98686">
        <ele>273</ele>
        <time>2010-01-01T00:13:15Z</time>
      </trkpt>
      <trkpt lat="47.68392" lon="5.98688">
        <ele>273</ele>
        <time>2010-01-01T00:13:16Z</time>
      </trkpt>
      <trkpt lat="47.68395" lon="5.9869">
        <ele>273</ele>
        <time>2010-01-01T00:13:18Z</time>
      </trkpt>
      <trkpt lat="47.68399" lon="5.98691">
        <ele>273</ele>
        <time>2010-01-01T00:13:20Z</time>
      </trkpt>
      <trkpt lat="47.68403" lon="5.98693">
        <ele>273</ele>
        <time>2010-01-01T00:13:21Z</time>
      </trkpt>
      <trkpt lat="47.68407" lon="5.98695">
        <ele>273</ele>
        <time>2010-01-01T00:13:23Z</time>
      </trkpt>
      <trkpt lat="47.68411" lon="5.98697">
        <ele>273</ele>
        <time>2010-01-01T00:13:25Z</time>
      </trkpt>
      <trkpt lat="47.68415" lon="5.98698">
        <ele>274</ele>
        <time>2010-01-01T00:13:26Z</time>
      </trkpt>
      <trkpt lat="47.68419" lon="5.98701">
        <ele>274</ele>
        <time>2010-01-01T00:13:28Z</time>
      </trkpt>
      <trkpt lat="47.68422" lon="5.98703">
        <ele>275</ele>
        <time>2010-01-01T00:13:29Z</time>
      </trkpt>
      <trkpt lat="47.68426" lon="5.98705">
        <ele>275</ele>
        <time>2010-01-01T00:13:31Z</time>
      </trkpt>
      <trkpt lat="47.6843" lon="5.98707">
        <ele>275</ele>
        <time>2010-01-01T00:13:33Z</time>
      </trkpt>
      <trkpt lat="47.68434" lon="5.98709">
        <ele>275</ele>
        <time>2010-01-01T00:13:34Z</time>
      </trkpt>
      <trkpt lat="47.68437" lon="5.98711">
        <ele>275</ele>
        <time>2010-01-01T00:13:36Z</time>
      </trkpt>
      <trkpt lat="47.68441" lon="5.98714">
        <ele>275</ele>
        <time>2010-01-01T00:13:37Z</time>
      </trkpt>
      <trkpt lat="47.68444" lon="5.98716">
        <ele>275</ele>
        <time>2010-01-01T00:13:39Z</time>
      </trkpt>
      <trkpt lat="47.68448" lon="5.98719">
        <ele>275</ele>
        <time>2010-01-01T00:13:41Z</time>
      </trkpt>
      <trkpt lat="47.68452" lon="5.98722">
        <ele>275</ele>
        <time>2010-01-01T00:13:42Z</time>
      </trkpt>
      <trkpt lat="47.68456" lon="5.98725">
        <ele>275</ele>
        <time>2010-01-01T00:13:44Z</time>
      </trkpt>
      <trkpt lat="47.6846" lon="5.98728">
        <ele>275</ele>
        <time>2010-01-01T00:13:46Z</time>
      </trkpt>
      <trkpt lat="47.68463" lon="5.98732">
        <ele>275</ele>
        <time>2010-01-01T00:13:48Z</time>
      </trkpt>
      <trkpt lat="47.68467" lon="5.98735">
        <ele>275</ele>
        <time>2010-01-01T00:13:49Z</time>
      </trkpt>
      <trkpt lat="47.68471" lon="5.98738">
        <ele>276</ele>
        <time>2010-01-01T00:13:51Z</time>
      </trkpt>
      <trkpt lat="47.68474" lon="5.98741">
        <ele>277</ele>
        <time>2010-01-01T00:13:53Z</time>
      </trkpt>
      <trkpt lat="47.68478" lon="5.98745">
        <ele>277</ele>
        <time>2010-01-01T00:13:54Z</time>
      </trkpt>
      <trkpt lat="47.68481" lon="5.98748">
        <ele>277</ele>
        <time>2010-01-01T00:13:56Z</time>
      </trkpt>
      <trkpt lat="47.68485" lon="5.98752">
        <ele>277</ele>
        <time>2010-01-01T00:13:58Z</time>
      </trkpt>
      <trkpt lat="47.68489" lon="5.98756">
        <ele>277</ele>
        <time>2010-01-01T00:14:00Z</time>
      </trkpt>
      <trkpt lat="47.68493" lon="5.98759">
        <ele>277</ele>
        <time>2010-01-01T00:14:01Z</time>
      </trkpt>
      <trkpt lat="47.68496" lon="5.98763">
        <ele>277</ele>
        <time>2010-01-01T00:14:03Z</time>
      </trkpt>
      <trkpt lat="47.685" lon="5.98766">
        <ele>277</ele>
        <time>2010-01-01T00:14:05Z</time>
      </trkpt>
      <trkpt lat="47.68503" lon="5.9877">
        <ele>277</ele>
        <time>2010-01-01T00:14:07Z</time>
      </trkpt>
      <trkpt lat="47.68506" lon="5.98774">
        <ele>277</ele>
        <time>2010-01-01T00:14:08Z</time>
      </trkpt>
      <trkpt lat="47.68509" lon="5.98778">
        <ele>277</ele>
        <time>2010-01-01T00:14:10Z</time>
      </trkpt>
      <trkpt lat="47.68513" lon="5.98781">
        <ele>277</ele>
        <time>2010-01-01T00:14:11Z</time>
      </trkpt>
      <trkpt lat="47.68516" lon="5.98784">
        <ele>277</ele>
        <time>2010-01-01T00:14:13Z</time>
      </trkpt>
      <trkpt lat="47.68519" lon="5.98788">
        <ele>277</ele>
        <time>2010-01-01T00:14:15Z</time>
      </trkpt>
      <trkpt lat="47.68523" lon="5.98792">
        <ele>277</ele>
        <time>2010-01-01T00:14:17Z</time>
      </trkpt>
      <trkpt lat="47.68527" lon="5.98795">
        <ele>277</ele>
        <time>2010-01-01T00:14:18Z</time>
      </trkpt>
      <trkpt lat="47.68531" lon="5.98799">
        <ele>277</ele>
        <time>2010-01-01T00:14:20Z</time>
      </trkpt>
      <trkpt lat="47.68535" lon="5.98803">
        <ele>277</ele>
        <time>2010-01-01T00:14:22Z</time>
      </trkpt>
      <trkpt lat="47.68539" lon="5.98807">
        <ele>277</ele>
        <time>2010-01-01T00:14:24Z</time>
      </trkpt>
      <trkpt lat="47.68543" lon="5.98811">
        <ele>277</ele>
        <time>2010-01-01T00:14:26Z</time>
      </trkpt>
      <trkpt lat="47.68546" lon="5.98815">
        <ele>277</ele>
        <time>2010-01-01T00:14:28Z</time>
      </trkpt>
      <trkpt lat="47.68549" lon="5.98819">
        <ele>278</ele>
        <time>2010-01-01T00:14:29Z</time>
      </trkpt>
      <trkpt lat="47.68553" lon="5.98823">
        <ele>278</ele>
        <time>2010-01-01T00:14:31Z</time>
      </trkpt>
      <trkpt lat="47.68556" lon="5.98827">
        <ele>279</ele>
        <time>2010-01-01T00:14:33Z</time>
      </trkpt>
      <trkpt lat="47.6856" lon="5.98831">
        <ele>279</ele>
        <time>2010-01-01T00:14:35Z</time>
      </trkpt>
      <trkpt lat="47.68564" lon="5.98835">
        <ele>279</ele>
        <time>2010-01-01T00:14:37Z</time>
      </trkpt>
      <trkpt lat="47.68568" lon="5.98839">
        <ele>279</ele>
        <time>2010-01-01T00:14:38Z</time>
      </trkpt>
      <trkpt lat="47.68571" lon="5.98843">
        <ele>279</ele>
        <time>2010-01-01T00:14:40Z</time>
      </trkpt>
      <trkpt lat="47.68575" lon="5.98847">
        <ele>279</ele>
        <time>2010-01-01T00:14:42Z</time>
      </trkpt>
      <trkpt lat="47.68579" lon="5.98851">
        <ele>279</ele>
        <time>2010-01-01T00:14:44Z</time>
      </trkpt>
      <trkpt lat="47.68583" lon="5.98854">
        <ele>279</ele>
        <time>2010-01-01T00:14:46Z</time>
      </trkpt>
      <trkpt lat="47.68587" lon="5.98858">
        <ele>279</ele>
        <time>2010-01-01T00:14:48Z</time>
      </trkpt>
      <trkpt lat="47.6859" lon="5.98861">
        <ele>279</ele>
        <time>2010-01-01T00:14:49Z</time>
      </trkpt>
      <trkpt lat="47.68594" lon="5.98865">
        <ele>279</ele>
        <time>2010-01-01T00:14:51Z</time>
      </trkpt>
      <trkpt lat="47.68598" lon="5.98868">
        <ele>279</ele>
        <time>2010-01-01T00:14:53Z</time>
      </trkpt>
      <trkpt lat="47.68601" lon="5.98871">
        <ele>279</ele>
        <time>2010-01-01T00:14:54Z</time>
      </trkpt>
      <trkpt lat="47.68605" lon="5.98874">
        <ele>279</ele>
        <time>2010-01-01T00:14:56Z</time>
      </trkpt>
      <trkpt lat="47.68608" lon="5.98879">
        <ele>279</ele>
        <time>2010-01-01T00:14:58Z</time>
      </trkpt>
      <trkpt lat="47.68612" lon="5.98883">
        <ele>279</ele>
        <time>2010-01-01T00:15:00Z</time>
      </trkpt>
      <trkpt lat="47.68616" lon="5.98887">
        <ele>279</ele>
        <time>2010-01-01T00:15:02Z</time>
      </trkpt>
      <trkpt lat="47.68619" lon="5.98891">
        <ele>279</ele>
        <time>2010-01-01T00:15:03Z</time>
      </trkpt>
      <trkpt lat="47.68623" lon="5.98896">
        <ele>279</ele>
        <time>2010-01-01T00:15:05Z</time>
      </trkpt>
      <trkpt lat="47.68626" lon="5.989">
        <ele>279</ele>
        <time>2010-01-01T00:15:07Z</time>
      </trkpt>
      <trkpt lat="47.6863" lon="5.98904">
        <ele>279</ele>
        <time>2010-01-01T00:15:09Z</time>
      </trkpt>
      <trkpt lat="47.68633" lon="5.98907">
        <ele>279</ele>
        <time>2010-01-01T00:15:10Z</time>
      </trkpt>
      <trkpt lat="47.68636" lon="5.98911">
        <ele>279</ele>
        <time>2010-01-01T00:15:12Z</time>
      </trkpt>
      <trkpt lat="47.68638" lon="5.98915">
        <ele>279</ele>
        <time>2010-01-01T00:15:14Z</time>
      </trkpt>
      <trkpt lat="47.68641" lon="5.9892">
        <ele>279</ele>
        <time>2010-01-01T00:15:15Z</time>
      </trkpt>
      <trkpt lat="47.68645" lon="5.98924">
        <ele>279</ele>
        <time>2010-01-01T00:15:17Z</time>
      </trkpt>
      <trkpt lat="47.68648" lon="5.98928">
        <ele>280</ele>
        <time>2010-01-01T00:15:19Z</time>
      </trkpt>
      <trkpt lat="47.68652" lon="5.98932">
        <ele>280</ele>
        <time>2010-01-01T00:15:21Z</time>
      </trkpt>
      <trkpt lat="47.68655" lon="5.98937">
        <ele>281</ele>
        <time>2010-01-01T00:15:22Z</time>
      </trkpt>
      <trkpt lat="47.68659" lon="5.98941">
        <ele>281</ele>
        <time>2010-01-01T00:15:24Z</time>
      </trkpt>
      <trkpt lat="47.68662" lon="5.98945">
        <ele>281</ele>
        <time>2010-01-01T00:15:26Z</time>
      </trkpt>
      <trkpt lat="47.68665" lon="5.98948">
        <ele>281</ele>
        <time>2010-01-01T00:15:28Z</time>
      </trkpt>
      <trkpt lat="47.68668" lon="5.98952">
        <ele>281</ele>
        <time>2010-01-01T00:15:29Z</time>
      </trkpt>
      <trkpt lat="47.68671" lon="5.98956">
        <ele>281</ele>
        <time>2010-01-01T00:15:31Z</time>
      </trkpt>
      <trkpt lat="47.68674" lon="5.98961">
        <ele>281</ele>
        <time>2010-01-01T00:15:32Z</time>
      </trkpt>
      <trkpt lat="47.68676" lon="5.98965">
        <ele>281</ele>
        <time>2010-01-01T00:15:34Z</time>
      </trkpt>
      <trkpt lat="47.68679" lon="5.9897">
        <ele>281</ele>
        <time>2010-01-01T00:15:35Z</time>
      </trkpt>
      <trkpt lat="47.68681" lon="5.98974">
        <ele>281</ele>
        <time>2010-01-01T00:15:37Z</time>
      </trkpt>
      <trkpt lat="47.68684" lon="5.98978">
        <ele>281</ele>
        <time>2010-01-01T00:15:39Z</time>
      </trkpt>
      <trkpt lat="47.68688" lon="5.98982">
        <ele>281</ele>
        <time>2010-01-01T00:15:40Z</time>
      </trkpt>
      <trkpt lat="47.68691" lon="5.98986">
        <ele>281</ele>
        <time>2010-01-01T00:15:42Z</time>
      </trkpt>
      <trkpt lat="47.68694" lon="5.9899">
        <ele>281</ele>
        <time>2010-01-01T00:15:44Z</time>
      </trkpt>
      <trkpt lat="47.68697" lon="5.98994">
        <ele>281</ele>
        <time>2010-01-01T00:15:45Z</time>
      </trkpt>
      <trkpt lat="47.687" lon="5.98997">
        <ele>281</ele>
        <time>2010-01-01T00:15:47Z</time>
      </trkpt>
      <trkpt lat="47.68714" lon="5.99011">
        <ele>282</ele>
        <time>2010-01-01T00:15:53Z</time>
      </trkpt>
      <trkpt lat="47.68717" lon="5.99015">
        <ele>282</ele>
        <time>2010-01-01T00:15:55Z</time>
      </trkpt>
      <trkpt lat="47.6872" lon="5.99019">
        <ele>283</ele>
        <time>2010-01-01T00:15:57Z</time>
      </trkpt>
      <trkpt lat="47.68723" lon="5.99022">
        <ele>283</ele>
        <time>2010-01-01T00:15:58Z</time>
      </trkpt>
      <trkpt lat="47.68726" lon="5.99025">
        <ele>283</ele>
        <time>2010-01-01T00:16:00Z</time>
      </trkpt>
      <trkpt lat="47.68729" lon="5.99028">
        <ele>283</ele>
        <time>2010-01-01T00:16:01Z</time>
      </trkpt>
      <trkpt lat="47.68732" lon="5.99031">
        <ele>283</ele>
        <time>2010-01-01T00:16:03Z</time>
      </trkpt>
      <trkpt lat="47.68735" lon="5.99035">
        <ele>283</ele>
        <time>2010-01-01T00:16:04Z</time>
      </trkpt>
      <trkpt lat="47.68738" lon="5.99039">
        <ele>283</ele>
        <time>2010-01-01T00:16:06Z</time>
      </trkpt>
      <trkpt lat="47.68741" lon="5.99043">
        <ele>283</ele>
        <time>2010-01-01T00:16:07Z</time>
      </trkpt>
      <trkpt lat="47.68744" lon="5.99046">
        <ele>283</ele>
        <time>2010-01-01T00:16:09Z</time>
      </trkpt>
      <trkpt lat="47.68748" lon="5.99049">
        <ele>283</ele>
        <time>2010-01-01T00:16:10Z</time>
      </trkpt>
      <trkpt lat="47.68751" lon="5.99052">
        <ele>283</ele>
        <time>2010-01-01T00:16:12Z</time>
      </trkpt>
      <trkpt lat="47.68754" lon="5.99055">
        <ele>283</ele>
        <time>2010-01-01T00:16:13Z</time>
      </trkpt>
      <trkpt lat="47.68757" lon="5.99058">
        <ele>283</ele>
        <time>2010-01-01T00:16:15Z</time>
      </trkpt>
      <trkpt lat="47.6876" lon="5.99062">
        <ele>283</ele>
        <time>2010-01-01T00:16:17Z</time>
      </trkpt>
      <trkpt lat="47.68764" lon="5.99065">
        <ele>283</ele>
        <time>2010-01-01T00:16:18Z</time>
      </trkpt>
      <trkpt lat="47.68767" lon="5.99068">
        <ele>283</ele>
        <time>2010-01-01T00:16:20Z</time>
      </trkpt>
      <trkpt lat="47.6877" lon="5.99072">
        <ele>283</ele>
        <time>2010-01-01T00:16:21Z</time>
      </trkpt>
      <trkpt lat="47.68773" lon="5.99075">
        <ele>283</ele>
        <time>2010-01-01T00:16:23Z</time>
      </trkpt>
      <trkpt lat="47.68777" lon="5.99078">
        <ele>284</ele>
        <time>2010-01-01T00:16:24Z</time>
      </trkpt>
      <trkpt lat="47.6878" lon="5.99082">
        <ele>284</ele>
        <time>2010-01-01T00:16:26Z</time>
      </trkpt>
      <trkpt lat="47.68783" lon="5.99085">
        <ele>285</ele>
        <time>2010-01-01T00:16:27Z</time>
      </trkpt>
      <trkpt lat="47.68786" lon="5.99088">
        <ele>285</ele>
        <time>2010-01-01T00:16:29Z</time>
      </trkpt>
      <trkpt lat="47.68789" lon="5.99092">
        <ele>285</ele>
        <time>2010-01-01T00:16:31Z</time>
      </trkpt>
      <trkpt lat="47.68792" lon="5.99095">
        <ele>285</ele>
        <time>2010-01-01T00:16:32Z</time>
      </trkpt>
      <trkpt lat="47.68795" lon="5.99099">
        <ele>285</ele>
        <time>2010-01-01T00:16:34Z</time>
      </trkpt>
      <trkpt lat="47.68798" lon="5.99103">
        <ele>285</ele>
        <time>2010-01-01T00:16:35Z</time>
      </trkpt>
      <trkpt lat="47.68801" lon="5.99107">
        <ele>285</ele>
        <time>2010-01-01T00:16:37Z</time>
      </trkpt>
      <trkpt lat="47.68804" lon="5.9911">
        <ele>285</ele>
        <time>2010-01-01T00:16:39Z</time>
      </trkpt>
      <trkpt lat="47.68807" lon="5.99114">
        <ele>285</ele>
        <time>2010-01-01T00:16:40Z</time>
      </trkpt>
      <trkpt lat="47.6881" lon="5.99117">
        <ele>285</ele>
        <time>2010-01-01T00:16:42Z</time>
      </trkpt>
      <trkpt lat="47.68813" lon="5.99121">
        <ele>285</ele>
        <time>2010-01-01T00:16:43Z</time>
      </trkpt>
      <trkpt lat="47.68816" lon="5.99126">
        <ele>285</ele>
        <time>2010-01-01T00:16:45Z</time>
      </trkpt>
      <trkpt lat="47.68818" lon="5.9913">
        <ele>285</ele>
        <time>2010-01-01T00:16:46Z</time>
      </trkpt>
      <trkpt lat="47.68821" lon="5.99134">
        <ele>285</ele>
        <time>2010-01-01T00:16:48Z</time>
      </trkpt>
      <trkpt lat="47.68823" lon="5.99138">
        <ele>285</ele>
        <time>2010-01-01T00:16:49Z</time>
      </trkpt>
      <trkpt lat="47.68826" lon="5.99143">
        <ele>285</ele>
        <time>2010-01-01T00:16:51Z</time>
      </trkpt>
      <trkpt lat="47.68831" lon="5.99156">
        <ele>285</ele>
        <time>2010-01-01T00:16:55Z</time>
      </trkpt>
      <trkpt lat="47.68833" lon="5.99161">
        <ele>285</ele>
        <time>2010-01-01T00:16:56Z</time>
      </trkpt>
      <trkpt lat="47.68835" lon="5.99165">
        <ele>285</ele>
        <time>2010-01-01T00:16:58Z</time>
      </trkpt>
      <trkpt lat="47.68837" lon="5.99169">
        <ele>285</ele>
        <time>2010-01-01T00:16:59Z</time>
      </trkpt>
      <trkpt lat="47.68839" lon="5.99174">
        <ele>285</ele>
        <time>2010-01-01T00:17:01Z</time>
      </trkpt>
      <trkpt lat="47.68842" lon="5.99177">
        <ele>285</ele>
        <time>2010-01-01T00:17:02Z</time>
      </trkpt>
      <trkpt lat="47.68844" lon="5.99181">
        <ele>285</ele>
        <time>2010-01-01T00:17:04Z</time>
      </trkpt>
      <trkpt lat="47.68847" lon="5.99186">
        <ele>285</ele>
        <time>2010-01-01T00:17:05Z</time>
      </trkpt>
      <trkpt lat="47.68849" lon="5.9919">
        <ele>285</ele>
        <time>2010-01-01T00:17:07Z</time>
      </trkpt>
      <trkpt lat="47.68852" lon="5.99194">
        <ele>286</ele>
        <time>2010-01-01T00:17:08Z</time>
      </trkpt>
      <trkpt lat="47.68855" lon="5.99198">
        <ele>286</ele>
        <time>2010-01-01T00:17:10Z</time>
      </trkpt>
      <trkpt lat="47.68858" lon="5.99202">
        <ele>287</ele>
        <time>2010-01-01T00:17:11Z</time>
      </trkpt>
      <trkpt lat="47.6886" lon="5.99206">
        <ele>287</ele>
        <time>2010-01-01T00:17:13Z</time>
      </trkpt>
      <trkpt lat="47.68863" lon="5.9921">
        <ele>287</ele>
        <time>2010-01-01T00:17:14Z</time>
      </trkpt>
      <trkpt lat="47.68866" lon="5.99213">
        <ele>287</ele>
        <time>2010-01-01T00:17:16Z</time>
      </trkpt>
      <trkpt lat="47.68869" lon="5.99217">
        <ele>287</ele>
        <time>2010-01-01T00:17:17Z</time>
      </trkpt>
      <trkpt lat="47.68872" lon="5.9922">
        <ele>287</ele>
        <time>2010-01-01T00:17:19Z</time>
      </trkpt>
      <trkpt lat="47.68874" lon="5.99224">
        <ele>287</ele>
        <time>2010-01-01T00:17:20Z</time>
      </trkpt>
      <trkpt lat="47.68877" lon="5.99227">
        <ele>287</ele>
        <time>2010-01-01T00:17:22Z</time>
      </trkpt>
      <trkpt lat="47.6888" lon="5.9923">
        <ele>287</ele>
        <time>2010-01-01T00:17:23Z</time>
      </trkpt>
      <trkpt lat="47.68883" lon="5.99233">
        <ele>287</ele>
        <time>2010-01-01T00:17:24Z</time>
      </trkpt>
      <trkpt lat="47.68886" lon="5.99236">
        <ele>287</ele>
        <time>2010-01-01T00:17:26Z</time>
      </trkpt>
      <trkpt lat="47.68889" lon="5.9924">
        <ele>287</ele>
        <time>2010-01-01T00:17:28Z</time>
      </trkpt>
      <trkpt lat="47.68893" lon="5.99243">
        <ele>287</ele>
        <time>2010-01-01T00:17:29Z</time>
      </trkpt>
      <trkpt lat="47.68896" lon="5.99246">
        <ele>287</ele>
        <time>2010-01-01T00:17:31Z</time>
      </trkpt>
      <trkpt lat="47.68899" lon="5.99248">
        <ele>287</ele>
        <time>2010-01-01T00:17:32Z</time>
      </trkpt>
      <trkpt lat="47.68902" lon="5.99251">
        <ele>287</ele>
        <time>2010-01-01T00:17:34Z</time>
      </trkpt>
      <trkpt lat="47.68905" lon="5.99254">
        <ele>287</ele>
        <time>2010-01-01T00:17:35Z</time>
      </trkpt>
      <trkpt lat="47.68914" lon="5.99263">
        <ele>287</ele>
        <time>2010-01-01T00:17:39Z</time>
      </trkpt>
      <trkpt lat="47.68917" lon="5.99266">
        <ele>287</ele>
        <time>2010-01-01T00:17:41Z</time>
      </trkpt>
      <trkpt lat="47.68919" lon="5.99268">
        <ele>287</ele>
        <time>2010-01-01T00:17:42Z</time>
      </trkpt>
      <trkpt lat="47.68922" lon="5.99272">
        <ele>288</ele>
        <time>2010-01-01T00:17:43Z</time>
      </trkpt>
      <trkpt lat="47.68924" lon="5.99275">
        <ele>288</ele>
        <time>2010-01-01T00:17:44Z</time>
      </trkpt>
      <trkpt lat="47.68926" lon="5.99278">
        <ele>288</ele>
        <time>2010-01-01T00:17:46Z</time>
      </trkpt>
      <trkpt lat="47.68929" lon="5.99282">
        <ele>289</ele>
        <time>2010-01-01T00:17:47Z</time>
      </trkpt>
      <trkpt lat="47.68931" lon="5.99284">
        <ele>289</ele>
        <time>2010-01-01T00:17:48Z</time>
      </trkpt>
      <trkpt lat="47.68934" lon="5.99287">
        <ele>289</ele>
        <time>2010-01-01T00:17:50Z</time>
      </trkpt>
      <trkpt lat="47.68936" lon="5.9929">
        <ele>289</ele>
        <time>2010-01-01T00:17:51Z</time>
      </trkpt>
      <trkpt lat="47.68938" lon="5.99292">
        <ele>289</ele>
        <time>2010-01-01T00:17:52Z</time>
      </trkpt>
      <trkpt lat="47.6894" lon="5.99295">
        <ele>289</ele>
        <time>2010-01-01T00:17:53Z</time>
      </trkpt>
      <trkpt lat="47.68947" lon="5.99303">
        <ele>289</ele>
        <time>2010-01-01T00:17:56Z</time>
      </trkpt>
      <trkpt lat="47.68959" lon="5.99311">
        <ele>291</ele>
        <time>2010-01-01T00:18:02Z</time>
      </trkpt>
      <trkpt lat="47.68962" lon="5.99314">
        <ele>291</ele>
        <time>2010-01-01T00:18:03Z</time>
      </trkpt>
      <trkpt lat="47.68966" lon="5.99315">
        <ele>291</ele>
        <time>2010-01-01T00:18:05Z</time>
      </trkpt>
      <trkpt lat="47.68969" lon="5.99317">
        <ele>291</ele>
        <time>2010-01-01T00:18:06Z</time>
      </trkpt>
      <trkpt lat="47.68973" lon="5.99319">
        <ele>291</ele>
        <time>2010-01-01T00:18:08Z</time>
      </trkpt>
      <trkpt lat="47.68978" lon="5.99321">
        <ele>291</ele>
        <time>2010-01-01T00:18:10Z</time>
      </trkpt>
      <trkpt lat="47.68981" lon="5.99322">
        <ele>291</ele>
        <time>2010-01-01T00:18:11Z</time>
      </trkpt>
      <trkpt lat="47.68985" lon="5.99324">
        <ele>291</ele>
        <time>2010-01-01T00:18:13Z</time>
      </trkpt>
      <trkpt lat="47.68995" lon="5.99329">
        <ele>291</ele>
        <time>2010-01-01T00:18:17Z</time>
      </trkpt>
      <trkpt lat="47.68998" lon="5.99331">
        <ele>291</ele>
        <time>2010-01-01T00:18:18Z</time>
      </trkpt>
      <trkpt lat="47.69002" lon="5.99333">
        <ele>291</ele>
        <time>2010-01-01T00:18:20Z</time>
      </trkpt>
      <trkpt lat="47.69005" lon="5.99335">
        <ele>291</ele>
        <time>2010-01-01T00:18:21Z</time>
      </trkpt>
      <trkpt lat="47.69008" lon="5.99336">
        <ele>291</ele>
        <time>2010-01-01T00:18:23Z</time>
      </trkpt>
      <trkpt lat="47.69011" lon="5.99338">
        <ele>291</ele>
        <time>2010-01-01T00:18:24Z</time>
      </trkpt>
      <trkpt lat="47.69014" lon="5.99339">
        <ele>291</ele>
        <time>2010-01-01T00:18:25Z</time>
      </trkpt>
      <trkpt lat="47.69016" lon="5.9934">
        <ele>291</ele>
        <time>2010-01-01T00:18:26Z</time>
      </trkpt>
      <trkpt lat="47.69019" lon="5.99342">
        <ele>291</ele>
        <time>2010-01-01T00:18:27Z</time>
      </trkpt>
      <trkpt lat="47.69021" lon="5.99343">
        <ele>291</ele>
        <time>2010-01-01T00:18:28Z</time>
      </trkpt>
      <trkpt lat="47.69023" lon="5.99343">
        <ele>291</ele>
        <time>2010-01-01T00:18:29Z</time>
      </trkpt>
      <trkpt lat="47.69025" lon="5.99341">
        <ele>291</ele>
        <time>2010-01-01T00:18:30Z</time>
      </trkpt>
      <trkpt lat="47.69026" lon="5.99341">
        <ele>291</ele>
        <time>2010-01-01T00:18:30Z</time>
      </trkpt>
      <trkpt lat="47.69027" lon="5.99341">
        <ele>291</ele>
        <time>2010-01-01T00:18:31Z</time>
      </trkpt>
      <trkpt lat="47.69028" lon="5.99341">
        <ele>291</ele>
        <time>2010-01-01T00:18:31Z</time>
      </trkpt>
      <trkpt lat="47.69028" lon="5.99341">
        <ele>291</ele>
        <time>2010-01-01T00:18:31Z</time>
      </trkpt>
      <trkpt lat="47.69029" lon="5.99341">
        <ele>291</ele>
        <time>2010-01-01T00:18:31Z</time>
      </trkpt>
      <trkpt lat="47.69029" lon="5.99341">
        <ele>291</ele>
        <time>2010-01-01T00:18:32Z</time>
      </trkpt>
      <trkpt lat="47.6903" lon="5.99341">
        <ele>291</ele>
        <time>2010-01-01T00:18:32Z</time>
      </trkpt>
      <trkpt lat="47.69031" lon="5.99341">
        <ele>291</ele>
        <time>2010-01-01T00:18:32Z</time>
      </trkpt>
      <trkpt lat="47.69031" lon="5.99341">
        <ele>291</ele>
        <time>2010-01-01T00:18:32Z</time>
      </trkpt>
      <trkpt lat="47.69033" lon="5.99341">
        <ele>291</ele>
        <time>2010-01-01T00:18:33Z</time>
      </trkpt>
      <trkpt lat="47.69034" lon="5.9934">
        <ele>291</ele>
        <time>2010-01-01T00:18:33Z</time>
      </trkpt>
      <trkpt lat="47.69035" lon="5.99337">
        <ele>291</ele>
        <time>2010-01-01T00:18:34Z</time>
      </trkpt>
      <trkpt lat="47.69036" lon="5.99334">
        <ele>291</ele>
        <time>2010-01-01T00:18:35Z</time>
      </trkpt>
      <trkpt lat="47.69036" lon="5.9933">
        <ele>291</ele>
        <time>2010-01-01T00:18:36Z</time>
      </trkpt>
      <trkpt lat="47.69037" lon="5.99327">
        <ele>291</ele>
        <time>2010-01-01T00:18:37Z</time>
      </trkpt>
      <trkpt lat="47.69039" lon="5.99324">
        <ele>291</ele>
        <time>2010-01-01T00:18:38Z</time>
      </trkpt>
      <trkpt lat="47.6904" lon="5.99322">
        <ele>291</ele>
        <time>2010-01-01T00:18:39Z</time>
      </trkpt>
      <trkpt lat="47.69041" lon="5.99318">
        <ele>291</ele>
        <time>2010-01-01T00:18:40Z</time>
      </trkpt>
      <trkpt lat="47.69042" lon="5.99315">
        <ele>291</ele>
        <time>2010-01-01T00:18:41Z</time>
      </trkpt>
      <trkpt lat="47.69043" lon="5.9931">
        <ele>291</ele>
        <time>2010-01-01T00:18:42Z</time>
      </trkpt>
      <trkpt lat="47.69044" lon="5.99305">
        <ele>291</ele>
        <time>2010-01-01T00:18:44Z</time>
      </trkpt>
      <trkpt lat="47.69044" lon="5.99302">
        <ele>291</ele>
        <time>2010-01-01T00:18:45Z</time>
      </trkpt>
      <trkpt lat="47.69045" lon="5.99298">
        <ele>291</ele>
        <time>2010-01-01T00:18:46Z</time>
      </trkpt>
      <trkpt lat="47.69047" lon="5.99294">
        <ele>291</ele>
        <time>2010-01-01T00:18:47Z</time>
      </trkpt>
      <trkpt lat="47.69048" lon="5.99291">
        <ele>292</ele>
        <time>2010-01-01T00:18:48Z</time>
      </trkpt>
      <trkpt lat="47.6905" lon="5.99287">
        <ele>292</ele>
        <time>2010-01-01T00:18:49Z</time>
      </trkpt>
      <trkpt lat="47.69051" lon="5.99284">
        <ele>292</ele>
        <time>2010-01-01T00:18:50Z</time>
      </trkpt>
      <trkpt lat="47.69053" lon="5.99281">
        <ele>293</ele>
        <time>2010-01-01T00:18:51Z</time>
      </trkpt>
      <trkpt lat="47.69054" lon="5.99277">
        <ele>293</ele>
        <time>2010-01-01T00:18:52Z</time>
      </trkpt>
      <trkpt lat="47.69056" lon="5.99274">
        <ele>293</ele>
        <time>2010-01-01T00:18:53Z</time>
      </trkpt>
      <trkpt lat="47.69057" lon="5.99271">
        <ele>293</ele>
        <time>2010-01-01T00:18:55Z</time>
      </trkpt>
      <trkpt lat="47.69059" lon="5.99267">
        <ele>293</ele>
        <time>2010-01-01T00:18:56Z</time>
      </trkpt>
      <trkpt lat="47.6906" lon="5.99263">
        <ele>293</ele>
        <time>2010-01-01T00:18:57Z</time>
      </trkpt>
      <trkpt lat="47.69062" lon="5.9926">
        <ele>293</ele>
        <time>2010-01-01T00:18:58Z</time>
      </trkpt>
      <trkpt lat="47.69063" lon="5.99256">
        <ele>293</ele>
        <time>2010-01-01T00:18:59Z</time>
      </trkpt>
      <trkpt lat="47.69065" lon="5.99253">
        <ele>293</ele>
        <time>2010-01-01T00:19:00Z</time>
      </trkpt>
      <trkpt lat="47.69066" lon="5.99249">
        <ele>293</ele>
        <time>2010-01-01T00:19:01Z</time>
      </trkpt>
      <trkpt lat="47.69068" lon="5.99246">
        <ele>293</ele>
        <time>2010-01-01T00:19:02Z</time>
      </trkpt>
      <trkpt lat="47.69069" lon="5.99242">
        <ele>293</ele>
        <time>2010-01-01T00:19:04Z</time>
      </trkpt>
      <trkpt lat="47.69071" lon="5.99239">
        <ele>294</ele>
        <time>2010-01-01T00:19:05Z</time>
      </trkpt>
      <trkpt lat="47.69072" lon="5.99235">
        <ele>294</ele>
        <time>2010-01-01T00:19:06Z</time>
      </trkpt>
      <trkpt lat="47.69074" lon="5.99232">
        <ele>295</ele>
        <time>2010-01-01T00:19:07Z</time>
      </trkpt>
      <trkpt lat="47.69076" lon="5.99229">
        <ele>295</ele>
        <time>2010-01-01T00:19:08Z</time>
      </trkpt>
      <trkpt lat="47.69078" lon="5.99225">
        <ele>295</ele>
        <time>2010-01-01T00:19:09Z</time>
      </trkpt>
      <trkpt lat="47.6908" lon="5.99222">
        <ele>295</ele>
        <time>2010-01-01T00:19:11Z</time>
      </trkpt>
      <trkpt lat="47.69082" lon="5.99218">
        <ele>295</ele>
        <time>2010-01-01T00:19:12Z</time>
      </trkpt>
      <trkpt lat="47.69083" lon="5.99213">
        <ele>295</ele>
        <time>2010-01-01T00:19:13Z</time>
      </trkpt>
      <trkpt lat="47.69084" lon="5.99209">
        <ele>295</ele>
        <time>2010-01-01T00:19:14Z</time>
      </trkpt>
      <trkpt lat="47.69085" lon="5.99206">
        <ele>295</ele>
        <time>2010-01-01T00:19:16Z</time>
      </trkpt>
      <trkpt lat="47.69087" lon="5.99202">
        <ele>295</ele>
        <time>2010-01-01T00:19:17Z</time>
      </trkpt>
      <trkpt lat="47.69089" lon="5.99198">
        <ele>295</ele>
        <time>2010-01-01T00:19:18Z</time>
      </trkpt>
      <trkpt lat="47.69091" lon="5.99194">
        <ele>295</ele>
        <time>2010-01-01T00:19:19Z</time>
      </trkpt>
      <trkpt lat="47.69092" lon="5.9919">
        <ele>295</ele>
        <time>2010-01-01T00:19:21Z</time>
      </trkpt>
      <trkpt lat="47.69094" lon="5.99186">
        <ele>295</ele>
        <time>2010-01-01T00:19:22Z</time>
      </trkpt>
      <trkpt lat="47.69096" lon="5.99182">
        <ele>296</ele>
        <time>2010-01-01T00:19:23Z</time>
      </trkpt>
      <trkpt lat="47.69097" lon="5.99179">
        <ele>296</ele>
        <time>2010-01-01T00:19:24Z</time>
      </trkpt>
      <trkpt lat="47.69099" lon="5.99175">
        <ele>297</ele>
        <time>2010-01-01T00:19:25Z</time>
      </trkpt>
      <trkpt lat="47.69101" lon="5.99171">
        <ele>297</ele>
        <time>2010-01-01T00:19:27Z</time>
      </trkpt>
      <trkpt lat="47.69103" lon="5.99167">
        <ele>298</ele>
        <time>2010-01-01T00:19:28Z</time>
      </trkpt>
      <trkpt lat="47.69104" lon="5.99163">
        <ele>298</ele>
        <time>2010-01-01T00:19:29Z</time>
      </trkpt>
      <trkpt lat="47.69106" lon="5.99159">
        <ele>298</ele>
        <time>2010-01-01T00:19:30Z</time>
      </trkpt>
      <trkpt lat="47.69107" lon="5.99155">
        <ele>298</ele>
        <time>2010-01-01T00:19:32Z</time>
      </trkpt>
      <trkpt lat="47.69109" lon="5.99151">
        <ele>298</ele>
        <time>2010-01-01T00:19:33Z</time>
      </trkpt>
      <trkpt lat="47.69111" lon="5.99147">
        <ele>298</ele>
        <time>2010-01-01T00:19:34Z</time>
      </trkpt>
      <trkpt lat="47.69112" lon="5.99143">
        <ele>298</ele>
        <time>2010-01-01T00:19:35Z</time>
      </trkpt>
      <trkpt lat="47.69114" lon="5.99139">
        <ele>298</ele>
        <time>2010-01-01T00:19:37Z</time>
      </trkpt>
      <trkpt lat="47.69116" lon="5.99135">
        <ele>298</ele>
        <time>2010-01-01T00:19:38Z</time>
      </trkpt>
      <trkpt lat="47.69118" lon="5.99131">
        <ele>298</ele>
        <time>2010-01-01T00:19:39Z</time>
      </trkpt>
      <trkpt lat="47.6912" lon="5.99126">
        <ele>298</ele>
        <time>2010-01-01T00:19:41Z</time>
      </trkpt>
      <trkpt lat="47.69122" lon="5.99122">
        <ele>298</ele>
        <time>2010-01-01T00:19:42Z</time>
      </trkpt>
      <trkpt lat="47.69124" lon="5.99118">
        <ele>298</ele>
        <time>2010-01-01T00:19:44Z</time>
      </trkpt>
      <trkpt lat="47.69125" lon="5.99113">
        <ele>298</ele>
        <time>2010-01-01T00:19:45Z</time>
      </trkpt>
      <trkpt lat="47.69127" lon="5.99109">
        <ele>298</ele>
        <time>2010-01-01T00:19:46Z</time>
      </trkpt>
      <trkpt lat="47.69129" lon="5.99105">
        <ele>298</ele>
        <time>2010-01-01T00:19:48Z</time>
      </trkpt>
      <trkpt lat="47.6913" lon="5.991">
        <ele>298</ele>
        <time>2010-01-01T00:19:49Z</time>
      </trkpt>
      <trkpt lat="47.69132" lon="5.99096">
        <ele>299</ele>
        <time>2010-01-01T00:19:50Z</time>
      </trkpt>
      <trkpt lat="47.69134" lon="5.99092">
        <ele>299</ele>
        <time>2010-01-01T00:19:52Z</time>
      </trkpt>
      <trkpt lat="47.69136" lon="5.99088">
        <ele>300</ele>
        <time>2010-01-01T00:19:53Z</time>
      </trkpt>
      <trkpt lat="47.69138" lon="5.99084">
        <ele>300</ele>
        <time>2010-01-01T00:19:54Z</time>
      </trkpt>
      <trkpt lat="47.69139" lon="5.9908">
        <ele>300</ele>
        <time>2010-01-01T00:19:56Z</time>
      </trkpt>
      <trkpt lat="47.69141" lon="5.99076">
        <ele>300</ele>
        <time>2010-01-01T00:19:57Z</time>
      </trkpt>
      <trkpt lat="47.69142" lon="5.99072">
        <ele>300</ele>
        <time>2010-01-01T00:19:58Z</time>
      </trkpt>
      <trkpt lat="47.69144" lon="5.99068">
        <ele>300</ele>
        <time>2010-01-01T00:19:59Z</time>
      </trkpt>
      <trkpt lat="47.69146" lon="5.99065">
        <ele>300</ele>
        <time>2010-01-01T00:20:01Z</time>
      </trkpt>
      <trkpt lat="47.69147" lon="5.99061">
        <ele>300</ele>
        <time>2010-01-01T00:20:02Z</time>
      </trkpt>
      <trkpt lat="47.69149" lon="5.99058">
        <ele>300</ele>
        <time>2010-01-01T00:20:03Z</time>
      </trkpt>
      <trkpt lat="47.69151" lon="5.99054">
        <ele>300</ele>
        <time>2010-01-01T00:20:04Z</time>
      </trkpt>
      <trkpt lat="47.69152" lon="5.99051">
        <ele>300</ele>
        <time>2010-01-01T00:20:05Z</time>
      </trkpt>
      <trkpt lat="47.69154" lon="5.99047">
        <ele>300</ele>
        <time>2010-01-01T00:20:06Z</time>
      </trkpt>
      <trkpt lat="47.69156" lon="5.99043">
        <ele>300</ele>
        <time>2010-01-01T00:20:08Z</time>
      </trkpt>
      <trkpt lat="47.69158" lon="5.99039">
        <ele>300</ele>
        <time>2010-01-01T00:20:09Z</time>
      </trkpt>
      <trkpt lat="47.6916" lon="5.99036">
        <ele>300</ele>
        <time>2010-01-01T00:20:10Z</time>
      </trkpt>
      <trkpt lat="47.69161" lon="5.99032">
        <ele>301</ele>
        <time>2010-01-01T00:20:11Z</time>
      </trkpt>
      <trkpt lat="47.69163" lon="5.99029">
        <ele>301</ele>
        <time>2010-01-01T00:20:13Z</time>
      </trkpt>
      <trkpt lat="47.69165" lon="5.99025">
        <ele>301</ele>
        <time>2010-01-01T00:20:14Z</time>
      </trkpt>
      <trkpt lat="47.69167" lon="5.99021">
        <ele>302</ele>
        <time>2010-01-01T00:20:15Z</time>
      </trkpt>
      <trkpt lat="47.69168" lon="5.99017">
        <ele>302</ele>
        <time>2010-01-01T00:20:16Z</time>
      </trkpt>
      <trkpt lat="47.6917" lon="5.99013">
        <ele>302</ele>
        <time>2010-01-01T00:20:17Z</time>
      </trkpt>
      <trkpt lat="47.69172" lon="5.99011">
        <ele>302</ele>
        <time>2010-01-01T00:20:18Z</time>
      </trkpt>
      <trkpt lat="47.69173" lon="5.99008">
        <ele>302</ele>
        <time>2010-01-01T00:20:19Z</time>
      </trkpt>
      <trkpt lat="47.69175" lon="5.99006">
        <ele>302</ele>
        <time>2010-01-01T00:20:20Z</time>
      </trkpt>
      <trkpt lat="47.69176" lon="5.99004">
        <ele>302</ele>
        <time>2010-01-01T00:20:21Z</time>
      </trkpt>
      <trkpt lat="47.69178" lon="5.99004">
        <ele>302</ele>
        <time>2010-01-01T00:20:22Z</time>
      </trkpt>
      <trkpt lat="47.69179" lon="5.99005">
        <ele>302</ele>
        <time>2010-01-01T00:20:22Z</time>
      </trkpt>
      <trkpt lat="47.6918" lon="5.99006">
        <ele>302</ele>
        <time>2010-01-01T00:20:23Z</time>
      </trkpt>
      <trkpt lat="47.69181" lon="5.99007">
        <ele>302</ele>
        <time>2010-01-01T00:20:23Z</time>
      </trkpt>
      <trkpt lat="47.69181" lon="5.99007">
        <ele>302</ele>
        <time>2010-01-01T00:20:23Z</time>
      </trkpt>
      <trkpt lat="47.69182" lon="5.99008">
        <ele>302</ele>
        <time>2010-01-01T00:20:24Z</time>
      </trkpt>
      <trkpt lat="47.69183" lon="5.99009">
        <ele>302</ele>
        <time>2010-01-01T00:20:24Z</time>
      </trkpt>
      <trkpt lat="47.69185" lon="5.99011">
        <ele>302</ele>
        <time>2010-01-01T00:20:25Z</time>
      </trkpt>
      <trkpt lat="47.69186" lon="5.99012">
        <ele>302</ele>
        <time>2010-01-01T00:20:26Z</time>
      </trkpt>
      <trkpt lat="47.69188" lon="5.99014">
        <ele>302</ele>
        <time>2010-01-01T00:20:27Z</time>
      </trkpt>
      <trkpt lat="47.6919" lon="5.99016">
        <ele>302</ele>
        <time>2010-01-01T00:20:28Z</time>
      </trkpt>
      <trkpt lat="47.69193" lon="5.99019">
        <ele>302</ele>
        <time>2010-01-01T00:20:29Z</time>
      </trkpt>
      <trkpt lat="47.69195" lon="5.9902">
        <ele>303</ele>
        <time>2010-01-01T00:20:30Z</time>
      </trkpt>
      <trkpt lat="47.69197" lon="5.99022">
        <ele>303</ele>
        <time>2010-01-01T00:20:31Z</time>
      </trkpt>
      <trkpt lat="47.69199" lon="5.99024">
        <ele>304</ele>
        <time>2010-01-01T00:20:32Z</time>
      </trkpt>
      <trkpt lat="47.69201" lon="5.99026">
        <ele>304</ele>
        <time>2010-01-01T00:20:33Z</time>
      </trkpt>
      <trkpt lat="47.69203" lon="5.99028">
        <ele>304</ele>
        <time>2010-01-01T00:20:34Z</time>
      </trkpt>
      <trkpt lat="47.69204" lon="5.9903">
        <ele>304</ele>
        <time>2010-01-01T00:20:34Z</time>
      </trkpt>
      <trkpt lat="47.69206" lon="5.99032">
        <ele>304</ele>
        <time>2010-01-01T00:20:35Z</time>
      </trkpt>
      <trkpt lat="47.69209" lon="5.99034">
        <ele>304</ele>
        <time>2010-01-01T00:20:36Z</time>
      </trkpt>
      <trkpt lat="47.69211" lon="5.99036">
        <ele>304</ele>
        <time>2010-01-01T00:20:38Z</time>
      </trkpt>
      <trkpt lat="47.69213" lon="5.99038">
        <ele>304</ele>
        <time>2010-01-01T00:20:39Z</time>
      </trkpt>
      <trkpt lat="47.69216" lon="5.9904">
        <ele>304</ele>
        <time>2010-01-01T00:20:40Z</time>
      </trkpt>
      <trkpt lat="47.69218" lon="5.99042">
        <ele>304</ele>
        <time>2010-01-01T00:20:41Z</time>
      </trkpt>
      <trkpt lat="47.69221" lon="5.99044">
        <ele>304</ele>
        <time>2010-01-01T00:20:42Z</time>
      </trkpt>
      <trkpt lat="47.69223" lon="5.99045">
        <ele>304</ele>
        <time>2010-01-01T00:20:43Z</time>
      </trkpt>
      <trkpt lat="47.69227" lon="5.99047">
        <ele>304</ele>
        <time>2010-01-01T00:20:44Z</time>
      </trkpt>
      <trkpt lat="47.69229" lon="5.99049">
        <ele>304</ele>
        <time>2010-01-01T00:20:46Z</time>
      </trkpt>
      <trkpt lat="47.69231" lon="5.9905">
        <ele>304</ele>
        <time>2010-01-01T00:20:47Z</time>
      </trkpt>
      <trkpt lat="47.69233" lon="5.99052">
        <ele>304</ele>
        <time>2010-01-01T00:20:47Z</time>
      </trkpt>
      <trkpt lat="47.69239" lon="5.99058">
        <ele>304</ele>
        <time>2010-01-01T00:20:50Z</time>
      </trkpt>
      <trkpt lat="47.69241" lon="5.99061">
        <ele>304</ele>
        <time>2010-01-01T00:20:51Z</time>
      </trkpt>
      <trkpt lat="47.69244" lon="5.99063">
        <ele>304</ele>
        <time>2010-01-01T00:20:53Z</time>
      </trkpt>
      <trkpt lat="47.69246" lon="5.99065">
        <ele>304</ele>
        <time>2010-01-01T00:20:54Z</time>
      </trkpt>
      <trkpt lat="47.69248" lon="5.99067">
        <ele>304</ele>
        <time>2010-01-01T00:20:55Z</time>
      </trkpt>
      <trkpt lat="47.69251" lon="5.99069">
        <ele>304</ele>
        <time>2010-01-01T00:20:56Z</time>
      </trkpt>
      <trkpt lat="47.69254" lon="5.99072">
        <ele>304</ele>
        <time>2010-01-01T00:20:57Z</time>
      </trkpt>
      <trkpt lat="47.69256" lon="5.99074">
        <ele>305</ele>
        <time>2010-01-01T00:20:58Z</time>
      </trkpt>
      <trkpt lat="47.69258" lon="5.99075">
        <ele>306</ele>
        <time>2010-01-01T00:20:59Z</time>
      </trkpt>
      <trkpt lat="47.6926" lon="5.99077">
        <ele>306</ele>
        <time>2010-01-01T00:21:00Z</time>
      </trkpt>
      <trkpt lat="47.69263" lon="5.99079">
        <ele>306</ele>
        <time>2010-01-01T00:21:02Z</time>
      </trkpt>
      <trkpt lat="47.69266" lon="5.99082">
        <ele>306</ele>
        <time>2010-01-01T00:21:03Z</time>
      </trkpt>
      <trkpt lat="47.69268" lon="5.99084">
        <ele>306</ele>
        <time>2010-01-01T00:21:04Z</time>
      </trkpt>
      <trkpt lat="47.69271" lon="5.99087">
        <ele>306</ele>
        <time>2010-01-01T00:21:05Z</time>
      </trkpt>
      <trkpt lat="47.69273" lon="5.9909">
        <ele>306</ele>
        <time>2010-01-01T00:21:07Z</time>
      </trkpt>
      <trkpt lat="47.69275" lon="5.99092">
        <ele>306</ele>
        <time>2010-01-01T00:21:08Z</time>
      </trkpt>
      <trkpt lat="47.69278" lon="5.99095">
        <ele>306</ele>
        <time>2010-01-01T00:21:09Z</time>
      </trkpt>
      <trkpt lat="47.6928" lon="5.99098">
        <ele>306</ele>
        <time>2010-01-01T00:21:10Z</time>
      </trkpt>
      <trkpt lat="47.69282" lon="5.991">
        <ele>306</ele>
        <time>2010-01-01T00:21:11Z</time>
      </trkpt>
      <trkpt lat="47.69287" lon="5.99104">
        <ele>306</ele>
        <time>2010-01-01T00:21:13Z</time>
      </trkpt>
      <trkpt lat="47.6929" lon="5.99106">
        <ele>306</ele>
        <time>2010-01-01T00:21:14Z</time>
      </trkpt>
      <trkpt lat="47.69292" lon="5.99109">
        <ele>306</ele>
        <time>2010-01-01T00:21:16Z</time>
      </trkpt>
      <trkpt lat="47.69295" lon="5.99111">
        <ele>306</ele>
        <time>2010-01-01T00:21:17Z</time>
      </trkpt>
      <trkpt lat="47.69297" lon="5.99113">
        <ele>306</ele>
        <time>2010-01-01T00:21:18Z</time>
      </trkpt>
      <trkpt lat="47.69301" lon="5.99115">
        <ele>306</ele>
        <time>2010-01-01T00:21:19Z</time>
      </trkpt>
      <trkpt lat="47.69304" lon="5.99117">
        <ele>306</ele>
        <time>2010-01-01T00:21:21Z</time>
      </trkpt>
      <trkpt lat="47.69306" lon="5.99119">
        <ele>306</ele>
        <time>2010-01-01T00:21:22Z</time>
      </trkpt>
      <trkpt lat="47.69309" lon="5.99121">
        <ele>307</ele>
        <time>2010-01-01T00:21:23Z</time>
      </trkpt>
      <trkpt lat="47.69312" lon="5.99123">
        <ele>307</ele>
        <time>2010-01-01T00:21:24Z</time>
      </trkpt>
      <trkpt lat="47.69314" lon="5.99125">
        <ele>307</ele>
        <time>2010-01-01T00:21:26Z</time>
      </trkpt>
      <trkpt lat="47.69317" lon="5.99127">
        <ele>308</ele>
        <time>2010-01-01T00:21:27Z</time>
      </trkpt>
      <trkpt lat="47.69319" lon="5.99129">
        <ele>308</ele>
        <time>2010-01-01T00:21:28Z</time>
      </trkpt>
      <trkpt lat="47.69321" lon="5.99131">
        <ele>308</ele>
        <time>2010-01-01T00:21:29Z</time>
      </trkpt>
      <trkpt lat="47.69324" lon="5.99133">
        <ele>308</ele>
        <time>2010-01-01T00:21:30Z</time>
      </trkpt>
      <trkpt lat="47.69326" lon="5.99134">
        <ele>308</ele>
        <time>2010-01-01T00:21:31Z</time>
      </trkpt>
      <trkpt lat="47.69329" lon="5.99135">
        <ele>308</ele>
        <time>2010-01-01T00:21:32Z</time>
      </trkpt>
      <trkpt lat="47.69332" lon="5.99137">
        <ele>308</ele>
        <time>2010-01-01T00:21:33Z</time>
      </trkpt>
      <trkpt lat="47.69334" lon="5.99139">
        <ele>308</ele>
        <time>2010-01-01T00:21:34Z</time>
      </trkpt>
      <trkpt lat="47.69336" lon="5.99141">
        <ele>308</ele>
        <time>2010-01-01T00:21:35Z</time>
      </trkpt>
      <trkpt lat="47.69338" lon="5.99142">
        <ele>308</ele>
        <time>2010-01-01T00:21:36Z</time>
      </trkpt>
      <trkpt lat="47.69341" lon="5.99145">
        <ele>308</ele>
        <time>2010-01-01T00:21:37Z</time>
      </trkpt>
      <trkpt lat="47.69343" lon="5.99146">
        <ele>308</ele>
        <time>2010-01-01T00:21:38Z</time>
      </trkpt>
      <trkpt lat="47.69346" lon="5.99148">
        <ele>308</ele>
        <time>2010-01-01T00:21:40Z</time>
      </trkpt>
      <trkpt lat="47.69349" lon="5.9915">
        <ele>309</ele>
        <time>2010-01-01T00:21:41Z</time>
      </trkpt>
      <trkpt lat="47.69351" lon="5.99152">
        <ele>309</ele>
        <time>2010-01-01T00:21:42Z</time>
      </trkpt>
      <trkpt lat="47.69354" lon="5.99155">
        <ele>310</ele>
        <time>2010-01-01T00:21:43Z</time>
      </trkpt>
      <trkpt lat="47.69357" lon="5.99157">
        <ele>310</ele>
        <time>2010-01-01T00:21:45Z</time>
      </trkpt>
      <trkpt lat="47.69359" lon="5.99158">
        <ele>310</ele>
        <time>2010-01-01T00:21:46Z</time>
      </trkpt>
      <trkpt lat="47.69362" lon="5.9916">
        <ele>310</ele>
        <time>2010-01-01T00:21:47Z</time>
      </trkpt>
      <trkpt lat="47.69364" lon="5.99162">
        <ele>310</ele>
        <time>2010-01-01T00:21:48Z</time>
      </trkpt>
      <trkpt lat="47.69366" lon="5.99164">
        <ele>310</ele>
        <time>2010-01-01T00:21:49Z</time>
      </trkpt>
      <trkpt lat="47.69369" lon="5.99166">
        <ele>310</ele>
        <time>2010-01-01T00:21:50Z</time>
      </trkpt>
      <trkpt lat="47.69371" lon="5.99168">
        <ele>310</ele>
        <time>2010-01-01T00:21:51Z</time>
      </trkpt>
      <trkpt lat="47.69373" lon="5.9917">
        <ele>310</ele>
        <time>2010-01-01T00:21:52Z</time>
      </trkpt>
      <trkpt lat="47.69375" lon="5.99172">
        <ele>310</ele>
        <time>2010-01-01T00:21:53Z</time>
      </trkpt>
      <trkpt lat="47.69377" lon="5.99174">
        <ele>310</ele>
        <time>2010-01-01T00:21:54Z</time>
      </trkpt>
      <trkpt lat="47.6938" lon="5.99175">
        <ele>310</ele>
        <time>2010-01-01T00:21:55Z</time>
      </trkpt>
      <trkpt lat="47.69383" lon="5.99177">
        <ele>310</ele>
        <time>2010-01-01T00:21:56Z</time>
      </trkpt>
      <trkpt lat="47.69385" lon="5.99179">
        <ele>310</ele>
        <time>2010-01-01T00:21:58Z</time>
      </trkpt>
      <trkpt lat="47.69388" lon="5.9918">
        <ele>310</ele>
        <time>2010-01-01T00:21:59Z</time>
      </trkpt>
      <trkpt lat="47.6939" lon="5.99182">
        <ele>311</ele>
        <time>2010-01-01T00:22:00Z</time>
      </trkpt>
      <trkpt lat="47.69392" lon="5.99184">
        <ele>311</ele>
        <time>2010-01-01T00:22:01Z</time>
      </trkpt>
      <trkpt lat="47.69394" lon="5.99185">
        <ele>312</ele>
        <time>2010-01-01T00:22:02Z</time>
      </trkpt>
      <trkpt lat="47.69396" lon="5.99188">
        <ele>312</ele>
        <time>2010-01-01T00:22:02Z</time>
      </trkpt>
      <trkpt lat="47.69397" lon="5.9919">
        <ele>312</ele>
        <time>2010-01-01T00:22:03Z</time>
      </trkpt>
      <trkpt lat="47.69399" lon="5.99192">
        <ele>312</ele>
        <time>2010-01-01T00:22:04Z</time>
      </trkpt>
      <trkpt lat="47.694" lon="5.99194">
        <ele>312</ele>
        <time>2010-01-01T00:22:05Z</time>
      </trkpt>
      <trkpt lat="47.69407" lon="5.992">
        <ele>312</ele>
        <time>2010-01-01T00:22:08Z</time>
      </trkpt>
      <trkpt lat="47.69409" lon="5.99202">
        <ele>312</ele>
        <time>2010-01-01T00:22:09Z</time>
      </trkpt>
      <trkpt lat="47.69411" lon="5.99204">
        <ele>312</ele>
        <time>2010-01-01T00:22:10Z</time>
      </trkpt>
      <trkpt lat="47.69413" lon="5.99206">
        <ele>312</ele>
        <time>2010-01-01T00:22:11Z</time>
      </trkpt>
      <trkpt lat="47.69415" lon="5.99208">
        <ele>312</ele>
        <time>2010-01-01T00:22:12Z</time>
      </trkpt>
      <trkpt lat="47.69417" lon="5.9921">
        <ele>312</ele>
        <time>2010-01-01T00:22:13Z</time>
      </trkpt>
      <trkpt lat="47.6942" lon="5.99213">
        <ele>312</ele>
        <time>2010-01-01T00:22:14Z</time>
      </trkpt>
      <trkpt lat="47.69423" lon="5.99215">
        <ele>312</ele>
        <time>2010-01-01T00:22:16Z</time>
      </trkpt>
      <trkpt lat="47.69425" lon="5.99218">
        <ele>312</ele>
        <time>2010-01-01T00:22:17Z</time>
      </trkpt>
      <trkpt lat="47.69429" lon="5.9922">
        <ele>312</ele>
        <time>2010-01-01T00:22:18Z</time>
      </trkpt>
      <trkpt lat="47.69432" lon="5.99222">
        <ele>312</ele>
        <time>2010-01-01T00:22:20Z</time>
      </trkpt>
      <trkpt lat="47.69435" lon="5.99224">
        <ele>312</ele>
        <time>2010-01-01T00:22:21Z</time>
      </trkpt>
      <trkpt lat="47.69438" lon="5.99226">
        <ele>312</ele>
        <time>2010-01-01T00:22:22Z</time>
      </trkpt>
      <trkpt lat="47.69441" lon="5.99228">
        <ele>312</ele>
        <time>2010-01-01T00:22:24Z</time>
      </trkpt>
      <trkpt lat="47.69444" lon="5.99231">
        <ele>312</ele>
        <time>2010-01-01T00:22:25Z</time>
      </trkpt>
      <trkpt lat="47.69448" lon="5.99233">
        <ele>313</ele>
        <time>2010-01-01T00:22:27Z</time>
      </trkpt>
      <trkpt lat="47.6945" lon="5.99234">
        <ele>313</ele>
        <time>2010-01-01T00:22:28Z</time>
      </trkpt>
      <trkpt lat="47.69453" lon="5.99236">
        <ele>314</ele>
        <time>2010-01-01T00:22:29Z</time>
      </trkpt>
      <trkpt lat="47.69455" lon="5.99238">
        <ele>314</ele>
        <time>2010-01-01T00:22:30Z</time>
      </trkpt>
      <trkpt lat="47.69457" lon="5.9924">
        <ele>315</ele>
        <time>2010-01-01T00:22:31Z</time>
      </trkpt>
      <trkpt lat="47.69459" lon="5.99241">
        <ele>315</ele>
        <time>2010-01-01T00:22:32Z</time>
      </trkpt>
      <trkpt lat="47.69461" lon="5.99243">
        <ele>315</ele>
        <time>2010-01-01T00:22:33Z</time>
      </trkpt>
      <trkpt lat="47.69463" lon="5.99244">
        <ele>315</ele>
        <time>2010-01-01T00:22:34Z</time>
      </trkpt>
      <trkpt lat="47.69465" lon="5.99245">
        <ele>315</ele>
        <time>2010-01-01T00:22:34Z</time>
      </trkpt>
      <trkpt lat="47.69466" lon="5.99244">
        <ele>315</ele>
        <time>2010-01-01T00:22:35Z</time>
      </trkpt>
      <trkpt lat="47.69468" lon="5.99242">
        <ele>315</ele>
        <time>2010-01-01T00:22:36Z</time>
      </trkpt>
      <trkpt lat="47.69469" lon="5.99239">
        <ele>315</ele>
        <time>2010-01-01T00:22:37Z</time>
      </trkpt>
      <trkpt lat="47.6947" lon="5.99237">
        <ele>315</ele>
        <time>2010-01-01T00:22:37Z</time>
      </trkpt>
      <trkpt lat="47.69471" lon="5.99235">
        <ele>315</ele>
        <time>2010-01-01T00:22:38Z</time>
      </trkpt>
      <trkpt lat="47.69472" lon="5.99233">
        <ele>315</ele>
        <time>2010-01-01T00:22:39Z</time>
      </trkpt>
      <trkpt lat="47.69473" lon="5.9923">
        <ele>315</ele>
        <time>2010-01-01T00:22:40Z</time>
      </trkpt>
      <trkpt lat="47.69474" lon="5.99228">
        <ele>315</ele>
        <time>2010-01-01T00:22:40Z</time>
      </trkpt>
      <trkpt lat="47.69475" lon="5.99226">
        <ele>315</ele>
        <time>2010-01-01T00:22:41Z</time>
      </trkpt>
      <trkpt lat="47.69476" lon="5.99224">
        <ele>315</ele>
        <time>2010-01-01T00:22:42Z</time>
      </trkpt>
      <trkpt lat="47.69477" lon="5.99222">
        <ele>315</ele>
        <time>2010-01-01T00:22:43Z</time>
      </trkpt>
      <trkpt lat="47.69479" lon="5.99221">
        <ele>315</ele>
        <time>2010-01-01T00:22:43Z</time>
      </trkpt>
      <trkpt lat="47.6948" lon="5.99219">
        <ele>315</ele>
        <time>2010-01-01T00:22:44Z</time>
      </trkpt>
      <trkpt lat="47.69482" lon="5.99217">
        <ele>315</ele>
        <time>2010-01-01T00:22:45Z</time>
      </trkpt>
      <trkpt lat="47.69484" lon="5.99215">
        <ele>315</ele>
        <time>2010-01-01T00:22:46Z</time>
      </trkpt>
      <trkpt lat="47.69485" lon="5.99212">
        <ele>315</ele>
        <time>2010-01-01T00:22:47Z</time>
      </trkpt>
      <trkpt lat="47.69485" lon="5.99212">
        <ele>315</ele>
        <time>2010-01-01T00:22:47Z</time>
      </trkpt>
      <trkpt lat="47.69486" lon="5.99211">
        <ele>315</ele>
        <time>2010-01-01T00:22:47Z</time>
      </trkpt>
      <trkpt lat="47.69485" lon="5.99212">
        <ele>315</ele>
        <time>2010-01-01T00:22:47Z</time>
      </trkpt>
      <trkpt lat="47.69484" lon="5.99212">
        <ele>315</ele>
        <time>2010-01-01T00:22:48Z</time>
      </trkpt>
      <trkpt lat="47.69484" lon="5.99213">
        <ele>315</ele>
        <time>2010-01-01T00:22:48Z</time>
      </trkpt>
      <trkpt lat="47.69484" lon="5.99213">
        <ele>315</ele>
        <time>2010-01-01T00:22:48Z</time>
      </trkpt>
      <trkpt lat="47.69487" lon="5.99215">
        <ele>315</ele>
        <time>2010-01-01T00:22:49Z</time>
      </trkpt>
      <trkpt lat="47.69488" lon="5.99214">
        <ele>315</ele>
        <time>2010-01-01T00:22:49Z</time>
      </trkpt>
      <trkpt lat="47.69488" lon="5.99215">
        <ele>315</ele>
        <time>2010-01-01T00:22:50Z</time>
      </trkpt>
      <trkpt lat="47.69489" lon="5.99215">
        <ele>315</ele>
        <time>2010-01-01T00:22:50Z</time>
      </trkpt>
      <trkpt lat="47.69488" lon="5.99217">
        <ele>315</ele>
        <time>2010-01-01T00:22:50Z</time>
      </trkpt>
      <trkpt lat="47.69488" lon="5.99219">
        <ele>315</ele>
        <time>2010-01-01T00:22:51Z</time>
      </trkpt>
      <trkpt lat="47.69489" lon="5.9922">
        <ele>315</ele>
        <time>2010-01-01T00:22:51Z</time>
      </trkpt>
      <trkpt lat="47.6949" lon="5.99221">
        <ele>315</ele>
        <time>2010-01-01T00:22:52Z</time>
      </trkpt>
      <trkpt lat="47.6949" lon="5.99223">
        <ele>315</ele>
        <time>2010-01-01T00:22:52Z</time>
      </trkpt>
      <trkpt lat="47.69491" lon="5.99224">
        <ele>315</ele>
        <time>2010-01-01T00:22:53Z</time>
      </trkpt>
      <trkpt lat="47.69493" lon="5.99227">
        <ele>315</ele>
        <time>2010-01-01T00:22:54Z</time>
      </trkpt>
      <trkpt lat="47.69495" lon="5.9923">
        <ele>315</ele>
        <time>2010-01-01T00:22:55Z</time>
      </trkpt>
      <trkpt lat="47.69496" lon="5.99233">
        <ele>315</ele>
        <time>2010-01-01T00:22:56Z</time>
      </trkpt>
      <trkpt lat="47.69498" lon="5.99237">
        <ele>315</ele>
        <time>2010-01-01T00:22:57Z</time>
      </trkpt>
      <trkpt lat="47.695" lon="5.9924">
        <ele>315</ele>
        <time>2010-01-01T00:22:58Z</time>
      </trkpt>
      <trkpt lat="47.69503" lon="5.99243">
        <ele>315</ele>
        <time>2010-01-01T00:23:00Z</time>
      </trkpt>
      <trkpt lat="47.69506" lon="5.99247">
        <ele>315</ele>
        <time>2010-01-01T00:23:01Z</time>
      </trkpt>
      <trkpt lat="47.69509" lon="5.99251">
        <ele>315</ele>
        <time>2010-01-01T00:23:03Z</time>
      </trkpt>
      <trkpt lat="47.6951" lon="5.99254">
        <ele>314</ele>
        <time>2010-01-01T00:23:04Z</time>
      </trkpt>
      <trkpt lat="47.69512" lon="5.99258">
        <ele>314</ele>
        <time>2010-01-01T00:23:05Z</time>
      </trkpt>
      <trkpt lat="47.69515" lon="5.99261">
        <ele>313</ele>
        <time>2010-01-01T00:23:07Z</time>
      </trkpt>
      <trkpt lat="47.69517" lon="5.99265">
        <ele>313</ele>
        <time>2010-01-01T00:23:08Z</time>
      </trkpt>
      <trkpt lat="47.69519" lon="5.9927">
        <ele>313</ele>
        <time>2010-01-01T00:23:09Z</time>
      </trkpt>
      <trkpt lat="47.69522" lon="5.99273">
        <ele>313</ele>
        <time>2010-01-01T00:23:11Z</time>
      </trkpt>
      <trkpt lat="47.69525" lon="5.99278">
        <ele>313</ele>
        <time>2010-01-01T00:23:13Z</time>
      </trkpt>
      <trkpt lat="47.69528" lon="5.99282">
        <ele>313</ele>
        <time>2010-01-01T00:23:14Z</time>
      </trkpt>
      <trkpt lat="47.6953" lon="5.99285">
        <ele>313</ele>
        <time>2010-01-01T00:23:16Z</time>
      </trkpt>
      <trkpt lat="47.69532" lon="5.99288">
        <ele>313</ele>
        <time>2010-01-01T00:23:16Z</time>
      </trkpt>
      <trkpt lat="47.69533" lon="5.9929">
        <ele>313</ele>
        <time>2010-01-01T00:23:17Z</time>
      </trkpt>
      <trkpt lat="47.69534" lon="5.99293">
        <ele>313</ele>
        <time>2010-01-01T00:23:18Z</time>
      </trkpt>
      <trkpt lat="47.69536" lon="5.99295">
        <ele>313</ele>
        <time>2010-01-01T00:23:19Z</time>
      </trkpt>
      <trkpt lat="47.69537" lon="5.99298">
        <ele>313</ele>
        <time>2010-01-01T00:23:20Z</time>
      </trkpt>
      <trkpt lat="47.69539" lon="5.993">
        <ele>313</ele>
        <time>2010-01-01T00:23:21Z</time>
      </trkpt>
      <trkpt lat="47.6954" lon="5.99302">
        <ele>313</ele>
        <time>2010-01-01T00:23:22Z</time>
      </trkpt>
      <trkpt lat="47.69541" lon="5.99306">
        <ele>313</ele>
        <time>2010-01-01T00:23:23Z</time>
      </trkpt>
      <trkpt lat="47.69543" lon="5.99309">
        <ele>313</ele>
        <time>2010-01-01T00:23:24Z</time>
      </trkpt>
      <trkpt lat="47.69545" lon="5.99313">
        <ele>313</ele>
        <time>2010-01-01T00:23:25Z</time>
      </trkpt>
      <trkpt lat="47.69547" lon="5.99316">
        <ele>313</ele>
        <time>2010-01-01T00:23:26Z</time>
      </trkpt>
      <trkpt lat="47.69549" lon="5.9932">
        <ele>313</ele>
        <time>2010-01-01T00:23:27Z</time>
      </trkpt>
      <trkpt lat="47.69551" lon="5.99323">
        <ele>313</ele>
        <time>2010-01-01T00:23:29Z</time>
      </trkpt>
      <trkpt lat="47.69552" lon="5.99327">
        <ele>313</ele>
        <time>2010-01-01T00:23:30Z</time>
      </trkpt>
      <trkpt lat="47.69554" lon="5.9933">
        <ele>313</ele>
        <time>2010-01-01T00:23:31Z</time>
      </trkpt>
      <trkpt lat="47.69556" lon="5.99333">
        <ele>313</ele>
        <time>2010-01-01T00:23:32Z</time>
      </trkpt>
      <trkpt lat="47.69557" lon="5.99336">
        <ele>313</ele>
        <time>2010-01-01T00:23:33Z</time>
      </trkpt>
      <trkpt lat="47.6956" lon="5.99339">
        <ele>313</ele>
        <time>2010-01-01T00:23:34Z</time>
      </trkpt>
      <trkpt lat="47.69561" lon="5.99342">
        <ele>313</ele>
        <time>2010-01-01T00:23:35Z</time>
      </trkpt>
      <trkpt lat="47.69564" lon="5.99346">
        <ele>313</ele>
        <time>2010-01-01T00:23:37Z</time>
      </trkpt>
      <trkpt lat="47.69566" lon="5.9935">
        <ele>313</ele>
        <time>2010-01-01T00:23:38Z</time>
      </trkpt>
      <trkpt lat="47.69568" lon="5.99353">
        <ele>313</ele>
        <time>2010-01-01T00:23:39Z</time>
      </trkpt>
      <trkpt lat="47.69571" lon="5.99356">
        <ele>313</ele>
        <time>2010-01-01T00:23:41Z</time>
      </trkpt>
      <trkpt lat="47.69573" lon="5.9936">
        <ele>313</ele>
        <time>2010-01-01T00:23:42Z</time>
      </trkpt>
      <trkpt lat="47.69576" lon="5.99363">
        <ele>313</ele>
        <time>2010-01-01T00:23:43Z</time>
      </trkpt>
      <trkpt lat="47.69578" lon="5.99366">
        <ele>313</ele>
        <time>2010-01-01T00:23:45Z</time>
      </trkpt>
      <trkpt lat="47.69581" lon="5.99371">
        <ele>313</ele>
        <time>2010-01-01T00:23:46Z</time>
      </trkpt>
      <trkpt lat="47.69583" lon="5.99375">
        <ele>313</ele>
        <time>2010-01-01T00:23:48Z</time>
      </trkpt>
      <trkpt lat="47.69585" lon="5.99378">
        <ele>313</ele>
        <time>2010-01-01T00:23:49Z</time>
      </trkpt>
      <trkpt lat="47.69587" lon="5.99381">
        <ele>313</ele>
        <time>2010-01-01T00:23:50Z</time>
      </trkpt>
      <trkpt lat="47.69589" lon="5.99384">
        <ele>313</ele>
        <time>2010-01-01T00:23:51Z</time>
      </trkpt>
      <trkpt lat="47.69591" lon="5.99387">
        <ele>313</ele>
        <time>2010-01-01T00:23:52Z</time>
      </trkpt>
      <trkpt lat="47.69593" lon="5.99389">
        <ele>313</ele>
        <time>2010-01-01T00:23:53Z</time>
      </trkpt>
      <trkpt lat="47.69593" lon="5.99391">
        <ele>314</ele>
        <time>2010-01-01T00:23:54Z</time>
      </trkpt>
      <trkpt lat="47.69595" lon="5.99394">
        <ele>314</ele>
        <time>2010-01-01T00:23:55Z</time>
      </trkpt>
      <trkpt lat="47.69595" lon="5.99396">
        <ele>315</ele>
        <time>2010-01-01T00:23:55Z</time>
      </trkpt>
      <trkpt lat="47.69595" lon="5.99398">
        <ele>315</ele>
        <time>2010-01-01T00:23:56Z</time>
      </trkpt>
      <trkpt lat="47.69595" lon="5.99401">
        <ele>315</ele>
        <time>2010-01-01T00:23:57Z</time>
      </trkpt>
      <trkpt lat="47.69596" lon="5.99403">
        <ele>315</ele>
        <time>2010-01-01T00:23:57Z</time>
      </trkpt>
      <trkpt lat="47.69597" lon="5.99405">
        <ele>315</ele>
        <time>2010-01-01T00:23:58Z</time>
      </trkpt>
      <trkpt lat="47.69599" lon="5.99407">
        <ele>315</ele>
        <time>2010-01-01T00:23:59Z</time>
      </trkpt>
      <trkpt lat="47.696" lon="5.9941">
        <ele>315</ele>
        <time>2010-01-01T00:24:00Z</time>
      </trkpt>
      <trkpt lat="47.69602" lon="5.99412">
        <ele>315</ele>
        <time>2010-01-01T00:24:01Z</time>
      </trkpt>
      <trkpt lat="47.69604" lon="5.99413">
        <ele>315</ele>
        <time>2010-01-01T00:24:02Z</time>
      </trkpt>
      <trkpt lat="47.69606" lon="5.99415">
        <ele>315</ele>
        <time>2010-01-01T00:24:02Z</time>
      </trkpt>
      <trkpt lat="47.69608" lon="5.99417">
        <ele>315</ele>
        <time>2010-01-01T00:24:03Z</time>
      </trkpt>
      <trkpt lat="47.6961" lon="5.99419">
        <ele>315</ele>
        <time>2010-01-01T00:24:04Z</time>
      </trkpt>
      <trkpt lat="47.69611" lon="5.99421">
        <ele>315</ele>
        <time>2010-01-01T00:24:05Z</time>
      </trkpt>
      <trkpt lat="47.69613" lon="5.99423">
        <ele>315</ele>
        <time>2010-01-01T00:24:06Z</time>
      </trkpt>
      <trkpt lat="47.69614" lon="5.99425">
        <ele>315</ele>
        <time>2010-01-01T00:24:07Z</time>
      </trkpt>
      <trkpt lat="47.69616" lon="5.99427">
        <ele>315</ele>
        <time>2010-01-01T00:24:08Z</time>
      </trkpt>
      <trkpt lat="47.69617" lon="5.9943">
        <ele>315</ele>
        <time>2010-01-01T00:24:09Z</time>
      </trkpt>
      <trkpt lat="47.69619" lon="5.99432">
        <ele>315</ele>
        <time>2010-01-01T00:24:09Z</time>
      </trkpt>
      <trkpt lat="47.6962" lon="5.99434">
        <ele>315</ele>
        <time>2010-01-01T00:24:10Z</time>
      </trkpt>
      <trkpt lat="47.69622" lon="5.99437">
        <ele>315</ele>
        <time>2010-01-01T00:24:11Z</time>
      </trkpt>
      <trkpt lat="47.69624" lon="5.99439">
        <ele>315</ele>
        <time>2010-01-01T00:24:12Z</time>
      </trkpt>
      <trkpt lat="47.69626" lon="5.99443">
        <ele>315</ele>
        <time>2010-01-01T00:24:13Z</time>
      </trkpt>
      <trkpt lat="47.69628" lon="5.99446">
        <ele>315</ele>
        <time>2010-01-01T00:24:15Z</time>
      </trkpt>
      <trkpt lat="47.69629" lon="5.99448">
        <ele>315</ele>
        <time>2010-01-01T00:24:15Z</time>
      </trkpt>
      <trkpt lat="47.69631" lon="5.9945">
        <ele>315</ele>
        <time>2010-01-01T00:24:16Z</time>
      </trkpt>
      <trkpt lat="47.69632" lon="5.99453">
        <ele>315</ele>
        <time>2010-01-01T00:24:17Z</time>
      </trkpt>
      <trkpt lat="47.69633" lon="5.99456">
        <ele>315</ele>
        <time>2010-01-01T00:24:18Z</time>
      </trkpt>
      <trkpt lat="47.69634" lon="5.99459">
        <ele>315</ele>
        <time>2010-01-01T00:24:19Z</time>
      </trkpt>
      <trkpt lat="47.69635" lon="5.99463">
        <ele>315</ele>
        <time>2010-01-01T00:24:20Z</time>
      </trkpt>
      <trkpt lat="47.69637" lon="5.99466">
        <ele>315</ele>
        <time>2010-01-01T00:24:21Z</time>
      </trkpt>
      <trkpt lat="47.69638" lon="5.99469">
        <ele>315</ele>
        <time>2010-01-01T00:24:22Z</time>
      </trkpt>
      <trkpt lat="47.6964" lon="5.99473">
        <ele>315</ele>
        <time>2010-01-01T00:24:24Z</time>
      </trkpt>
      <trkpt lat="47.69642" lon="5.99476">
        <ele>315</ele>
        <time>2010-01-01T00:24:25Z</time>
      </trkpt>
      <trkpt lat="47.69645" lon="5.9948">
        <ele>315</ele>
        <time>2010-01-01T00:24:26Z</time>
      </trkpt>
      <trkpt lat="47.69647" lon="5.99485">
        <ele>315</ele>
        <time>2010-01-01T00:24:28Z</time>
      </trkpt>
      <trkpt lat="47.69648" lon="5.99488">
        <ele>315</ele>
        <time>2010-01-01T00:24:29Z</time>
      </trkpt>
      <trkpt lat="47.69651" lon="5.99494">
        <ele>315</ele>
        <time>2010-01-01T00:24:31Z</time>
      </trkpt>
      <trkpt lat="47.69654" lon="5.995">
        <ele>315</ele>
        <time>2010-01-01T00:24:33Z</time>
      </trkpt>
      <trkpt lat="47.69657" lon="5.99506">
        <ele>315</ele>
        <time>2010-01-01T00:24:35Z</time>
      </trkpt>
      <trkpt lat="47.69661" lon="5.99511">
        <ele>315</ele>
        <time>2010-01-01T00:24:37Z</time>
      </trkpt>
      <trkpt lat="47.69664" lon="5.99516">
        <ele>315</ele>
        <time>2010-01-01T00:24:39Z</time>
      </trkpt>
      <trkpt lat="47.69668" lon="5.99521">
        <ele>315</ele>
        <time>2010-01-01T00:24:41Z</time>
      </trkpt>
      <trkpt lat="47.6967" lon="5.99526">
        <ele>315</ele>
        <time>2010-01-01T00:24:42Z</time>
      </trkpt>
      <trkpt lat="47.69671" lon="5.9953">
        <ele>314</ele>
        <time>2010-01-01T00:24:43Z</time>
      </trkpt>
      <trkpt lat="47.69673" lon="5.99534">
        <ele>314</ele>
        <time>2010-01-01T00:24:45Z</time>
      </trkpt>
      <trkpt lat="47.69675" lon="5.99538">
        <ele>313</ele>
        <time>2010-01-01T00:24:46Z</time>
      </trkpt>
      <trkpt lat="47.69677" lon="5.99542">
        <ele>313</ele>
        <time>2010-01-01T00:24:47Z</time>
      </trkpt>
      <trkpt lat="47.69678" lon="5.99546">
        <ele>313</ele>
        <time>2010-01-01T00:24:49Z</time>
      </trkpt>
      <trkpt lat="47.69681" lon="5.9955">
        <ele>313</ele>
        <time>2010-01-01T00:24:50Z</time>
      </trkpt>
      <trkpt lat="47.69684" lon="5.99555">
        <ele>313</ele>
        <time>2010-01-01T00:24:52Z</time>
      </trkpt>
      <trkpt lat="47.69686" lon="5.9956">
        <ele>313</ele>
        <time>2010-01-01T00:24:54Z</time>
      </trkpt>
      <trkpt lat="47.69689" lon="5.99564">
        <ele>313</ele>
        <time>2010-01-01T00:24:55Z</time>
      </trkpt>
      <trkpt lat="47.69691" lon="5.99568">
        <ele>313</ele>
        <time>2010-01-01T00:24:56Z</time>
      </trkpt>
      <trkpt lat="47.69693" lon="5.99572">
        <ele>313</ele>
        <time>2010-01-01T00:24:58Z</time>
      </trkpt>
      <trkpt lat="47.69695" lon="5.99576">
        <ele>313</ele>
        <time>2010-01-01T00:24:59Z</time>
      </trkpt>
      <trkpt lat="47.69697" lon="5.9958">
        <ele>313</ele>
        <time>2010-01-01T00:25:00Z</time>
      </trkpt>
      <trkpt lat="47.69699" lon="5.99584">
        <ele>313</ele>
        <time>2010-01-01T00:25:02Z</time>
      </trkpt>
      <trkpt lat="47.69702" lon="5.99588">
        <ele>313</ele>
        <time>2010-01-01T00:25:03Z</time>
      </trkpt>
      <trkpt lat="47.69705" lon="5.99592">
        <ele>313</ele>
        <time>2010-01-01T00:25:05Z</time>
      </trkpt>
      <trkpt lat="47.69707" lon="5.99596">
        <ele>313</ele>
        <time>2010-01-01T00:25:06Z</time>
      </trkpt>
      <trkpt lat="47.69711" lon="5.99601">
        <ele>313</ele>
        <time>2010-01-01T00:25:08Z</time>
      </trkpt>
      <trkpt lat="47.69716" lon="5.99607">
        <ele>313</ele>
        <time>2010-01-01T00:25:11Z</time>
      </trkpt>
      <trkpt lat="47.6972" lon="5.99613">
        <ele>313</ele>
        <time>2010-01-01T00:25:13Z</time>
      </trkpt>
      <trkpt lat="47.69724" lon="5.99618">
        <ele>313</ele>
        <time>2010-01-01T00:25:15Z</time>
      </trkpt>
      <trkpt lat="47.69727" lon="5.99622">
        <ele>313</ele>
        <time>2010-01-01T00:25:17Z</time>
      </trkpt>
      <trkpt lat="47.69731" lon="5.99627">
        <ele>313</ele>
        <time>2010-01-01T00:25:19Z</time>
      </trkpt>
      <trkpt lat="47.69735" lon="5.99632">
        <ele>313</ele>
        <time>2010-01-01T00:25:21Z</time>
      </trkpt>
      <trkpt lat="47.69737" lon="5.99636">
        <ele>313</ele>
        <time>2010-01-01T00:25:23Z</time>
      </trkpt>
      <trkpt lat="47.69741" lon="5.99641">
        <ele>313</ele>
        <time>2010-01-01T00:25:24Z</time>
      </trkpt>
      <trkpt lat="47.69743" lon="5.99645">
        <ele>313</ele>
        <time>2010-01-01T00:25:26Z</time>
      </trkpt>
      <trkpt lat="47.69746" lon="5.99648">
        <ele>313</ele>
        <time>2010-01-01T00:25:27Z</time>
      </trkpt>
      <trkpt lat="47.69749" lon="5.99653">
        <ele>313</ele>
        <time>2010-01-01T00:25:29Z</time>
      </trkpt>
      <trkpt lat="47.69752" lon="5.99658">
        <ele>313</ele>
        <time>2010-01-01T00:25:31Z</time>
      </trkpt>
      <trkpt lat="47.69754" lon="5.99663">
        <ele>313</ele>
        <time>2010-01-01T00:25:33Z</time>
      </trkpt>
      <trkpt lat="47.69757" lon="5.99667">
        <ele>313</ele>
        <time>2010-01-01T00:25:34Z</time>
      </trkpt>
      <trkpt lat="47.69759" lon="5.99672">
        <ele>313</ele>
        <time>2010-01-01T00:25:36Z</time>
      </trkpt>
      <trkpt lat="47.69761" lon="5.99676">
        <ele>313</ele>
        <time>2010-01-01T00:25:37Z</time>
      </trkpt>
      <trkpt lat="47.69763" lon="5.9968">
        <ele>313</ele>
        <time>2010-01-01T00:25:38Z</time>
      </trkpt>
      <trkpt lat="47.69766" lon="5.99684">
        <ele>313</ele>
        <time>2010-01-01T00:25:40Z</time>
      </trkpt>
      <trkpt lat="47.69768" lon="5.99687">
        <ele>313</ele>
        <time>2010-01-01T00:25:41Z</time>
      </trkpt>
      <trkpt lat="47.6977" lon="5.99692">
        <ele>313</ele>
        <time>2010-01-01T00:25:43Z</time>
      </trkpt>
      <trkpt lat="47.69772" lon="5.99694">
        <ele>313</ele>
        <time>2010-01-01T00:25:44Z</time>
      </trkpt>
      <trkpt lat="47.69774" lon="5.99698">
        <ele>313</ele>
        <time>2010-01-01T00:25:45Z</time>
      </trkpt>
      <trkpt lat="47.69776" lon="5.99701">
        <ele>313</ele>
        <time>2010-01-01T00:25:46Z</time>
      </trkpt>
      <trkpt lat="47.69778" lon="5.99705">
        <ele>313</ele>
        <time>2010-01-01T00:25:47Z</time>
      </trkpt>
      <trkpt lat="47.6978" lon="5.99708">
        <ele>313</ele>
        <time>2010-01-01T00:25:48Z</time>
      </trkpt>
      <trkpt lat="47.69782" lon="5.99712">
        <ele>313</ele>
        <time>2010-01-01T00:25:50Z</time>
      </trkpt>
      <trkpt lat="47.69785" lon="5.99715">
        <ele>313</ele>
        <time>2010-01-01T00:25:51Z</time>
      </trkpt>
      <trkpt lat="47.69787" lon="5.99719">
        <ele>313</ele>
        <time>2010-01-01T00:25:53Z</time>
      </trkpt>
      <trkpt lat="47.6979" lon="5.99723">
        <ele>313</ele>
        <time>2010-01-01T00:25:54Z</time>
      </trkpt>
      <trkpt lat="47.69792" lon="5.99727">
        <ele>313</ele>
        <time>2010-01-01T00:25:55Z</time>
      </trkpt>
      <trkpt lat="47.69794" lon="5.9973">
        <ele>313</ele>
        <time>2010-01-01T00:25:57Z</time>
      </trkpt>
      <trkpt lat="47.69796" lon="5.99733">
        <ele>313</ele>
        <time>2010-01-01T00:25:58Z</time>
      </trkpt>
      <trkpt lat="47.69798" lon="5.99736">
        <ele>313</ele>
        <time>2010-01-01T00:25:59Z</time>
      </trkpt>
      <trkpt lat="47.698" lon="5.9974">
        <ele>313</ele>
        <time>2010-01-01T00:26:00Z</time>
      </trkpt>
      <trkpt lat="47.69802" lon="5.99744">
        <ele>313</ele>
        <time>2010-01-01T00:26:02Z</time>
      </trkpt>
      <trkpt lat="47.69804" lon="5.99747">
        <ele>313</ele>
        <time>2010-01-01T00:26:03Z</time>
      </trkpt>
      <trkpt lat="47.69807" lon="5.99751">
        <ele>313</ele>
        <time>2010-01-01T00:26:04Z</time>
      </trkpt>
      <trkpt lat="47.69809" lon="5.99756">
        <ele>313</ele>
        <time>2010-01-01T00:26:06Z</time>
      </trkpt>
      <trkpt lat="47.69812" lon="5.99759">
        <ele>313</ele>
        <time>2010-01-01T00:26:07Z</time>
      </trkpt>
      <trkpt lat="47.69814" lon="5.99764">
        <ele>313</ele>
        <time>2010-01-01T00:26:09Z</time>
      </trkpt>
      <trkpt lat="47.69817" lon="5.99769">
        <ele>313</ele>
        <time>2010-01-01T00:26:11Z</time>
      </trkpt>
      <trkpt lat="47.69819" lon="5.99773">
        <ele>313</ele>
        <time>2010-01-01T00:26:12Z</time>
      </trkpt>
      <trkpt lat="47.69822" lon="5.99777">
        <ele>313</ele>
        <time>2010-01-01T00:26:13Z</time>
      </trkpt>
      <trkpt lat="47.69823" lon="5.9978">
        <ele>313</ele>
        <time>2010-01-01T00:26:14Z</time>
      </trkpt>
      <trkpt lat="47.69824" lon="5.99783">
        <ele>313</ele>
        <time>2010-01-01T00:26:16Z</time>
      </trkpt>
      <trkpt lat="47.69826" lon="5.99787">
        <ele>313</ele>
        <time>2010-01-01T00:26:17Z</time>
      </trkpt>
      <trkpt lat="47.69828" lon="5.99791">
        <ele>313</ele>
        <time>2010-01-01T00:26:18Z</time>
      </trkpt>
      <trkpt lat="47.69829" lon="5.99795">
        <ele>313</ele>
        <time>2010-01-01T00:26:19Z</time>
      </trkpt>
      <trkpt lat="47.69831" lon="5.998">
        <ele>313</ele>
        <time>2010-01-01T00:26:21Z</time>
      </trkpt>
      <trkpt lat="47.69832" lon="5.99805">
        <ele>313</ele>
        <time>2010-01-01T00:26:22Z</time>
      </trkpt>
      <trkpt lat="47.69833" lon="5.99809">
        <ele>313</ele>
        <time>2010-01-01T00:26:23Z</time>
      </trkpt>
      <trkpt lat="47.69834" lon="5.99813">
        <ele>313</ele>
        <time>2010-01-01T00:26:25Z</time>
      </trkpt>
      <trkpt lat="47.69835" lon="5.99816">
        <ele>313</ele>
        <time>2010-01-01T00:26:25Z</time>
      </trkpt>
      <trkpt lat="47.69835" lon="5.99816">
        <ele>313</ele>
        <time>2010-01-01T00:26:26Z</time>
      </trkpt>
      <trkpt lat="47.69835" lon="5.99816">
        <ele>313</ele>
        <time>2010-01-01T00:26:26Z</time>
      </trkpt>
      <trkpt lat="47.69835" lon="5.99816">
        <ele>313</ele>
        <time>2010-01-01T00:26:26Z</time>
      </trkpt>
      <trkpt lat="47.69835" lon="5.99816">
        <ele>313</ele>
        <time>2010-01-01T00:26:26Z</time>
      </trkpt>
      <trkpt lat="47.69835" lon="5.99816">
        <ele>313</ele>
        <time>2010-01-01T00:26:26Z</time>
      </trkpt>
      <trkpt lat="47.69834" lon="5.99817">
        <ele>313</ele>
        <time>2010-01-01T00:26:26Z</time>
      </trkpt>
      <trkpt lat="47.69834" lon="5.99819">
        <ele>313</ele>
        <time>2010-01-01T00:26:27Z</time>
      </trkpt>
      <trkpt lat="47.69833" lon="5.99821">
        <ele>313</ele>
        <time>2010-01-01T00:26:28Z</time>
      </trkpt>
      <trkpt lat="47.69827" lon="5.99827">
        <ele>313</ele>
        <time>2010-01-01T00:26:31Z</time>
      </trkpt>
      <trkpt lat="47.69825" lon="5.99829">
        <ele>313</ele>
        <time>2010-01-01T00:26:32Z</time>
      </trkpt>
      <trkpt lat="47.69823" lon="5.99832">
        <ele>313</ele>
        <time>2010-01-01T00:26:33Z</time>
      </trkpt>
      <trkpt lat="47.69821" lon="5.99835">
        <ele>313</ele>
        <time>2010-01-01T00:26:34Z</time>
      </trkpt>
      <trkpt lat="47.69818" lon="5.99837">
        <ele>313</ele>
        <time>2010-01-01T00:26:35Z</time>
      </trkpt>
      <trkpt lat="47.69816" lon="5.99838">
        <ele>313</ele>
        <time>2010-01-01T00:26:36Z</time>
      </trkpt>
      <trkpt lat="47.69813" lon="5.99841">
        <ele>313</ele>
        <time>2010-01-01T00:26:37Z</time>
      </trkpt>
      <trkpt lat="47.6981" lon="5.99842">
        <ele>313</ele>
        <time>2010-01-01T00:26:39Z</time>
      </trkpt>
      <trkpt lat="47.69807" lon="5.99844">
        <ele>313</ele>
        <time>2010-01-01T00:26:40Z</time>
      </trkpt>
      <trkpt lat="47.69804" lon="5.99845">
        <ele>313</ele>
        <time>2010-01-01T00:26:41Z</time>
      </trkpt>
      <trkpt lat="47.69801" lon="5.99848">
        <ele>313</ele>
        <time>2010-01-01T00:26:42Z</time>
      </trkpt>
      <trkpt lat="47.69798" lon="5.9985">
        <ele>313</ele>
        <time>2010-01-01T00:26:44Z</time>
      </trkpt>
      <trkpt lat="47.69795" lon="5.99853">
        <ele>313</ele>
        <time>2010-01-01T00:26:45Z</time>
      </trkpt>
      <trkpt lat="47.69791" lon="5.99855">
        <ele>313</ele>
        <time>2010-01-01T00:26:47Z</time>
      </trkpt>
      <trkpt lat="47.69787" lon="5.99858">
        <ele>313</ele>
        <time>2010-01-01T00:26:49Z</time>
      </trkpt>
      <trkpt lat="47.69784" lon="5.99861">
        <ele>313</ele>
        <time>2010-01-01T00:26:50Z</time>
      </trkpt>
      <trkpt lat="47.6978" lon="5.99864">
        <ele>313</ele>
        <time>2010-01-01T00:26:52Z</time>
      </trkpt>
      <trkpt lat="47.69776" lon="5.99867">
        <ele>313</ele>
        <time>2010-01-01T00:26:54Z</time>
      </trkpt>
      <trkpt lat="47.69772" lon="5.99871">
        <ele>313</ele>
        <time>2010-01-01T00:26:56Z</time>
      </trkpt>
      <trkpt lat="47.69768" lon="5.99874">
        <ele>313</ele>
        <time>2010-01-01T00:26:57Z</time>
      </trkpt>
      <trkpt lat="47.69764" lon="5.99877">
        <ele>313</ele>
        <time>2010-01-01T00:26:59Z</time>
      </trkpt>
      <trkpt lat="47.69762" lon="5.99879">
        <ele>313</ele>
        <time>2010-01-01T00:27:00Z</time>
      </trkpt>
      <trkpt lat="47.69762" lon="5.99881">
        <ele>313</ele>
        <time>2010-01-01T00:27:01Z</time>
      </trkpt>
      <trkpt lat="47.69761" lon="5.99883">
        <ele>312</ele>
        <time>2010-01-01T00:27:01Z</time>
      </trkpt>
      <trkpt lat="47.69762" lon="5.99885">
        <ele>312</ele>
        <time>2010-01-01T00:27:02Z</time>
      </trkpt>
      <trkpt lat="47.69762" lon="5.99887">
        <ele>311</ele>
        <time>2010-01-01T00:27:02Z</time>
      </trkpt>
      <trkpt lat="47.69763" lon="5.99888">
        <ele>311</ele>
        <time>2010-01-01T00:27:03Z</time>
      </trkpt>
      <trkpt lat="47.69763" lon="5.99889">
        <ele>311</ele>
        <time>2010-01-01T00:27:03Z</time>
      </trkpt>
      <trkpt lat="47.69764" lon="5.99891">
        <ele>311</ele>
        <time>2010-01-01T00:27:04Z</time>
      </trkpt>
      <trkpt lat="47.69766" lon="5.99894">
        <ele>311</ele>
        <time>2010-01-01T00:27:05Z</time>
      </trkpt>
      <trkpt lat="47.69767" lon="5.99896">
        <ele>311</ele>
        <time>2010-01-01T00:27:06Z</time>
      </trkpt>
      <trkpt lat="47.69768" lon="5.99899">
        <ele>311</ele>
        <time>2010-01-01T00:27:06Z</time>
      </trkpt>
      <trkpt lat="47.6977" lon="5.999">
        <ele>311</ele>
        <time>2010-01-01T00:27:07Z</time>
      </trkpt>
      <trkpt lat="47.69771" lon="5.99902">
        <ele>311</ele>
        <time>2010-01-01T00:27:08Z</time>
      </trkpt>
      <trkpt lat="47.69771" lon="5.99904">
        <ele>311</ele>
        <time>2010-01-01T00:27:08Z</time>
      </trkpt>
      <trkpt lat="47.69773" lon="5.99905">
        <ele>311</ele>
        <time>2010-01-01T00:27:09Z</time>
      </trkpt>
      <trkpt lat="47.69774" lon="5.99907">
        <ele>311</ele>
        <time>2010-01-01T00:27:10Z</time>
      </trkpt>
      <trkpt lat="47.69775" lon="5.99909">
        <ele>311</ele>
        <time>2010-01-01T00:27:10Z</time>
      </trkpt>
      <trkpt lat="47.69776" lon="5.99911">
        <ele>311</ele>
        <time>2010-01-01T00:27:11Z</time>
      </trkpt>
      <trkpt lat="47.69777" lon="5.99913">
        <ele>311</ele>
        <time>2010-01-01T00:27:12Z</time>
      </trkpt>
      <trkpt lat="47.69779" lon="5.99915">
        <ele>311</ele>
        <time>2010-01-01T00:27:12Z</time>
      </trkpt>
      <trkpt lat="47.6978" lon="5.99917">
        <ele>311</ele>
        <time>2010-01-01T00:27:13Z</time>
      </trkpt>
      <trkpt lat="47.69782" lon="5.99918">
        <ele>311</ele>
        <time>2010-01-01T00:27:14Z</time>
      </trkpt>
      <trkpt lat="47.69784" lon="5.9992">
        <ele>311</ele>
        <time>2010-01-01T00:27:15Z</time>
      </trkpt>
      <trkpt lat="47.69785" lon="5.99923">
        <ele>311</ele>
        <time>2010-01-01T00:27:16Z</time>
      </trkpt>
      <trkpt lat="47.69787" lon="5.99925">
        <ele>311</ele>
        <time>2010-01-01T00:27:17Z</time>
      </trkpt>
      <trkpt lat="47.69789" lon="5.99927">
        <ele>311</ele>
        <time>2010-01-01T00:27:18Z</time>
      </trkpt>
      <trkpt lat="47.69791" lon="5.99929">
        <ele>311</ele>
        <time>2010-01-01T00:27:19Z</time>
      </trkpt>
      <trkpt lat="47.69793" lon="5.99932">
        <ele>311</ele>
        <time>2010-01-01T00:27:20Z</time>
      </trkpt>
      <trkpt lat="47.69795" lon="5.99935">
        <ele>311</ele>
        <time>2010-01-01T00:27:21Z</time>
      </trkpt>
      <trkpt lat="47.69797" lon="5.99937">
        <ele>311</ele>
        <time>2010-01-01T00:27:22Z</time>
      </trkpt>
      <trkpt lat="47.69799" lon="5.9994">
        <ele>311</ele>
        <time>2010-01-01T00:27:23Z</time>
      </trkpt>
      <trkpt lat="47.69801" lon="5.99943">
        <ele>311</ele>
        <time>2010-01-01T00:27:24Z</time>
      </trkpt>
      <trkpt lat="47.69804" lon="5.99946">
        <ele>311</ele>
        <time>2010-01-01T00:27:25Z</time>
      </trkpt>
      <trkpt lat="47.69805" lon="5.99949">
        <ele>311</ele>
        <time>2010-01-01T00:27:27Z</time>
      </trkpt>
      <trkpt lat="47.69807" lon="5.99952">
        <ele>311</ele>
        <time>2010-01-01T00:27:28Z</time>
      </trkpt>
      <trkpt lat="47.69809" lon="5.99954">
        <ele>311</ele>
        <time>2010-01-01T00:27:29Z</time>
      </trkpt>
      <trkpt lat="47.69811" lon="5.99957">
        <ele>311</ele>
        <time>2010-01-01T00:27:30Z</time>
      </trkpt>
      <trkpt lat="47.69814" lon="5.9996">
        <ele>311</ele>
        <time>2010-01-01T00:27:31Z</time>
      </trkpt>
      <trkpt lat="47.69816" lon="5.99962">
        <ele>311</ele>
        <time>2010-01-01T00:27:32Z</time>
      </trkpt>
      <trkpt lat="47.69818" lon="5.99965">
        <ele>311</ele>
        <time>2010-01-01T00:27:33Z</time>
      </trkpt>
      <trkpt lat="47.69821" lon="5.99969">
        <ele>311</ele>
        <time>2010-01-01T00:27:35Z</time>
      </trkpt>
      <trkpt lat="47.69823" lon="5.99972">
        <ele>311</ele>
        <time>2010-01-01T00:27:36Z</time>
      </trkpt>
      <trkpt lat="47.69825" lon="5.99976">
        <ele>311</ele>
        <time>2010-01-01T00:27:37Z</time>
      </trkpt>
      <trkpt lat="47.69828" lon="5.99979">
        <ele>311</ele>
        <time>2010-01-01T00:27:39Z</time>
      </trkpt>
      <trkpt lat="47.69831" lon="5.99982">
        <ele>311</ele>
        <time>2010-01-01T00:27:40Z</time>
      </trkpt>
      <trkpt lat="47.69833" lon="5.99985">
        <ele>311</ele>
        <time>2010-01-01T00:27:41Z</time>
      </trkpt>
      <trkpt lat="47.69835" lon="5.99988">
        <ele>311</ele>
        <time>2010-01-01T00:27:42Z</time>
      </trkpt>
      <trkpt lat="47.69838" lon="5.99992">
        <ele>311</ele>
        <time>2010-01-01T00:27:44Z</time>
      </trkpt>
      <trkpt lat="47.69841" lon="5.99995">
        <ele>311</ele>
        <time>2010-01-01T00:27:45Z</time>
      </trkpt>
      <trkpt lat="47.69843" lon="5.99998">
        <ele>311</ele>
        <time>2010-01-01T00:27:46Z</time>
      </trkpt>
      <trkpt lat="47.69845" lon="6.00001">
        <ele>311</ele>
        <time>2010-01-01T00:27:48Z</time>
      </trkpt>
      <trkpt lat="47.69848" lon="6.00004">
        <ele>311</ele>
        <time>2010-01-01T00:27:49Z</time>
      </trkpt>
      <trkpt lat="47.69852" lon="6.00008">
        <ele>311</ele>
        <time>2010-01-01T00:27:51Z</time>
      </trkpt>
      <trkpt lat="47.69854" lon="6.00011">
        <ele>311</ele>
        <time>2010-01-01T00:27:52Z</time>
      </trkpt>
      <trkpt lat="47.69858" lon="6.00016">
        <ele>311</ele>
        <time>2010-01-01T00:27:55Z</time>
      </trkpt>
      <trkpt lat="47.69861" lon="6.0002">
        <ele>311</ele>
        <time>2010-01-01T00:27:56Z</time>
      </trkpt>
      <trkpt lat="47.69864" lon="6.00024">
        <ele>311</ele>
        <time>2010-01-01T00:27:58Z</time>
      </trkpt>
      <trkpt lat="47.69867" lon="6.00028">
        <ele>311</ele>
        <time>2010-01-01T00:27:59Z</time>
      </trkpt>
      <trkpt lat="47.69871" lon="6.00032">
        <ele>311</ele>
        <time>2010-01-01T00:28:01Z</time>
      </trkpt>
      <trkpt lat="47.69874" lon="6.00036">
        <ele>311</ele>
        <time>2010-01-01T00:28:03Z</time>
      </trkpt>
      <trkpt lat="47.69877" lon="6.0004">
        <ele>311</ele>
        <time>2010-01-01T00:28:04Z</time>
      </trkpt>
      <trkpt lat="47.69879" lon="6.00043">
        <ele>311</ele>
        <time>2010-01-01T00:28:05Z</time>
      </trkpt>
      <trkpt lat="47.69881" lon="6.00046">
        <ele>311</ele>
        <time>2010-01-01T00:28:07Z</time>
      </trkpt>
      <trkpt lat="47.69884" lon="6.00048">
        <ele>311</ele>
        <time>2010-01-01T00:28:08Z</time>
      </trkpt>
      <trkpt lat="47.69887" lon="6.00052">
        <ele>311</ele>
        <time>2010-01-01T00:28:09Z</time>
      </trkpt>
      <trkpt lat="47.6989" lon="6.00055">
        <ele>311</ele>
        <time>2010-01-01T00:28:11Z</time>
      </trkpt>
      <trkpt lat="47.69893" lon="6.00059">
        <ele>311</ele>
        <time>2010-01-01T00:28:13Z</time>
      </trkpt>
      <trkpt lat="47.69897" lon="6.00064">
        <ele>311</ele>
        <time>2010-01-01T00:28:15Z</time>
      </trkpt>
      <trkpt lat="47.69901" lon="6.00069">
        <ele>311</ele>
        <time>2010-01-01T00:28:17Z</time>
      </trkpt>
      <trkpt lat="47.69906" lon="6.00073">
        <ele>311</ele>
        <time>2010-01-01T00:28:19Z</time>
      </trkpt>
      <trkpt lat="47.69909" lon="6.00077">
        <ele>311</ele>
        <time>2010-01-01T00:28:21Z</time>
      </trkpt>
      <trkpt lat="47.69912" lon="6.0008">
        <ele>311</ele>
        <time>2010-01-01T00:28:22Z</time>
      </trkpt>
      <trkpt lat="47.69915" lon="6.00083">
        <ele>311</ele>
        <time>2010-01-01T00:28:23Z</time>
      </trkpt>
      <trkpt lat="47.69917" lon="6.00086">
        <ele>311</ele>
        <time>2010-01-01T00:28:25Z</time>
      </trkpt>
      <trkpt lat="47.6992" lon="6.00088">
        <ele>311</ele>
        <time>2010-01-01T00:28:26Z</time>
      </trkpt>
      <trkpt lat="47.69923" lon="6.00091">
        <ele>311</ele>
        <time>2010-01-01T00:28:27Z</time>
      </trkpt>
      <trkpt lat="47.69926" lon="6.00094">
        <ele>311</ele>
        <time>2010-01-01T00:28:29Z</time>
      </trkpt>
      <trkpt lat="47.69929" lon="6.00098">
        <ele>311</ele>
        <time>2010-01-01T00:28:30Z</time>
      </trkpt>
      <trkpt lat="47.69931" lon="6.00101">
        <ele>311</ele>
        <time>2010-01-01T00:28:32Z</time>
      </trkpt>
      <trkpt lat="47.69934" lon="6.00105">
        <ele>311</ele>
        <time>2010-01-01T00:28:33Z</time>
      </trkpt>
      <trkpt lat="47.69937" lon="6.00108">
        <ele>311</ele>
        <time>2010-01-01T00:28:34Z</time>
      </trkpt>
      <trkpt lat="47.69939" lon="6.00112">
        <ele>311</ele>
        <time>2010-01-01T00:28:36Z</time>
      </trkpt>
      <trkpt lat="47.69942" lon="6.00116">
        <ele>311</ele>
        <time>2010-01-01T00:28:37Z</time>
      </trkpt>
      <trkpt lat="47.69944" lon="6.00119">
        <ele>311</ele>
        <time>2010-01-01T00:28:38Z</time>
      </trkpt>
      <trkpt lat="47.69946" lon="6.00122">
        <ele>311</ele>
        <time>2010-01-01T00:28:40Z</time>
      </trkpt>
      <trkpt lat="47.69948" lon="6.00125">
        <ele>311</ele>
        <time>2010-01-01T00:28:41Z</time>
      </trkpt>
      <trkpt lat="47.6995" lon="6.00128">
        <ele>311</ele>
        <time>2010-01-01T00:28:42Z</time>
      </trkpt>
      <trkpt lat="47.69953" lon="6.0013">
        <ele>311</ele>
        <time>2010-01-01T00:28:43Z</time>
      </trkpt>
      <trkpt lat="47.69955" lon="6.00133">
        <ele>311</ele>
        <time>2010-01-01T00:28:44Z</time>
      </trkpt>
      <trkpt lat="47.69957" lon="6.00136">
        <ele>311</ele>
        <time>2010-01-01T00:28:46Z</time>
      </trkpt>
      <trkpt lat="47.6996" lon="6.0014">
        <ele>311</ele>
        <time>2010-01-01T00:28:47Z</time>
      </trkpt>
      <trkpt lat="47.69963" lon="6.00144">
        <ele>311</ele>
        <time>2010-01-01T00:28:49Z</time>
      </trkpt>
      <trkpt lat="47.69967" lon="6.00149">
        <ele>311</ele>
        <time>2010-01-01T00:28:51Z</time>
      </trkpt>
      <trkpt lat="47.69971" lon="6.00154">
        <ele>311</ele>
        <time>2010-01-01T00:28:53Z</time>
      </trkpt>
      <trkpt lat="47.69974" lon="6.00159">
        <ele>310</ele>
        <time>2010-01-01T00:28:55Z</time>
      </trkpt>
      <trkpt lat="47.69978" lon="6.00163">
        <ele>310</ele>
        <time>2010-01-01T00:28:57Z</time>
      </trkpt>
      <trkpt lat="47.69982" lon="6.00168">
        <ele>309</ele>
        <time>2010-01-01T00:28:59Z</time>
      </trkpt>
      <trkpt lat="47.69986" lon="6.00174">
        <ele>309</ele>
        <time>2010-01-01T00:29:01Z</time>
      </trkpt>
      <trkpt lat="47.6999" lon="6.00178">
        <ele>308</ele>
        <time>2010-01-01T00:29:03Z</time>
      </trkpt>
      <trkpt lat="47.7" lon="6.0019">
        <ele>308</ele>
        <time>2010-01-01T00:29:08Z</time>
      </trkpt>
      <trkpt lat="47.70003" lon="6.00194">
        <ele>308</ele>
        <time>2010-01-01T00:29:09Z</time>
      </trkpt>
      <trkpt lat="47.70005" lon="6.00197">
        <ele>308</ele>
        <time>2010-01-01T00:29:11Z</time>
      </trkpt>
      <trkpt lat="47.70008" lon="6.002">
        <ele>308</ele>
        <time>2010-01-01T00:29:12Z</time>
      </trkpt>
      <trkpt lat="47.7001" lon="6.00203">
        <ele>307</ele>
        <time>2010-01-01T00:29:14Z</time>
      </trkpt>
      <trkpt lat="47.70012" lon="6.00206">
        <ele>307</ele>
        <time>2010-01-01T00:29:15Z</time>
      </trkpt>
      <trkpt lat="47.70014" lon="6.00208">
        <ele>306</ele>
        <time>2010-01-01T00:29:15Z</time>
      </trkpt>
      <trkpt lat="47.70015" lon="6.00208">
        <ele>306</ele>
        <time>2010-01-01T00:29:16Z</time>
      </trkpt>
      <trkpt lat="47.70016" lon="6.00209">
        <ele>306</ele>
        <time>2010-01-01T00:29:16Z</time>
      </trkpt>
      <trkpt lat="47.70016" lon="6.00209">
        <ele>306</ele>
        <time>2010-01-01T00:29:17Z</time>
      </trkpt>
      <trkpt lat="47.70017" lon="6.0021">
        <ele>306</ele>
        <time>2010-01-01T00:29:17Z</time>
      </trkpt>
      <trkpt lat="47.70017" lon="6.0021">
        <ele>306</ele>
        <time>2010-01-01T00:29:17Z</time>
      </trkpt>
      <trkpt lat="47.70018" lon="6.00209">
        <ele>306</ele>
        <time>2010-01-01T00:29:17Z</time>
      </trkpt>
      <trkpt lat="47.7002" lon="6.00207">
        <ele>306</ele>
        <time>2010-01-01T00:29:18Z</time>
      </trkpt>
      <trkpt lat="47.70024" lon="6.00202">
        <ele>306</ele>
        <time>2010-01-01T00:29:20Z</time>
      </trkpt>
      <trkpt lat="47.70029" lon="6.00196">
        <ele>304</ele>
        <time>2010-01-01T00:29:23Z</time>
      </trkpt>
      <trkpt lat="47.70031" lon="6.00193">
        <ele>304</ele>
        <time>2010-01-01T00:29:24Z</time>
      </trkpt>
      <trkpt lat="47.70034" lon="6.0019">
        <ele>304</ele>
        <time>2010-01-01T00:29:26Z</time>
      </trkpt>
      <trkpt lat="47.70037" lon="6.00186">
        <ele>304</ele>
        <time>2010-01-01T00:29:27Z</time>
      </trkpt>
      <trkpt lat="47.70041" lon="6.00182">
        <ele>304</ele>
        <time>2010-01-01T00:29:29Z</time>
      </trkpt>
      <trkpt lat="47.70044" lon="6.00178">
        <ele>304</ele>
        <time>2010-01-01T00:29:31Z</time>
      </trkpt>
      <trkpt lat="47.70048" lon="6.00174">
        <ele>304</ele>
        <time>2010-01-01T00:29:32Z</time>
      </trkpt>
      <trkpt lat="47.70051" lon="6.0017">
        <ele>304</ele>
        <time>2010-01-01T00:29:34Z</time>
      </trkpt>
      <trkpt lat="47.70054" lon="6.00166">
        <ele>304</ele>
        <time>2010-01-01T00:29:36Z</time>
      </trkpt>
      <trkpt lat="47.70057" lon="6.00162">
        <ele>304</ele>
        <time>2010-01-01T00:29:37Z</time>
      </trkpt>
      <trkpt lat="47.7006" lon="6.00157">
        <ele>304</ele>
        <time>2010-01-01T00:29:39Z</time>
      </trkpt>
      <trkpt lat="47.70064" lon="6.00153">
        <ele>304</ele>
        <time>2010-01-01T00:29:41Z</time>
      </trkpt>
      <trkpt lat="47.70067" lon="6.00148">
        <ele>304</ele>
        <time>2010-01-01T00:29:43Z</time>
      </trkpt>
      <trkpt lat="47.7007" lon="6.00144">
        <ele>304</ele>
        <time>2010-01-01T00:29:45Z</time>
      </trkpt>
      <trkpt lat="47.70073" lon="6.0014">
        <ele>304</ele>
        <time>2010-01-01T00:29:46Z</time>
      </trkpt>
      <trkpt lat="47.70077" lon="6.00136">
        <ele>304</ele>
        <time>2010-01-01T00:29:48Z</time>
      </trkpt>
      <trkpt lat="47.7008" lon="6.00131">
        <ele>304</ele>
        <time>2010-01-01T00:29:50Z</time>
      </trkpt>
      <trkpt lat="47.70084" lon="6.00127">
        <ele>304</ele>
        <time>2010-01-01T00:29:52Z</time>
      </trkpt>
      <trkpt lat="47.70087" lon="6.00122">
        <ele>304</ele>
        <time>2010-01-01T00:29:54Z</time>
      </trkpt>
      <trkpt lat="47.70091" lon="6.00116">
        <ele>303</ele>
        <time>2010-01-01T00:29:56Z</time>
      </trkpt>
      <trkpt lat="47.70094" lon="6.00112">
        <ele>303</ele>
        <time>2010-01-01T00:29:58Z</time>
      </trkpt>
      <trkpt lat="47.70098" lon="6.00107">
        <ele>303</ele>
        <time>2010-01-01T00:29:59Z</time>
      </trkpt>
      <trkpt lat="47.70101" lon="6.00102">
        <ele>302</ele>
        <time>2010-01-01T00:30:01Z</time>
      </trkpt>
      <trkpt lat="47.70104" lon="6.00098">
        <ele>302</ele>
        <time>2010-01-01T00:30:03Z</time>
      </trkpt>
      <trkpt lat="47.70108" lon="6.00093">
        <ele>302</ele>
        <time>2010-01-01T00:30:05Z</time>
      </trkpt>
      <trkpt lat="47.7011" lon="6.00088">
        <ele>302</ele>
        <time>2010-01-01T00:30:07Z</time>
      </trkpt>
      <trkpt lat="47.70113" lon="6.00083">
        <ele>301</ele>
        <time>2010-01-01T00:30:08Z</time>
      </trkpt>
      <trkpt lat="47.70116" lon="6.00078">
        <ele>301</ele>
        <time>2010-01-01T00:30:10Z</time>
      </trkpt>
      <trkpt lat="47.70119" lon="6.00074">
        <ele>300</ele>
        <time>2010-01-01T00:30:12Z</time>
      </trkpt>
      <trkpt lat="47.70121" lon="6.00069">
        <ele>300</ele>
        <time>2010-01-01T00:30:13Z</time>
      </trkpt>
      <trkpt lat="47.70123" lon="6.00065">
        <ele>300</ele>
        <time>2010-01-01T00:30:15Z</time>
      </trkpt>
      <trkpt lat="47.70126" lon="6.00061">
        <ele>300</ele>
        <time>2010-01-01T00:30:16Z</time>
      </trkpt>
      <trkpt lat="47.70127" lon="6.00056">
        <ele>299</ele>
        <time>2010-01-01T00:30:18Z</time>
      </trkpt>
      <trkpt lat="47.70129" lon="6.00052">
        <ele>299</ele>
        <time>2010-01-01T00:30:19Z</time>
      </trkpt>
      <trkpt lat="47.70131" lon="6.00046">
        <ele>299</ele>
        <time>2010-01-01T00:30:21Z</time>
      </trkpt>
      <trkpt lat="47.70132" lon="6.00041">
        <ele>298</ele>
        <time>2010-01-01T00:30:22Z</time>
      </trkpt>
      <trkpt lat="47.70135" lon="6.00034">
        <ele>298</ele>
        <time>2010-01-01T00:30:24Z</time>
      </trkpt>
      <trkpt lat="47.70137" lon="6.00028">
        <ele>298</ele>
        <time>2010-01-01T00:30:26Z</time>
      </trkpt>
      <trkpt lat="47.70139" lon="6.00022">
        <ele>297</ele>
        <time>2010-01-01T00:30:28Z</time>
      </trkpt>
      <trkpt lat="47.70142" lon="6.00017">
        <ele>297</ele>
        <time>2010-01-01T00:30:30Z</time>
      </trkpt>
      <trkpt lat="47.70143" lon="6.00011">
        <ele>296</ele>
        <time>2010-01-01T00:30:32Z</time>
      </trkpt>
      <trkpt lat="47.70145" lon="6.00004">
        <ele>296</ele>
        <time>2010-01-01T00:30:34Z</time>
      </trkpt>
      <trkpt lat="47.70147" lon="5.99997">
        <ele>295</ele>
        <time>2010-01-01T00:30:35Z</time>
      </trkpt>
      <trkpt lat="47.70149" lon="5.99991">
        <ele>295</ele>
        <time>2010-01-01T00:30:37Z</time>
      </trkpt>
      <trkpt lat="47.70151" lon="5.99985">
        <ele>295</ele>
        <time>2010-01-01T00:30:39Z</time>
      </trkpt>
      <trkpt lat="47.70153" lon="5.99979">
        <ele>294</ele>
        <time>2010-01-01T00:30:41Z</time>
      </trkpt>
      <trkpt lat="47.70155" lon="5.99973">
        <ele>294</ele>
        <time>2010-01-01T00:30:43Z</time>
      </trkpt>
      <trkpt lat="47.70157" lon="5.99967">
        <ele>293</ele>
        <time>2010-01-01T00:30:45Z</time>
      </trkpt>
      <trkpt lat="47.70159" lon="5.99961">
        <ele>293</ele>
        <time>2010-01-01T00:30:46Z</time>
      </trkpt>
      <trkpt lat="47.70162" lon="5.99955">
        <ele>292</ele>
        <time>2010-01-01T00:30:48Z</time>
      </trkpt>
      <trkpt lat="47.70164" lon="5.99949">
        <ele>292</ele>
        <time>2010-01-01T00:30:50Z</time>
      </trkpt>
      <trkpt lat="47.70167" lon="5.99944">
        <ele>292</ele>
        <time>2010-01-01T00:30:52Z</time>
      </trkpt>
      <trkpt lat="47.7017" lon="5.99939">
        <ele>291</ele>
        <time>2010-01-01T00:30:54Z</time>
      </trkpt>
      <trkpt lat="47.70172" lon="5.99934">
        <ele>291</ele>
        <time>2010-01-01T00:30:55Z</time>
      </trkpt>
      <trkpt lat="47.70176" lon="5.99928">
        <ele>290</ele>
        <time>2010-01-01T00:30:57Z</time>
      </trkpt>
      <trkpt lat="47.70179" lon="5.99922">
        <ele>290</ele>
        <time>2010-01-01T00:31:00Z</time>
      </trkpt>
      <trkpt lat="47.70183" lon="5.99916">
        <ele>289</ele>
        <time>2010-01-01T00:31:02Z</time>
      </trkpt>
      <trkpt lat="47.70187" lon="5.99911">
        <ele>288</ele>
        <time>2010-01-01T00:31:04Z</time>
      </trkpt>
      <trkpt lat="47.7019" lon="5.99906">
        <ele>288</ele>
        <time>2010-01-01T00:31:06Z</time>
      </trkpt>
      <trkpt lat="47.70194" lon="5.99901">
        <ele>287</ele>
        <time>2010-01-01T00:31:08Z</time>
      </trkpt>
      <trkpt lat="47.70198" lon="5.99897">
        <ele>287</ele>
        <time>2010-01-01T00:31:10Z</time>
      </trkpt>
      <trkpt lat="47.70202" lon="5.99892">
        <ele>286</ele>
        <time>2010-01-01T00:31:12Z</time>
      </trkpt>
      <trkpt lat="47.70206" lon="5.99888">
        <ele>286</ele>
        <time>2010-01-01T00:31:14Z</time>
      </trkpt>
      <trkpt lat="47.7021" lon="5.99883">
        <ele>285</ele>
        <time>2010-01-01T00:31:16Z</time>
      </trkpt>
      <trkpt lat="47.70214" lon="5.99879">
        <ele>285</ele>
        <time>2010-01-01T00:31:18Z</time>
      </trkpt>
      <trkpt lat="47.70218" lon="5.99875">
        <ele>284</ele>
        <time>2010-01-01T00:31:20Z</time>
      </trkpt>
      <trkpt lat="47.70222" lon="5.99871">
        <ele>283</ele>
        <time>2010-01-01T00:31:22Z</time>
      </trkpt>
      <trkpt lat="47.70226" lon="5.99868">
        <ele>283</ele>
        <time>2010-01-01T00:31:23Z</time>
      </trkpt>
      <trkpt lat="47.70229" lon="5.99864">
        <ele>282</ele>
        <time>2010-01-01T00:31:25Z</time>
      </trkpt>
      <trkpt lat="47.70232" lon="5.99861">
        <ele>282</ele>
        <time>2010-01-01T00:31:26Z</time>
      </trkpt>
      <trkpt lat="47.70235" lon="5.99858">
        <ele>281</ele>
        <time>2010-01-01T00:31:28Z</time>
      </trkpt>
      <trkpt lat="47.70237" lon="5.99856">
        <ele>281</ele>
        <time>2010-01-01T00:31:29Z</time>
      </trkpt>
      <trkpt lat="47.70239" lon="5.99854">
        <ele>280</ele>
        <time>2010-01-01T00:31:30Z</time>
      </trkpt>
      <trkpt lat="47.70241" lon="5.99853">
        <ele>280</ele>
        <time>2010-01-01T00:31:31Z</time>
      </trkpt>
      <trkpt lat="47.70243" lon="5.99853">
        <ele>280</ele>
        <time>2010-01-01T00:31:32Z</time>
      </trkpt>
      <trkpt lat="47.70246" lon="5.99855">
        <ele>279</ele>
        <time>2010-01-01T00:31:33Z</time>
      </trkpt>
      <trkpt lat="47.70249" lon="5.99859">
        <ele>279</ele>
        <time>2010-01-01T00:31:34Z</time>
      </trkpt>
      <trkpt lat="47.70252" lon="5.99864">
        <ele>279</ele>
        <time>2010-01-01T00:31:36Z</time>
      </trkpt>
      <trkpt lat="47.70255" lon="5.9987">
        <ele>278</ele>
        <time>2010-01-01T00:31:38Z</time>
      </trkpt>
      <trkpt lat="47.70258" lon="5.99877">
        <ele>278</ele>
        <time>2010-01-01T00:31:40Z</time>
      </trkpt>
      <trkpt lat="47.7026" lon="5.99882">
        <ele>278</ele>
        <time>2010-01-01T00:31:42Z</time>
      </trkpt>
      <trkpt lat="47.70262" lon="5.99889">
        <ele>278</ele>
        <time>2010-01-01T00:31:44Z</time>
      </trkpt>
      <trkpt lat="47.70264" lon="5.99894">
        <ele>278</ele>
        <time>2010-01-01T00:31:46Z</time>
      </trkpt>
      <trkpt lat="47.70266" lon="5.99901">
        <ele>278</ele>
        <time>2010-01-01T00:31:48Z</time>
      </trkpt>
      <trkpt lat="47.70269" lon="5.99907">
        <ele>277</ele>
        <time>2010-01-01T00:31:50Z</time>
      </trkpt>
      <trkpt lat="47.70271" lon="5.99913">
        <ele>277</ele>
        <time>2010-01-01T00:31:52Z</time>
      </trkpt>
      <trkpt lat="47.70274" lon="5.99919">
        <ele>276</ele>
        <time>2010-01-01T00:31:53Z</time>
      </trkpt>
      <trkpt lat="47.70282" lon="5.99937">
        <ele>276</ele>
        <time>2010-01-01T00:31:59Z</time>
      </trkpt>
      <trkpt lat="47.70285" lon="5.99943">
        <ele>276</ele>
        <time>2010-01-01T00:32:01Z</time>
      </trkpt>
      <trkpt lat="47.70287" lon="5.99949">
        <ele>276</ele>
        <time>2010-01-01T00:32:03Z</time>
      </trkpt>
      <trkpt lat="47.7029" lon="5.99955">
        <ele>276</ele>
        <time>2010-01-01T00:32:05Z</time>
      </trkpt>
      <trkpt lat="47.70292" lon="5.99962">
        <ele>276</ele>
        <time>2010-01-01T00:32:07Z</time>
      </trkpt>
      <trkpt lat="47.70295" lon="5.99968">
        <ele>276</ele>
        <time>2010-01-01T00:32:09Z</time>
      </trkpt>
      <trkpt lat="47.70298" lon="5.99974">
        <ele>275</ele>
        <time>2010-01-01T00:32:11Z</time>
      </trkpt>
      <trkpt lat="47.70301" lon="5.9998">
        <ele>275</ele>
        <time>2010-01-01T00:32:13Z</time>
      </trkpt>
      <trkpt lat="47.70304" lon="5.99985">
        <ele>274</ele>
        <time>2010-01-01T00:32:15Z</time>
      </trkpt>
      <trkpt lat="47.70307" lon="5.99991">
        <ele>274</ele>
        <time>2010-01-01T00:32:17Z</time>
      </trkpt>
      <trkpt lat="47.70311" lon="5.99996">
        <ele>274</ele>
        <time>2010-01-01T00:32:19Z</time>
      </trkpt>
      <trkpt lat="47.70314" lon="6.00001">
        <ele>274</ele>
        <time>2010-01-01T00:32:21Z</time>
      </trkpt>
      <trkpt lat="47.70318" lon="6.00005">
        <ele>274</ele>
        <time>2010-01-01T00:32:23Z</time>
      </trkpt>
      <trkpt lat="47.70321" lon="6.0001">
        <ele>274</ele>
        <time>2010-01-01T00:32:24Z</time>
      </trkpt>
      <trkpt lat="47.70324" lon="6.00015">
        <ele>274</ele>
        <time>2010-01-01T00:32:26Z</time>
      </trkpt>
      <trkpt lat="47.70328" lon="6.00021">
        <ele>274</ele>
        <time>2010-01-01T00:32:29Z</time>
      </trkpt>
      <trkpt lat="47.70331" lon="6.00027">
        <ele>274</ele>
        <time>2010-01-01T00:32:30Z</time>
      </trkpt>
      <trkpt lat="47.70335" lon="6.00032">
        <ele>274</ele>
        <time>2010-01-01T00:32:33Z</time>
      </trkpt>
      <trkpt lat="47.70338" lon="6.00037">
        <ele>273</ele>
        <time>2010-01-01T00:32:34Z</time>
      </trkpt>
      <trkpt lat="47.70342" lon="6.00042">
        <ele>273</ele>
        <time>2010-01-01T00:32:37Z</time>
      </trkpt>
      <trkpt lat="47.70346" lon="6.00048">
        <ele>272</ele>
        <time>2010-01-01T00:32:39Z</time>
      </trkpt>
      <trkpt lat="47.70349" lon="6.00054">
        <ele>272</ele>
        <time>2010-01-01T00:32:41Z</time>
      </trkpt>
      <trkpt lat="47.70353" lon="6.0006">
        <ele>272</ele>
        <time>2010-01-01T00:32:43Z</time>
      </trkpt>
      <trkpt lat="47.70357" lon="6.00067">
        <ele>272</ele>
        <time>2010-01-01T00:32:46Z</time>
      </trkpt>
      <trkpt lat="47.7036" lon="6.00073">
        <ele>272</ele>
        <time>2010-01-01T00:32:48Z</time>
      </trkpt>
      <trkpt lat="47.70363" lon="6.0008">
        <ele>272</ele>
        <time>2010-01-01T00:32:50Z</time>
      </trkpt>
      <trkpt lat="47.70367" lon="6.00087">
        <ele>271</ele>
        <time>2010-01-01T00:32:52Z</time>
      </trkpt>
      <trkpt lat="47.7037" lon="6.00094">
        <ele>270</ele>
        <time>2010-01-01T00:32:55Z</time>
      </trkpt>
      <trkpt lat="47.70374" lon="6.001">
        <ele>270</ele>
        <time>2010-01-01T00:32:57Z</time>
      </trkpt>
      <trkpt lat="47.70377" lon="6.00106">
        <ele>270</ele>
        <time>2010-01-01T00:32:59Z</time>
      </trkpt>
      <trkpt lat="47.70381" lon="6.00112">
        <ele>270</ele>
        <time>2010-01-01T00:33:01Z</time>
      </trkpt>
      <trkpt lat="47.70384" lon="6.00118">
        <ele>270</ele>
        <time>2010-01-01T00:33:03Z</time>
      </trkpt>
      <trkpt lat="47.70387" lon="6.00124">
        <ele>270</ele>
        <time>2010-01-01T00:33:05Z</time>
      </trkpt>
      <trkpt lat="47.7039" lon="6.00129">
        <ele>270</ele>
        <time>2010-01-01T00:33:07Z</time>
      </trkpt>
      <trkpt lat="47.70394" lon="6.00134">
        <ele>270</ele>
        <time>2010-01-01T00:33:09Z</time>
      </trkpt>
      <trkpt lat="47.70398" lon="6.00139">
        <ele>270</ele>
        <time>2010-01-01T00:33:11Z</time>
      </trkpt>
      <trkpt lat="47.70402" lon="6.00145">
        <ele>270</ele>
        <time>2010-01-01T00:33:13Z</time>
      </trkpt>
      <trkpt lat="47.70406" lon="6.0015">
        <ele>269</ele>
        <time>2010-01-01T00:33:15Z</time>
      </trkpt>
      <trkpt lat="47.70411" lon="6.00154">
        <ele>269</ele>
        <time>2010-01-01T00:33:18Z</time>
      </trkpt>
      <trkpt lat="47.70415" lon="6.00159">
        <ele>269</ele>
        <time>2010-01-01T00:33:20Z</time>
      </trkpt>
      <trkpt lat="47.70419" lon="6.00164">
        <ele>268</ele>
        <time>2010-01-01T00:33:22Z</time>
      </trkpt>
      <trkpt lat="47.70423" lon="6.00169">
        <ele>268</ele>
        <time>2010-01-01T00:33:24Z</time>
      </trkpt>
      <trkpt lat="47.70427" lon="6.00174">
        <ele>268</ele>
        <time>2010-01-01T00:33:26Z</time>
      </trkpt>
      <trkpt lat="47.70431" lon="6.0018">
        <ele>268</ele>
        <time>2010-01-01T00:33:28Z</time>
      </trkpt>
      <trkpt lat="47.70434" lon="6.00186">
        <ele>268</ele>
        <time>2010-01-01T00:33:30Z</time>
      </trkpt>
      <trkpt lat="47.70437" lon="6.00191">
        <ele>267</ele>
        <time>2010-01-01T00:33:32Z</time>
      </trkpt>
      <trkpt lat="47.70439" lon="6.00195">
        <ele>267</ele>
        <time>2010-01-01T00:33:33Z</time>
      </trkpt>
      <trkpt lat="47.70445" lon="6.00207">
        <ele>265</ele>
        <time>2010-01-01T00:33:37Z</time>
      </trkpt>
      <trkpt lat="47.70446" lon="6.0021">
        <ele>265</ele>
        <time>2010-01-01T00:33:38Z</time>
      </trkpt>
      <trkpt lat="47.70447" lon="6.00212">
        <ele>265</ele>
        <time>2010-01-01T00:33:39Z</time>
      </trkpt>
      <trkpt lat="47.70449" lon="6.00214">
        <ele>265</ele>
        <time>2010-01-01T00:33:40Z</time>
      </trkpt>
      <trkpt lat="47.70451" lon="6.00214">
        <ele>265</ele>
        <time>2010-01-01T00:33:41Z</time>
      </trkpt>
      <trkpt lat="47.70453" lon="6.00215">
        <ele>265</ele>
        <time>2010-01-01T00:33:41Z</time>
      </trkpt>
      <trkpt lat="47.70454" lon="6.00217">
        <ele>265</ele>
        <time>2010-01-01T00:33:42Z</time>
      </trkpt>
      <trkpt lat="47.70457" lon="6.00218">
        <ele>265</ele>
        <time>2010-01-01T00:33:43Z</time>
      </trkpt>
      <trkpt lat="47.70459" lon="6.0022">
        <ele>265</ele>
        <time>2010-01-01T00:33:45Z</time>
      </trkpt>
      <trkpt lat="47.70462" lon="6.00223">
        <ele>265</ele>
        <time>2010-01-01T00:33:46Z</time>
      </trkpt>
      <trkpt lat="47.70465" lon="6.00226">
        <ele>265</ele>
        <time>2010-01-01T00:33:47Z</time>
      </trkpt>
      <trkpt lat="47.70467" lon="6.00229">
        <ele>264</ele>
        <time>2010-01-01T00:33:48Z</time>
      </trkpt>
      <trkpt lat="47.7047" lon="6.00231">
        <ele>264</ele>
        <time>2010-01-01T00:33:50Z</time>
      </trkpt>
      <trkpt lat="47.70478" lon="6.00245">
        <ele>263</ele>
        <time>2010-01-01T00:33:55Z</time>
      </trkpt>
      <trkpt lat="47.70481" lon="6.00249">
        <ele>263</ele>
        <time>2010-01-01T00:33:56Z</time>
      </trkpt>
      <trkpt lat="47.70484" lon="6.00253">
        <ele>263</ele>
        <time>2010-01-01T00:33:58Z</time>
      </trkpt>
      <trkpt lat="47.70486" lon="6.00256">
        <ele>263</ele>
        <time>2010-01-01T00:33:59Z</time>
      </trkpt>
      <trkpt lat="47.70489" lon="6.0026">
        <ele>263</ele>
        <time>2010-01-01T00:34:00Z</time>
      </trkpt>
      <trkpt lat="47.70491" lon="6.00263">
        <ele>263</ele>
        <time>2010-01-01T00:34:02Z</time>
      </trkpt>
      <trkpt lat="47.70494" lon="6.00267">
        <ele>263</ele>
        <time>2010-01-01T00:34:03Z</time>
      </trkpt>
      <trkpt lat="47.70497" lon="6.0027">
        <ele>263</ele>
        <time>2010-01-01T00:34:05Z</time>
      </trkpt>
      <trkpt lat="47.70499" lon="6.00274">
        <ele>263</ele>
        <time>2010-01-01T00:34:06Z</time>
      </trkpt>
      <trkpt lat="47.70503" lon="6.00278">
        <ele>263</ele>
        <time>2010-01-01T00:34:08Z</time>
      </trkpt>
      <trkpt lat="47.70506" lon="6.00282">
        <ele>262</ele>
        <time>2010-01-01T00:34:10Z</time>
      </trkpt>
      <trkpt lat="47.70509" lon="6.00286">
        <ele>262</ele>
        <time>2010-01-01T00:34:11Z</time>
      </trkpt>
      <trkpt lat="47.70512" lon="6.0029">
        <ele>262</ele>
        <time>2010-01-01T00:34:13Z</time>
      </trkpt>
      <trkpt lat="47.70515" lon="6.00294">
        <ele>261</ele>
        <time>2010-01-01T00:34:14Z</time>
      </trkpt>
      <trkpt lat="47.70518" lon="6.00298">
        <ele>261</ele>
        <time>2010-01-01T00:34:16Z</time>
      </trkpt>
      <trkpt lat="47.70521" lon="6.00303">
        <ele>261</ele>
        <time>2010-01-01T00:34:18Z</time>
      </trkpt>
      <trkpt lat="47.70524" lon="6.00307">
        <ele>261</ele>
        <time>2010-01-01T00:34:19Z</time>
      </trkpt>
      <trkpt lat="47.70527" lon="6.00311">
        <ele>261</ele>
        <time>2010-01-01T00:34:21Z</time>
      </trkpt>
      <trkpt lat="47.70529" lon="6.00314">
        <ele>261</ele>
        <time>2010-01-01T00:34:22Z</time>
      </trkpt>
      <trkpt lat="47.70532" lon="6.00318">
        <ele>261</ele>
        <time>2010-01-01T00:34:24Z</time>
      </trkpt>
      <trkpt lat="47.70535" lon="6.00322">
        <ele>261</ele>
        <time>2010-01-01T00:34:25Z</time>
      </trkpt>
      <trkpt lat="47.70538" lon="6.00326">
        <ele>261</ele>
        <time>2010-01-01T00:34:27Z</time>
      </trkpt>
      <trkpt lat="47.70541" lon="6.0033">
        <ele>261</ele>
        <time>2010-01-01T00:34:29Z</time>
      </trkpt>
      <trkpt lat="47.70544" lon="6.00334">
        <ele>261</ele>
        <time>2010-01-01T00:34:30Z</time>
      </trkpt>
      <trkpt lat="47.70547" lon="6.00338">
        <ele>261</ele>
        <time>2010-01-01T00:34:32Z</time>
      </trkpt>
      <trkpt lat="47.70551" lon="6.00342">
        <ele>261</ele>
        <time>2010-01-01T00:34:34Z</time>
      </trkpt>
      <trkpt lat="47.70554" lon="6.00345">
        <ele>261</ele>
        <time>2010-01-01T00:34:35Z</time>
      </trkpt>
      <trkpt lat="47.70557" lon="6.00349">
        <ele>261</ele>
        <time>2010-01-01T00:34:37Z</time>
      </trkpt>
      <trkpt lat="47.70559" lon="6.00352">
        <ele>261</ele>
        <time>2010-01-01T00:34:38Z</time>
      </trkpt>
      <trkpt lat="47.70562" lon="6.00355">
        <ele>261</ele>
        <time>2010-01-01T00:34:40Z</time>
      </trkpt>
      <trkpt lat="47.70566" lon="6.00358">
        <ele>261</ele>
        <time>2010-01-01T00:34:41Z</time>
      </trkpt>
      <trkpt lat="47.7057" lon="6.00362">
        <ele>261</ele>
        <time>2010-01-01T00:34:43Z</time>
      </trkpt>
      <trkpt lat="47.70573" lon="6.00365">
        <ele>261</ele>
        <time>2010-01-01T00:34:45Z</time>
      </trkpt>
      <trkpt lat="47.70577" lon="6.00369">
        <ele>261</ele>
        <time>2010-01-01T00:34:46Z</time>
      </trkpt>
      <trkpt lat="47.7058" lon="6.00373">
        <ele>260</ele>
        <time>2010-01-01T00:34:48Z</time>
      </trkpt>
      <trkpt lat="47.70584" lon="6.00377">
        <ele>260</ele>
        <time>2010-01-01T00:34:50Z</time>
      </trkpt>
      <trkpt lat="47.70587" lon="6.00382">
        <ele>259</ele>
        <time>2010-01-01T00:34:52Z</time>
      </trkpt>
      <trkpt lat="47.70591" lon="6.00386">
        <ele>259</ele>
        <time>2010-01-01T00:34:54Z</time>
      </trkpt>
      <trkpt lat="47.70598" lon="6.00394">
        <ele>259</ele>
        <time>2010-01-01T00:34:57Z</time>
      </trkpt>
      <trkpt lat="47.70603" lon="6.00399">
        <ele>259</ele>
        <time>2010-01-01T00:35:00Z</time>
      </trkpt>
      <trkpt lat="47.70608" lon="6.00404">
        <ele>259</ele>
        <time>2010-01-01T00:35:02Z</time>
      </trkpt>
      <trkpt lat="47.70612" lon="6.00408">
        <ele>259</ele>
        <time>2010-01-01T00:35:04Z</time>
      </trkpt>
      <trkpt lat="47.70617" lon="6.00413">
        <ele>259</ele>
        <time>2010-01-01T00:35:06Z</time>
      </trkpt>
      <trkpt lat="47.70622" lon="6.00417">
        <ele>259</ele>
        <time>2010-01-01T00:35:09Z</time>
      </trkpt>
      <trkpt lat="47.70626" lon="6.00421">
        <ele>259</ele>
        <time>2010-01-01T00:35:11Z</time>
      </trkpt>
      <trkpt lat="47.70631" lon="6.00425">
        <ele>259</ele>
        <time>2010-01-01T00:35:13Z</time>
      </trkpt>
      <trkpt lat="47.70635" lon="6.00429">
        <ele>259</ele>
        <time>2010-01-01T00:35:15Z</time>
      </trkpt>
      <trkpt lat="47.70639" lon="6.00432">
        <ele>259</ele>
        <time>2010-01-01T00:35:17Z</time>
      </trkpt>
      <trkpt lat="47.70643" lon="6.00436">
        <ele>259</ele>
        <time>2010-01-01T00:35:19Z</time>
      </trkpt>
      <trkpt lat="47.70649" lon="6.0044">
        <ele>259</ele>
        <time>2010-01-01T00:35:21Z</time>
      </trkpt>
      <trkpt lat="47.70655" lon="6.00444">
        <ele>259</ele>
        <time>2010-01-01T00:35:24Z</time>
      </trkpt>
      <trkpt lat="47.7066" lon="6.00448">
        <ele>259</ele>
        <time>2010-01-01T00:35:26Z</time>
      </trkpt>
      <trkpt lat="47.70665" lon="6.00452">
        <ele>259</ele>
        <time>2010-01-01T00:35:28Z</time>
      </trkpt>
      <trkpt lat="47.70669" lon="6.00454">
        <ele>258</ele>
        <time>2010-01-01T00:35:30Z</time>
      </trkpt>
      <trkpt lat="47.70674" lon="6.00458">
        <ele>258</ele>
        <time>2010-01-01T00:35:33Z</time>
      </trkpt>
      <trkpt lat="47.70679" lon="6.00463">
        <ele>257</ele>
        <time>2010-01-01T00:35:35Z</time>
      </trkpt>
      <trkpt lat="47.70684" lon="6.00467">
        <ele>257</ele>
        <time>2010-01-01T00:35:37Z</time>
      </trkpt>
      <trkpt lat="47.70689" lon="6.0047">
        <ele>257</ele>
        <time>2010-01-01T00:35:39Z</time>
      </trkpt>
      <trkpt lat="47.70695" lon="6.00474">
        <ele>257</ele>
        <time>2010-01-01T00:35:42Z</time>
      </trkpt>
      <trkpt lat="47.70699" lon="6.00478">
        <ele>257</ele>
        <time>2010-01-01T00:35:44Z</time>
      </trkpt>
      <trkpt lat="47.70704" lon="6.00481">
        <ele>257</ele>
        <time>2010-01-01T00:35:46Z</time>
      </trkpt>
      <trkpt lat="47.70709" lon="6.00485">
        <ele>257</ele>
        <time>2010-01-01T00:35:48Z</time>
      </trkpt>
      <trkpt lat="47.70714" lon="6.00488">
        <ele>257</ele>
        <time>2010-01-01T00:35:50Z</time>
      </trkpt>
      <trkpt lat="47.70718" lon="6.00491">
        <ele>257</ele>
        <time>2010-01-01T00:35:52Z</time>
      </trkpt>
      <trkpt lat="47.70723" lon="6.00494">
        <ele>257</ele>
        <time>2010-01-01T00:35:54Z</time>
      </trkpt>
      <trkpt lat="47.70728" lon="6.00497">
        <ele>257</ele>
        <time>2010-01-01T00:35:56Z</time>
      </trkpt>
      <trkpt lat="47.70732" lon="6.005">
        <ele>257</ele>
        <time>2010-01-01T00:35:58Z</time>
      </trkpt>
      <trkpt lat="47.70737" lon="6.00502">
        <ele>257</ele>
        <time>2010-01-01T00:36:00Z</time>
      </trkpt>
      <trkpt lat="47.70741" lon="6.00505">
        <ele>257</ele>
        <time>2010-01-01T00:36:02Z</time>
      </trkpt>
      <trkpt lat="47.70745" lon="6.00508">
        <ele>257</ele>
        <time>2010-01-01T00:36:04Z</time>
      </trkpt>
      <trkpt lat="47.70749" lon="6.0051">
        <ele>257</ele>
        <time>2010-01-01T00:36:06Z</time>
      </trkpt>
      <trkpt lat="47.70754" lon="6.00512">
        <ele>257</ele>
        <time>2010-01-01T00:36:08Z</time>
      </trkpt>
      <trkpt lat="47.70758" lon="6.00514">
        <ele>257</ele>
        <time>2010-01-01T00:36:09Z</time>
      </trkpt>
      <trkpt lat="47.70761" lon="6.00516">
        <ele>257</ele>
        <time>2010-01-01T00:36:11Z</time>
      </trkpt>
      <trkpt lat="47.70765" lon="6.00517">
        <ele>257</ele>
        <time>2010-01-01T00:36:12Z</time>
      </trkpt>
      <trkpt lat="47.70768" lon="6.00519">
        <ele>257</ele>
        <time>2010-01-01T00:36:14Z</time>
      </trkpt>
      <trkpt lat="47.70779" lon="6.00525">
        <ele>255</ele>
        <time>2010-01-01T00:36:18Z</time>
      </trkpt>
      <trkpt lat="47.70783" lon="6.00527">
        <ele>255</ele>
        <time>2010-01-01T00:36:20Z</time>
      </trkpt>
      <trkpt lat="47.70787" lon="6.00529">
        <ele>255</ele>
        <time>2010-01-01T00:36:21Z</time>
      </trkpt>
      <trkpt lat="47.7079" lon="6.00532">
        <ele>255</ele>
        <time>2010-01-01T00:36:23Z</time>
      </trkpt>
      <trkpt lat="47.70794" lon="6.00534">
        <ele>255</ele>
        <time>2010-01-01T00:36:25Z</time>
      </trkpt>
      <trkpt lat="47.70798" lon="6.00537">
        <ele>255</ele>
        <time>2010-01-01T00:36:26Z</time>
      </trkpt>
      <trkpt lat="47.70803" lon="6.00541">
        <ele>255</ele>
        <time>2010-01-01T00:36:29Z</time>
      </trkpt>
      <trkpt lat="47.70807" lon="6.00545">
        <ele>255</ele>
        <time>2010-01-01T00:36:31Z</time>
      </trkpt>
      <trkpt lat="47.70811" lon="6.00549">
        <ele>254</ele>
        <time>2010-01-01T00:36:33Z</time>
      </trkpt>
      <trkpt lat="47.70816" lon="6.00552">
        <ele>254</ele>
        <time>2010-01-01T00:36:35Z</time>
      </trkpt>
      <trkpt lat="47.70821" lon="6.00556">
        <ele>254</ele>
        <time>2010-01-01T00:36:37Z</time>
      </trkpt>
      <trkpt lat="47.70832" lon="6.00564">
        <ele>253</ele>
        <time>2010-01-01T00:36:42Z</time>
      </trkpt>
      <trkpt lat="47.70841" lon="6.00572">
        <ele>253</ele>
        <time>2010-01-01T00:36:46Z</time>
      </trkpt>
      <trkpt lat="47.70849" lon="6.0058">
        <ele>253</ele>
        <time>2010-01-01T00:36:50Z</time>
      </trkpt>
      <trkpt lat="47.70857" lon="6.00586">
        <ele>253</ele>
        <time>2010-01-01T00:36:53Z</time>
      </trkpt>
      <trkpt lat="47.70859" lon="6.00588">
        <ele>253</ele>
        <time>2010-01-01T00:36:55Z</time>
      </trkpt>
      <trkpt lat="47.70861" lon="6.00589">
        <ele>253</ele>
        <time>2010-01-01T00:36:55Z</time>
      </trkpt>
      <trkpt lat="47.70863" lon="6.0059">
        <ele>253</ele>
        <time>2010-01-01T00:36:56Z</time>
      </trkpt>
      <trkpt lat="47.70866" lon="6.00591">
        <ele>253</ele>
        <time>2010-01-01T00:36:57Z</time>
      </trkpt>
      <trkpt lat="47.70867" lon="6.00592">
        <ele>253</ele>
        <time>2010-01-01T00:36:58Z</time>
      </trkpt>
      <trkpt lat="47.7087" lon="6.00594">
        <ele>253</ele>
        <time>2010-01-01T00:36:59Z</time>
      </trkpt>
      <trkpt lat="47.70871" lon="6.00595">
        <ele>253</ele>
        <time>2010-01-01T00:37:00Z</time>
      </trkpt>
      <trkpt lat="47.70874" lon="6.00598">
        <ele>254</ele>
        <time>2010-01-01T00:37:01Z</time>
      </trkpt>
      <trkpt lat="47.70877" lon="6.00599">
        <ele>254</ele>
        <time>2010-01-01T00:37:02Z</time>
      </trkpt>
      <trkpt lat="47.70879" lon="6.00601">
        <ele>254</ele>
        <time>2010-01-01T00:37:03Z</time>
      </trkpt>
      <trkpt lat="47.7088" lon="6.00602">
        <ele>255</ele>
        <time>2010-01-01T00:37:04Z</time>
      </trkpt>
      <trkpt lat="47.70883" lon="6.00603">
        <ele>255</ele>
        <time>2010-01-01T00:37:05Z</time>
      </trkpt>
      <trkpt lat="47.70885" lon="6.00605">
        <ele>255</ele>
        <time>2010-01-01T00:37:06Z</time>
      </trkpt>
      <trkpt lat="47.70887" lon="6.00606">
        <ele>255</ele>
        <time>2010-01-01T00:37:07Z</time>
      </trkpt>
      <trkpt lat="47.70889" lon="6.00608">
        <ele>255</ele>
        <time>2010-01-01T00:37:08Z</time>
      </trkpt>
      <trkpt lat="47.70892" lon="6.00611">
        <ele>255</ele>
        <time>2010-01-01T00:37:09Z</time>
      </trkpt>
      <trkpt lat="47.70895" lon="6.00613">
        <ele>255</ele>
        <time>2010-01-01T00:37:11Z</time>
      </trkpt>
      <trkpt lat="47.70898" lon="6.00616">
        <ele>255</ele>
        <time>2010-01-01T00:37:12Z</time>
      </trkpt>
      <trkpt lat="47.709" lon="6.00618">
        <ele>255</ele>
        <time>2010-01-01T00:37:13Z</time>
      </trkpt>
      <trkpt lat="47.70903" lon="6.0062">
        <ele>255</ele>
        <time>2010-01-01T00:37:14Z</time>
      </trkpt>
      <trkpt lat="47.70904" lon="6.00622">
        <ele>255</ele>
        <time>2010-01-01T00:37:15Z</time>
      </trkpt>
      <trkpt lat="47.70904" lon="6.00626">
        <ele>255</ele>
        <time>2010-01-01T00:37:16Z</time>
      </trkpt>
      <trkpt lat="47.70905" lon="6.00628">
        <ele>255</ele>
        <time>2010-01-01T00:37:16Z</time>
      </trkpt>
      <trkpt lat="47.70905" lon="6.00629">
        <ele>255</ele>
        <time>2010-01-01T00:37:17Z</time>
      </trkpt>
      <trkpt lat="47.70905" lon="6.0063">
        <ele>255</ele>
        <time>2010-01-01T00:37:17Z</time>
      </trkpt>
      <trkpt lat="47.70905" lon="6.0063">
        <ele>255</ele>
        <time>2010-01-01T00:37:17Z</time>
      </trkpt>
      <trkpt lat="47.70905" lon="6.00631">
        <ele>255</ele>
        <time>2010-01-01T00:37:17Z</time>
      </trkpt>
      <trkpt lat="47.70904" lon="6.00633">
        <ele>255</ele>
        <time>2010-01-01T00:37:18Z</time>
      </trkpt>
      <trkpt lat="47.70903" lon="6.00635">
        <ele>255</ele>
        <time>2010-01-01T00:37:19Z</time>
      </trkpt>
      <trkpt lat="47.70902" lon="6.00638">
        <ele>255</ele>
        <time>2010-01-01T00:37:19Z</time>
      </trkpt>
      <trkpt lat="47.70901" lon="6.00641">
        <ele>255</ele>
        <time>2010-01-01T00:37:20Z</time>
      </trkpt>
      <trkpt lat="47.709" lon="6.00645">
        <ele>255</ele>
        <time>2010-01-01T00:37:22Z</time>
      </trkpt>
      <trkpt lat="47.70899" lon="6.00649">
        <ele>255</ele>
        <time>2010-01-01T00:37:23Z</time>
      </trkpt>
      <trkpt lat="47.70897" lon="6.00654">
        <ele>255</ele>
        <time>2010-01-01T00:37:24Z</time>
      </trkpt>
      <trkpt lat="47.70895" lon="6.00658">
        <ele>255</ele>
        <time>2010-01-01T00:37:26Z</time>
      </trkpt>
      <trkpt lat="47.70893" lon="6.00663">
        <ele>255</ele>
        <time>2010-01-01T00:37:27Z</time>
      </trkpt>
      <trkpt lat="47.70892" lon="6.00669">
        <ele>255</ele>
        <time>2010-01-01T00:37:29Z</time>
      </trkpt>
      <trkpt lat="47.7089" lon="6.00675">
        <ele>255</ele>
        <time>2010-01-01T00:37:31Z</time>
      </trkpt>
      <trkpt lat="47.70888" lon="6.00681">
        <ele>255</ele>
        <time>2010-01-01T00:37:32Z</time>
      </trkpt>
      <trkpt lat="47.70886" lon="6.00687">
        <ele>255</ele>
        <time>2010-01-01T00:37:34Z</time>
      </trkpt>
      <trkpt lat="47.70884" lon="6.00694">
        <ele>255</ele>
        <time>2010-01-01T00:37:36Z</time>
      </trkpt>
      <trkpt lat="47.70883" lon="6.00701">
        <ele>255</ele>
        <time>2010-01-01T00:37:38Z</time>
      </trkpt>
      <trkpt lat="47.70881" lon="6.00708">
        <ele>255</ele>
        <time>2010-01-01T00:37:40Z</time>
      </trkpt>
      <trkpt lat="47.70879" lon="6.00715">
        <ele>255</ele>
        <time>2010-01-01T00:37:42Z</time>
      </trkpt>
      <trkpt lat="47.70877" lon="6.00723">
        <ele>255</ele>
        <time>2010-01-01T00:37:44Z</time>
      </trkpt>
      <trkpt lat="47.70876" lon="6.0073">
        <ele>255</ele>
        <time>2010-01-01T00:37:47Z</time>
      </trkpt>
      <trkpt lat="47.70874" lon="6.00738">
        <ele>255</ele>
        <time>2010-01-01T00:37:49Z</time>
      </trkpt>
      <trkpt lat="47.70872" lon="6.00746">
        <ele>255</ele>
        <time>2010-01-01T00:37:51Z</time>
      </trkpt>
      <trkpt lat="47.7087" lon="6.00753">
        <ele>255</ele>
        <time>2010-01-01T00:37:53Z</time>
      </trkpt>
      <trkpt lat="47.70868" lon="6.00761">
        <ele>255</ele>
        <time>2010-01-01T00:37:56Z</time>
      </trkpt>
      <trkpt lat="47.70866" lon="6.00769">
        <ele>254</ele>
        <time>2010-01-01T00:37:58Z</time>
      </trkpt>
      <trkpt lat="47.70864" lon="6.00777">
        <ele>254</ele>
        <time>2010-01-01T00:38:00Z</time>
      </trkpt>
      <trkpt lat="47.70861" lon="6.00785">
        <ele>254</ele>
        <time>2010-01-01T00:38:02Z</time>
      </trkpt>
      <trkpt lat="47.70858" lon="6.00792">
        <ele>253</ele>
        <time>2010-01-01T00:38:05Z</time>
      </trkpt>
      <trkpt lat="47.70855" lon="6.008">
        <ele>253</ele>
        <time>2010-01-01T00:38:07Z</time>
      </trkpt>
      <trkpt lat="47.70851" lon="6.00807">
        <ele>253</ele>
        <time>2010-01-01T00:38:09Z</time>
      </trkpt>
      <trkpt lat="47.70848" lon="6.00814">
        <ele>253</ele>
        <time>2010-01-01T00:38:12Z</time>
      </trkpt>
      <trkpt lat="47.70844" lon="6.00821">
        <ele>253</ele>
        <time>2010-01-01T00:38:14Z</time>
      </trkpt>
      <trkpt lat="47.7084" lon="6.00829">
        <ele>253</ele>
        <time>2010-01-01T00:38:17Z</time>
      </trkpt>
      <trkpt lat="47.70835" lon="6.00836">
        <ele>253</ele>
        <time>2010-01-01T00:38:20Z</time>
      </trkpt>
      <trkpt lat="47.70831" lon="6.00843">
        <ele>252</ele>
        <time>2010-01-01T00:38:22Z</time>
      </trkpt>
      <trkpt lat="47.70826" lon="6.0085">
        <ele>252</ele>
        <time>2010-01-01T00:38:25Z</time>
      </trkpt>
      <trkpt lat="47.70822" lon="6.00857">
        <ele>251</ele>
        <time>2010-01-01T00:38:28Z</time>
      </trkpt>
      <trkpt lat="47.70818" lon="6.00865">
        <ele>251</ele>
        <time>2010-01-01T00:38:30Z</time>
      </trkpt>
      <trkpt lat="47.70815" lon="6.00873">
        <ele>251</ele>
        <time>2010-01-01T00:38:33Z</time>
      </trkpt>
      <trkpt lat="47.70812" lon="6.00882">
        <ele>251</ele>
        <time>2010-01-01T00:38:35Z</time>
      </trkpt>
      <trkpt lat="47.70809" lon="6.00891">
        <ele>251</ele>
        <time>2010-01-01T00:38:38Z</time>
      </trkpt>
      <trkpt lat="47.70807" lon="6.00899">
        <ele>251</ele>
        <time>2010-01-01T00:38:40Z</time>
      </trkpt>
      <trkpt lat="47.70805" lon="6.00908">
        <ele>251</ele>
        <time>2010-01-01T00:38:43Z</time>
      </trkpt>
      <trkpt lat="47.70805" lon="6.00917">
        <ele>250</ele>
        <time>2010-01-01T00:38:45Z</time>
      </trkpt>
      <trkpt lat="47.70805" lon="6.00926">
        <ele>250</ele>
        <time>2010-01-01T00:38:48Z</time>
      </trkpt>
      <trkpt lat="47.70805" lon="6.00936">
        <ele>249</ele>
        <time>2010-01-01T00:38:50Z</time>
      </trkpt>
      <trkpt lat="47.70805" lon="6.00945">
        <ele>249</ele>
        <time>2010-01-01T00:38:53Z</time>
      </trkpt>
      <trkpt lat="47.70806" lon="6.00954">
        <ele>249</ele>
        <time>2010-01-01T00:38:55Z</time>
      </trkpt>
      <trkpt lat="47.70807" lon="6.00963">
        <ele>249</ele>
        <time>2010-01-01T00:38:58Z</time>
      </trkpt>
      <trkpt lat="47.70808" lon="6.00972">
        <ele>249</ele>
        <time>2010-01-01T00:39:00Z</time>
      </trkpt>
      <trkpt lat="47.70809" lon="6.00982">
        <ele>249</ele>
        <time>2010-01-01T00:39:03Z</time>
      </trkpt>
      <trkpt lat="47.70809" lon="6.00991">
        <ele>249</ele>
        <time>2010-01-01T00:39:05Z</time>
      </trkpt>
      <trkpt lat="47.7081" lon="6.01">
        <ele>249</ele>
        <time>2010-01-01T00:39:08Z</time>
      </trkpt>
      <trkpt lat="47.70811" lon="6.0101">
        <ele>249</ele>
        <time>2010-01-01T00:39:10Z</time>
      </trkpt>
      <trkpt lat="47.70812" lon="6.01019">
        <ele>249</ele>
        <time>2010-01-01T00:39:13Z</time>
      </trkpt>
      <trkpt lat="47.70813" lon="6.01029">
        <ele>249</ele>
        <time>2010-01-01T00:39:16Z</time>
      </trkpt>
      <trkpt lat="47.70814" lon="6.01039">
        <ele>248</ele>
        <time>2010-01-01T00:39:18Z</time>
      </trkpt>
      <trkpt lat="47.70815" lon="6.01049">
        <ele>248</ele>
        <time>2010-01-01T00:39:21Z</time>
      </trkpt>
      <trkpt lat="47.70817" lon="6.01059">
        <ele>247</ele>
        <time>2010-01-01T00:39:24Z</time>
      </trkpt>
      <trkpt lat="47.70819" lon="6.01069">
        <ele>247</ele>
        <time>2010-01-01T00:39:27Z</time>
      </trkpt>
      <trkpt lat="47.70821" lon="6.01078">
        <ele>247</ele>
        <time>2010-01-01T00:39:29Z</time>
      </trkpt>
      <trkpt lat="47.70823" lon="6.01086">
        <ele>247</ele>
        <time>2010-01-01T00:39:32Z</time>
      </trkpt>
      <trkpt lat="47.70825" lon="6.01095">
        <ele>247</ele>
        <time>2010-01-01T00:39:34Z</time>
      </trkpt>
      <trkpt lat="47.70827" lon="6.01103">
        <ele>247</ele>
        <time>2010-01-01T00:39:36Z</time>
      </trkpt>
      <trkpt lat="47.70829" lon="6.01112">
        <ele>247</ele>
        <time>2010-01-01T00:39:39Z</time>
      </trkpt>
      <trkpt lat="47.70831" lon="6.0112">
        <ele>247</ele>
        <time>2010-01-01T00:39:41Z</time>
      </trkpt>
      <trkpt lat="47.70832" lon="6.01128">
        <ele>247</ele>
        <time>2010-01-01T00:39:43Z</time>
      </trkpt>
      <trkpt lat="47.70834" lon="6.01136">
        <ele>247</ele>
        <time>2010-01-01T00:39:46Z</time>
      </trkpt>
      <trkpt lat="47.70835" lon="6.01144">
        <ele>247</ele>
        <time>2010-01-01T00:39:48Z</time>
      </trkpt>
      <trkpt lat="47.70836" lon="6.01152">
        <ele>247</ele>
        <time>2010-01-01T00:39:50Z</time>
      </trkpt>
      <trkpt lat="47.70837" lon="6.01161">
        <ele>247</ele>
        <time>2010-01-01T00:39:52Z</time>
      </trkpt>
      <trkpt lat="47.70837" lon="6.01169">
        <ele>247</ele>
        <time>2010-01-01T00:39:55Z</time>
      </trkpt>
      <trkpt lat="47.70838" lon="6.01178">
        <ele>247</ele>
        <time>2010-01-01T00:39:57Z</time>
      </trkpt>
      <trkpt lat="47.70838" lon="6.01187">
        <ele>247</ele>
        <time>2010-01-01T00:40:00Z</time>
      </trkpt>
      <trkpt lat="47.70839" lon="6.01196">
        <ele>247</ele>
        <time>2010-01-01T00:40:02Z</time>
      </trkpt>
      <trkpt lat="47.70839" lon="6.01204">
        <ele>247</ele>
        <time>2010-01-01T00:40:04Z</time>
      </trkpt>
      <trkpt lat="47.7084" lon="6.01213">
        <ele>247</ele>
        <time>2010-01-01T00:40:07Z</time>
      </trkpt>
      <trkpt lat="47.70841" lon="6.01222">
        <ele>247</ele>
        <time>2010-01-01T00:40:09Z</time>
      </trkpt>
      <trkpt lat="47.70841" lon="6.01231">
        <ele>247</ele>
        <time>2010-01-01T00:40:11Z</time>
      </trkpt>
      <trkpt lat="47.70842" lon="6.01239">
        <ele>247</ele>
        <time>2010-01-01T00:40:14Z</time>
      </trkpt>
      <trkpt lat="47.70843" lon="6.01248">
        <ele>247</ele>
        <time>2010-01-01T00:40:16Z</time>
      </trkpt>
      <trkpt lat="47.70843" lon="6.01257">
        <ele>247</ele>
        <time>2010-01-01T00:40:19Z</time>
      </trkpt>
      <trkpt lat="47.70844" lon="6.01266">
        <ele>247</ele>
        <time>2010-01-01T00:40:21Z</time>
      </trkpt>
      <trkpt lat="47.70845" lon="6.01275">
        <ele>246</ele>
        <time>2010-01-01T00:40:23Z</time>
      </trkpt>
      <trkpt lat="47.70846" lon="6.01283">
        <ele>245</ele>
        <time>2010-01-01T00:40:26Z</time>
      </trkpt>
      <trkpt lat="47.70847" lon="6.01292">
        <ele>245</ele>
        <time>2010-01-01T00:40:28Z</time>
      </trkpt>
      <trkpt lat="47.70847" lon="6.01301">
        <ele>245</ele>
        <time>2010-01-01T00:40:31Z</time>
      </trkpt>
      <trkpt lat="47.70847" lon="6.01311">
        <ele>245</ele>
        <time>2010-01-01T00:40:33Z</time>
      </trkpt>
      <trkpt lat="47.70847" lon="6.0132">
        <ele>245</ele>
        <time>2010-01-01T00:40:36Z</time>
      </trkpt>
      <trkpt lat="47.70846" lon="6.0133">
        <ele>245</ele>
        <time>2010-01-01T00:40:38Z</time>
      </trkpt>
      <trkpt lat="47.70845" lon="6.0134">
        <ele>245</ele>
        <time>2010-01-01T00:40:41Z</time>
      </trkpt>
      <trkpt lat="47.70843" lon="6.0135">
        <ele>244</ele>
        <time>2010-01-01T00:40:44Z</time>
      </trkpt>
      <trkpt lat="47.70841" lon="6.01361">
        <ele>244</ele>
        <time>2010-01-01T00:40:47Z</time>
      </trkpt>
      <trkpt lat="47.70839" lon="6.01371">
        <ele>243</ele>
        <time>2010-01-01T00:40:50Z</time>
      </trkpt>
      <trkpt lat="47.70837" lon="6.0138">
        <ele>243</ele>
        <time>2010-01-01T00:40:52Z</time>
      </trkpt>
      <trkpt lat="47.70835" lon="6.01388">
        <ele>242</ele>
        <time>2010-01-01T00:40:55Z</time>
      </trkpt>
      <trkpt lat="47.70834" lon="6.01394">
        <ele>242</ele>
        <time>2010-01-01T00:40:56Z</time>
      </trkpt>
      <trkpt lat="47.70832" lon="6.01399">
        <ele>242</ele>
        <time>2010-01-01T00:40:58Z</time>
      </trkpt>
      <trkpt lat="47.7083" lon="6.01403">
        <ele>241</ele>
        <time>2010-01-01T00:40:59Z</time>
      </trkpt>
      <trkpt lat="47.70829" lon="6.01407">
        <ele>241</ele>
        <time>2010-01-01T00:41:00Z</time>
      </trkpt>
      <trkpt lat="47.70827" lon="6.01412">
        <ele>240</ele>
        <time>2010-01-01T00:41:02Z</time>
      </trkpt>
      <trkpt lat="47.70825" lon="6.01417">
        <ele>240</ele>
        <time>2010-01-01T00:41:03Z</time>
      </trkpt>
      <trkpt lat="47.70823" lon="6.01421">
        <ele>240</ele>
        <time>2010-01-01T00:41:05Z</time>
      </trkpt>
      <trkpt lat="47.70821" lon="6.01426">
        <ele>240</ele>
        <time>2010-01-01T00:41:06Z</time>
      </trkpt>
      <trkpt lat="47.70819" lon="6.0143">
        <ele>240</ele>
        <time>2010-01-01T00:41:08Z</time>
      </trkpt>
      <trkpt lat="47.70817" lon="6.01434">
        <ele>240</ele>
        <time>2010-01-01T00:41:09Z</time>
      </trkpt>
      <trkpt lat="47.70816" lon="6.01439">
        <ele>240</ele>
        <time>2010-01-01T00:41:10Z</time>
      </trkpt>
      <trkpt lat="47.70814" lon="6.01443">
        <ele>240</ele>
        <time>2010-01-01T00:41:12Z</time>
      </trkpt>
      <trkpt lat="47.70811" lon="6.01447">
        <ele>240</ele>
        <time>2010-01-01T00:41:13Z</time>
      </trkpt>
      <trkpt lat="47.70809" lon="6.01451">
        <ele>240</ele>
        <time>2010-01-01T00:41:15Z</time>
      </trkpt>
      <trkpt lat="47.70806" lon="6.01456">
        <ele>240</ele>
        <time>2010-01-01T00:41:16Z</time>
      </trkpt>
      <trkpt lat="47.70804" lon="6.0146">
        <ele>240</ele>
        <time>2010-01-01T00:41:18Z</time>
      </trkpt>
      <trkpt lat="47.70801" lon="6.01465">
        <ele>240</ele>
        <time>2010-01-01T00:41:20Z</time>
      </trkpt>
      <trkpt lat="47.70797" lon="6.0147">
        <ele>240</ele>
        <time>2010-01-01T00:41:22Z</time>
      </trkpt>
      <trkpt lat="47.70794" lon="6.01476">
        <ele>240</ele>
        <time>2010-01-01T00:41:24Z</time>
      </trkpt>
      <trkpt lat="47.70791" lon="6.01481">
        <ele>240</ele>
        <time>2010-01-01T00:41:26Z</time>
      </trkpt>
      <trkpt lat="47.70787" lon="6.01487">
        <ele>240</ele>
        <time>2010-01-01T00:41:28Z</time>
      </trkpt>
      <trkpt lat="47.70784" lon="6.01493">
        <ele>240</ele>
        <time>2010-01-01T00:41:30Z</time>
      </trkpt>
      <trkpt lat="47.70781" lon="6.01499">
        <ele>240</ele>
        <time>2010-01-01T00:41:32Z</time>
      </trkpt>
      <trkpt lat="47.70778" lon="6.01504">
        <ele>240</ele>
        <time>2010-01-01T00:41:34Z</time>
      </trkpt>
      <trkpt lat="47.70775" lon="6.0151">
        <ele>240</ele>
        <time>2010-01-01T00:41:36Z</time>
      </trkpt>
      <trkpt lat="47.70771" lon="6.01516">
        <ele>240</ele>
        <time>2010-01-01T00:41:38Z</time>
      </trkpt>
      <trkpt lat="47.70768" lon="6.01522">
        <ele>240</ele>
        <time>2010-01-01T00:41:40Z</time>
      </trkpt>
      <trkpt lat="47.70765" lon="6.01528">
        <ele>240</ele>
        <time>2010-01-01T00:41:42Z</time>
      </trkpt>
      <trkpt lat="47.70762" lon="6.01534">
        <ele>240</ele>
        <time>2010-01-01T00:41:44Z</time>
      </trkpt>
      <trkpt lat="47.70758" lon="6.01541">
        <ele>240</ele>
        <time>2010-01-01T00:41:46Z</time>
      </trkpt>
      <trkpt lat="47.70755" lon="6.01548">
        <ele>239</ele>
        <time>2010-01-01T00:41:48Z</time>
      </trkpt>
      <trkpt lat="47.70752" lon="6.01554">
        <ele>239</ele>
        <time>2010-01-01T00:41:51Z</time>
      </trkpt>
      <trkpt lat="47.7075" lon="6.01561">
        <ele>238</ele>
        <time>2010-01-01T00:41:53Z</time>
      </trkpt>
      <trkpt lat="47.70747" lon="6.01568">
        <ele>238</ele>
        <time>2010-01-01T00:41:55Z</time>
      </trkpt>
      <trkpt lat="47.70744" lon="6.01575">
        <ele>238</ele>
        <time>2010-01-01T00:41:57Z</time>
      </trkpt>
      <trkpt lat="47.70742" lon="6.01583">
        <ele>238</ele>
        <time>2010-01-01T00:41:59Z</time>
      </trkpt>
      <trkpt lat="47.7074" lon="6.01592">
        <ele>238</ele>
        <time>2010-01-01T00:42:02Z</time>
      </trkpt>
      <trkpt lat="47.70738" lon="6.016">
        <ele>238</ele>
        <time>2010-01-01T00:42:04Z</time>
      </trkpt>
      <trkpt lat="47.70737" lon="6.01608">
        <ele>238</ele>
        <time>2010-01-01T00:42:06Z</time>
      </trkpt>
      <trkpt lat="47.70735" lon="6.01616">
        <ele>238</ele>
        <time>2010-01-01T00:42:09Z</time>
      </trkpt>
      <trkpt lat="47.70734" lon="6.01624">
        <ele>238</ele>
        <time>2010-01-01T00:42:11Z</time>
      </trkpt>
      <trkpt lat="47.70733" lon="6.01631">
        <ele>238</ele>
        <time>2010-01-01T00:42:13Z</time>
      </trkpt>
      <trkpt lat="47.70732" lon="6.01638">
        <ele>238</ele>
        <time>2010-01-01T00:42:15Z</time>
      </trkpt>
      <trkpt lat="47.7073" lon="6.01645">
        <ele>238</ele>
        <time>2010-01-01T00:42:17Z</time>
      </trkpt>
      <trkpt lat="47.70729" lon="6.01652">
        <ele>238</ele>
        <time>2010-01-01T00:42:19Z</time>
      </trkpt>
      <trkpt lat="47.70727" lon="6.01659">
        <ele>238</ele>
        <time>2010-01-01T00:42:21Z</time>
      </trkpt>
      <trkpt lat="47.70725" lon="6.01665">
        <ele>238</ele>
        <time>2010-01-01T00:42:23Z</time>
      </trkpt>
      <trkpt lat="47.70723" lon="6.01672">
        <ele>238</ele>
        <time>2010-01-01T00:42:25Z</time>
      </trkpt>
      <trkpt lat="47.70721" lon="6.0168">
        <ele>238</ele>
        <time>2010-01-01T00:42:27Z</time>
      </trkpt>
      <trkpt lat="47.70719" lon="6.01687">
        <ele>238</ele>
        <time>2010-01-01T00:42:29Z</time>
      </trkpt>
      <trkpt lat="47.70716" lon="6.01695">
        <ele>238</ele>
        <time>2010-01-01T00:42:31Z</time>
      </trkpt>
      <trkpt lat="47.70714" lon="6.01703">
        <ele>238</ele>
        <time>2010-01-01T00:42:34Z</time>
      </trkpt>
      <trkpt lat="47.70712" lon="6.0171">
        <ele>238</ele>
        <time>2010-01-01T00:42:36Z</time>
      </trkpt>
      <trkpt lat="47.7071" lon="6.01718">
        <ele>238</ele>
        <time>2010-01-01T00:42:38Z</time>
      </trkpt>
      <trkpt lat="47.70708" lon="6.01726">
        <ele>238</ele>
        <time>2010-01-01T00:42:40Z</time>
      </trkpt>
      <trkpt lat="47.70706" lon="6.01734">
        <ele>238</ele>
        <time>2010-01-01T00:42:43Z</time>
      </trkpt>
      <trkpt lat="47.70704" lon="6.01743">
        <ele>238</ele>
        <time>2010-01-01T00:42:45Z</time>
      </trkpt>
      <trkpt lat="47.70702" lon="6.01751">
        <ele>238</ele>
        <time>2010-01-01T00:42:47Z</time>
      </trkpt>
      <trkpt lat="47.707" lon="6.01759">
        <ele>238</ele>
        <time>2010-01-01T00:42:50Z</time>
      </trkpt>
      <trkpt lat="47.70698" lon="6.01767">
        <ele>238</ele>
        <time>2010-01-01T00:42:52Z</time>
      </trkpt>
      <trkpt lat="47.70696" lon="6.01775">
        <ele>238</ele>
        <time>2010-01-01T00:42:54Z</time>
      </trkpt>
      <trkpt lat="47.70695" lon="6.01783">
        <ele>238</ele>
        <time>2010-01-01T00:42:56Z</time>
      </trkpt>
      <trkpt lat="47.70693" lon="6.0179">
        <ele>238</ele>
        <time>2010-01-01T00:42:59Z</time>
      </trkpt>
      <trkpt lat="47.70692" lon="6.01798">
        <ele>238</ele>
        <time>2010-01-01T00:43:01Z</time>
      </trkpt>
      <trkpt lat="47.7069" lon="6.01805">
        <ele>238</ele>
        <time>2010-01-01T00:43:03Z</time>
      </trkpt>
      <trkpt lat="47.70689" lon="6.01812">
        <ele>238</ele>
        <time>2010-01-01T00:43:05Z</time>
      </trkpt>
      <trkpt lat="47.70687" lon="6.0182">
        <ele>238</ele>
        <time>2010-01-01T00:43:07Z</time>
      </trkpt>
      <trkpt lat="47.70686" lon="6.01828">
        <ele>238</ele>
        <time>2010-01-01T00:43:09Z</time>
      </trkpt>
      <trkpt lat="47.70685" lon="6.01835">
        <ele>238</ele>
        <time>2010-01-01T00:43:11Z</time>
      </trkpt>
      <trkpt lat="47.70684" lon="6.01843">
        <ele>238</ele>
        <time>2010-01-01T00:43:13Z</time>
      </trkpt>
      <trkpt lat="47.70683" lon="6.01851">
        <ele>238</ele>
        <time>2010-01-01T00:43:15Z</time>
      </trkpt>
      <trkpt lat="47.70682" lon="6.01859">
        <ele>237</ele>
        <time>2010-01-01T00:43:18Z</time>
      </trkpt>
      <trkpt lat="47.70681" lon="6.01867">
        <ele>237</ele>
        <time>2010-01-01T00:43:20Z</time>
      </trkpt>
      <trkpt lat="47.70681" lon="6.01876">
        <ele>237</ele>
        <time>2010-01-01T00:43:22Z</time>
      </trkpt>
      <trkpt lat="47.70681" lon="6.01884">
        <ele>236</ele>
        <time>2010-01-01T00:43:24Z</time>
      </trkpt>
      <trkpt lat="47.70681" lon="6.01892">
        <ele>236</ele>
        <time>2010-01-01T00:43:27Z</time>
      </trkpt>
      <trkpt lat="47.70681" lon="6.019">
        <ele>236</ele>
        <time>2010-01-01T00:43:29Z</time>
      </trkpt>
      <trkpt lat="47.70682" lon="6.01908">
        <ele>236</ele>
        <time>2010-01-01T00:43:31Z</time>
      </trkpt>
      <trkpt lat="47.70682" lon="6.01915">
        <ele>235</ele>
        <time>2010-01-01T00:43:33Z</time>
      </trkpt>
      <trkpt lat="47.70682" lon="6.01921">
        <ele>235</ele>
        <time>2010-01-01T00:43:35Z</time>
      </trkpt>
      <trkpt lat="47.70681" lon="6.01925">
        <ele>234</ele>
        <time>2010-01-01T00:43:36Z</time>
      </trkpt>
      <trkpt lat="47.70679" lon="6.01926">
        <ele>234</ele>
        <time>2010-01-01T00:43:36Z</time>
      </trkpt>
      <trkpt lat="47.70679" lon="6.01926">
        <ele>234</ele>
        <time>2010-01-01T00:43:36Z</time>
      </trkpt>
      <trkpt lat="47.70678" lon="6.01924">
        <ele>234</ele>
        <time>2010-01-01T00:43:37Z</time>
      </trkpt>
      <trkpt lat="47.70678" lon="6.01921">
        <ele>233</ele>
        <time>2010-01-01T00:43:38Z</time>
      </trkpt>
      <trkpt lat="47.70678" lon="6.01917">
        <ele>233</ele>
        <time>2010-01-01T00:43:39Z</time>
      </trkpt>
      <trkpt lat="47.70677" lon="6.01913">
        <ele>232</ele>
        <time>2010-01-01T00:43:40Z</time>
      </trkpt>
      <trkpt lat="47.70676" lon="6.01909">
        <ele>232</ele>
        <time>2010-01-01T00:43:41Z</time>
      </trkpt>
      <trkpt lat="47.70675" lon="6.01905">
        <ele>232</ele>
        <time>2010-01-01T00:43:43Z</time>
      </trkpt>
      <trkpt lat="47.70673" lon="6.019">
        <ele>232</ele>
        <time>2010-01-01T00:43:44Z</time>
      </trkpt>
      <trkpt lat="47.70669" lon="6.01894">
        <ele>232</ele>
        <time>2010-01-01T00:43:46Z</time>
      </trkpt>
      <trkpt lat="47.70666" lon="6.01889">
        <ele>232</ele>
        <time>2010-01-01T00:43:48Z</time>
      </trkpt>
      <trkpt lat="47.70662" lon="6.01886">
        <ele>232</ele>
        <time>2010-01-01T00:43:50Z</time>
      </trkpt>
      <trkpt lat="47.70658" lon="6.01884">
        <ele>232</ele>
        <time>2010-01-01T00:43:52Z</time>
      </trkpt>
      <trkpt lat="47.70653" lon="6.01882">
        <ele>232</ele>
        <time>2010-01-01T00:43:53Z</time>
      </trkpt>
      <trkpt lat="47.70649" lon="6.01882">
        <ele>232</ele>
        <time>2010-01-01T00:43:55Z</time>
      </trkpt>
      <trkpt lat="47.70645" lon="6.01881">
        <ele>232</ele>
        <time>2010-01-01T00:43:57Z</time>
      </trkpt>
      <trkpt lat="47.7064" lon="6.01881">
        <ele>232</ele>
        <time>2010-01-01T00:43:59Z</time>
      </trkpt>
      <trkpt lat="47.70636" lon="6.01882">
        <ele>232</ele>
        <time>2010-01-01T00:44:00Z</time>
      </trkpt>
      <trkpt lat="47.70632" lon="6.01881">
        <ele>232</ele>
        <time>2010-01-01T00:44:02Z</time>
      </trkpt>
      <trkpt lat="47.70628" lon="6.0188">
        <ele>232</ele>
        <time>2010-01-01T00:44:04Z</time>
      </trkpt>
      <trkpt lat="47.70624" lon="6.01878">
        <ele>232</ele>
        <time>2010-01-01T00:44:05Z</time>
      </trkpt>
      <trkpt lat="47.70621" lon="6.01875">
        <ele>232</ele>
        <time>2010-01-01T00:44:07Z</time>
      </trkpt>
      <trkpt lat="47.70617" lon="6.01872">
        <ele>232</ele>
        <time>2010-01-01T00:44:08Z</time>
      </trkpt>
      <trkpt lat="47.70614" lon="6.01869">
        <ele>232</ele>
        <time>2010-01-01T00:44:10Z</time>
      </trkpt>
      <trkpt lat="47.7061" lon="6.01865">
        <ele>232</ele>
        <time>2010-01-01T00:44:12Z</time>
      </trkpt>
      <trkpt lat="47.70608" lon="6.01862">
        <ele>232</ele>
        <time>2010-01-01T00:44:13Z</time>
      </trkpt>
      <trkpt lat="47.70605" lon="6.01858">
        <ele>232</ele>
        <time>2010-01-01T00:44:15Z</time>
      </trkpt>
      <trkpt lat="47.70602" lon="6.01855">
        <ele>232</ele>
        <time>2010-01-01T00:44:16Z</time>
      </trkpt>
      <trkpt lat="47.70599" lon="6.01853">
        <ele>232</ele>
        <time>2010-01-01T00:44:17Z</time>
      </trkpt>
      <trkpt lat="47.70597" lon="6.0185">
        <ele>232</ele>
        <time>2010-01-01T00:44:19Z</time>
      </trkpt>
      <trkpt lat="47.70594" lon="6.01847">
        <ele>232</ele>
        <time>2010-01-01T00:44:20Z</time>
      </trkpt>
      <trkpt lat="47.70591" lon="6.01844">
        <ele>232</ele>
        <time>2010-01-01T00:44:21Z</time>
      </trkpt>
      <trkpt lat="47.70589" lon="6.01841">
        <ele>232</ele>
        <time>2010-01-01T00:44:22Z</time>
      </trkpt>
      <trkpt lat="47.70587" lon="6.01839">
        <ele>232</ele>
        <time>2010-01-01T00:44:23Z</time>
      </trkpt>
      <trkpt lat="47.70585" lon="6.01836">
        <ele>232</ele>
        <time>2010-01-01T00:44:24Z</time>
      </trkpt>
      <trkpt lat="47.70584" lon="6.01833">
        <ele>232</ele>
        <time>2010-01-01T00:44:25Z</time>
      </trkpt>
      <trkpt lat="47.70582" lon="6.0183">
        <ele>233</ele>
        <time>2010-01-01T00:44:26Z</time>
      </trkpt>
      <trkpt lat="47.70581" lon="6.01827">
        <ele>233</ele>
        <time>2010-01-01T00:44:27Z</time>
      </trkpt>
      <trkpt lat="47.70579" lon="6.01824">
        <ele>234</ele>
        <time>2010-01-01T00:44:29Z</time>
      </trkpt>
      <trkpt lat="47.70577" lon="6.01821">
        <ele>234</ele>
        <time>2010-01-01T00:44:30Z</time>
      </trkpt>
      <trkpt lat="47.70576" lon="6.01818">
        <ele>234</ele>
        <time>2010-01-01T00:44:31Z</time>
      </trkpt>
      <trkpt lat="47.70574" lon="6.01814">
        <ele>234</ele>
        <time>2010-01-01T00:44:32Z</time>
      </trkpt>
      <trkpt lat="47.70573" lon="6.01811">
        <ele>234</ele>
        <time>2010-01-01T00:44:33Z</time>
      </trkpt>
      <trkpt lat="47.70571" lon="6.01808">
        <ele>234</ele>
        <time>2010-01-01T00:44:34Z</time>
      </trkpt>
      <trkpt lat="47.7057" lon="6.01804">
        <ele>234</ele>
        <time>2010-01-01T00:44:35Z</time>
      </trkpt>
      <trkpt lat="47.70568" lon="6.01801">
        <ele>234</ele>
        <time>2010-01-01T00:44:36Z</time>
      </trkpt>
      <trkpt lat="47.70567" lon="6.01797">
        <ele>234</ele>
        <time>2010-01-01T00:44:37Z</time>
      </trkpt>
      <trkpt lat="47.70565" lon="6.01794">
        <ele>234</ele>
        <time>2010-01-01T00:44:38Z</time>
      </trkpt>
      <trkpt lat="47.70564" lon="6.0179">
        <ele>234</ele>
        <time>2010-01-01T00:44:40Z</time>
      </trkpt>
      <trkpt lat="47.70562" lon="6.01786">
        <ele>234</ele>
        <time>2010-01-01T00:44:41Z</time>
      </trkpt>
      <trkpt lat="47.7056" lon="6.01782">
        <ele>234</ele>
        <time>2010-01-01T00:44:42Z</time>
      </trkpt>
      <trkpt lat="47.70558" lon="6.01778">
        <ele>234</ele>
        <time>2010-01-01T00:44:44Z</time>
      </trkpt>
      <trkpt lat="47.70556" lon="6.01774">
        <ele>234</ele>
        <time>2010-01-01T00:44:45Z</time>
      </trkpt>
      <trkpt lat="47.70555" lon="6.01769">
        <ele>234</ele>
        <time>2010-01-01T00:44:46Z</time>
      </trkpt>
      <trkpt lat="47.70553" lon="6.01765">
        <ele>235</ele>
        <time>2010-01-01T00:44:48Z</time>
      </trkpt>
      <trkpt lat="47.70552" lon="6.0176">
        <ele>236</ele>
        <time>2010-01-01T00:44:49Z</time>
      </trkpt>
      <trkpt lat="47.70551" lon="6.01756">
        <ele>236</ele>
        <time>2010-01-01T00:44:50Z</time>
      </trkpt>
      <trkpt lat="47.7055" lon="6.01752">
        <ele>236</ele>
        <time>2010-01-01T00:44:51Z</time>
      </trkpt>
      <trkpt lat="47.70548" lon="6.01747">
        <ele>236</ele>
        <time>2010-01-01T00:44:53Z</time>
      </trkpt>
      <trkpt lat="47.70547" lon="6.01743">
        <ele>236</ele>
        <time>2010-01-01T00:44:54Z</time>
      </trkpt>
      <trkpt lat="47.70546" lon="6.01739">
        <ele>236</ele>
        <time>2010-01-01T00:44:55Z</time>
      </trkpt>
      <trkpt lat="47.70544" lon="6.01736">
        <ele>236</ele>
        <time>2010-01-01T00:44:56Z</time>
      </trkpt>
      <trkpt lat="47.70542" lon="6.01732">
        <ele>236</ele>
        <time>2010-01-01T00:44:58Z</time>
      </trkpt>
      <trkpt lat="47.70541" lon="6.01728">
        <ele>236</ele>
        <time>2010-01-01T00:44:59Z</time>
      </trkpt>
      <trkpt lat="47.70539" lon="6.01723">
        <ele>236</ele>
        <time>2010-01-01T00:45:00Z</time>
      </trkpt>
      <trkpt lat="47.70538" lon="6.01719">
        <ele>236</ele>
        <time>2010-01-01T00:45:01Z</time>
      </trkpt>
      <trkpt lat="47.70537" lon="6.01716">
        <ele>236</ele>
        <time>2010-01-01T00:45:02Z</time>
      </trkpt>
      <trkpt lat="47.70536" lon="6.01712">
        <ele>236</ele>
        <time>2010-01-01T00:45:04Z</time>
      </trkpt>
      <trkpt lat="47.70534" lon="6.01708">
        <ele>236</ele>
        <time>2010-01-01T00:45:05Z</time>
      </trkpt>
      <trkpt lat="47.70533" lon="6.01705">
        <ele>236</ele>
        <time>2010-01-01T00:45:06Z</time>
      </trkpt>
      <trkpt lat="47.70532" lon="6.01702">
        <ele>236</ele>
        <time>2010-01-01T00:45:07Z</time>
      </trkpt>
      <trkpt lat="47.7053" lon="6.01698">
        <ele>236</ele>
        <time>2010-01-01T00:45:08Z</time>
      </trkpt>
      <trkpt lat="47.70528" lon="6.01693">
        <ele>236</ele>
        <time>2010-01-01T00:45:09Z</time>
      </trkpt>
      <trkpt lat="47.70526" lon="6.01688">
        <ele>236</ele>
        <time>2010-01-01T00:45:11Z</time>
      </trkpt>
      <trkpt lat="47.70524" lon="6.01682">
        <ele>236</ele>
        <time>2010-01-01T00:45:13Z</time>
      </trkpt>
      <trkpt lat="47.70522" lon="6.01676">
        <ele>236</ele>
        <time>2010-01-01T00:45:15Z</time>
      </trkpt>
      <trkpt lat="47.7052" lon="6.01669">
        <ele>236</ele>
        <time>2010-01-01T00:45:17Z</time>
      </trkpt>
      <trkpt lat="47.70518" lon="6.01664">
        <ele>236</ele>
        <time>2010-01-01T00:45:18Z</time>
      </trkpt>
      <trkpt lat="47.70517" lon="6.01658">
        <ele>236</ele>
        <time>2010-01-01T00:45:20Z</time>
      </trkpt>
      <trkpt lat="47.70516" lon="6.01651">
        <ele>236</ele>
        <time>2010-01-01T00:45:22Z</time>
      </trkpt>
      <trkpt lat="47.70514" lon="6.01638">
        <ele>236</ele>
        <time>2010-01-01T00:45:25Z</time>
      </trkpt>
      <trkpt lat="47.70514" lon="6.01633">
        <ele>236</ele>
        <time>2010-01-01T00:45:27Z</time>
      </trkpt>
      <trkpt lat="47.70512" lon="6.01627">
        <ele>236</ele>
        <time>2010-01-01T00:45:28Z</time>
      </trkpt>
      <trkpt lat="47.7051" lon="6.01621">
        <ele>236</ele>
        <time>2010-01-01T00:45:30Z</time>
      </trkpt>
      <trkpt lat="47.7051" lon="6.01615">
        <ele>236</ele>
        <time>2010-01-01T00:45:32Z</time>
      </trkpt>
      <trkpt lat="47.70509" lon="6.0161">
        <ele>236</ele>
        <time>2010-01-01T00:45:33Z</time>
      </trkpt>
      <trkpt lat="47.70508" lon="6.01605">
        <ele>237</ele>
        <time>2010-01-01T00:45:35Z</time>
      </trkpt>
      <trkpt lat="47.70506" lon="6.016">
        <ele>237</ele>
        <time>2010-01-01T00:45:36Z</time>
      </trkpt>
      <trkpt lat="47.70504" lon="6.01596">
        <ele>238</ele>
        <time>2010-01-01T00:45:38Z</time>
      </trkpt>
      <trkpt lat="47.70502" lon="6.01592">
        <ele>238</ele>
        <time>2010-01-01T00:45:39Z</time>
      </trkpt>
      <trkpt lat="47.70501" lon="6.01588">
        <ele>238</ele>
        <time>2010-01-01T00:45:40Z</time>
      </trkpt>
      <trkpt lat="47.705" lon="6.01583">
        <ele>238</ele>
        <time>2010-01-01T00:45:42Z</time>
      </trkpt>
      <trkpt lat="47.70498" lon="6.01578">
        <ele>238</ele>
        <time>2010-01-01T00:45:43Z</time>
      </trkpt>
      <trkpt lat="47.70497" lon="6.01574">
        <ele>238</ele>
        <time>2010-01-01T00:45:44Z</time>
      </trkpt>
      <trkpt lat="47.70495" lon="6.01569">
        <ele>238</ele>
        <time>2010-01-01T00:45:46Z</time>
      </trkpt>
      <trkpt lat="47.70493" lon="6.01564">
        <ele>238</ele>
        <time>2010-01-01T00:45:47Z</time>
      </trkpt>
      <trkpt lat="47.70491" lon="6.01559">
        <ele>238</ele>
        <time>2010-01-01T00:45:49Z</time>
      </trkpt>
      <trkpt lat="47.70489" lon="6.01554">
        <ele>238</ele>
        <time>2010-01-01T00:45:50Z</time>
      </trkpt>
      <trkpt lat="47.70488" lon="6.01549">
        <ele>239</ele>
        <time>2010-01-01T00:45:52Z</time>
      </trkpt>
      <trkpt lat="47.70486" lon="6.01544">
        <ele>239</ele>
        <time>2010-01-01T00:45:53Z</time>
      </trkpt>
      <trkpt lat="47.70484" lon="6.0154">
        <ele>239</ele>
        <time>2010-01-01T00:45:55Z</time>
      </trkpt>
      <trkpt lat="47.70481" lon="6.01535">
        <ele>240</ele>
        <time>2010-01-01T00:45:57Z</time>
      </trkpt>
      <trkpt lat="47.70478" lon="6.01531">
        <ele>240</ele>
        <time>2010-01-01T00:45:58Z</time>
      </trkpt>
      <trkpt lat="47.70475" lon="6.01527">
        <ele>240</ele>
        <time>2010-01-01T00:46:00Z</time>
      </trkpt>
      <trkpt lat="47.70471" lon="6.01523">
        <ele>240</ele>
        <time>2010-01-01T00:46:02Z</time>
      </trkpt>
      <trkpt lat="47.70467" lon="6.01519">
        <ele>240</ele>
        <time>2010-01-01T00:46:04Z</time>
      </trkpt>
      <trkpt lat="47.70463" lon="6.01516">
        <ele>240</ele>
        <time>2010-01-01T00:46:05Z</time>
      </trkpt>
      <trkpt lat="47.70459" lon="6.01512">
        <ele>240</ele>
        <time>2010-01-01T00:46:07Z</time>
      </trkpt>
      <trkpt lat="47.70455" lon="6.01509">
        <ele>240</ele>
        <time>2010-01-01T00:46:09Z</time>
      </trkpt>
      <trkpt lat="47.7045" lon="6.01506">
        <ele>240</ele>
        <time>2010-01-01T00:46:11Z</time>
      </trkpt>
      <trkpt lat="47.70446" lon="6.01503">
        <ele>240</ele>
        <time>2010-01-01T00:46:13Z</time>
      </trkpt>
      <trkpt lat="47.70442" lon="6.015">
        <ele>240</ele>
        <time>2010-01-01T00:46:15Z</time>
      </trkpt>
      <trkpt lat="47.70438" lon="6.01497">
        <ele>240</ele>
        <time>2010-01-01T00:46:17Z</time>
      </trkpt>
      <trkpt lat="47.70434" lon="6.01494">
        <ele>240</ele>
        <time>2010-01-01T00:46:19Z</time>
      </trkpt>
      <trkpt lat="47.7043" lon="6.01492">
        <ele>240</ele>
        <time>2010-01-01T00:46:20Z</time>
      </trkpt>
      <trkpt lat="47.70425" lon="6.01489">
        <ele>240</ele>
        <time>2010-01-01T00:46:22Z</time>
      </trkpt>
      <trkpt lat="47.70421" lon="6.01486">
        <ele>240</ele>
        <time>2010-01-01T00:46:24Z</time>
      </trkpt>
      <trkpt lat="47.70417" lon="6.01484">
        <ele>240</ele>
        <time>2010-01-01T00:46:26Z</time>
      </trkpt>
      <trkpt lat="47.70412" lon="6.01481">
        <ele>240</ele>
        <time>2010-01-01T00:46:28Z</time>
      </trkpt>
      <trkpt lat="47.70408" lon="6.01479">
        <ele>240</ele>
        <time>2010-01-01T00:46:30Z</time>
      </trkpt>
      <trkpt lat="47.70404" lon="6.01477">
        <ele>240</ele>
        <time>2010-01-01T00:46:31Z</time>
      </trkpt>
      <trkpt lat="47.704" lon="6.01475">
        <ele>240</ele>
        <time>2010-01-01T00:46:33Z</time>
      </trkpt>
      <trkpt lat="47.70396" lon="6.01474">
        <ele>240</ele>
        <time>2010-01-01T00:46:35Z</time>
      </trkpt>
      <trkpt lat="47.70393" lon="6.01473">
        <ele>240</ele>
        <time>2010-01-01T00:46:36Z</time>
      </trkpt>
      <trkpt lat="47.7039" lon="6.01472">
        <ele>240</ele>
        <time>2010-01-01T00:46:37Z</time>
      </trkpt>
      <trkpt lat="47.70387" lon="6.01471">
        <ele>240</ele>
        <time>2010-01-01T00:46:38Z</time>
      </trkpt>
      <trkpt lat="47.70384" lon="6.0147">
        <ele>240</ele>
        <time>2010-01-01T00:46:40Z</time>
      </trkpt>
      <trkpt lat="47.70382" lon="6.01469">
        <ele>240</ele>
        <time>2010-01-01T00:46:41Z</time>
      </trkpt>
      <trkpt lat="47.70379" lon="6.01468">
        <ele>240</ele>
        <time>2010-01-01T00:46:42Z</time>
      </trkpt>
      <trkpt lat="47.70376" lon="6.01466">
        <ele>241</ele>
        <time>2010-01-01T00:46:43Z</time>
      </trkpt>
      <trkpt lat="47.70373" lon="6.01465">
        <ele>241</ele>
        <time>2010-01-01T00:46:44Z</time>
      </trkpt>
      <trkpt lat="47.7037" lon="6.01464">
        <ele>242</ele>
        <time>2010-01-01T00:46:45Z</time>
      </trkpt>
      <trkpt lat="47.70367" lon="6.01463">
        <ele>242</ele>
        <time>2010-01-01T00:46:47Z</time>
      </trkpt>
      <trkpt lat="47.70363" lon="6.01461">
        <ele>242</ele>
        <time>2010-01-01T00:46:48Z</time>
      </trkpt>
      <trkpt lat="47.70361" lon="6.01461">
        <ele>242</ele>
        <time>2010-01-01T00:46:49Z</time>
      </trkpt>
      <trkpt lat="47.70358" lon="6.01459">
        <ele>242</ele>
        <time>2010-01-01T00:46:50Z</time>
      </trkpt>
      <trkpt lat="47.70355" lon="6.01458">
        <ele>242</ele>
        <time>2010-01-01T00:46:51Z</time>
      </trkpt>
      <trkpt lat="47.70353" lon="6.01457">
        <ele>242</ele>
        <time>2010-01-01T00:46:52Z</time>
      </trkpt>
      <trkpt lat="47.70351" lon="6.01456">
        <ele>242</ele>
        <time>2010-01-01T00:46:53Z</time>
      </trkpt>
      <trkpt lat="47.70349" lon="6.01455">
        <ele>242</ele>
        <time>2010-01-01T00:46:54Z</time>
      </trkpt>
      <trkpt lat="47.70347" lon="6.01453">
        <ele>242</ele>
        <time>2010-01-01T00:46:55Z</time>
      </trkpt>
      <trkpt lat="47.70346" lon="6.01452">
        <ele>242</ele>
        <time>2010-01-01T00:46:56Z</time>
      </trkpt>
      <trkpt lat="47.70345" lon="6.01451">
        <ele>242</ele>
        <time>2010-01-01T00:46:56Z</time>
      </trkpt>
      <trkpt lat="47.70344" lon="6.01451">
        <ele>242</ele>
        <time>2010-01-01T00:46:57Z</time>
      </trkpt>
      <trkpt lat="47.70343" lon="6.0145">
        <ele>242</ele>
        <time>2010-01-01T00:46:57Z</time>
      </trkpt>
      <trkpt lat="47.70342" lon="6.0145">
        <ele>243</ele>
        <time>2010-01-01T00:46:57Z</time>
      </trkpt>
      <trkpt lat="47.70342" lon="6.0145">
        <ele>244</ele>
        <time>2010-01-01T00:46:57Z</time>
      </trkpt>
      <trkpt lat="47.70342" lon="6.01451">
        <ele>244</ele>
        <time>2010-01-01T00:46:57Z</time>
      </trkpt>
      <trkpt lat="47.70341" lon="6.01452">
        <ele>244</ele>
        <time>2010-01-01T00:46:58Z</time>
      </trkpt>
      <trkpt lat="47.7034" lon="6.01454">
        <ele>244</ele>
        <time>2010-01-01T00:46:58Z</time>
      </trkpt>
      <trkpt lat="47.70339" lon="6.01455">
        <ele>244</ele>
        <time>2010-01-01T00:46:59Z</time>
      </trkpt>
      <trkpt lat="47.70338" lon="6.01457">
        <ele>244</ele>
        <time>2010-01-01T00:47:00Z</time>
      </trkpt>
      <trkpt lat="47.70338" lon="6.01459">
        <ele>244</ele>
        <time>2010-01-01T00:47:00Z</time>
      </trkpt>
      <trkpt lat="47.70336" lon="6.01462">
        <ele>244</ele>
        <time>2010-01-01T00:47:01Z</time>
      </trkpt>
      <trkpt lat="47.70335" lon="6.01464">
        <ele>244</ele>
        <time>2010-01-01T00:47:02Z</time>
      </trkpt>
      <trkpt lat="47.70334" lon="6.01467">
        <ele>244</ele>
        <time>2010-01-01T00:47:03Z</time>
      </trkpt>
      <trkpt lat="47.70332" lon="6.01469">
        <ele>244</ele>
        <time>2010-01-01T00:47:04Z</time>
      </trkpt>
      <trkpt lat="47.7033" lon="6.01471">
        <ele>244</ele>
        <time>2010-01-01T00:47:05Z</time>
      </trkpt>
      <trkpt lat="47.70329" lon="6.01473">
        <ele>244</ele>
        <time>2010-01-01T00:47:06Z</time>
      </trkpt>
      <trkpt lat="47.70327" lon="6.01476">
        <ele>244</ele>
        <time>2010-01-01T00:47:06Z</time>
      </trkpt>
      <trkpt lat="47.70326" lon="6.01478">
        <ele>244</ele>
        <time>2010-01-01T00:47:07Z</time>
      </trkpt>
      <trkpt lat="47.70326" lon="6.0148">
        <ele>244</ele>
        <time>2010-01-01T00:47:08Z</time>
      </trkpt>
      <trkpt lat="47.70325" lon="6.01482">
        <ele>244</ele>
        <time>2010-01-01T00:47:08Z</time>
      </trkpt>
      <trkpt lat="47.70324" lon="6.01485">
        <ele>244</ele>
        <time>2010-01-01T00:47:09Z</time>
      </trkpt>
      <trkpt lat="47.70324" lon="6.01487">
        <ele>244</ele>
        <time>2010-01-01T00:47:10Z</time>
      </trkpt>
      <trkpt lat="47.70323" lon="6.01489">
        <ele>244</ele>
        <time>2010-01-01T00:47:10Z</time>
      </trkpt>
      <trkpt lat="47.70321" lon="6.01492">
        <ele>244</ele>
        <time>2010-01-01T00:47:12Z</time>
      </trkpt>
      <trkpt lat="47.70319" lon="6.01494">
        <ele>244</ele>
        <time>2010-01-01T00:47:12Z</time>
      </trkpt>
      <trkpt lat="47.70317" lon="6.01495">
        <ele>244</ele>
        <time>2010-01-01T00:47:13Z</time>
      </trkpt>
      <trkpt lat="47.70315" lon="6.01496">
        <ele>244</ele>
        <time>2010-01-01T00:47:14Z</time>
      </trkpt>
      <trkpt lat="47.70314" lon="6.01496">
        <ele>244</ele>
        <time>2010-01-01T00:47:15Z</time>
      </trkpt>
      <trkpt lat="47.70311" lon="6.01496">
        <ele>244</ele>
        <time>2010-01-01T00:47:16Z</time>
      </trkpt>
      <trkpt lat="47.70309" lon="6.01496">
        <ele>244</ele>
        <time>2010-01-01T00:47:17Z</time>
      </trkpt>
      <trkpt lat="47.70306" lon="6.01497">
        <ele>244</ele>
        <time>2010-01-01T00:47:18Z</time>
      </trkpt>
      <trkpt lat="47.70304" lon="6.01499">
        <ele>244</ele>
        <time>2010-01-01T00:47:19Z</time>
      </trkpt>
      <trkpt lat="47.70302" lon="6.01501">
        <ele>244</ele>
        <time>2010-01-01T00:47:20Z</time>
      </trkpt>
      <trkpt lat="47.703" lon="6.01503">
        <ele>244</ele>
        <time>2010-01-01T00:47:21Z</time>
      </trkpt>
      <trkpt lat="47.70298" lon="6.01505">
        <ele>244</ele>
        <time>2010-01-01T00:47:21Z</time>
      </trkpt>
      <trkpt lat="47.70297" lon="6.01507">
        <ele>244</ele>
        <time>2010-01-01T00:47:22Z</time>
      </trkpt>
      <trkpt lat="47.70296" lon="6.0151">
        <ele>244</ele>
        <time>2010-01-01T00:47:23Z</time>
      </trkpt>
      <trkpt lat="47.70296" lon="6.01512">
        <ele>244</ele>
        <time>2010-01-01T00:47:24Z</time>
      </trkpt>
      <trkpt lat="47.70295" lon="6.01514">
        <ele>244</ele>
        <time>2010-01-01T00:47:24Z</time>
      </trkpt>
      <trkpt lat="47.70293" lon="6.01517">
        <ele>244</ele>
        <time>2010-01-01T00:47:25Z</time>
      </trkpt>
      <trkpt lat="47.70293" lon="6.01519">
        <ele>244</ele>
        <time>2010-01-01T00:47:26Z</time>
      </trkpt>
      <trkpt lat="47.70293" lon="6.01521">
        <ele>244</ele>
        <time>2010-01-01T00:47:27Z</time>
      </trkpt>
      <trkpt lat="47.70293" lon="6.01525">
        <ele>244</ele>
        <time>2010-01-01T00:47:27Z</time>
      </trkpt>
      <trkpt lat="47.70293" lon="6.01528">
        <ele>244</ele>
        <time>2010-01-01T00:47:28Z</time>
      </trkpt>
      <trkpt lat="47.70294" lon="6.01532">
        <ele>244</ele>
        <time>2010-01-01T00:47:29Z</time>
      </trkpt>
      <trkpt lat="47.70295" lon="6.01534">
        <ele>244</ele>
        <time>2010-01-01T00:47:30Z</time>
      </trkpt>
      <trkpt lat="47.70295" lon="6.01535">
        <ele>244</ele>
        <time>2010-01-01T00:47:30Z</time>
      </trkpt>
      <trkpt lat="47.70294" lon="6.01538">
        <ele>244</ele>
        <time>2010-01-01T00:47:31Z</time>
      </trkpt>
      <trkpt lat="47.70293" lon="6.0154">
        <ele>244</ele>
        <time>2010-01-01T00:47:32Z</time>
      </trkpt>
      <trkpt lat="47.70292" lon="6.01541">
        <ele>244</ele>
        <time>2010-01-01T00:47:32Z</time>
      </trkpt>
      <trkpt lat="47.70291" lon="6.01544">
        <ele>244</ele>
        <time>2010-01-01T00:47:33Z</time>
      </trkpt>
      <trkpt lat="47.7029" lon="6.01545">
        <ele>244</ele>
        <time>2010-01-01T00:47:34Z</time>
      </trkpt>
      <trkpt lat="47.7029" lon="6.01547">
        <ele>244</ele>
        <time>2010-01-01T00:47:34Z</time>
      </trkpt>
      <trkpt lat="47.70289" lon="6.0155">
        <ele>244</ele>
        <time>2010-01-01T00:47:35Z</time>
      </trkpt>
      <trkpt lat="47.70288" lon="6.01553">
        <ele>244</ele>
        <time>2010-01-01T00:47:36Z</time>
      </trkpt>
      <trkpt lat="47.70287" lon="6.01555">
        <ele>244</ele>
        <time>2010-01-01T00:47:37Z</time>
      </trkpt>
      <trkpt lat="47.70286" lon="6.01558">
        <ele>244</ele>
        <time>2010-01-01T00:47:37Z</time>
      </trkpt>
      <trkpt lat="47.70284" lon="6.0156">
        <ele>244</ele>
        <time>2010-01-01T00:47:38Z</time>
      </trkpt>
      <trkpt lat="47.70283" lon="6.01562">
        <ele>244</ele>
        <time>2010-01-01T00:47:39Z</time>
      </trkpt>
      <trkpt lat="47.70281" lon="6.01563">
        <ele>244</ele>
        <time>2010-01-01T00:47:40Z</time>
      </trkpt>
      <trkpt lat="47.70279" lon="6.01564">
        <ele>244</ele>
        <time>2010-01-01T00:47:41Z</time>
      </trkpt>
      <trkpt lat="47.70278" lon="6.01565">
        <ele>244</ele>
        <time>2010-01-01T00:47:41Z</time>
      </trkpt>
      <trkpt lat="47.70276" lon="6.01567">
        <ele>244</ele>
        <time>2010-01-01T00:47:42Z</time>
      </trkpt>
      <trkpt lat="47.70274" lon="6.01569">
        <ele>244</ele>
        <time>2010-01-01T00:47:43Z</time>
      </trkpt>
      <trkpt lat="47.70272" lon="6.01571">
        <ele>244</ele>
        <time>2010-01-01T00:47:44Z</time>
      </trkpt>
      <trkpt lat="47.7027" lon="6.01575">
        <ele>244</ele>
        <time>2010-01-01T00:47:45Z</time>
      </trkpt>
      <trkpt lat="47.70269" lon="6.01578">
        <ele>244</ele>
        <time>2010-01-01T00:47:46Z</time>
      </trkpt>
      <trkpt lat="47.70268" lon="6.01581">
        <ele>244</ele>
        <time>2010-01-01T00:47:47Z</time>
      </trkpt>
      <trkpt lat="47.70267" lon="6.01583">
        <ele>244</ele>
        <time>2010-01-01T00:47:48Z</time>
      </trkpt>
      <trkpt lat="47.70266" lon="6.01586">
        <ele>244</ele>
        <time>2010-01-01T00:47:49Z</time>
      </trkpt>
      <trkpt lat="47.70265" lon="6.01588">
        <ele>244</ele>
        <time>2010-01-01T00:47:49Z</time>
      </trkpt>
      <trkpt lat="47.70264" lon="6.01591">
        <ele>244</ele>
        <time>2010-01-01T00:47:50Z</time>
      </trkpt>
      <trkpt lat="47.70262" lon="6.01596">
        <ele>244</ele>
        <time>2010-01-01T00:47:52Z</time>
      </trkpt>
      <trkpt lat="47.7026" lon="6.01599">
        <ele>244</ele>
        <time>2010-01-01T00:47:53Z</time>
      </trkpt>
      <trkpt lat="47.70258" lon="6.01603">
        <ele>244</ele>
        <time>2010-01-01T00:47:54Z</time>
      </trkpt>
      <trkpt lat="47.70256" lon="6.01607">
        <ele>245</ele>
        <time>2010-01-01T00:47:56Z</time>
      </trkpt>
      <trkpt lat="47.70254" lon="6.01611">
        <ele>245</ele>
        <time>2010-01-01T00:47:57Z</time>
      </trkpt>
      <trkpt lat="47.70253" lon="6.01613">
        <ele>246</ele>
        <time>2010-01-01T00:47:58Z</time>
      </trkpt>
      <trkpt lat="47.7025" lon="6.01616">
        <ele>246</ele>
        <time>2010-01-01T00:47:59Z</time>
      </trkpt>
      <trkpt lat="47.70249" lon="6.01618">
        <ele>246</ele>
        <time>2010-01-01T00:48:00Z</time>
      </trkpt>
      <trkpt lat="47.70247" lon="6.01621">
        <ele>246</ele>
        <time>2010-01-01T00:48:01Z</time>
      </trkpt>
      <trkpt lat="47.70245" lon="6.01623">
        <ele>246</ele>
        <time>2010-01-01T00:48:02Z</time>
      </trkpt>
      <trkpt lat="47.70243" lon="6.01625">
        <ele>246</ele>
        <time>2010-01-01T00:48:03Z</time>
      </trkpt>
      <trkpt lat="47.70241" lon="6.01628">
        <ele>246</ele>
        <time>2010-01-01T00:48:04Z</time>
      </trkpt>
      <trkpt lat="47.70239" lon="6.01631">
        <ele>246</ele>
        <time>2010-01-01T00:48:05Z</time>
      </trkpt>
      <trkpt lat="47.70237" lon="6.01635">
        <ele>246</ele>
        <time>2010-01-01T00:48:06Z</time>
      </trkpt>
      <trkpt lat="47.70235" lon="6.01638">
        <ele>246</ele>
        <time>2010-01-01T00:48:08Z</time>
      </trkpt>
      <trkpt lat="47.70234" lon="6.01642">
        <ele>246</ele>
        <time>2010-01-01T00:48:09Z</time>
      </trkpt>
      <trkpt lat="47.70232" lon="6.01646">
        <ele>246</ele>
        <time>2010-01-01T00:48:10Z</time>
      </trkpt>
      <trkpt lat="47.7023" lon="6.01649">
        <ele>246</ele>
        <time>2010-01-01T00:48:11Z</time>
      </trkpt>
      <trkpt lat="47.70228" lon="6.01653">
        <ele>246</ele>
        <time>2010-01-01T00:48:13Z</time>
      </trkpt>
      <trkpt lat="47.70226" lon="6.01657">
        <ele>246</ele>
        <time>2010-01-01T00:48:14Z</time>
      </trkpt>
      <trkpt lat="47.70223" lon="6.01661">
        <ele>246</ele>
        <time>2010-01-01T00:48:16Z</time>
      </trkpt>
      <trkpt lat="47.70221" lon="6.01666">
        <ele>246</ele>
        <time>2010-01-01T00:48:17Z</time>
      </trkpt>
      <trkpt lat="47.70219" lon="6.0167">
        <ele>246</ele>
        <time>2010-01-01T00:48:18Z</time>
      </trkpt>
      <trkpt lat="47.70217" lon="6.01674">
        <ele>246</ele>
        <time>2010-01-01T00:48:20Z</time>
      </trkpt>
      <trkpt lat="47.70215" lon="6.01677">
        <ele>246</ele>
        <time>2010-01-01T00:48:21Z</time>
      </trkpt>
      <trkpt lat="47.70214" lon="6.01681">
        <ele>246</ele>
        <time>2010-01-01T00:48:22Z</time>
      </trkpt>
      <trkpt lat="47.70212" lon="6.01684">
        <ele>246</ele>
        <time>2010-01-01T00:48:23Z</time>
      </trkpt>
      <trkpt lat="47.7021" lon="6.01688">
        <ele>246</ele>
        <time>2010-01-01T00:48:24Z</time>
      </trkpt>
      <trkpt lat="47.70208" lon="6.01692">
        <ele>246</ele>
        <time>2010-01-01T00:48:26Z</time>
      </trkpt>
      <trkpt lat="47.70206" lon="6.01696">
        <ele>246</ele>
        <time>2010-01-01T00:48:27Z</time>
      </trkpt>
      <trkpt lat="47.70204" lon="6.017">
        <ele>246</ele>
        <time>2010-01-01T00:48:28Z</time>
      </trkpt>
      <trkpt lat="47.70203" lon="6.01704">
        <ele>246</ele>
        <time>2010-01-01T00:48:30Z</time>
      </trkpt>
      <trkpt lat="47.70201" lon="6.01709">
        <ele>246</ele>
        <time>2010-01-01T00:48:31Z</time>
      </trkpt>
      <trkpt lat="47.70199" lon="6.01713">
        <ele>246</ele>
        <time>2010-01-01T00:48:33Z</time>
      </trkpt>
      <trkpt lat="47.70196" lon="6.01717">
        <ele>246</ele>
        <time>2010-01-01T00:48:34Z</time>
      </trkpt>
      <trkpt lat="47.70194" lon="6.01721">
        <ele>246</ele>
        <time>2010-01-01T00:48:36Z</time>
      </trkpt>
      <trkpt lat="47.70191" lon="6.01725">
        <ele>247</ele>
        <time>2010-01-01T00:48:37Z</time>
      </trkpt>
      <trkpt lat="47.7019" lon="6.01729">
        <ele>247</ele>
        <time>2010-01-01T00:48:38Z</time>
      </trkpt>
      <trkpt lat="47.70188" lon="6.01733">
        <ele>248</ele>
        <time>2010-01-01T00:48:39Z</time>
      </trkpt>
      <trkpt lat="47.70186" lon="6.01737">
        <ele>248</ele>
        <time>2010-01-01T00:48:41Z</time>
      </trkpt>
      <trkpt lat="47.70185" lon="6.01741">
        <ele>248</ele>
        <time>2010-01-01T00:48:42Z</time>
      </trkpt>
      <trkpt lat="47.70183" lon="6.01745">
        <ele>248</ele>
        <time>2010-01-01T00:48:43Z</time>
      </trkpt>
      <trkpt lat="47.70182" lon="6.01749">
        <ele>248</ele>
        <time>2010-01-01T00:48:45Z</time>
      </trkpt>
      <trkpt lat="47.7018" lon="6.01753">
        <ele>248</ele>
        <time>2010-01-01T00:48:46Z</time>
      </trkpt>
      <trkpt lat="47.70178" lon="6.01759">
        <ele>248</ele>
        <time>2010-01-01T00:48:48Z</time>
      </trkpt>
      <trkpt lat="47.70176" lon="6.01763">
        <ele>248</ele>
        <time>2010-01-01T00:48:49Z</time>
      </trkpt>
      <trkpt lat="47.70174" lon="6.01769">
        <ele>248</ele>
        <time>2010-01-01T00:48:51Z</time>
      </trkpt>
      <trkpt lat="47.70172" lon="6.01773">
        <ele>248</ele>
        <time>2010-01-01T00:48:52Z</time>
      </trkpt>
      <trkpt lat="47.7017" lon="6.01777">
        <ele>248</ele>
        <time>2010-01-01T00:48:53Z</time>
      </trkpt>
      <trkpt lat="47.70168" lon="6.0178">
        <ele>248</ele>
        <time>2010-01-01T00:48:55Z</time>
      </trkpt>
      <trkpt lat="47.70166" lon="6.01784">
        <ele>248</ele>
        <time>2010-01-01T00:48:56Z</time>
      </trkpt>
      <trkpt lat="47.70163" lon="6.01788">
        <ele>248</ele>
        <time>2010-01-01T00:48:57Z</time>
      </trkpt>
      <trkpt lat="47.70161" lon="6.01791">
        <ele>248</ele>
        <time>2010-01-01T00:48:59Z</time>
      </trkpt>
      <trkpt lat="47.70158" lon="6.01795">
        <ele>248</ele>
        <time>2010-01-01T00:49:00Z</time>
      </trkpt>
      <trkpt lat="47.70155" lon="6.01799">
        <ele>248</ele>
        <time>2010-01-01T00:49:02Z</time>
      </trkpt>
      <trkpt lat="47.70152" lon="6.01804">
        <ele>248</ele>
        <time>2010-01-01T00:49:04Z</time>
      </trkpt>
      <trkpt lat="47.7015" lon="6.01808">
        <ele>248</ele>
        <time>2010-01-01T00:49:05Z</time>
      </trkpt>
      <trkpt lat="47.70147" lon="6.01811">
        <ele>248</ele>
        <time>2010-01-01T00:49:07Z</time>
      </trkpt>
      <trkpt lat="47.70144" lon="6.01814">
        <ele>248</ele>
        <time>2010-01-01T00:49:08Z</time>
      </trkpt>
      <trkpt lat="47.70142" lon="6.01817">
        <ele>248</ele>
        <time>2010-01-01T00:49:09Z</time>
      </trkpt>
      <trkpt lat="47.7014" lon="6.01819">
        <ele>248</ele>
        <time>2010-01-01T00:49:10Z</time>
      </trkpt>
      <trkpt lat="47.70138" lon="6.01821">
        <ele>248</ele>
        <time>2010-01-01T00:49:11Z</time>
      </trkpt>
      <trkpt lat="47.70137" lon="6.01822">
        <ele>248</ele>
        <time>2010-01-01T00:49:12Z</time>
      </trkpt>
      <trkpt lat="47.70135" lon="6.01824">
        <ele>248</ele>
        <time>2010-01-01T00:49:12Z</time>
      </trkpt>
      <trkpt lat="47.70133" lon="6.01826">
        <ele>248</ele>
        <time>2010-01-01T00:49:13Z</time>
      </trkpt>
      <trkpt lat="47.70131" lon="6.01828">
        <ele>248</ele>
        <time>2010-01-01T00:49:14Z</time>
      </trkpt>
      <trkpt lat="47.7013" lon="6.0183">
        <ele>248</ele>
        <time>2010-01-01T00:49:15Z</time>
      </trkpt>
      <trkpt lat="47.70128" lon="6.01833">
        <ele>248</ele>
        <time>2010-01-01T00:49:16Z</time>
      </trkpt>
      <trkpt lat="47.70125" lon="6.01836">
        <ele>248</ele>
        <time>2010-01-01T00:49:17Z</time>
      </trkpt>
      <trkpt lat="47.70123" lon="6.01839">
        <ele>248</ele>
        <time>2010-01-01T00:49:19Z</time>
      </trkpt>
      <trkpt lat="47.70121" lon="6.01842">
        <ele>247</ele>
        <time>2010-01-01T00:49:20Z</time>
      </trkpt>
      <trkpt lat="47.70118" lon="6.01846">
        <ele>247</ele>
        <time>2010-01-01T00:49:21Z</time>
      </trkpt>
      <trkpt lat="47.70116" lon="6.0185">
        <ele>246</ele>
        <time>2010-01-01T00:49:23Z</time>
      </trkpt>
      <trkpt lat="47.70113" lon="6.01854">
        <ele>246</ele>
        <time>2010-01-01T00:49:24Z</time>
      </trkpt>
      <trkpt lat="47.70111" lon="6.01858">
        <ele>246</ele>
        <time>2010-01-01T00:49:26Z</time>
      </trkpt>
      <trkpt lat="47.70108" lon="6.01863">
        <ele>246</ele>
        <time>2010-01-01T00:49:27Z</time>
      </trkpt>
      <trkpt lat="47.70106" lon="6.01869">
        <ele>246</ele>
        <time>2010-01-01T00:49:29Z</time>
      </trkpt>
      <trkpt lat="47.70103" lon="6.01875">
        <ele>246</ele>
        <time>2010-01-01T00:49:31Z</time>
      </trkpt>
      <trkpt lat="47.70099" lon="6.01881">
        <ele>245</ele>
        <time>2010-01-01T00:49:33Z</time>
      </trkpt>
      <trkpt lat="47.70096" lon="6.01886">
        <ele>245</ele>
        <time>2010-01-01T00:49:36Z</time>
      </trkpt>
      <trkpt lat="47.70092" lon="6.01893">
        <ele>244</ele>
        <time>2010-01-01T00:49:38Z</time>
      </trkpt>
      <trkpt lat="47.70088" lon="6.01899">
        <ele>244</ele>
        <time>2010-01-01T00:49:40Z</time>
      </trkpt>
      <trkpt lat="47.70084" lon="6.01905">
        <ele>243</ele>
        <time>2010-01-01T00:49:42Z</time>
      </trkpt>
      <trkpt lat="47.70079" lon="6.01911">
        <ele>243</ele>
        <time>2010-01-01T00:49:45Z</time>
      </trkpt>
      <trkpt lat="47.70074" lon="6.01917">
        <ele>243</ele>
        <time>2010-01-01T00:49:48Z</time>
      </trkpt>
      <trkpt lat="47.70069" lon="6.01923">
        <ele>243</ele>
        <time>2010-01-01T00:49:50Z</time>
      </trkpt>
      <trkpt lat="47.70064" lon="6.01929">
        <ele>242</ele>
        <time>2010-01-01T00:49:53Z</time>
      </trkpt>
      <trkpt lat="47.70059" lon="6.01935">
        <ele>242</ele>
        <time>2010-01-01T00:49:55Z</time>
      </trkpt>
      <trkpt lat="47.70054" lon="6.01942">
        <ele>241</ele>
        <time>2010-01-01T00:49:58Z</time>
      </trkpt>
      <trkpt lat="47.70049" lon="6.01949">
        <ele>241</ele>
        <time>2010-01-01T00:50:01Z</time>
      </trkpt>
      <trkpt lat="47.70045" lon="6.01955">
        <ele>241</ele>
        <time>2010-01-01T00:50:03Z</time>
      </trkpt>
      <trkpt lat="47.70041" lon="6.01961">
        <ele>241</ele>
        <time>2010-01-01T00:50:05Z</time>
      </trkpt>
      <trkpt lat="47.70037" lon="6.01967">
        <ele>241</ele>
        <time>2010-01-01T00:50:08Z</time>
      </trkpt>
      <trkpt lat="47.70033" lon="6.01973">
        <ele>241</ele>
        <time>2010-01-01T00:50:10Z</time>
      </trkpt>
      <trkpt lat="47.7003" lon="6.01979">
        <ele>241</ele>
        <time>2010-01-01T00:50:12Z</time>
      </trkpt>
      <trkpt lat="47.70026" lon="6.01985">
        <ele>241</ele>
        <time>2010-01-01T00:50:14Z</time>
      </trkpt>
      <trkpt lat="47.70023" lon="6.01991">
        <ele>241</ele>
        <time>2010-01-01T00:50:16Z</time>
      </trkpt>
      <trkpt lat="47.7002" lon="6.01997">
        <ele>241</ele>
        <time>2010-01-01T00:50:18Z</time>
      </trkpt>
      <trkpt lat="47.70016" lon="6.02002">
        <ele>241</ele>
        <time>2010-01-01T00:50:20Z</time>
      </trkpt>
      <trkpt lat="47.70012" lon="6.02007">
        <ele>241</ele>
        <time>2010-01-01T00:50:22Z</time>
      </trkpt>
      <trkpt lat="47.70009" lon="6.02012">
        <ele>241</ele>
        <time>2010-01-01T00:50:24Z</time>
      </trkpt>
      <trkpt lat="47.70007" lon="6.02017">
        <ele>241</ele>
        <time>2010-01-01T00:50:26Z</time>
      </trkpt>
      <trkpt lat="47.70004" lon="6.02021">
        <ele>241</ele>
        <time>2010-01-01T00:50:27Z</time>
      </trkpt>
      <trkpt lat="47.7" lon="6.02025">
        <ele>241</ele>
        <time>2010-01-01T00:50:29Z</time>
      </trkpt>
      <trkpt lat="47.69996" lon="6.02029">
        <ele>241</ele>
        <time>2010-01-01T00:50:31Z</time>
      </trkpt>
      <trkpt lat="47.69993" lon="6.02033">
        <ele>241</ele>
        <time>2010-01-01T00:50:33Z</time>
      </trkpt>
      <trkpt lat="47.69989" lon="6.02037">
        <ele>241</ele>
        <time>2010-01-01T00:50:35Z</time>
      </trkpt>
      <trkpt lat="47.69985" lon="6.02041">
        <ele>241</ele>
        <time>2010-01-01T00:50:37Z</time>
      </trkpt>
      <trkpt lat="47.69981" lon="6.02046">
        <ele>241</ele>
        <time>2010-01-01T00:50:39Z</time>
      </trkpt>
      <trkpt lat="47.69977" lon="6.0205">
        <ele>241</ele>
        <time>2010-01-01T00:50:41Z</time>
      </trkpt>
      <trkpt lat="47.69974" lon="6.02054">
        <ele>242</ele>
        <time>2010-01-01T00:50:42Z</time>
      </trkpt>
      <trkpt lat="47.6997" lon="6.02058">
        <ele>242</ele>
        <time>2010-01-01T00:50:44Z</time>
      </trkpt>
      <trkpt lat="47.69966" lon="6.02062">
        <ele>243</ele>
        <time>2010-01-01T00:50:46Z</time>
      </trkpt>
      <trkpt lat="47.69962" lon="6.02066">
        <ele>243</ele>
        <time>2010-01-01T00:50:48Z</time>
      </trkpt>
      <trkpt lat="47.69958" lon="6.02071">
        <ele>243</ele>
        <time>2010-01-01T00:50:50Z</time>
      </trkpt>
      <trkpt lat="47.69955" lon="6.02075">
        <ele>243</ele>
        <time>2010-01-01T00:50:52Z</time>
      </trkpt>
      <trkpt lat="47.69952" lon="6.02079">
        <ele>243</ele>
        <time>2010-01-01T00:50:53Z</time>
      </trkpt>
      <trkpt lat="47.69949" lon="6.02083">
        <ele>243</ele>
        <time>2010-01-01T00:50:55Z</time>
      </trkpt>
      <trkpt lat="47.69946" lon="6.02087">
        <ele>243</ele>
        <time>2010-01-01T00:50:56Z</time>
      </trkpt>
      <trkpt lat="47.69943" lon="6.02091">
        <ele>243</ele>
        <time>2010-01-01T00:50:58Z</time>
      </trkpt>
      <trkpt lat="47.6994" lon="6.02094">
        <ele>243</ele>
        <time>2010-01-01T00:51:00Z</time>
      </trkpt>
      <trkpt lat="47.69938" lon="6.02098">
        <ele>243</ele>
        <time>2010-01-01T00:51:01Z</time>
      </trkpt>
      <trkpt lat="47.69935" lon="6.02101">
        <ele>243</ele>
        <time>2010-01-01T00:51:02Z</time>
      </trkpt>
      <trkpt lat="47.69933" lon="6.02103">
        <ele>243</ele>
        <time>2010-01-01T00:51:03Z</time>
      </trkpt>
      <trkpt lat="47.69932" lon="6.02104">
        <ele>243</ele>
        <time>2010-01-01T00:51:04Z</time>
      </trkpt>
      <trkpt lat="47.69931" lon="6.02106">
        <ele>243</ele>
        <time>2010-01-01T00:51:04Z</time>
      </trkpt>
      <trkpt lat="47.69931" lon="6.02106">
        <ele>243</ele>
        <time>2010-01-01T00:51:04Z</time>
      </trkpt>
      <trkpt lat="47.6993" lon="6.02107">
        <ele>243</ele>
        <time>2010-01-01T00:51:05Z</time>
      </trkpt>
      <trkpt lat="47.6993" lon="6.02108">
        <ele>243</ele>
        <time>2010-01-01T00:51:05Z</time>
      </trkpt>
      <trkpt lat="47.69929" lon="6.0211">
        <ele>243</ele>
        <time>2010-01-01T00:51:06Z</time>
      </trkpt>
      <trkpt lat="47.69928" lon="6.02112">
        <ele>243</ele>
        <time>2010-01-01T00:51:07Z</time>
      </trkpt>
      <trkpt lat="47.69926" lon="6.02113">
        <ele>243</ele>
        <time>2010-01-01T00:51:07Z</time>
      </trkpt>
      <trkpt lat="47.69925" lon="6.02114">
        <ele>243</ele>
        <time>2010-01-01T00:51:08Z</time>
      </trkpt>
      <trkpt lat="47.69924" lon="6.02116">
        <ele>243</ele>
        <time>2010-01-01T00:51:08Z</time>
      </trkpt>
      <trkpt lat="47.69922" lon="6.02118">
        <ele>243</ele>
        <time>2010-01-01T00:51:09Z</time>
      </trkpt>
      <trkpt lat="47.6992" lon="6.02121">
        <ele>243</ele>
        <time>2010-01-01T00:51:11Z</time>
      </trkpt>
      <trkpt lat="47.69918" lon="6.02124">
        <ele>243</ele>
        <time>2010-01-01T00:51:12Z</time>
      </trkpt>
      <trkpt lat="47.69915" lon="6.02127">
        <ele>243</ele>
        <time>2010-01-01T00:51:13Z</time>
      </trkpt>
      <trkpt lat="47.69913" lon="6.02131">
        <ele>243</ele>
        <time>2010-01-01T00:51:14Z</time>
      </trkpt>
      <trkpt lat="47.6991" lon="6.02135">
        <ele>243</ele>
        <time>2010-01-01T00:51:16Z</time>
      </trkpt>
      <trkpt lat="47.69908" lon="6.0214">
        <ele>243</ele>
        <time>2010-01-01T00:51:18Z</time>
      </trkpt>
      <trkpt lat="47.69905" lon="6.02145">
        <ele>243</ele>
        <time>2010-01-01T00:51:19Z</time>
      </trkpt>
      <trkpt lat="47.69903" lon="6.02151">
        <ele>243</ele>
        <time>2010-01-01T00:51:21Z</time>
      </trkpt>
      <trkpt lat="47.69902" lon="6.02157">
        <ele>243</ele>
        <time>2010-01-01T00:51:23Z</time>
      </trkpt>
      <trkpt lat="47.699" lon="6.02164">
        <ele>243</ele>
        <time>2010-01-01T00:51:25Z</time>
      </trkpt>
      <trkpt lat="47.69898" lon="6.02171">
        <ele>243</ele>
        <time>2010-01-01T00:51:27Z</time>
      </trkpt>
      <trkpt lat="47.69896" lon="6.02178">
        <ele>243</ele>
        <time>2010-01-01T00:51:29Z</time>
      </trkpt>
      <trkpt lat="47.69895" lon="6.02185">
        <ele>243</ele>
        <time>2010-01-01T00:51:31Z</time>
      </trkpt>
      <trkpt lat="47.69893" lon="6.02192">
        <ele>243</ele>
        <time>2010-01-01T00:51:33Z</time>
      </trkpt>
      <trkpt lat="47.69891" lon="6.02199">
        <ele>243</ele>
        <time>2010-01-01T00:51:35Z</time>
      </trkpt>
      <trkpt lat="47.69889" lon="6.02206">
        <ele>243</ele>
        <time>2010-01-01T00:51:37Z</time>
      </trkpt>
      <trkpt lat="47.69887" lon="6.02212">
        <ele>243</ele>
        <time>2010-01-01T00:51:39Z</time>
      </trkpt>
      <trkpt lat="47.69884" lon="6.02218">
        <ele>243</ele>
        <time>2010-01-01T00:51:41Z</time>
      </trkpt>
      <trkpt lat="47.69882" lon="6.02223">
        <ele>243</ele>
        <time>2010-01-01T00:51:42Z</time>
      </trkpt>
      <trkpt lat="47.69879" lon="6.02229">
        <ele>243</ele>
        <time>2010-01-01T00:51:44Z</time>
      </trkpt>
      <trkpt lat="47.69877" lon="6.02234">
        <ele>243</ele>
        <time>2010-01-01T00:51:46Z</time>
      </trkpt>
      <trkpt lat="47.69874" lon="6.0224">
        <ele>243</ele>
        <time>2010-01-01T00:51:48Z</time>
      </trkpt>
      <trkpt lat="47.69872" lon="6.02246">
        <ele>243</ele>
        <time>2010-01-01T00:51:50Z</time>
      </trkpt>
      <trkpt lat="47.69869" lon="6.02251">
        <ele>243</ele>
        <time>2010-01-01T00:51:51Z</time>
      </trkpt>
      <trkpt lat="47.69867" lon="6.02256">
        <ele>243</ele>
        <time>2010-01-01T00:51:53Z</time>
      </trkpt>
      <trkpt lat="47.69864" lon="6.02261">
        <ele>243</ele>
        <time>2010-01-01T00:51:55Z</time>
      </trkpt>
      <trkpt lat="47.69861" lon="6.02265">
        <ele>243</ele>
        <time>2010-01-01T00:51:56Z</time>
      </trkpt>
      <trkpt lat="47.69859" lon="6.02269">
        <ele>243</ele>
        <time>2010-01-01T00:51:58Z</time>
      </trkpt>
      <trkpt lat="47.69856" lon="6.02271">
        <ele>243</ele>
        <time>2010-01-01T00:51:59Z</time>
      </trkpt>
      <trkpt lat="47.69854" lon="6.02274">
        <ele>243</ele>
        <time>2010-01-01T00:52:00Z</time>
      </trkpt>
      <trkpt lat="47.69852" lon="6.02276">
        <ele>243</ele>
        <time>2010-01-01T00:52:01Z</time>
      </trkpt>
      <trkpt lat="47.69849" lon="6.02278">
        <ele>243</ele>
        <time>2010-01-01T00:52:02Z</time>
      </trkpt>
      <trkpt lat="47.69848" lon="6.02279">
        <ele>243</ele>
        <time>2010-01-01T00:52:03Z</time>
      </trkpt>
      <trkpt lat="47.69846" lon="6.0228">
        <ele>243</ele>
        <time>2010-01-01T00:52:04Z</time>
      </trkpt>
      <trkpt lat="47.69845" lon="6.02281">
        <ele>243</ele>
        <time>2010-01-01T00:52:04Z</time>
      </trkpt>
      <trkpt lat="47.69845" lon="6.02281">
        <ele>243</ele>
        <time>2010-01-01T00:52:04Z</time>
      </trkpt>
      <trkpt lat="47.69845" lon="6.02281">
        <ele>243</ele>
        <time>2010-01-01T00:52:04Z</time>
      </trkpt>
      <trkpt lat="47.69844" lon="6.02282">
        <ele>243</ele>
        <time>2010-01-01T00:52:05Z</time>
      </trkpt>
      <trkpt lat="47.69842" lon="6.02283">
        <ele>243</ele>
        <time>2010-01-01T00:52:06Z</time>
      </trkpt>
      <trkpt lat="47.69841" lon="6.02285">
        <ele>243</ele>
        <time>2010-01-01T00:52:06Z</time>
      </trkpt>
      <trkpt lat="47.69838" lon="6.02286">
        <ele>243</ele>
        <time>2010-01-01T00:52:07Z</time>
      </trkpt>
      <trkpt lat="47.69835" lon="6.02288">
        <ele>243</ele>
        <time>2010-01-01T00:52:09Z</time>
      </trkpt>
      <trkpt lat="47.69832" lon="6.0229">
        <ele>243</ele>
        <time>2010-01-01T00:52:10Z</time>
      </trkpt>
      <trkpt lat="47.69829" lon="6.02293">
        <ele>243</ele>
        <time>2010-01-01T00:52:12Z</time>
      </trkpt>
      <trkpt lat="47.69826" lon="6.02295">
        <ele>243</ele>
        <time>2010-01-01T00:52:13Z</time>
      </trkpt>
      <trkpt lat="47.69822" lon="6.02296">
        <ele>243</ele>
        <time>2010-01-01T00:52:14Z</time>
      </trkpt>
      <trkpt lat="47.69819" lon="6.02298">
        <ele>243</ele>
        <time>2010-01-01T00:52:16Z</time>
      </trkpt>
      <trkpt lat="47.69815" lon="6.023">
        <ele>243</ele>
        <time>2010-01-01T00:52:17Z</time>
      </trkpt>
      <trkpt lat="47.69811" lon="6.02302">
        <ele>243</ele>
        <time>2010-01-01T00:52:19Z</time>
      </trkpt>
      <trkpt lat="47.69807" lon="6.02304">
        <ele>243</ele>
        <time>2010-01-01T00:52:21Z</time>
      </trkpt>
      <trkpt lat="47.69803" lon="6.02306">
        <ele>243</ele>
        <time>2010-01-01T00:52:22Z</time>
      </trkpt>
      <trkpt lat="47.69799" lon="6.02307">
        <ele>243</ele>
        <time>2010-01-01T00:52:24Z</time>
      </trkpt>
      <trkpt lat="47.69794" lon="6.02308">
        <ele>243</ele>
        <time>2010-01-01T00:52:26Z</time>
      </trkpt>
      <trkpt lat="47.6979" lon="6.02309">
        <ele>243</ele>
        <time>2010-01-01T00:52:28Z</time>
      </trkpt>
      <trkpt lat="47.69785" lon="6.0231">
        <ele>243</ele>
        <time>2010-01-01T00:52:30Z</time>
      </trkpt>
      <trkpt lat="47.6978" lon="6.02311">
        <ele>243</ele>
        <time>2010-01-01T00:52:32Z</time>
      </trkpt>
      <trkpt lat="47.69776" lon="6.02311">
        <ele>243</ele>
        <time>2010-01-01T00:52:34Z</time>
      </trkpt>
      <trkpt lat="47.69771" lon="6.02312">
        <ele>243</ele>
        <time>2010-01-01T00:52:36Z</time>
      </trkpt>
      <trkpt lat="47.69766" lon="6.02312">
        <ele>243</ele>
        <time>2010-01-01T00:52:38Z</time>
      </trkpt>
      <trkpt lat="47.6976" lon="6.02313">
        <ele>243</ele>
        <time>2010-01-01T00:52:40Z</time>
      </trkpt>
      <trkpt lat="47.69755" lon="6.02314">
        <ele>243</ele>
        <time>2010-01-01T00:52:42Z</time>
      </trkpt>
      <trkpt lat="47.69749" lon="6.02315">
        <ele>243</ele>
        <time>2010-01-01T00:52:44Z</time>
      </trkpt>
      <trkpt lat="47.69744" lon="6.02315">
        <ele>243</ele>
        <time>2010-01-01T00:52:46Z</time>
      </trkpt>
      <trkpt lat="47.69738" lon="6.02316">
        <ele>243</ele>
        <time>2010-01-01T00:52:49Z</time>
      </trkpt>
      <trkpt lat="47.69733" lon="6.02317">
        <ele>242</ele>
        <time>2010-01-01T00:52:51Z</time>
      </trkpt>
      <trkpt lat="47.69727" lon="6.02318">
        <ele>242</ele>
        <time>2010-01-01T00:52:53Z</time>
      </trkpt>
      <trkpt lat="47.69722" lon="6.0232">
        <ele>241</ele>
        <time>2010-01-01T00:52:55Z</time>
      </trkpt>
      <trkpt lat="47.69716" lon="6.02321">
        <ele>241</ele>
        <time>2010-01-01T00:52:58Z</time>
      </trkpt>
      <trkpt lat="47.6971" lon="6.02323">
        <ele>241</ele>
        <time>2010-01-01T00:53:00Z</time>
      </trkpt>
      <trkpt lat="47.69705" lon="6.02325">
        <ele>241</ele>
        <time>2010-01-01T00:53:02Z</time>
      </trkpt>
      <trkpt lat="47.697" lon="6.02327">
        <ele>241</ele>
        <time>2010-01-01T00:53:04Z</time>
      </trkpt>
      <trkpt lat="47.69695" lon="6.02329">
        <ele>241</ele>
        <time>2010-01-01T00:53:06Z</time>
      </trkpt>
      <trkpt lat="47.6969" lon="6.02331">
        <ele>240</ele>
        <time>2010-01-01T00:53:08Z</time>
      </trkpt>
      <trkpt lat="47.69685" lon="6.02333">
        <ele>240</ele>
        <time>2010-01-01T00:53:10Z</time>
      </trkpt>
      <trkpt lat="47.69681" lon="6.02336">
        <ele>239</ele>
        <time>2010-01-01T00:53:12Z</time>
      </trkpt>
      <trkpt lat="47.69675" lon="6.02339">
        <ele>239</ele>
        <time>2010-01-01T00:53:15Z</time>
      </trkpt>
      <trkpt lat="47.6967" lon="6.02342">
        <ele>239</ele>
        <time>2010-01-01T00:53:17Z</time>
      </trkpt>
      <trkpt lat="47.69664" lon="6.02345">
        <ele>238</ele>
        <time>2010-01-01T00:53:20Z</time>
      </trkpt>
      <trkpt lat="47.69658" lon="6.0235">
        <ele>238</ele>
        <time>2010-01-01T00:53:22Z</time>
      </trkpt>
      <trkpt lat="47.69653" lon="6.02356">
        <ele>237</ele>
        <time>2010-01-01T00:53:25Z</time>
      </trkpt>
      <trkpt lat="47.69647" lon="6.02362">
        <ele>237</ele>
        <time>2010-01-01T00:53:28Z</time>
      </trkpt>
      <trkpt lat="47.69642" lon="6.02369">
        <ele>237</ele>
        <time>2010-01-01T00:53:30Z</time>
      </trkpt>
      <trkpt lat="47.69637" lon="6.02376">
        <ele>237</ele>
        <time>2010-01-01T00:53:33Z</time>
      </trkpt>
      <trkpt lat="47.69633" lon="6.02384">
        <ele>236</ele>
        <time>2010-01-01T00:53:36Z</time>
      </trkpt>
      <trkpt lat="47.69629" lon="6.02392">
        <ele>236</ele>
        <time>2010-01-01T00:53:39Z</time>
      </trkpt>
      <trkpt lat="47.69625" lon="6.024">
        <ele>235</ele>
        <time>2010-01-01T00:53:41Z</time>
      </trkpt>
      <trkpt lat="47.69621" lon="6.02408">
        <ele>235</ele>
        <time>2010-01-01T00:53:44Z</time>
      </trkpt>
      <trkpt lat="47.69617" lon="6.02415">
        <ele>234</ele>
        <time>2010-01-01T00:53:46Z</time>
      </trkpt>
      <trkpt lat="47.69613" lon="6.02423">
        <ele>234</ele>
        <time>2010-01-01T00:53:49Z</time>
      </trkpt>
      <trkpt lat="47.6961" lon="6.02432">
        <ele>234</ele>
        <time>2010-01-01T00:53:52Z</time>
      </trkpt>
      <trkpt lat="47.69607" lon="6.0244">
        <ele>234</ele>
        <time>2010-01-01T00:53:54Z</time>
      </trkpt>
      <trkpt lat="47.69604" lon="6.02448">
        <ele>234</ele>
        <time>2010-01-01T00:53:57Z</time>
      </trkpt>
      <trkpt lat="47.69593" lon="6.02476">
        <ele>234</ele>
        <time>2010-01-01T00:54:05Z</time>
      </trkpt>
      <trkpt lat="47.69592" lon="6.02483">
        <ele>234</ele>
        <time>2010-01-01T00:54:07Z</time>
      </trkpt>
      <trkpt lat="47.6959" lon="6.0249">
        <ele>234</ele>
        <time>2010-01-01T00:54:09Z</time>
      </trkpt>
      <trkpt lat="47.69589" lon="6.02497">
        <ele>234</ele>
        <time>2010-01-01T00:54:11Z</time>
      </trkpt>
      <trkpt lat="47.69588" lon="6.02503">
        <ele>234</ele>
        <time>2010-01-01T00:54:13Z</time>
      </trkpt>
      <trkpt lat="47.69588" lon="6.0251">
        <ele>234</ele>
        <time>2010-01-01T00:54:15Z</time>
      </trkpt>
      <trkpt lat="47.69587" lon="6.02516">
        <ele>234</ele>
        <time>2010-01-01T00:54:16Z</time>
      </trkpt>
      <trkpt lat="47.69587" lon="6.02522">
        <ele>234</ele>
        <time>2010-01-01T00:54:18Z</time>
      </trkpt>
      <trkpt lat="47.69587" lon="6.02529">
        <ele>234</ele>
        <time>2010-01-01T00:54:20Z</time>
      </trkpt>
      <trkpt lat="47.69586" lon="6.02535">
        <ele>234</ele>
        <time>2010-01-01T00:54:21Z</time>
      </trkpt>
      <trkpt lat="47.69586" lon="6.02541">
        <ele>234</ele>
        <time>2010-01-01T00:54:23Z</time>
      </trkpt>
      <trkpt lat="47.69586" lon="6.02547">
        <ele>234</ele>
        <time>2010-01-01T00:54:25Z</time>
      </trkpt>
      <trkpt lat="47.69585" lon="6.02552">
        <ele>234</ele>
        <time>2010-01-01T00:54:26Z</time>
      </trkpt>
      <trkpt lat="47.69585" lon="6.02558">
        <ele>234</ele>
        <time>2010-01-01T00:54:28Z</time>
      </trkpt>
      <trkpt lat="47.69585" lon="6.02563">
        <ele>234</ele>
        <time>2010-01-01T00:54:29Z</time>
      </trkpt>
      <trkpt lat="47.69584" lon="6.02569">
        <ele>234</ele>
        <time>2010-01-01T00:54:31Z</time>
      </trkpt>
      <trkpt lat="47.69583" lon="6.02574">
        <ele>234</ele>
        <time>2010-01-01T00:54:32Z</time>
      </trkpt>
      <trkpt lat="47.69582" lon="6.0258">
        <ele>235</ele>
        <time>2010-01-01T00:54:34Z</time>
      </trkpt>
      <trkpt lat="47.69582" lon="6.02585">
        <ele>235</ele>
        <time>2010-01-01T00:54:35Z</time>
      </trkpt>
      <trkpt lat="47.69581" lon="6.02591">
        <ele>236</ele>
        <time>2010-01-01T00:54:37Z</time>
      </trkpt>
      <trkpt lat="47.6958" lon="6.02597">
        <ele>236</ele>
        <time>2010-01-01T00:54:38Z</time>
      </trkpt>
      <trkpt lat="47.6958" lon="6.02603">
        <ele>237</ele>
        <time>2010-01-01T00:54:40Z</time>
      </trkpt>
      <trkpt lat="47.69579" lon="6.02608">
        <ele>237</ele>
        <time>2010-01-01T00:54:42Z</time>
      </trkpt>
      <trkpt lat="47.69578" lon="6.02614">
        <ele>237</ele>
        <time>2010-01-01T00:54:43Z</time>
      </trkpt>
      <trkpt lat="47.69577" lon="6.0262">
        <ele>237</ele>
        <time>2010-01-01T00:54:45Z</time>
      </trkpt>
      <trkpt lat="47.69576" lon="6.02626">
        <ele>237</ele>
        <time>2010-01-01T00:54:46Z</time>
      </trkpt>
      <trkpt lat="47.69575" lon="6.02632">
        <ele>237</ele>
        <time>2010-01-01T00:54:48Z</time>
      </trkpt>
      <trkpt lat="47.69573" lon="6.02638">
        <ele>237</ele>
        <time>2010-01-01T00:54:50Z</time>
      </trkpt>
      <trkpt lat="47.69572" lon="6.02643">
        <ele>238</ele>
        <time>2010-01-01T00:54:51Z</time>
      </trkpt>
      <trkpt lat="47.6957" lon="6.02649">
        <ele>238</ele>
        <time>2010-01-01T00:54:53Z</time>
      </trkpt>
      <trkpt lat="47.69568" lon="6.02654">
        <ele>238</ele>
        <time>2010-01-01T00:54:55Z</time>
      </trkpt>
      <trkpt lat="47.69567" lon="6.0266">
        <ele>239</ele>
        <time>2010-01-01T00:54:56Z</time>
      </trkpt>
      <trkpt lat="47.69565" lon="6.02665">
        <ele>239</ele>
        <time>2010-01-01T00:54:58Z</time>
      </trkpt>
      <trkpt lat="47.69563" lon="6.0267">
        <ele>239</ele>
        <time>2010-01-01T00:55:00Z</time>
      </trkpt>
      <trkpt lat="47.6956" lon="6.02676">
        <ele>239</ele>
        <time>2010-01-01T00:55:01Z</time>
      </trkpt>
      <trkpt lat="47.69557" lon="6.0268">
        <ele>239</ele>
        <time>2010-01-01T00:55:03Z</time>
      </trkpt>
      <trkpt lat="47.69555" lon="6.02685">
        <ele>239</ele>
        <time>2010-01-01T00:55:05Z</time>
      </trkpt>
      <trkpt lat="47.69552" lon="6.02689">
        <ele>239</ele>
        <time>2010-01-01T00:55:06Z</time>
      </trkpt>
      <trkpt lat="47.69549" lon="6.02693">
        <ele>239</ele>
        <time>2010-01-01T00:55:08Z</time>
      </trkpt>
      <trkpt lat="47.69546" lon="6.02697">
        <ele>239</ele>
        <time>2010-01-01T00:55:09Z</time>
      </trkpt>
      <trkpt lat="47.69544" lon="6.02701">
        <ele>239</ele>
        <time>2010-01-01T00:55:11Z</time>
      </trkpt>
      <trkpt lat="47.69541" lon="6.02704">
        <ele>239</ele>
        <time>2010-01-01T00:55:12Z</time>
      </trkpt>
      <trkpt lat="47.69537" lon="6.02708">
        <ele>240</ele>
        <time>2010-01-01T00:55:14Z</time>
      </trkpt>
      <trkpt lat="47.69535" lon="6.02711">
        <ele>240</ele>
        <time>2010-01-01T00:55:15Z</time>
      </trkpt>
      <trkpt lat="47.69532" lon="6.02714">
        <ele>240</ele>
        <time>2010-01-01T00:55:17Z</time>
      </trkpt>
      <trkpt lat="47.6953" lon="6.02718">
        <ele>241</ele>
        <time>2010-01-01T00:55:18Z</time>
      </trkpt>
      <trkpt lat="47.69528" lon="6.02722">
        <ele>241</ele>
        <time>2010-01-01T00:55:19Z</time>
      </trkpt>
      <trkpt lat="47.69527" lon="6.02726">
        <ele>241</ele>
        <time>2010-01-01T00:55:21Z</time>
      </trkpt>
      <trkpt lat="47.69527" lon="6.0273">
        <ele>241</ele>
        <time>2010-01-01T00:55:22Z</time>
      </trkpt>
      <trkpt lat="47.69528" lon="6.02733">
        <ele>241</ele>
        <time>2010-01-01T00:55:23Z</time>
      </trkpt>
      <trkpt lat="47.69529" lon="6.02737">
        <ele>241</ele>
        <time>2010-01-01T00:55:24Z</time>
      </trkpt>
      <trkpt lat="47.6953" lon="6.0274">
        <ele>241</ele>
        <time>2010-01-01T00:55:24Z</time>
      </trkpt>
      <trkpt lat="47.6953" lon="6.02742">
        <ele>241</ele>
        <time>2010-01-01T00:55:25Z</time>
      </trkpt>
      <trkpt lat="47.69531" lon="6.02745">
        <ele>241</ele>
        <time>2010-01-01T00:55:26Z</time>
      </trkpt>
      <trkpt lat="47.69532" lon="6.02748">
        <ele>242</ele>
        <time>2010-01-01T00:55:27Z</time>
      </trkpt>
      <trkpt lat="47.69533" lon="6.02751">
        <ele>242</ele>
        <time>2010-01-01T00:55:28Z</time>
      </trkpt>
      <trkpt lat="47.69533" lon="6.02753">
        <ele>243</ele>
        <time>2010-01-01T00:55:28Z</time>
      </trkpt>
      <trkpt lat="47.69535" lon="6.02756">
        <ele>243</ele>
        <time>2010-01-01T00:55:29Z</time>
      </trkpt>
      <trkpt lat="47.69535" lon="6.02758">
        <ele>243</ele>
        <time>2010-01-01T00:55:30Z</time>
      </trkpt>
      <trkpt lat="47.69536" lon="6.0276">
        <ele>243</ele>
        <time>2010-01-01T00:55:30Z</time>
      </trkpt>
      <trkpt lat="47.69536" lon="6.0276">
        <ele>243</ele>
        <time>2010-01-01T00:55:31Z</time>
      </trkpt>
      <trkpt lat="47.69536" lon="6.0276">
        <ele>243</ele>
        <time>2010-01-01T00:55:31Z</time>
      </trkpt>
      <trkpt lat="47.69537" lon="6.02761">
        <ele>243</ele>
        <time>2010-01-01T00:55:31Z</time>
      </trkpt>
      <trkpt lat="47.69537" lon="6.02764">
        <ele>243</ele>
        <time>2010-01-01T00:55:32Z</time>
      </trkpt>
      <trkpt lat="47.69538" lon="6.02766">
        <ele>243</ele>
        <time>2010-01-01T00:55:32Z</time>
      </trkpt>
      <trkpt lat="47.69538" lon="6.02769">
        <ele>243</ele>
        <time>2010-01-01T00:55:33Z</time>
      </trkpt>
      <trkpt lat="47.69539" lon="6.02772">
        <ele>243</ele>
        <time>2010-01-01T00:55:34Z</time>
      </trkpt>
      <trkpt lat="47.6954" lon="6.02776">
        <ele>243</ele>
        <time>2010-01-01T00:55:35Z</time>
      </trkpt>
      <trkpt lat="47.69541" lon="6.02781">
        <ele>243</ele>
        <time>2010-01-01T00:55:36Z</time>
      </trkpt>
      <trkpt lat="47.69543" lon="6.02785">
        <ele>243</ele>
        <time>2010-01-01T00:55:38Z</time>
      </trkpt>
      <trkpt lat="47.69544" lon="6.0279">
        <ele>243</ele>
        <time>2010-01-01T00:55:39Z</time>
      </trkpt>
      <trkpt lat="47.69546" lon="6.02796">
        <ele>243</ele>
        <time>2010-01-01T00:55:41Z</time>
      </trkpt>
      <trkpt lat="47.69547" lon="6.02802">
        <ele>243</ele>
        <time>2010-01-01T00:55:43Z</time>
      </trkpt>
      <trkpt lat="47.69548" lon="6.02808">
        <ele>243</ele>
        <time>2010-01-01T00:55:44Z</time>
      </trkpt>
      <trkpt lat="47.6955" lon="6.02815">
        <ele>243</ele>
        <time>2010-01-01T00:55:46Z</time>
      </trkpt>
      <trkpt lat="47.69551" lon="6.02822">
        <ele>243</ele>
        <time>2010-01-01T00:55:48Z</time>
      </trkpt>
      <trkpt lat="47.69552" lon="6.02828">
        <ele>243</ele>
        <time>2010-01-01T00:55:50Z</time>
      </trkpt>
      <trkpt lat="47.69553" lon="6.02836">
        <ele>243</ele>
        <time>2010-01-01T00:55:52Z</time>
      </trkpt>
      <trkpt lat="47.69554" lon="6.02843">
        <ele>243</ele>
        <time>2010-01-01T00:55:54Z</time>
      </trkpt>
      <trkpt lat="47.69555" lon="6.0285">
        <ele>243</ele>
        <time>2010-01-01T00:55:56Z</time>
      </trkpt>
      <trkpt lat="47.69556" lon="6.02858">
        <ele>243</ele>
        <time>2010-01-01T00:55:58Z</time>
      </trkpt>
      <trkpt lat="47.69557" lon="6.02865">
        <ele>243</ele>
        <time>2010-01-01T00:56:00Z</time>
      </trkpt>
      <trkpt lat="47.69557" lon="6.02873">
        <ele>243</ele>
        <time>2010-01-01T00:56:02Z</time>
      </trkpt>
      <trkpt lat="47.69557" lon="6.0288">
        <ele>243</ele>
        <time>2010-01-01T00:56:04Z</time>
      </trkpt>
      <trkpt lat="47.69558" lon="6.02888">
        <ele>243</ele>
        <time>2010-01-01T00:56:06Z</time>
      </trkpt>
      <trkpt lat="47.69559" lon="6.02895">
        <ele>243</ele>
        <time>2010-01-01T00:56:08Z</time>
      </trkpt>
      <trkpt lat="47.6956" lon="6.02902">
        <ele>243</ele>
        <time>2010-01-01T00:56:10Z</time>
      </trkpt>
      <trkpt lat="47.6956" lon="6.0291">
        <ele>243</ele>
        <time>2010-01-01T00:56:12Z</time>
      </trkpt>
      <trkpt lat="47.69561" lon="6.02917">
        <ele>243</ele>
        <time>2010-01-01T00:56:14Z</time>
      </trkpt>
      <trkpt lat="47.69561" lon="6.02925">
        <ele>243</ele>
        <time>2010-01-01T00:56:16Z</time>
      </trkpt>
      <trkpt lat="47.69561" lon="6.02932">
        <ele>243</ele>
        <time>2010-01-01T00:56:18Z</time>
      </trkpt>
      <trkpt lat="47.69561" lon="6.02939">
        <ele>242</ele>
        <time>2010-01-01T00:56:20Z</time>
      </trkpt>
      <trkpt lat="47.69561" lon="6.02946">
        <ele>242</ele>
        <time>2010-01-01T00:56:22Z</time>
      </trkpt>
      <trkpt lat="47.69561" lon="6.02954">
        <ele>242</ele>
        <time>2010-01-01T00:56:24Z</time>
      </trkpt>
      <trkpt lat="47.69561" lon="6.02961">
        <ele>241</ele>
        <time>2010-01-01T00:56:26Z</time>
      </trkpt>
      <trkpt lat="47.69562" lon="6.02969">
        <ele>241</ele>
        <time>2010-01-01T00:56:28Z</time>
      </trkpt>
      <trkpt lat="47.69562" lon="6.02976">
        <ele>241</ele>
        <time>2010-01-01T00:56:30Z</time>
      </trkpt>
      <trkpt lat="47.69563" lon="6.02984">
        <ele>241</ele>
        <time>2010-01-01T00:56:32Z</time>
      </trkpt>
      <trkpt lat="47.69563" lon="6.02992">
        <ele>241</ele>
        <time>2010-01-01T00:56:35Z</time>
      </trkpt>
      <trkpt lat="47.69563" lon="6.03">
        <ele>241</ele>
        <time>2010-01-01T00:56:37Z</time>
      </trkpt>
      <trkpt lat="47.69564" lon="6.03008">
        <ele>241</ele>
        <time>2010-01-01T00:56:39Z</time>
      </trkpt>
      <trkpt lat="47.69564" lon="6.03016">
        <ele>241</ele>
        <time>2010-01-01T00:56:41Z</time>
      </trkpt>
      <trkpt lat="47.69565" lon="6.03024">
        <ele>241</ele>
        <time>2010-01-01T00:56:43Z</time>
      </trkpt>
      <trkpt lat="47.69566" lon="6.03033">
        <ele>241</ele>
        <time>2010-01-01T00:56:46Z</time>
      </trkpt>
      <trkpt lat="47.69567" lon="6.03041">
        <ele>241</ele>
        <time>2010-01-01T00:56:48Z</time>
      </trkpt>
      <trkpt lat="47.69568" lon="6.03049">
        <ele>241</ele>
        <time>2010-01-01T00:56:50Z</time>
      </trkpt>
      <trkpt lat="47.69569" lon="6.03056">
        <ele>241</ele>
        <time>2010-01-01T00:56:52Z</time>
      </trkpt>
      <trkpt lat="47.6957" lon="6.03064">
        <ele>241</ele>
        <time>2010-01-01T00:56:54Z</time>
      </trkpt>
      <trkpt lat="47.69571" lon="6.03072">
        <ele>241</ele>
        <time>2010-01-01T00:56:56Z</time>
      </trkpt>
      <trkpt lat="47.69572" lon="6.0308">
        <ele>241</ele>
        <time>2010-01-01T00:56:58Z</time>
      </trkpt>
      <trkpt lat="47.69573" lon="6.03087">
        <ele>241</ele>
        <time>2010-01-01T00:57:01Z</time>
      </trkpt>
      <trkpt lat="47.69575" lon="6.03095">
        <ele>241</ele>
        <time>2010-01-01T00:57:03Z</time>
      </trkpt>
      <trkpt lat="47.69576" lon="6.03102">
        <ele>241</ele>
        <time>2010-01-01T00:57:05Z</time>
      </trkpt>
      <trkpt lat="47.69577" lon="6.03109">
        <ele>241</ele>
        <time>2010-01-01T00:57:07Z</time>
      </trkpt>
      <trkpt lat="47.69578" lon="6.03117">
        <ele>241</ele>
        <time>2010-01-01T00:57:09Z</time>
      </trkpt>
      <trkpt lat="47.69579" lon="6.03124">
        <ele>241</ele>
        <time>2010-01-01T00:57:11Z</time>
      </trkpt>
      <trkpt lat="47.69581" lon="6.03131">
        <ele>241</ele>
        <time>2010-01-01T00:57:13Z</time>
      </trkpt>
      <trkpt lat="47.69582" lon="6.03139">
        <ele>241</ele>
        <time>2010-01-01T00:57:15Z</time>
      </trkpt>
      <trkpt lat="47.69584" lon="6.03147">
        <ele>241</ele>
        <time>2010-01-01T00:57:17Z</time>
      </trkpt>
      <trkpt lat="47.69585" lon="6.03154">
        <ele>241</ele>
        <time>2010-01-01T00:57:19Z</time>
      </trkpt>
      <trkpt lat="47.69587" lon="6.03161">
        <ele>241</ele>
        <time>2010-01-01T00:57:21Z</time>
      </trkpt>
      <trkpt lat="47.69588" lon="6.03169">
        <ele>241</ele>
        <time>2010-01-01T00:57:23Z</time>
      </trkpt>
      <trkpt lat="47.6959" lon="6.03176">
        <ele>241</ele>
        <time>2010-01-01T00:57:25Z</time>
      </trkpt>
      <trkpt lat="47.69591" lon="6.03183">
        <ele>241</ele>
        <time>2010-01-01T00:57:27Z</time>
      </trkpt>
      <trkpt lat="47.69593" lon="6.0319">
        <ele>241</ele>
        <time>2010-01-01T00:57:29Z</time>
      </trkpt>
      <trkpt lat="47.69594" lon="6.03197">
        <ele>241</ele>
        <time>2010-01-01T00:57:31Z</time>
      </trkpt>
      <trkpt lat="47.69595" lon="6.03205">
        <ele>241</ele>
        <time>2010-01-01T00:57:34Z</time>
      </trkpt>
      <trkpt lat="47.69595" lon="6.03212">
        <ele>241</ele>
        <time>2010-01-01T00:57:36Z</time>
      </trkpt>
      <trkpt lat="47.69593" lon="6.03219">
        <ele>241</ele>
        <time>2010-01-01T00:57:38Z</time>
      </trkpt>
      <trkpt lat="47.69591" lon="6.03226">
        <ele>241</ele>
        <time>2010-01-01T00:57:40Z</time>
      </trkpt>
      <trkpt lat="47.69588" lon="6.03232">
        <ele>241</ele>
        <time>2010-01-01T00:57:42Z</time>
      </trkpt>
      <trkpt lat="47.69584" lon="6.03238">
        <ele>241</ele>
        <time>2010-01-01T00:57:44Z</time>
      </trkpt>
      <trkpt lat="47.6958" lon="6.03245">
        <ele>241</ele>
        <time>2010-01-01T00:57:46Z</time>
      </trkpt>
      <trkpt lat="47.69577" lon="6.03252">
        <ele>241</ele>
        <time>2010-01-01T00:57:49Z</time>
      </trkpt>
      <trkpt lat="47.69565" lon="6.03274">
        <ele>241</ele>
        <time>2010-01-01T00:57:56Z</time>
      </trkpt>
      <trkpt lat="47.69562" lon="6.03281">
        <ele>241</ele>
        <time>2010-01-01T00:57:59Z</time>
      </trkpt>
      <trkpt lat="47.69552" lon="6.03303">
        <ele>240</ele>
        <time>2010-01-01T00:58:06Z</time>
      </trkpt>
      <trkpt lat="47.69548" lon="6.0331">
        <ele>239</ele>
        <time>2010-01-01T00:58:08Z</time>
      </trkpt>
      <trkpt lat="47.69545" lon="6.03317">
        <ele>239</ele>
        <time>2010-01-01T00:58:10Z</time>
      </trkpt>
      <trkpt lat="47.69542" lon="6.03324">
        <ele>239</ele>
        <time>2010-01-01T00:58:13Z</time>
      </trkpt>
      <trkpt lat="47.69538" lon="6.03331">
        <ele>239</ele>
        <time>2010-01-01T00:58:15Z</time>
      </trkpt>
      <trkpt lat="47.69534" lon="6.03338">
        <ele>239</ele>
        <time>2010-01-01T00:58:17Z</time>
      </trkpt>
      <trkpt lat="47.6953" lon="6.03344">
        <ele>239</ele>
        <time>2010-01-01T00:58:20Z</time>
      </trkpt>
      <trkpt lat="47.69527" lon="6.0335">
        <ele>239</ele>
        <time>2010-01-01T00:58:22Z</time>
      </trkpt>
      <trkpt lat="47.69523" lon="6.03357">
        <ele>239</ele>
        <time>2010-01-01T00:58:24Z</time>
      </trkpt>
      <trkpt lat="47.6952" lon="6.03363">
        <ele>239</ele>
        <time>2010-01-01T00:58:26Z</time>
      </trkpt>
      <trkpt lat="47.69516" lon="6.03368">
        <ele>239</ele>
        <time>2010-01-01T00:58:28Z</time>
      </trkpt>
      <trkpt lat="47.69513" lon="6.03374">
        <ele>239</ele>
        <time>2010-01-01T00:58:30Z</time>
      </trkpt>
      <trkpt lat="47.6951" lon="6.03379">
        <ele>239</ele>
        <time>2010-01-01T00:58:32Z</time>
      </trkpt>
      <trkpt lat="47.69507" lon="6.03384">
        <ele>239</ele>
        <time>2010-01-01T00:58:34Z</time>
      </trkpt>
      <trkpt lat="47.69504" lon="6.0339">
        <ele>239</ele>
        <time>2010-01-01T00:58:36Z</time>
      </trkpt>
      <trkpt lat="47.69502" lon="6.03395">
        <ele>239</ele>
        <time>2010-01-01T00:58:37Z</time>
      </trkpt>
      <trkpt lat="47.69499" lon="6.034">
        <ele>240</ele>
        <time>2010-01-01T00:58:39Z</time>
      </trkpt>
      <trkpt lat="47.69497" lon="6.03404">
        <ele>240</ele>
        <time>2010-01-01T00:58:41Z</time>
      </trkpt>
      <trkpt lat="47.69494" lon="6.03409">
        <ele>240</ele>
        <time>2010-01-01T00:58:42Z</time>
      </trkpt>
      <trkpt lat="47.69491" lon="6.03414">
        <ele>241</ele>
        <time>2010-01-01T00:58:44Z</time>
      </trkpt>
      <trkpt lat="47.69488" lon="6.03419">
        <ele>241</ele>
        <time>2010-01-01T00:58:46Z</time>
      </trkpt>
      <trkpt lat="47.69485" lon="6.03424">
        <ele>241</ele>
        <time>2010-01-01T00:58:48Z</time>
      </trkpt>
      <trkpt lat="47.69483" lon="6.03428">
        <ele>241</ele>
        <time>2010-01-01T00:58:49Z</time>
      </trkpt>
      <trkpt lat="47.69481" lon="6.03432">
        <ele>241</ele>
        <time>2010-01-01T00:58:50Z</time>
      </trkpt>
      <trkpt lat="47.69478" lon="6.03435">
        <ele>241</ele>
        <time>2010-01-01T00:58:52Z</time>
      </trkpt>
      <trkpt lat="47.69476" lon="6.03438">
        <ele>241</ele>
        <time>2010-01-01T00:58:53Z</time>
      </trkpt>
      <trkpt lat="47.69474" lon="6.0344">
        <ele>241</ele>
        <time>2010-01-01T00:58:54Z</time>
      </trkpt>
      <trkpt lat="47.69472" lon="6.03444">
        <ele>242</ele>
        <time>2010-01-01T00:58:55Z</time>
      </trkpt>
      <trkpt lat="47.6947" lon="6.03447">
        <ele>242</ele>
        <time>2010-01-01T00:58:56Z</time>
      </trkpt>
      <trkpt lat="47.69467" lon="6.0345">
        <ele>243</ele>
        <time>2010-01-01T00:58:58Z</time>
      </trkpt>
      <trkpt lat="47.69464" lon="6.03454">
        <ele>243</ele>
        <time>2010-01-01T00:58:59Z</time>
      </trkpt>
      <trkpt lat="47.69462" lon="6.03458">
        <ele>243</ele>
        <time>2010-01-01T00:59:01Z</time>
      </trkpt>
      <trkpt lat="47.69458" lon="6.03462">
        <ele>243</ele>
        <time>2010-01-01T00:59:03Z</time>
      </trkpt>
      <trkpt lat="47.69455" lon="6.03466">
        <ele>243</ele>
        <time>2010-01-01T00:59:04Z</time>
      </trkpt>
      <trkpt lat="47.69451" lon="6.03471">
        <ele>243</ele>
        <time>2010-01-01T00:59:06Z</time>
      </trkpt>
      <trkpt lat="47.69448" lon="6.03475">
        <ele>243</ele>
        <time>2010-01-01T00:59:08Z</time>
      </trkpt>
      <trkpt lat="47.69444" lon="6.0348">
        <ele>243</ele>
        <time>2010-01-01T00:59:10Z</time>
      </trkpt>
      <trkpt lat="47.69439" lon="6.03484">
        <ele>243</ele>
        <time>2010-01-01T00:59:12Z</time>
      </trkpt>
      <trkpt lat="47.69435" lon="6.03489">
        <ele>243</ele>
        <time>2010-01-01T00:59:15Z</time>
      </trkpt>
      <trkpt lat="47.6943" lon="6.03494">
        <ele>242</ele>
        <time>2010-01-01T00:59:17Z</time>
      </trkpt>
      <trkpt lat="47.69425" lon="6.03498">
        <ele>241</ele>
        <time>2010-01-01T00:59:19Z</time>
      </trkpt>
      <trkpt lat="47.6942" lon="6.03503">
        <ele>241</ele>
        <time>2010-01-01T00:59:22Z</time>
      </trkpt>
      <trkpt lat="47.69415" lon="6.03508">
        <ele>241</ele>
        <time>2010-01-01T00:59:24Z</time>
      </trkpt>
      <trkpt lat="47.6941" lon="6.03513">
        <ele>241</ele>
        <time>2010-01-01T00:59:26Z</time>
      </trkpt>
      <trkpt lat="47.69405" lon="6.03518">
        <ele>241</ele>
        <time>2010-01-01T00:59:29Z</time>
      </trkpt>
      <trkpt lat="47.69399" lon="6.03522">
        <ele>240</ele>
        <time>2010-01-01T00:59:31Z</time>
      </trkpt>
      <trkpt lat="47.69393" lon="6.03527">
        <ele>240</ele>
        <time>2010-01-01T00:59:34Z</time>
      </trkpt>
      <trkpt lat="47.69388" lon="6.03532">
        <ele>239</ele>
        <time>2010-01-01T00:59:37Z</time>
      </trkpt>
      <trkpt lat="47.69383" lon="6.03538">
        <ele>239</ele>
        <time>2010-01-01T00:59:39Z</time>
      </trkpt>
      <trkpt lat="47.69377" lon="6.03542">
        <ele>238</ele>
        <time>2010-01-01T00:59:42Z</time>
      </trkpt>
      <trkpt lat="47.69371" lon="6.03547">
        <ele>238</ele>
        <time>2010-01-01T00:59:44Z</time>
      </trkpt>
      <trkpt lat="47.69366" lon="6.03551">
        <ele>238</ele>
        <time>2010-01-01T00:59:47Z</time>
      </trkpt>
      <trkpt lat="47.69359" lon="6.03555">
        <ele>237</ele>
        <time>2010-01-01T00:59:50Z</time>
      </trkpt>
      <trkpt lat="47.69353" lon="6.03558">
        <ele>237</ele>
        <time>2010-01-01T00:59:52Z</time>
      </trkpt>
      <trkpt lat="47.69346" lon="6.03561">
        <ele>236</ele>
        <time>2010-01-01T00:59:55Z</time>
      </trkpt>
      <trkpt lat="47.69339" lon="6.03564">
        <ele>236</ele>
        <time>2010-01-01T00:59:58Z</time>
      </trkpt>
      <trkpt lat="47.69332" lon="6.03567">
        <ele>235</ele>
        <time>2010-01-01T01:00:01Z</time>
      </trkpt>
      <trkpt lat="47.69325" lon="6.03571">
        <ele>235</ele>
        <time>2010-01-01T01:00:04Z</time>
      </trkpt>
      <trkpt lat="47.69318" lon="6.03575">
        <ele>234</ele>
        <time>2010-01-01T01:00:07Z</time>
      </trkpt>
      <trkpt lat="47.69311" lon="6.0358">
        <ele>234</ele>
        <time>2010-01-01T01:00:10Z</time>
      </trkpt>
      <trkpt lat="47.69305" lon="6.03587">
        <ele>234</ele>
        <time>2010-01-01T01:00:13Z</time>
      </trkpt>
      <trkpt lat="47.693" lon="6.03596">
        <ele>234</ele>
        <time>2010-01-01T01:00:16Z</time>
      </trkpt>
      <trkpt lat="47.69294" lon="6.03604">
        <ele>234</ele>
        <time>2010-01-01T01:00:20Z</time>
      </trkpt>
      <trkpt lat="47.69288" lon="6.03612">
        <ele>233</ele>
        <time>2010-01-01T01:00:23Z</time>
      </trkpt>
      <trkpt lat="47.69282" lon="6.03618">
        <ele>233</ele>
        <time>2010-01-01T01:00:26Z</time>
      </trkpt>
      <trkpt lat="47.69276" lon="6.03624">
        <ele>232</ele>
        <time>2010-01-01T01:00:29Z</time>
      </trkpt>
      <trkpt lat="47.69269" lon="6.03629">
        <ele>231</ele>
        <time>2010-01-01T01:00:32Z</time>
      </trkpt>
      <trkpt lat="47.69263" lon="6.03635">
        <ele>231</ele>
        <time>2010-01-01T01:00:35Z</time>
      </trkpt>
      <trkpt lat="47.69256" lon="6.03639">
        <ele>231</ele>
        <time>2010-01-01T01:00:37Z</time>
      </trkpt>
      <trkpt lat="47.69236" lon="6.03647">
        <ele>231</ele>
        <time>2010-01-01T01:00:46Z</time>
      </trkpt>
      <trkpt lat="47.69229" lon="6.03647">
        <ele>231</ele>
        <time>2010-01-01T01:00:49Z</time>
      </trkpt>
      <trkpt lat="47.69223" lon="6.03647">
        <ele>230</ele>
        <time>2010-01-01T01:00:51Z</time>
      </trkpt>
      <trkpt lat="47.69216" lon="6.03647">
        <ele>230</ele>
        <time>2010-01-01T01:00:54Z</time>
      </trkpt>
      <trkpt lat="47.6921" lon="6.0365">
        <ele>229</ele>
        <time>2010-01-01T01:00:56Z</time>
      </trkpt>
      <trkpt lat="47.69203" lon="6.03653">
        <ele>228</ele>
        <time>2010-01-01T01:00:59Z</time>
      </trkpt>
      <trkpt lat="47.69197" lon="6.03659">
        <ele>228</ele>
        <time>2010-01-01T01:01:02Z</time>
      </trkpt>
      <trkpt lat="47.6919" lon="6.03665">
        <ele>227</ele>
        <time>2010-01-01T01:01:05Z</time>
      </trkpt>
      <trkpt lat="47.69185" lon="6.0367">
        <ele>226</ele>
        <time>2010-01-01T01:01:08Z</time>
      </trkpt>
      <trkpt lat="47.69178" lon="6.03672">
        <ele>226</ele>
        <time>2010-01-01T01:01:11Z</time>
      </trkpt>
      <trkpt lat="47.69172" lon="6.03668">
        <ele>225</ele>
        <time>2010-01-01T01:01:13Z</time>
      </trkpt>
      <trkpt lat="47.69166" lon="6.03661">
        <ele>224</ele>
        <time>2010-01-01T01:01:16Z</time>
      </trkpt>
      <trkpt lat="47.69161" lon="6.03656">
        <ele>223</ele>
        <time>2010-01-01T01:01:19Z</time>
      </trkpt>
      <trkpt lat="47.69156" lon="6.03651">
        <ele>222</ele>
        <time>2010-01-01T01:01:21Z</time>
      </trkpt>
      <trkpt lat="47.69151" lon="6.03648">
        <ele>221</ele>
        <time>2010-01-01T01:01:23Z</time>
      </trkpt>
      <trkpt lat="47.69148" lon="6.03646">
        <ele>220</ele>
        <time>2010-01-01T01:01:25Z</time>
      </trkpt>
      <trkpt lat="47.69145" lon="6.03644">
        <ele>220</ele>
        <time>2010-01-01T01:01:26Z</time>
      </trkpt>
      <trkpt lat="47.69143" lon="6.03644">
        <ele>219</ele>
        <time>2010-01-01T01:01:27Z</time>
      </trkpt>
      <trkpt lat="47.6914" lon="6.03644">
        <ele>218</ele>
        <time>2010-01-01T01:01:28Z</time>
      </trkpt>
      <trkpt lat="47.69138" lon="6.03647">
        <ele>217</ele>
        <time>2010-01-01T01:01:29Z</time>
      </trkpt>
      <trkpt lat="47.69135" lon="6.03651">
        <ele>217</ele>
        <time>2010-01-01T01:01:31Z</time>
      </trkpt>
      <trkpt lat="47.69133" lon="6.03657">
        <ele>217</ele>
        <time>2010-01-01T01:01:33Z</time>
      </trkpt>
      <trkpt lat="47.69131" lon="6.03665">
        <ele>216</ele>
        <time>2010-01-01T01:01:35Z</time>
      </trkpt>
      <trkpt lat="47.69129" lon="6.03673">
        <ele>216</ele>
        <time>2010-01-01T01:01:37Z</time>
      </trkpt>
      <trkpt lat="47.69127" lon="6.0368">
        <ele>215</ele>
        <time>2010-01-01T01:01:39Z</time>
      </trkpt>
      <trkpt lat="47.69126" lon="6.03688">
        <ele>215</ele>
        <time>2010-01-01T01:01:41Z</time>
      </trkpt>
      <trkpt lat="47.69124" lon="6.03695">
        <ele>215</ele>
        <time>2010-01-01T01:01:43Z</time>
      </trkpt>
      <trkpt lat="47.69122" lon="6.03703">
        <ele>215</ele>
        <time>2010-01-01T01:01:46Z</time>
      </trkpt>
      <trkpt lat="47.69121" lon="6.0371">
        <ele>215</ele>
        <time>2010-01-01T01:01:48Z</time>
      </trkpt>
      <trkpt lat="47.69119" lon="6.03718">
        <ele>215</ele>
        <time>2010-01-01T01:01:50Z</time>
      </trkpt>
      <trkpt lat="47.69117" lon="6.03724">
        <ele>215</ele>
        <time>2010-01-01T01:01:52Z</time>
      </trkpt>
      <trkpt lat="47.69115" lon="6.03731">
        <ele>215</ele>
        <time>2010-01-01T01:01:54Z</time>
      </trkpt>
      <trkpt lat="47.69113" lon="6.03738">
        <ele>215</ele>
        <time>2010-01-01T01:01:56Z</time>
      </trkpt>
      <trkpt lat="47.69112" lon="6.03744">
        <ele>215</ele>
        <time>2010-01-01T01:01:57Z</time>
      </trkpt>
      <trkpt lat="47.6911" lon="6.0375">
        <ele>215</ele>
        <time>2010-01-01T01:01:59Z</time>
      </trkpt>
      <trkpt lat="47.69107" lon="6.03754">
        <ele>215</ele>
        <time>2010-01-01T01:02:01Z</time>
      </trkpt>
      <trkpt lat="47.69106" lon="6.03759">
        <ele>215</ele>
        <time>2010-01-01T01:02:02Z</time>
      </trkpt>
      <trkpt lat="47.69104" lon="6.03763">
        <ele>215</ele>
        <time>2010-01-01T01:02:03Z</time>
      </trkpt>
      <trkpt lat="47.69103" lon="6.03767">
        <ele>215</ele>
        <time>2010-01-01T01:02:05Z</time>
      </trkpt>
      <trkpt lat="47.69101" lon="6.03772">
        <ele>215</ele>
        <time>2010-01-01T01:02:06Z</time>
      </trkpt>
      <trkpt lat="47.691" lon="6.03775">
        <ele>215</ele>
        <time>2010-01-01T01:02:07Z</time>
      </trkpt>
      <trkpt lat="47.69099" lon="6.03779">
        <ele>215</ele>
        <time>2010-01-01T01:02:08Z</time>
      </trkpt>
      <trkpt lat="47.69097" lon="6.03783">
        <ele>215</ele>
        <time>2010-01-01T01:02:09Z</time>
      </trkpt>
      <trkpt lat="47.69096" lon="6.03785">
        <ele>215</ele>
        <time>2010-01-01T01:02:10Z</time>
      </trkpt>
      <trkpt lat="47.69093" lon="6.03786">
        <ele>215</ele>
        <time>2010-01-01T01:02:11Z</time>
      </trkpt>
      <trkpt lat="47.6909" lon="6.03784">
        <ele>215</ele>
        <time>2010-01-01T01:02:13Z</time>
      </trkpt>
      <trkpt lat="47.69087" lon="6.03782">
        <ele>215</ele>
        <time>2010-01-01T01:02:14Z</time>
      </trkpt>
      <trkpt lat="47.69083" lon="6.0378">
        <ele>215</ele>
        <time>2010-01-01T01:02:16Z</time>
      </trkpt>
      <trkpt lat="47.69079" lon="6.03777">
        <ele>215</ele>
        <time>2010-01-01T01:02:18Z</time>
      </trkpt>
      <trkpt lat="47.69075" lon="6.03775">
        <ele>214</ele>
        <time>2010-01-01T01:02:19Z</time>
      </trkpt>
      <trkpt lat="47.69071" lon="6.03772">
        <ele>214</ele>
        <time>2010-01-01T01:02:21Z</time>
      </trkpt>
      <trkpt lat="47.69068" lon="6.0377">
        <ele>213</ele>
        <time>2010-01-01T01:02:22Z</time>
      </trkpt>
      <trkpt lat="47.69065" lon="6.03767">
        <ele>213</ele>
        <time>2010-01-01T01:02:24Z</time>
      </trkpt>
      <trkpt lat="47.69061" lon="6.03765">
        <ele>212</ele>
        <time>2010-01-01T01:02:25Z</time>
      </trkpt>
      <trkpt lat="47.69058" lon="6.03763">
        <ele>212</ele>
        <time>2010-01-01T01:02:27Z</time>
      </trkpt>
      <trkpt lat="47.69055" lon="6.0376">
        <ele>212</ele>
        <time>2010-01-01T01:02:28Z</time>
      </trkpt>
      <trkpt lat="47.69052" lon="6.03757">
        <ele>212</ele>
        <time>2010-01-01T01:02:30Z</time>
      </trkpt>
      <trkpt lat="47.69048" lon="6.03755">
        <ele>212</ele>
        <time>2010-01-01T01:02:31Z</time>
      </trkpt>
      <trkpt lat="47.69044" lon="6.03752">
        <ele>212</ele>
        <time>2010-01-01T01:02:33Z</time>
      </trkpt>
      <trkpt lat="47.6904" lon="6.03749">
        <ele>212</ele>
        <time>2010-01-01T01:02:35Z</time>
      </trkpt>
      <trkpt lat="47.69036" lon="6.03745">
        <ele>212</ele>
        <time>2010-01-01T01:02:37Z</time>
      </trkpt>
      <trkpt lat="47.69032" lon="6.03742">
        <ele>212</ele>
        <time>2010-01-01T01:02:39Z</time>
      </trkpt>
      <trkpt lat="47.69027" lon="6.03738">
        <ele>212</ele>
        <time>2010-01-01T01:02:41Z</time>
      </trkpt>
      <trkpt lat="47.69023" lon="6.03735">
        <ele>212</ele>
        <time>2010-01-01T01:02:43Z</time>
      </trkpt>
      <trkpt lat="47.69018" lon="6.03732">
        <ele>212</ele>
        <time>2010-01-01T01:02:45Z</time>
      </trkpt>
      <trkpt lat="47.69014" lon="6.03729">
        <ele>212</ele>
        <time>2010-01-01T01:02:47Z</time>
      </trkpt>
      <trkpt lat="47.69009" lon="6.03726">
        <ele>212</ele>
        <time>2010-01-01T01:02:49Z</time>
      </trkpt>
      <trkpt lat="47.69005" lon="6.03723">
        <ele>212</ele>
        <time>2010-01-01T01:02:51Z</time>
      </trkpt>
      <trkpt lat="47.69" lon="6.03719">
        <ele>212</ele>
        <time>2010-01-01T01:02:53Z</time>
      </trkpt>
      <trkpt lat="47.68995" lon="6.03716">
        <ele>212</ele>
        <time>2010-01-01T01:02:55Z</time>
      </trkpt>
      <trkpt lat="47.6899" lon="6.03712">
        <ele>211</ele>
        <time>2010-01-01T01:02:57Z</time>
      </trkpt>
      <trkpt lat="47.68985" lon="6.03709">
        <ele>211</ele>
        <time>2010-01-01T01:02:59Z</time>
      </trkpt>
      <trkpt lat="47.6898" lon="6.03705">
        <ele>210</ele>
        <time>2010-01-01T01:03:02Z</time>
      </trkpt>
      <trkpt lat="47.68976" lon="6.03701">
        <ele>210</ele>
        <time>2010-01-01T01:03:04Z</time>
      </trkpt>
      <trkpt lat="47.68971" lon="6.03697">
        <ele>210</ele>
        <time>2010-01-01T01:03:06Z</time>
      </trkpt>
      <trkpt lat="47.68967" lon="6.03693">
        <ele>210</ele>
        <time>2010-01-01T01:03:08Z</time>
      </trkpt>
      <trkpt lat="47.68962" lon="6.0369">
        <ele>210</ele>
        <time>2010-01-01T01:03:10Z</time>
      </trkpt>
      <trkpt lat="47.68957" lon="6.03686">
        <ele>210</ele>
        <time>2010-01-01T01:03:12Z</time>
      </trkpt>
      <trkpt lat="47.68952" lon="6.03683">
        <ele>210</ele>
        <time>2010-01-01T01:03:14Z</time>
      </trkpt>
      <trkpt lat="47.68948" lon="6.0368">
        <ele>210</ele>
        <time>2010-01-01T01:03:16Z</time>
      </trkpt>
      <trkpt lat="47.68943" lon="6.03677">
        <ele>210</ele>
        <time>2010-01-01T01:03:18Z</time>
      </trkpt>
      <trkpt lat="47.68938" lon="6.03674">
        <ele>210</ele>
        <time>2010-01-01T01:03:21Z</time>
      </trkpt>
      <trkpt lat="47.68933" lon="6.03672">
        <ele>210</ele>
        <time>2010-01-01T01:03:23Z</time>
      </trkpt>
      <trkpt lat="47.68928" lon="6.03669">
        <ele>210</ele>
        <time>2010-01-01T01:03:25Z</time>
      </trkpt>
      <trkpt lat="47.68923" lon="6.03667">
        <ele>210</ele>
        <time>2010-01-01T01:03:27Z</time>
      </trkpt>
      <trkpt lat="47.68918" lon="6.03664">
        <ele>210</ele>
        <time>2010-01-01T01:03:29Z</time>
      </trkpt>
      <trkpt lat="47.68913" lon="6.03662">
        <ele>210</ele>
        <time>2010-01-01T01:03:31Z</time>
      </trkpt>
      <trkpt lat="47.68908" lon="6.0366">
        <ele>210</ele>
        <time>2010-01-01T01:03:33Z</time>
      </trkpt>
      <trkpt lat="47.68903" lon="6.03658">
        <ele>210</ele>
        <time>2010-01-01T01:03:35Z</time>
      </trkpt>
      <trkpt lat="47.68898" lon="6.03656">
        <ele>210</ele>
        <time>2010-01-01T01:03:37Z</time>
      </trkpt>
      <trkpt lat="47.68893" lon="6.03655">
        <ele>210</ele>
        <time>2010-01-01T01:03:39Z</time>
      </trkpt>
      <trkpt lat="47.68888" lon="6.03654">
        <ele>210</ele>
        <time>2010-01-01T01:03:41Z</time>
      </trkpt>
      <trkpt lat="47.68883" lon="6.03653">
        <ele>210</ele>
        <time>2010-01-01T01:03:43Z</time>
      </trkpt>
      <trkpt lat="47.68878" lon="6.03652">
        <ele>210</ele>
        <time>2010-01-01T01:03:45Z</time>
      </trkpt>
      <trkpt lat="47.68873" lon="6.03652">
        <ele>210</ele>
        <time>2010-01-01T01:03:47Z</time>
      </trkpt>
      <trkpt lat="47.68868" lon="6.03652">
        <ele>210</ele>
        <time>2010-01-01T01:03:50Z</time>
      </trkpt>
      <trkpt lat="47.68862" lon="6.03652">
        <ele>210</ele>
        <time>2010-01-01T01:03:52Z</time>
      </trkpt>
      <trkpt lat="47.68857" lon="6.03652">
        <ele>210</ele>
        <time>2010-01-01T01:03:54Z</time>
      </trkpt>
      <trkpt lat="47.68852" lon="6.03653">
        <ele>210</ele>
        <time>2010-01-01T01:03:56Z</time>
      </trkpt>
      <trkpt lat="47.68847" lon="6.03653">
        <ele>210</ele>
        <time>2010-01-01T01:03:58Z</time>
      </trkpt>
      <trkpt lat="47.68841" lon="6.03653">
        <ele>210</ele>
        <time>2010-01-01T01:04:00Z</time>
      </trkpt>
      <trkpt lat="47.68836" lon="6.03653">
        <ele>210</ele>
        <time>2010-01-01T01:04:02Z</time>
      </trkpt>
      <trkpt lat="47.68831" lon="6.03653">
        <ele>210</ele>
        <time>2010-01-01T01:04:04Z</time>
      </trkpt>
      <trkpt lat="47.68826" lon="6.03652">
        <ele>210</ele>
        <time>2010-01-01T01:04:06Z</time>
      </trkpt>
      <trkpt lat="47.6882" lon="6.03652">
        <ele>210</ele>
        <time>2010-01-01T01:04:09Z</time>
      </trkpt>
      <trkpt lat="47.68815" lon="6.03652">
        <ele>210</ele>
        <time>2010-01-01T01:04:11Z</time>
      </trkpt>
      <trkpt lat="47.68809" lon="6.03652">
        <ele>210</ele>
        <time>2010-01-01T01:04:13Z</time>
      </trkpt>
      <trkpt lat="47.68804" lon="6.03652">
        <ele>210</ele>
        <time>2010-01-01T01:04:15Z</time>
      </trkpt>
      <trkpt lat="47.68798" lon="6.03651">
        <ele>210</ele>
        <time>2010-01-01T01:04:17Z</time>
      </trkpt>
      <trkpt lat="47.68793" lon="6.03651">
        <ele>210</ele>
        <time>2010-01-01T01:04:19Z</time>
      </trkpt>
      <trkpt lat="47.68788" lon="6.03651">
        <ele>210</ele>
        <time>2010-01-01T01:04:21Z</time>
      </trkpt>
      <trkpt lat="47.68783" lon="6.03651">
        <ele>210</ele>
        <time>2010-01-01T01:04:24Z</time>
      </trkpt>
      <trkpt lat="47.68777" lon="6.0365">
        <ele>210</ele>
        <time>2010-01-01T01:04:26Z</time>
      </trkpt>
      <trkpt lat="47.68772" lon="6.0365">
        <ele>210</ele>
        <time>2010-01-01T01:04:28Z</time>
      </trkpt>
      <trkpt lat="47.68766" lon="6.03649">
        <ele>210</ele>
        <time>2010-01-01T01:04:30Z</time>
      </trkpt>
      <trkpt lat="47.68761" lon="6.03649">
        <ele>210</ele>
        <time>2010-01-01T01:04:32Z</time>
      </trkpt>
      <trkpt lat="47.68755" lon="6.03648">
        <ele>210</ele>
        <time>2010-01-01T01:04:35Z</time>
      </trkpt>
      <trkpt lat="47.68749" lon="6.03646">
        <ele>210</ele>
        <time>2010-01-01T01:04:37Z</time>
      </trkpt>
      <trkpt lat="47.68744" lon="6.03645">
        <ele>210</ele>
        <time>2010-01-01T01:04:39Z</time>
      </trkpt>
      <trkpt lat="47.68738" lon="6.03644">
        <ele>210</ele>
        <time>2010-01-01T01:04:41Z</time>
      </trkpt>
      <trkpt lat="47.68733" lon="6.03643">
        <ele>210</ele>
        <time>2010-01-01T01:04:43Z</time>
      </trkpt>
      <trkpt lat="47.68728" lon="6.03642">
        <ele>210</ele>
        <time>2010-01-01T01:04:46Z</time>
      </trkpt>
      <trkpt lat="47.68722" lon="6.03641">
        <ele>210</ele>
        <time>2010-01-01T01:04:48Z</time>
      </trkpt>
      <trkpt lat="47.68717" lon="6.0364">
        <ele>210</ele>
        <time>2010-01-01T01:04:50Z</time>
      </trkpt>
      <trkpt lat="47.68712" lon="6.03639">
        <ele>210</ele>
        <time>2010-01-01T01:04:52Z</time>
      </trkpt>
      <trkpt lat="47.68707" lon="6.03638">
        <ele>210</ele>
        <time>2010-01-01T01:04:54Z</time>
      </trkpt>
      <trkpt lat="47.68701" lon="6.03637">
        <ele>210</ele>
        <time>2010-01-01T01:04:56Z</time>
      </trkpt>
      <trkpt lat="47.68696" lon="6.03636">
        <ele>210</ele>
        <time>2010-01-01T01:04:59Z</time>
      </trkpt>
      <trkpt lat="47.6869" lon="6.03635">
        <ele>210</ele>
        <time>2010-01-01T01:05:01Z</time>
      </trkpt>
      <trkpt lat="47.68685" lon="6.03634">
        <ele>210</ele>
        <time>2010-01-01T01:05:03Z</time>
      </trkpt>
      <trkpt lat="47.6868" lon="6.03634">
        <ele>210</ele>
        <time>2010-01-01T01:05:05Z</time>
      </trkpt>
      <trkpt lat="47.68674" lon="6.03633">
        <ele>210</ele>
        <time>2010-01-01T01:05:07Z</time>
      </trkpt>
      <trkpt lat="47.68669" lon="6.03632">
        <ele>210</ele>
        <time>2010-01-01T01:05:09Z</time>
      </trkpt>
      <trkpt lat="47.68663" lon="6.03631">
        <ele>210</ele>
        <time>2010-01-01T01:05:12Z</time>
      </trkpt>
      <trkpt lat="47.68658" lon="6.0363">
        <ele>209</ele>
        <time>2010-01-01T01:05:14Z</time>
      </trkpt>
      <trkpt lat="47.68653" lon="6.0363">
        <ele>208</ele>
        <time>2010-01-01T01:05:16Z</time>
      </trkpt>
      <trkpt lat="47.68647" lon="6.03629">
        <ele>209</ele>
        <time>2010-01-01T01:05:18Z</time>
      </trkpt>
      <trkpt lat="47.68642" lon="6.03628">
        <ele>210</ele>
        <time>2010-01-01T01:05:20Z</time>
      </trkpt>
      <trkpt lat="47.68637" lon="6.03627">
        <ele>211</ele>
        <time>2010-01-01T01:05:22Z</time>
      </trkpt>
      <trkpt lat="47.68631" lon="6.03627">
        <ele>212</ele>
        <time>2010-01-01T01:05:25Z</time>
      </trkpt>
      <trkpt lat="47.68626" lon="6.03627">
        <ele>212</ele>
        <time>2010-01-01T01:05:27Z</time>
      </trkpt>
      <trkpt lat="47.68621" lon="6.03626">
        <ele>212</ele>
        <time>2010-01-01T01:05:29Z</time>
      </trkpt>
      <trkpt lat="47.68617" lon="6.03626">
        <ele>212</ele>
        <time>2010-01-01T01:05:30Z</time>
      </trkpt>
      <trkpt lat="47.68613" lon="6.03629">
        <ele>211</ele>
        <time>2010-01-01T01:05:32Z</time>
      </trkpt>
      <trkpt lat="47.68609" lon="6.03633">
        <ele>211</ele>
        <time>2010-01-01T01:05:34Z</time>
      </trkpt>
      <trkpt lat="47.68605" lon="6.03636">
        <ele>211</ele>
        <time>2010-01-01T01:05:36Z</time>
      </trkpt>
      <trkpt lat="47.68601" lon="6.03639">
        <ele>211</ele>
        <time>2010-01-01T01:05:38Z</time>
      </trkpt>
      <trkpt lat="47.68596" lon="6.03643">
        <ele>211</ele>
        <time>2010-01-01T01:05:40Z</time>
      </trkpt>
      <trkpt lat="47.68592" lon="6.03646">
        <ele>211</ele>
        <time>2010-01-01T01:05:42Z</time>
      </trkpt>
      <trkpt lat="47.68588" lon="6.03648">
        <ele>211</ele>
        <time>2010-01-01T01:05:43Z</time>
      </trkpt>
      <trkpt lat="47.68584" lon="6.03651">
        <ele>211</ele>
        <time>2010-01-01T01:05:45Z</time>
      </trkpt>
      <trkpt lat="47.68579" lon="6.03651">
        <ele>211</ele>
        <time>2010-01-01T01:05:47Z</time>
      </trkpt>
      <trkpt lat="47.68575" lon="6.0365">
        <ele>211</ele>
        <time>2010-01-01T01:05:49Z</time>
      </trkpt>
      <trkpt lat="47.6857" lon="6.0365">
        <ele>211</ele>
        <time>2010-01-01T01:05:51Z</time>
      </trkpt>
      <trkpt lat="47.68565" lon="6.03651">
        <ele>211</ele>
        <time>2010-01-01T01:05:52Z</time>
      </trkpt>
      <trkpt lat="47.68561" lon="6.03651">
        <ele>211</ele>
        <time>2010-01-01T01:05:54Z</time>
      </trkpt>
      <trkpt lat="47.68556" lon="6.0365">
        <ele>211</ele>
        <time>2010-01-01T01:05:56Z</time>
      </trkpt>
      <trkpt lat="47.68551" lon="6.0365">
        <ele>211</ele>
        <time>2010-01-01T01:05:58Z</time>
      </trkpt>
      <trkpt lat="47.68547" lon="6.03649">
        <ele>211</ele>
        <time>2010-01-01T01:06:00Z</time>
      </trkpt>
      <trkpt lat="47.68542" lon="6.03647">
        <ele>211</ele>
        <time>2010-01-01T01:06:02Z</time>
      </trkpt>
      <trkpt lat="47.68537" lon="6.03646">
        <ele>211</ele>
        <time>2010-01-01T01:06:04Z</time>
      </trkpt>
      <trkpt lat="47.68532" lon="6.03644">
        <ele>211</ele>
        <time>2010-01-01T01:06:06Z</time>
      </trkpt>
      <trkpt lat="47.68527" lon="6.03643">
        <ele>211</ele>
        <time>2010-01-01T01:06:08Z</time>
      </trkpt>
      <trkpt lat="47.68522" lon="6.03641">
        <ele>211</ele>
        <time>2010-01-01T01:06:10Z</time>
      </trkpt>
      <trkpt lat="47.68517" lon="6.03638">
        <ele>211</ele>
        <time>2010-01-01T01:06:12Z</time>
      </trkpt>
      <trkpt lat="47.68513" lon="6.03635">
        <ele>211</ele>
        <time>2010-01-01T01:06:14Z</time>
      </trkpt>
      <trkpt lat="47.68508" lon="6.03633">
        <ele>211</ele>
        <time>2010-01-01T01:06:16Z</time>
      </trkpt>
      <trkpt lat="47.68503" lon="6.03631">
        <ele>211</ele>
        <time>2010-01-01T01:06:18Z</time>
      </trkpt>
      <trkpt lat="47.68498" lon="6.03629">
        <ele>211</ele>
        <time>2010-01-01T01:06:20Z</time>
      </trkpt>
      <trkpt lat="47.68493" lon="6.03627">
        <ele>211</ele>
        <time>2010-01-01T01:06:22Z</time>
      </trkpt>
      <trkpt lat="47.68488" lon="6.03625">
        <ele>211</ele>
        <time>2010-01-01T01:06:24Z</time>
      </trkpt>
      <trkpt lat="47.68484" lon="6.03623">
        <ele>211</ele>
        <time>2010-01-01T01:06:26Z</time>
      </trkpt>
      <trkpt lat="47.68479" lon="6.03621">
        <ele>211</ele>
        <time>2010-01-01T01:06:28Z</time>
      </trkpt>
      <trkpt lat="47.68474" lon="6.03619">
        <ele>211</ele>
        <time>2010-01-01T01:06:30Z</time>
      </trkpt>
      <trkpt lat="47.6847" lon="6.03618">
        <ele>211</ele>
        <time>2010-01-01T01:06:32Z</time>
      </trkpt>
      <trkpt lat="47.68465" lon="6.03618">
        <ele>211</ele>
        <time>2010-01-01T01:06:34Z</time>
      </trkpt>
      <trkpt lat="47.6846" lon="6.03618">
        <ele>211</ele>
        <time>2010-01-01T01:06:36Z</time>
      </trkpt>
      <trkpt lat="47.68455" lon="6.0362">
        <ele>211</ele>
        <time>2010-01-01T01:06:38Z</time>
      </trkpt>
      <trkpt lat="47.6845" lon="6.03622">
        <ele>211</ele>
        <time>2010-01-01T01:06:40Z</time>
      </trkpt>
      <trkpt lat="47.68445" lon="6.03625">
        <ele>211</ele>
        <time>2010-01-01T01:06:42Z</time>
      </trkpt>
      <trkpt lat="47.6844" lon="6.03627">
        <ele>211</ele>
        <time>2010-01-01T01:06:44Z</time>
      </trkpt>
      <trkpt lat="47.68435" lon="6.03628">
        <ele>211</ele>
        <time>2010-01-01T01:06:46Z</time>
      </trkpt>
      <trkpt lat="47.6843" lon="6.03628">
        <ele>211</ele>
        <time>2010-01-01T01:06:48Z</time>
      </trkpt>
      <trkpt lat="47.68425" lon="6.03627">
        <ele>211</ele>
        <time>2010-01-01T01:06:50Z</time>
      </trkpt>
      <trkpt lat="47.6842" lon="6.03626">
        <ele>211</ele>
        <time>2010-01-01T01:06:52Z</time>
      </trkpt>
      <trkpt lat="47.68415" lon="6.03624">
        <ele>211</ele>
        <time>2010-01-01T01:06:54Z</time>
      </trkpt>
      <trkpt lat="47.6841" lon="6.03621">
        <ele>211</ele>
        <time>2010-01-01T01:06:56Z</time>
      </trkpt>
      <trkpt lat="47.68406" lon="6.03618">
        <ele>211</ele>
        <time>2010-01-01T01:06:58Z</time>
      </trkpt>
      <trkpt lat="47.68401" lon="6.03616">
        <ele>211</ele>
        <time>2010-01-01T01:07:00Z</time>
      </trkpt>
      <trkpt lat="47.68396" lon="6.03612">
        <ele>211</ele>
        <time>2010-01-01T01:07:02Z</time>
      </trkpt>
      <trkpt lat="47.68392" lon="6.03609">
        <ele>211</ele>
        <time>2010-01-01T01:07:04Z</time>
      </trkpt>
      <trkpt lat="47.68387" lon="6.03607">
        <ele>211</ele>
        <time>2010-01-01T01:07:06Z</time>
      </trkpt>
      <trkpt lat="47.68382" lon="6.03604">
        <ele>211</ele>
        <time>2010-01-01T01:07:09Z</time>
      </trkpt>
      <trkpt lat="47.68377" lon="6.03603">
        <ele>211</ele>
        <time>2010-01-01T01:07:11Z</time>
      </trkpt>
      <trkpt lat="47.68372" lon="6.036">
        <ele>211</ele>
        <time>2010-01-01T01:07:13Z</time>
      </trkpt>
      <trkpt lat="47.68367" lon="6.03598">
        <ele>211</ele>
        <time>2010-01-01T01:07:15Z</time>
      </trkpt>
      <trkpt lat="47.68362" lon="6.03597">
        <ele>211</ele>
        <time>2010-01-01T01:07:17Z</time>
      </trkpt>
      <trkpt lat="47.68358" lon="6.03595">
        <ele>211</ele>
        <time>2010-01-01T01:07:19Z</time>
      </trkpt>
      <trkpt lat="47.68353" lon="6.03593">
        <ele>211</ele>
        <time>2010-01-01T01:07:21Z</time>
      </trkpt>
      <trkpt lat="47.68348" lon="6.03592">
        <ele>211</ele>
        <time>2010-01-01T01:07:23Z</time>
      </trkpt>
      <trkpt lat="47.68342" lon="6.0359">
        <ele>211</ele>
        <time>2010-01-01T01:07:25Z</time>
      </trkpt>
      <trkpt lat="47.68338" lon="6.03589">
        <ele>211</ele>
        <time>2010-01-01T01:07:27Z</time>
      </trkpt>
      <trkpt lat="47.68333" lon="6.03588">
        <ele>211</ele>
        <time>2010-01-01T01:07:29Z</time>
      </trkpt>
      <trkpt lat="47.68328" lon="6.03586">
        <ele>211</ele>
        <time>2010-01-01T01:07:31Z</time>
      </trkpt>
      <trkpt lat="47.68323" lon="6.03584">
        <ele>211</ele>
        <time>2010-01-01T01:07:33Z</time>
      </trkpt>
      <trkpt lat="47.68318" lon="6.03583">
        <ele>211</ele>
        <time>2010-01-01T01:07:35Z</time>
      </trkpt>
      <trkpt lat="47.68313" lon="6.03581">
        <ele>211</ele>
        <time>2010-01-01T01:07:37Z</time>
      </trkpt>
      <trkpt lat="47.68308" lon="6.0358">
        <ele>211</ele>
        <time>2010-01-01T01:07:39Z</time>
      </trkpt>
      <trkpt lat="47.68303" lon="6.03579">
        <ele>211</ele>
        <time>2010-01-01T01:07:41Z</time>
      </trkpt>
      <trkpt lat="47.68299" lon="6.03579">
        <ele>211</ele>
        <time>2010-01-01T01:07:43Z</time>
      </trkpt>
      <trkpt lat="47.68294" lon="6.03578">
        <ele>211</ele>
        <time>2010-01-01T01:07:45Z</time>
      </trkpt>
      <trkpt lat="47.68289" lon="6.03577">
        <ele>211</ele>
        <time>2010-01-01T01:07:47Z</time>
      </trkpt>
      <trkpt lat="47.68284" lon="6.03576">
        <ele>211</ele>
        <time>2010-01-01T01:07:49Z</time>
      </trkpt>
      <trkpt lat="47.68279" lon="6.03575">
        <ele>211</ele>
        <time>2010-01-01T01:07:50Z</time>
      </trkpt>
      <trkpt lat="47.68274" lon="6.03574">
        <ele>211</ele>
        <time>2010-01-01T01:07:52Z</time>
      </trkpt>
      <trkpt lat="47.68269" lon="6.03573">
        <ele>211</ele>
        <time>2010-01-01T01:07:54Z</time>
      </trkpt>
      <trkpt lat="47.68265" lon="6.03572">
        <ele>211</ele>
        <time>2010-01-01T01:07:56Z</time>
      </trkpt>
      <trkpt lat="47.6826" lon="6.03572">
        <ele>211</ele>
        <time>2010-01-01T01:07:58Z</time>
      </trkpt>
      <trkpt lat="47.68255" lon="6.03572">
        <ele>211</ele>
        <time>2010-01-01T01:08:00Z</time>
      </trkpt>
      <trkpt lat="47.6825" lon="6.03571">
        <ele>211</ele>
        <time>2010-01-01T01:08:02Z</time>
      </trkpt>
      <trkpt lat="47.68245" lon="6.03571">
        <ele>211</ele>
        <time>2010-01-01T01:08:04Z</time>
      </trkpt>
      <trkpt lat="47.6824" lon="6.03571">
        <ele>211</ele>
        <time>2010-01-01T01:08:06Z</time>
      </trkpt>
      <trkpt lat="47.68235" lon="6.0357">
        <ele>211</ele>
        <time>2010-01-01T01:08:08Z</time>
      </trkpt>
      <trkpt lat="47.6823" lon="6.03569">
        <ele>211</ele>
        <time>2010-01-01T01:08:10Z</time>
      </trkpt>
      <trkpt lat="47.68225" lon="6.03568">
        <ele>211</ele>
        <time>2010-01-01T01:08:12Z</time>
      </trkpt>
      <trkpt lat="47.6822" lon="6.03569">
        <ele>211</ele>
        <time>2010-01-01T01:08:14Z</time>
      </trkpt>
      <trkpt lat="47.68215" lon="6.03569">
        <ele>211</ele>
        <time>2010-01-01T01:08:16Z</time>
      </trkpt>
      <trkpt lat="47.6821" lon="6.03569">
        <ele>211</ele>
        <time>2010-01-01T01:08:18Z</time>
      </trkpt>
      <trkpt lat="47.68205" lon="6.03569">
        <ele>211</ele>
        <time>2010-01-01T01:08:20Z</time>
      </trkpt>
      <trkpt lat="47.68201" lon="6.03569">
        <ele>211</ele>
        <time>2010-01-01T01:08:22Z</time>
      </trkpt>
      <trkpt lat="47.68196" lon="6.0357">
        <ele>211</ele>
        <time>2010-01-01T01:08:24Z</time>
      </trkpt>
      <trkpt lat="47.68191" lon="6.03571">
        <ele>211</ele>
        <time>2010-01-01T01:08:26Z</time>
      </trkpt>
      <trkpt lat="47.68187" lon="6.03572">
        <ele>210</ele>
        <time>2010-01-01T01:08:28Z</time>
      </trkpt>
      <trkpt lat="47.68182" lon="6.03573">
        <ele>210</ele>
        <time>2010-01-01T01:08:29Z</time>
      </trkpt>
      <trkpt lat="47.68178" lon="6.03573">
        <ele>209</ele>
        <time>2010-01-01T01:08:31Z</time>
      </trkpt>
      <trkpt lat="47.68173" lon="6.03574">
        <ele>209</ele>
        <time>2010-01-01T01:08:33Z</time>
      </trkpt>
      <trkpt lat="47.68168" lon="6.03575">
        <ele>209</ele>
        <time>2010-01-01T01:08:35Z</time>
      </trkpt>
      <trkpt lat="47.68164" lon="6.03576">
        <ele>209</ele>
        <time>2010-01-01T01:08:37Z</time>
      </trkpt>
      <trkpt lat="47.68158" lon="6.03578">
        <ele>209</ele>
        <time>2010-01-01T01:08:39Z</time>
      </trkpt>
      <trkpt lat="47.68153" lon="6.03579">
        <ele>209</ele>
        <time>2010-01-01T01:08:41Z</time>
      </trkpt>
      <trkpt lat="47.68149" lon="6.0358">
        <ele>209</ele>
        <time>2010-01-01T01:08:43Z</time>
      </trkpt>
      <trkpt lat="47.68144" lon="6.03581">
        <ele>209</ele>
        <time>2010-01-01T01:08:45Z</time>
      </trkpt>
      <trkpt lat="47.68139" lon="6.03582">
        <ele>209</ele>
        <time>2010-01-01T01:08:47Z</time>
      </trkpt>
      <trkpt lat="47.68134" lon="6.03582">
        <ele>209</ele>
        <time>2010-01-01T01:08:49Z</time>
      </trkpt>
      <trkpt lat="47.68129" lon="6.03583">
        <ele>209</ele>
        <time>2010-01-01T01:08:51Z</time>
      </trkpt>
      <trkpt lat="47.68124" lon="6.03583">
        <ele>209</ele>
        <time>2010-01-01T01:08:53Z</time>
      </trkpt>
      <trkpt lat="47.68119" lon="6.03583">
        <ele>209</ele>
        <time>2010-01-01T01:08:55Z</time>
      </trkpt>
      <trkpt lat="47.68114" lon="6.03583">
        <ele>209</ele>
        <time>2010-01-01T01:08:57Z</time>
      </trkpt>
      <trkpt lat="47.68109" lon="6.03582">
        <ele>209</ele>
        <time>2010-01-01T01:08:59Z</time>
      </trkpt>
      <trkpt lat="47.68104" lon="6.03581">
        <ele>209</ele>
        <time>2010-01-01T01:09:01Z</time>
      </trkpt>
      <trkpt lat="47.68099" lon="6.0358">
        <ele>209</ele>
        <time>2010-01-01T01:09:03Z</time>
      </trkpt>
      <trkpt lat="47.68095" lon="6.03578">
        <ele>209</ele>
        <time>2010-01-01T01:09:05Z</time>
      </trkpt>
      <trkpt lat="47.68091" lon="6.03577">
        <ele>209</ele>
        <time>2010-01-01T01:09:06Z</time>
      </trkpt>
      <trkpt lat="47.68086" lon="6.03577">
        <ele>209</ele>
        <time>2010-01-01T01:09:08Z</time>
      </trkpt>
      <trkpt lat="47.68082" lon="6.03576">
        <ele>209</ele>
        <time>2010-01-01T01:09:10Z</time>
      </trkpt>
      <trkpt lat="47.68078" lon="6.03575">
        <ele>209</ele>
        <time>2010-01-01T01:09:11Z</time>
      </trkpt>
      <trkpt lat="47.68074" lon="6.03574">
        <ele>209</ele>
        <time>2010-01-01T01:09:13Z</time>
      </trkpt>
      <trkpt lat="47.6807" lon="6.03573">
        <ele>209</ele>
        <time>2010-01-01T01:09:15Z</time>
      </trkpt>
      <trkpt lat="47.68067" lon="6.03572">
        <ele>209</ele>
        <time>2010-01-01T01:09:16Z</time>
      </trkpt>
      <trkpt lat="47.68063" lon="6.03572">
        <ele>209</ele>
        <time>2010-01-01T01:09:18Z</time>
      </trkpt>
      <trkpt lat="47.68059" lon="6.03572">
        <ele>209</ele>
        <time>2010-01-01T01:09:19Z</time>
      </trkpt>
      <trkpt lat="47.68054" lon="6.03571">
        <ele>209</ele>
        <time>2010-01-01T01:09:21Z</time>
      </trkpt>
      <trkpt lat="47.6805" lon="6.03571">
        <ele>209</ele>
        <time>2010-01-01T01:09:23Z</time>
      </trkpt>
      <trkpt lat="47.68046" lon="6.0357">
        <ele>209</ele>
        <time>2010-01-01T01:09:24Z</time>
      </trkpt>
      <trkpt lat="47.68042" lon="6.03568">
        <ele>209</ele>
        <time>2010-01-01T01:09:26Z</time>
      </trkpt>
      <trkpt lat="47.68038" lon="6.03567">
        <ele>209</ele>
        <time>2010-01-01T01:09:28Z</time>
      </trkpt>
      <trkpt lat="47.68035" lon="6.03565">
        <ele>209</ele>
        <time>2010-01-01T01:09:29Z</time>
      </trkpt>
      <trkpt lat="47.68031" lon="6.03563">
        <ele>209</ele>
        <time>2010-01-01T01:09:31Z</time>
      </trkpt>
      <trkpt lat="47.68028" lon="6.0356">
        <ele>209</ele>
        <time>2010-01-01T01:09:32Z</time>
      </trkpt>
      <trkpt lat="47.68025" lon="6.03558">
        <ele>209</ele>
        <time>2010-01-01T01:09:33Z</time>
      </trkpt>
      <trkpt lat="47.68023" lon="6.03556">
        <ele>209</ele>
        <time>2010-01-01T01:09:34Z</time>
      </trkpt>
      <trkpt lat="47.68021" lon="6.03555">
        <ele>209</ele>
        <time>2010-01-01T01:09:35Z</time>
      </trkpt>
      <trkpt lat="47.68019" lon="6.03551">
        <ele>209</ele>
        <time>2010-01-01T01:09:37Z</time>
      </trkpt>
      <trkpt lat="47.68016" lon="6.03548">
        <ele>209</ele>
        <time>2010-01-01T01:09:38Z</time>
      </trkpt>
      <trkpt lat="47.68014" lon="6.03545">
        <ele>209</ele>
        <time>2010-01-01T01:09:39Z</time>
      </trkpt>
      <trkpt lat="47.68011" lon="6.03541">
        <ele>209</ele>
        <time>2010-01-01T01:09:41Z</time>
      </trkpt>
      <trkpt lat="47.68007" lon="6.03538">
        <ele>209</ele>
        <time>2010-01-01T01:09:43Z</time>
      </trkpt>
      <trkpt lat="47.68004" lon="6.03534">
        <ele>209</ele>
        <time>2010-01-01T01:09:44Z</time>
      </trkpt>
      <trkpt lat="47.68" lon="6.03531">
        <ele>209</ele>
        <time>2010-01-01T01:09:46Z</time>
      </trkpt>
      <trkpt lat="47.67997" lon="6.03528">
        <ele>209</ele>
        <time>2010-01-01T01:09:47Z</time>
      </trkpt>
      <trkpt lat="47.67993" lon="6.03525">
        <ele>209</ele>
        <time>2010-01-01T01:09:49Z</time>
      </trkpt>
      <trkpt lat="47.6799" lon="6.03521">
        <ele>209</ele>
        <time>2010-01-01T01:09:51Z</time>
      </trkpt>
      <trkpt lat="47.67986" lon="6.03518">
        <ele>209</ele>
        <time>2010-01-01T01:09:52Z</time>
      </trkpt>
      <trkpt lat="47.67983" lon="6.03514">
        <ele>209</ele>
        <time>2010-01-01T01:09:54Z</time>
      </trkpt>
      <trkpt lat="47.6798" lon="6.0351">
        <ele>209</ele>
        <time>2010-01-01T01:09:56Z</time>
      </trkpt>
      <trkpt lat="47.67976" lon="6.03506">
        <ele>209</ele>
        <time>2010-01-01T01:09:58Z</time>
      </trkpt>
      <trkpt lat="47.67973" lon="6.03502">
        <ele>209</ele>
        <time>2010-01-01T01:09:59Z</time>
      </trkpt>
      <trkpt lat="47.6797" lon="6.03499">
        <ele>209</ele>
        <time>2010-01-01T01:10:01Z</time>
      </trkpt>
      <trkpt lat="47.67966" lon="6.03495">
        <ele>209</ele>
        <time>2010-01-01T01:10:03Z</time>
      </trkpt>
      <trkpt lat="47.67963" lon="6.03491">
        <ele>209</ele>
        <time>2010-01-01T01:10:04Z</time>
      </trkpt>
      <trkpt lat="47.67959" lon="6.03486">
        <ele>209</ele>
        <time>2010-01-01T01:10:06Z</time>
      </trkpt>
      <trkpt lat="47.67955" lon="6.03482">
        <ele>209</ele>
        <time>2010-01-01T01:10:08Z</time>
      </trkpt>
      <trkpt lat="47.67952" lon="6.03478">
        <ele>209</ele>
        <time>2010-01-01T01:10:10Z</time>
      </trkpt>
      <trkpt lat="47.67948" lon="6.03474">
        <ele>209</ele>
        <time>2010-01-01T01:10:12Z</time>
      </trkpt>
      <trkpt lat="47.67945" lon="6.0347">
        <ele>209</ele>
        <time>2010-01-01T01:10:14Z</time>
      </trkpt>
      <trkpt lat="47.67942" lon="6.03464">
        <ele>209</ele>
        <time>2010-01-01T01:10:15Z</time>
      </trkpt>
      <trkpt lat="47.67939" lon="6.03459">
        <ele>209</ele>
        <time>2010-01-01T01:10:17Z</time>
      </trkpt>
      <trkpt lat="47.67937" lon="6.03453">
        <ele>209</ele>
        <time>2010-01-01T01:10:19Z</time>
      </trkpt>
      <trkpt lat="47.67934" lon="6.03448">
        <ele>209</ele>
        <time>2010-01-01T01:10:21Z</time>
      </trkpt>
      <trkpt lat="47.6793" lon="6.03443">
        <ele>209</ele>
        <time>2010-01-01T01:10:23Z</time>
      </trkpt>
      <trkpt lat="47.67927" lon="6.03438">
        <ele>209</ele>
        <time>2010-01-01T01:10:25Z</time>
      </trkpt>
      <trkpt lat="47.67925" lon="6.03432">
        <ele>209</ele>
        <time>2010-01-01T01:10:27Z</time>
      </trkpt>
      <trkpt lat="47.67922" lon="6.03427">
        <ele>209</ele>
        <time>2010-01-01T01:10:28Z</time>
      </trkpt>
      <trkpt lat="47.67919" lon="6.03422">
        <ele>209</ele>
        <time>2010-01-01T01:10:30Z</time>
      </trkpt>
      <trkpt lat="47.67916" lon="6.03416">
        <ele>209</ele>
        <time>2010-01-01T01:10:32Z</time>
      </trkpt>
      <trkpt lat="47.67913" lon="6.03411">
        <ele>209</ele>
        <time>2010-01-01T01:10:34Z</time>
      </trkpt>
      <trkpt lat="47.67909" lon="6.03406">
        <ele>209</ele>
        <time>2010-01-01T01:10:36Z</time>
      </trkpt>
      <trkpt lat="47.67906" lon="6.034">
        <ele>209</ele>
        <time>2010-01-01T01:10:38Z</time>
      </trkpt>
      <trkpt lat="47.67903" lon="6.03395">
        <ele>209</ele>
        <time>2010-01-01T01:10:40Z</time>
      </trkpt>
      <trkpt lat="47.67899" lon="6.0339">
        <ele>209</ele>
        <time>2010-01-01T01:10:42Z</time>
      </trkpt>
      <trkpt lat="47.67896" lon="6.03385">
        <ele>209</ele>
        <time>2010-01-01T01:10:44Z</time>
      </trkpt>
      <trkpt lat="47.67893" lon="6.0338">
        <ele>209</ele>
        <time>2010-01-01T01:10:45Z</time>
      </trkpt>
      <trkpt lat="47.6789" lon="6.03375">
        <ele>209</ele>
        <time>2010-01-01T01:10:47Z</time>
      </trkpt>
      <trkpt lat="47.67886" lon="6.0337">
        <ele>209</ele>
        <time>2010-01-01T01:10:49Z</time>
      </trkpt>
      <trkpt lat="47.67883" lon="6.03365">
        <ele>209</ele>
        <time>2010-01-01T01:10:51Z</time>
      </trkpt>
      <trkpt lat="47.67879" lon="6.03361">
        <ele>209</ele>
        <time>2010-01-01T01:10:53Z</time>
      </trkpt>
      <trkpt lat="47.67876" lon="6.03356">
        <ele>209</ele>
        <time>2010-01-01T01:10:55Z</time>
      </trkpt>
      <trkpt lat="47.67873" lon="6.0335">
        <ele>209</ele>
        <time>2010-01-01T01:10:57Z</time>
      </trkpt>
      <trkpt lat="47.67869" lon="6.03346">
        <ele>209</ele>
        <time>2010-01-01T01:10:59Z</time>
      </trkpt>
      <trkpt lat="47.67866" lon="6.03341">
        <ele>209</ele>
        <time>2010-01-01T01:11:01Z</time>
      </trkpt>
      <trkpt lat="47.67862" lon="6.03336">
        <ele>209</ele>
        <time>2010-01-01T01:11:03Z</time>
      </trkpt>
      <trkpt lat="47.67859" lon="6.0333">
        <ele>209</ele>
        <time>2010-01-01T01:11:05Z</time>
      </trkpt>
      <trkpt lat="47.67855" lon="6.03326">
        <ele>209</ele>
        <time>2010-01-01T01:11:07Z</time>
      </trkpt>
      <trkpt lat="47.67852" lon="6.03321">
        <ele>209</ele>
        <time>2010-01-01T01:11:08Z</time>
      </trkpt>
      <trkpt lat="47.67849" lon="6.03316">
        <ele>209</ele>
        <time>2010-01-01T01:11:10Z</time>
      </trkpt>
      <trkpt lat="47.67845" lon="6.03312">
        <ele>209</ele>
        <time>2010-01-01T01:11:12Z</time>
      </trkpt>
      <trkpt lat="47.67841" lon="6.03307">
        <ele>209</ele>
        <time>2010-01-01T01:11:14Z</time>
      </trkpt>
      <trkpt lat="47.67838" lon="6.03302">
        <ele>209</ele>
        <time>2010-01-01T01:11:16Z</time>
      </trkpt>
      <trkpt lat="47.67835" lon="6.03296">
        <ele>209</ele>
        <time>2010-01-01T01:11:18Z</time>
      </trkpt>
      <trkpt lat="47.67831" lon="6.03292">
        <ele>209</ele>
        <time>2010-01-01T01:11:20Z</time>
      </trkpt>
      <trkpt lat="47.67827" lon="6.03287">
        <ele>209</ele>
        <time>2010-01-01T01:11:22Z</time>
      </trkpt>
      <trkpt lat="47.67823" lon="6.03281">
        <ele>209</ele>
        <time>2010-01-01T01:11:24Z</time>
      </trkpt>
      <trkpt lat="47.6782" lon="6.03276">
        <ele>209</ele>
        <time>2010-01-01T01:11:26Z</time>
      </trkpt>
      <trkpt lat="47.67816" lon="6.03271">
        <ele>209</ele>
        <time>2010-01-01T01:11:28Z</time>
      </trkpt>
      <trkpt lat="47.67812" lon="6.03267">
        <ele>209</ele>
        <time>2010-01-01T01:11:30Z</time>
      </trkpt>
      <trkpt lat="47.67809" lon="6.03262">
        <ele>209</ele>
        <time>2010-01-01T01:11:32Z</time>
      </trkpt>
      <trkpt lat="47.67805" lon="6.03256">
        <ele>209</ele>
        <time>2010-01-01T01:11:34Z</time>
      </trkpt>
      <trkpt lat="47.67801" lon="6.03251">
        <ele>209</ele>
        <time>2010-01-01T01:11:36Z</time>
      </trkpt>
      <trkpt lat="47.67797" lon="6.03247">
        <ele>209</ele>
        <time>2010-01-01T01:11:38Z</time>
      </trkpt>
      <trkpt lat="47.67793" lon="6.03242">
        <ele>209</ele>
        <time>2010-01-01T01:11:40Z</time>
      </trkpt>
      <trkpt lat="47.6779" lon="6.03237">
        <ele>209</ele>
        <time>2010-01-01T01:11:42Z</time>
      </trkpt>
      <trkpt lat="47.67786" lon="6.03232">
        <ele>209</ele>
        <time>2010-01-01T01:11:44Z</time>
      </trkpt>
      <trkpt lat="47.67783" lon="6.03227">
        <ele>209</ele>
        <time>2010-01-01T01:11:46Z</time>
      </trkpt>
      <trkpt lat="47.67779" lon="6.03222">
        <ele>209</ele>
        <time>2010-01-01T01:11:48Z</time>
      </trkpt>
      <trkpt lat="47.67776" lon="6.03217">
        <ele>209</ele>
        <time>2010-01-01T01:11:50Z</time>
      </trkpt>
      <trkpt lat="47.67772" lon="6.03212">
        <ele>209</ele>
        <time>2010-01-01T01:11:52Z</time>
      </trkpt>
      <trkpt lat="47.67768" lon="6.03208">
        <ele>209</ele>
        <time>2010-01-01T01:11:54Z</time>
      </trkpt>
      <trkpt lat="47.67765" lon="6.03203">
        <ele>209</ele>
        <time>2010-01-01T01:11:56Z</time>
      </trkpt>
      <trkpt lat="47.67762" lon="6.03199">
        <ele>209</ele>
        <time>2010-01-01T01:11:57Z</time>
      </trkpt>
      <trkpt lat="47.67758" lon="6.03195">
        <ele>209</ele>
        <time>2010-01-01T01:11:59Z</time>
      </trkpt>
      <trkpt lat="47.67755" lon="6.0319">
        <ele>209</ele>
        <time>2010-01-01T01:12:01Z</time>
      </trkpt>
      <trkpt lat="47.67752" lon="6.03185">
        <ele>209</ele>
        <time>2010-01-01T01:12:03Z</time>
      </trkpt>
      <trkpt lat="47.67748" lon="6.0318">
        <ele>209</ele>
        <time>2010-01-01T01:12:05Z</time>
      </trkpt>
      <trkpt lat="47.67744" lon="6.03176">
        <ele>209</ele>
        <time>2010-01-01T01:12:07Z</time>
      </trkpt>
      <trkpt lat="47.6774" lon="6.03171">
        <ele>209</ele>
        <time>2010-01-01T01:12:09Z</time>
      </trkpt>
      <trkpt lat="47.67736" lon="6.03167">
        <ele>209</ele>
        <time>2010-01-01T01:12:11Z</time>
      </trkpt>
      <trkpt lat="47.67733" lon="6.03161">
        <ele>209</ele>
        <time>2010-01-01T01:12:13Z</time>
      </trkpt>
      <trkpt lat="47.6773" lon="6.03155">
        <ele>209</ele>
        <time>2010-01-01T01:12:15Z</time>
      </trkpt>
      <trkpt lat="47.67726" lon="6.0315">
        <ele>209</ele>
        <time>2010-01-01T01:12:17Z</time>
      </trkpt>
      <trkpt lat="47.67723" lon="6.03146">
        <ele>209</ele>
        <time>2010-01-01T01:12:18Z</time>
      </trkpt>
      <trkpt lat="47.6772" lon="6.03141">
        <ele>209</ele>
        <time>2010-01-01T01:12:20Z</time>
      </trkpt>
      <trkpt lat="47.67715" lon="6.03136">
        <ele>209</ele>
        <time>2010-01-01T01:12:23Z</time>
      </trkpt>
      <trkpt lat="47.67711" lon="6.03131">
        <ele>209</ele>
        <time>2010-01-01T01:12:25Z</time>
      </trkpt>
      <trkpt lat="47.67708" lon="6.03126">
        <ele>209</ele>
        <time>2010-01-01T01:12:27Z</time>
      </trkpt>
      <trkpt lat="47.67704" lon="6.03121">
        <ele>209</ele>
        <time>2010-01-01T01:12:29Z</time>
      </trkpt>
      <trkpt lat="47.677" lon="6.03116">
        <ele>209</ele>
        <time>2010-01-01T01:12:31Z</time>
      </trkpt>
      <trkpt lat="47.67696" lon="6.03111">
        <ele>209</ele>
        <time>2010-01-01T01:12:33Z</time>
      </trkpt>
      <trkpt lat="47.67692" lon="6.03106">
        <ele>209</ele>
        <time>2010-01-01T01:12:35Z</time>
      </trkpt>
      <trkpt lat="47.67688" lon="6.03101">
        <ele>209</ele>
        <time>2010-01-01T01:12:37Z</time>
      </trkpt>
      <trkpt lat="47.67685" lon="6.03095">
        <ele>209</ele>
        <time>2010-01-01T01:12:39Z</time>
      </trkpt>
      <trkpt lat="47.67681" lon="6.03091">
        <ele>209</ele>
        <time>2010-01-01T01:12:41Z</time>
      </trkpt>
      <trkpt lat="47.67677" lon="6.03086">
        <ele>209</ele>
        <time>2010-01-01T01:12:43Z</time>
      </trkpt>
      <trkpt lat="47.67674" lon="6.03081">
        <ele>209</ele>
        <time>2010-01-01T01:12:45Z</time>
      </trkpt>
      <trkpt lat="47.6767" lon="6.03076">
        <ele>209</ele>
        <time>2010-01-01T01:12:47Z</time>
      </trkpt>
      <trkpt lat="47.67666" lon="6.03072">
        <ele>209</ele>
        <time>2010-01-01T01:12:49Z</time>
      </trkpt>
      <trkpt lat="47.67662" lon="6.03067">
        <ele>209</ele>
        <time>2010-01-01T01:12:51Z</time>
      </trkpt>
      <trkpt lat="47.67658" lon="6.03062">
        <ele>209</ele>
        <time>2010-01-01T01:12:53Z</time>
      </trkpt>
      <trkpt lat="47.67655" lon="6.03056">
        <ele>209</ele>
        <time>2010-01-01T01:12:55Z</time>
      </trkpt>
      <trkpt lat="47.67651" lon="6.03051">
        <ele>209</ele>
        <time>2010-01-01T01:12:57Z</time>
      </trkpt>
      <trkpt lat="47.67647" lon="6.03046">
        <ele>209</ele>
        <time>2010-01-01T01:12:59Z</time>
      </trkpt>
      <trkpt lat="47.67644" lon="6.03041">
        <ele>209</ele>
        <time>2010-01-01T01:13:01Z</time>
      </trkpt>
      <trkpt lat="47.6764" lon="6.03036">
        <ele>209</ele>
        <time>2010-01-01T01:13:03Z</time>
      </trkpt>
      <trkpt lat="47.67636" lon="6.03031">
        <ele>209</ele>
        <time>2010-01-01T01:13:05Z</time>
      </trkpt>
      <trkpt lat="47.67632" lon="6.03026">
        <ele>209</ele>
        <time>2010-01-01T01:13:07Z</time>
      </trkpt>
      <trkpt lat="47.67628" lon="6.03021">
        <ele>209</ele>
        <time>2010-01-01T01:13:09Z</time>
      </trkpt>
      <trkpt lat="47.67625" lon="6.03015">
        <ele>209</ele>
        <time>2010-01-01T01:13:11Z</time>
      </trkpt>
      <trkpt lat="47.67621" lon="6.0301">
        <ele>209</ele>
        <time>2010-01-01T01:13:13Z</time>
      </trkpt>
      <trkpt lat="47.67617" lon="6.03005">
        <ele>209</ele>
        <time>2010-01-01T01:13:15Z</time>
      </trkpt>
      <trkpt lat="47.67613" lon="6.03">
        <ele>209</ele>
        <time>2010-01-01T01:13:18Z</time>
      </trkpt>
      <trkpt lat="47.67609" lon="6.02995">
        <ele>209</ele>
        <time>2010-01-01T01:13:20Z</time>
      </trkpt>
      <trkpt lat="47.67605" lon="6.0299">
        <ele>209</ele>
        <time>2010-01-01T01:13:22Z</time>
      </trkpt>
      <trkpt lat="47.67601" lon="6.02984">
        <ele>209</ele>
        <time>2010-01-01T01:13:24Z</time>
      </trkpt>
      <trkpt lat="47.67598" lon="6.02979">
        <ele>209</ele>
        <time>2010-01-01T01:13:26Z</time>
      </trkpt>
      <trkpt lat="47.67594" lon="6.02973">
        <ele>209</ele>
        <time>2010-01-01T01:13:28Z</time>
      </trkpt>
      <trkpt lat="47.6759" lon="6.02968">
        <ele>209</ele>
        <time>2010-01-01T01:13:30Z</time>
      </trkpt>
      <trkpt lat="47.67586" lon="6.02963">
        <ele>209</ele>
        <time>2010-01-01T01:13:32Z</time>
      </trkpt>
      <trkpt lat="47.67582" lon="6.02958">
        <ele>209</ele>
        <time>2010-01-01T01:13:34Z</time>
      </trkpt>
      <trkpt lat="47.67578" lon="6.02953">
        <ele>209</ele>
        <time>2010-01-01T01:13:37Z</time>
      </trkpt>
      <trkpt lat="47.67574" lon="6.02947">
        <ele>209</ele>
        <time>2010-01-01T01:13:39Z</time>
      </trkpt>
      <trkpt lat="47.67569" lon="6.02941">
        <ele>209</ele>
        <time>2010-01-01T01:13:41Z</time>
      </trkpt>
      <trkpt lat="47.67565" lon="6.02935">
        <ele>209</ele>
        <time>2010-01-01T01:13:44Z</time>
      </trkpt>
      <trkpt lat="47.67561" lon="6.02929">
        <ele>209</ele>
        <time>2010-01-01T01:13:46Z</time>
      </trkpt>
      <trkpt lat="47.67557" lon="6.02923">
        <ele>209</ele>
        <time>2010-01-01T01:13:48Z</time>
      </trkpt>
      <trkpt lat="47.67552" lon="6.02918">
        <ele>209</ele>
        <time>2010-01-01T01:13:50Z</time>
      </trkpt>
      <trkpt lat="47.67549" lon="6.02913">
        <ele>209</ele>
        <time>2010-01-01T01:13:52Z</time>
      </trkpt>
      <trkpt lat="47.67545" lon="6.02907">
        <ele>209</ele>
        <time>2010-01-01T01:13:55Z</time>
      </trkpt>
      <trkpt lat="47.67541" lon="6.02902">
        <ele>209</ele>
        <time>2010-01-01T01:13:57Z</time>
      </trkpt>
      <trkpt lat="47.67537" lon="6.02897">
        <ele>209</ele>
        <time>2010-01-01T01:13:59Z</time>
      </trkpt>
      <trkpt lat="47.67534" lon="6.02892">
        <ele>209</ele>
        <time>2010-01-01T01:14:01Z</time>
      </trkpt>
      <trkpt lat="47.6753" lon="6.02887">
        <ele>209</ele>
        <time>2010-01-01T01:14:03Z</time>
      </trkpt>
      <trkpt lat="47.67526" lon="6.02881">
        <ele>209</ele>
        <time>2010-01-01T01:14:05Z</time>
      </trkpt>
      <trkpt lat="47.67523" lon="6.02876">
        <ele>209</ele>
        <time>2010-01-01T01:14:07Z</time>
      </trkpt>
      <trkpt lat="47.67519" lon="6.02871">
        <ele>209</ele>
        <time>2010-01-01T01:14:09Z</time>
      </trkpt>
      <trkpt lat="47.67515" lon="6.02867">
        <ele>209</ele>
        <time>2010-01-01T01:14:11Z</time>
      </trkpt>
      <trkpt lat="47.67512" lon="6.02861">
        <ele>209</ele>
        <time>2010-01-01T01:14:13Z</time>
      </trkpt>
      <trkpt lat="47.67508" lon="6.02856">
        <ele>209</ele>
        <time>2010-01-01T01:14:15Z</time>
      </trkpt>
      <trkpt lat="47.67504" lon="6.02851">
        <ele>209</ele>
        <time>2010-01-01T01:14:17Z</time>
      </trkpt>
      <trkpt lat="47.675" lon="6.02846">
        <ele>209</ele>
        <time>2010-01-01T01:14:19Z</time>
      </trkpt>
      <trkpt lat="47.67497" lon="6.02841">
        <ele>209</ele>
        <time>2010-01-01T01:14:21Z</time>
      </trkpt>
      <trkpt lat="47.67493" lon="6.02836">
        <ele>209</ele>
        <time>2010-01-01T01:14:23Z</time>
      </trkpt>
      <trkpt lat="47.67489" lon="6.02831">
        <ele>209</ele>
        <time>2010-01-01T01:14:25Z</time>
      </trkpt>
      <trkpt lat="47.67485" lon="6.02826">
        <ele>209</ele>
        <time>2010-01-01T01:14:27Z</time>
      </trkpt>
      <trkpt lat="47.67481" lon="6.0282">
        <ele>209</ele>
        <time>2010-01-01T01:14:29Z</time>
      </trkpt>
      <trkpt lat="47.67478" lon="6.02815">
        <ele>209</ele>
        <time>2010-01-01T01:14:31Z</time>
      </trkpt>
      <trkpt lat="47.67474" lon="6.0281">
        <ele>209</ele>
        <time>2010-01-01T01:14:33Z</time>
      </trkpt>
      <trkpt lat="47.67471" lon="6.02804">
        <ele>209</ele>
        <time>2010-01-01T01:14:35Z</time>
      </trkpt>
      <trkpt lat="47.67467" lon="6.02799">
        <ele>209</ele>
        <time>2010-01-01T01:14:37Z</time>
      </trkpt>
      <trkpt lat="47.67463" lon="6.02794">
        <ele>209</ele>
        <time>2010-01-01T01:14:39Z</time>
      </trkpt>
      <trkpt lat="47.67459" lon="6.02788">
        <ele>209</ele>
        <time>2010-01-01T01:14:42Z</time>
      </trkpt>
      <trkpt lat="47.67455" lon="6.02783">
        <ele>209</ele>
        <time>2010-01-01T01:14:44Z</time>
      </trkpt>
      <trkpt lat="47.67451" lon="6.02778">
        <ele>209</ele>
        <time>2010-01-01T01:14:46Z</time>
      </trkpt>
      <trkpt lat="47.67448" lon="6.02772">
        <ele>209</ele>
        <time>2010-01-01T01:14:48Z</time>
      </trkpt>
      <trkpt lat="47.67444" lon="6.02768">
        <ele>209</ele>
        <time>2010-01-01T01:14:50Z</time>
      </trkpt>
      <trkpt lat="47.67439" lon="6.02763">
        <ele>209</ele>
        <time>2010-01-01T01:14:52Z</time>
      </trkpt>
      <trkpt lat="47.67436" lon="6.02757">
        <ele>209</ele>
        <time>2010-01-01T01:14:54Z</time>
      </trkpt>
      <trkpt lat="47.67432" lon="6.02752">
        <ele>209</ele>
        <time>2010-01-01T01:14:56Z</time>
      </trkpt>
      <trkpt lat="47.67428" lon="6.02746">
        <ele>209</ele>
        <time>2010-01-01T01:14:58Z</time>
      </trkpt>
      <trkpt lat="47.67424" lon="6.02741">
        <ele>209</ele>
        <time>2010-01-01T01:15:00Z</time>
      </trkpt>
      <trkpt lat="47.67421" lon="6.02736">
        <ele>209</ele>
        <time>2010-01-01T01:15:03Z</time>
      </trkpt>
      <trkpt lat="47.67417" lon="6.02731">
        <ele>209</ele>
        <time>2010-01-01T01:15:05Z</time>
      </trkpt>
      <trkpt lat="47.67413" lon="6.02726">
        <ele>209</ele>
        <time>2010-01-01T01:15:07Z</time>
      </trkpt>
      <trkpt lat="47.67409" lon="6.02721">
        <ele>209</ele>
        <time>2010-01-01T01:15:09Z</time>
      </trkpt>
      <trkpt lat="47.67406" lon="6.02716">
        <ele>209</ele>
        <time>2010-01-01T01:15:11Z</time>
      </trkpt>
      <trkpt lat="47.67402" lon="6.02711">
        <ele>209</ele>
        <time>2010-01-01T01:15:13Z</time>
      </trkpt>
      <trkpt lat="47.67398" lon="6.02706">
        <ele>209</ele>
        <time>2010-01-01T01:15:15Z</time>
      </trkpt>
      <trkpt lat="47.67395" lon="6.027">
        <ele>209</ele>
        <time>2010-01-01T01:15:17Z</time>
      </trkpt>
      <trkpt lat="47.67391" lon="6.02695">
        <ele>209</ele>
        <time>2010-01-01T01:15:19Z</time>
      </trkpt>
      <trkpt lat="47.67387" lon="6.02691">
        <ele>209</ele>
        <time>2010-01-01T01:15:21Z</time>
      </trkpt>
      <trkpt lat="47.67384" lon="6.02685">
        <ele>209</ele>
        <time>2010-01-01T01:15:23Z</time>
      </trkpt>
      <trkpt lat="47.67381" lon="6.0268">
        <ele>209</ele>
        <time>2010-01-01T01:15:24Z</time>
      </trkpt>
      <trkpt lat="47.67377" lon="6.02677">
        <ele>209</ele>
        <time>2010-01-01T01:15:26Z</time>
      </trkpt>
      <trkpt lat="47.67374" lon="6.02671">
        <ele>209</ele>
        <time>2010-01-01T01:15:28Z</time>
      </trkpt>
      <trkpt lat="47.6737" lon="6.02666">
        <ele>209</ele>
        <time>2010-01-01T01:15:30Z</time>
      </trkpt>
      <trkpt lat="47.67367" lon="6.02661">
        <ele>209</ele>
        <time>2010-01-01T01:15:32Z</time>
      </trkpt>
      <trkpt lat="47.67364" lon="6.02656">
        <ele>209</ele>
        <time>2010-01-01T01:15:34Z</time>
      </trkpt>
      <trkpt lat="47.6736" lon="6.02651">
        <ele>209</ele>
        <time>2010-01-01T01:15:36Z</time>
      </trkpt>
      <trkpt lat="47.67357" lon="6.02646">
        <ele>209</ele>
        <time>2010-01-01T01:15:38Z</time>
      </trkpt>
      <trkpt lat="47.67353" lon="6.02641">
        <ele>209</ele>
        <time>2010-01-01T01:15:40Z</time>
      </trkpt>
      <trkpt lat="47.6735" lon="6.02636">
        <ele>209</ele>
        <time>2010-01-01T01:15:42Z</time>
      </trkpt>
      <trkpt lat="47.67346" lon="6.0263">
        <ele>209</ele>
        <time>2010-01-01T01:15:44Z</time>
      </trkpt>
      <trkpt lat="47.67342" lon="6.02624">
        <ele>209</ele>
        <time>2010-01-01T01:15:46Z</time>
      </trkpt>
      <trkpt lat="47.67338" lon="6.02618">
        <ele>209</ele>
        <time>2010-01-01T01:15:49Z</time>
      </trkpt>
      <trkpt lat="47.67334" lon="6.02612">
        <ele>209</ele>
        <time>2010-01-01T01:15:51Z</time>
      </trkpt>
      <trkpt lat="47.6733" lon="6.02606">
        <ele>209</ele>
        <time>2010-01-01T01:15:53Z</time>
      </trkpt>
      <trkpt lat="47.67326" lon="6.026">
        <ele>209</ele>
        <time>2010-01-01T01:15:55Z</time>
      </trkpt>
      <trkpt lat="47.67323" lon="6.02595">
        <ele>209</ele>
        <time>2010-01-01T01:15:57Z</time>
      </trkpt>
      <trkpt lat="47.67318" lon="6.02589">
        <ele>209</ele>
        <time>2010-01-01T01:16:00Z</time>
      </trkpt>
      <trkpt lat="47.67314" lon="6.02584">
        <ele>209</ele>
        <time>2010-01-01T01:16:02Z</time>
      </trkpt>
      <trkpt lat="47.67311" lon="6.02578">
        <ele>209</ele>
        <time>2010-01-01T01:16:04Z</time>
      </trkpt>
      <trkpt lat="47.67308" lon="6.02572">
        <ele>209</ele>
        <time>2010-01-01T01:16:06Z</time>
      </trkpt>
      <trkpt lat="47.67305" lon="6.02565">
        <ele>209</ele>
        <time>2010-01-01T01:16:08Z</time>
      </trkpt>
      <trkpt lat="47.67303" lon="6.02559">
        <ele>209</ele>
        <time>2010-01-01T01:16:10Z</time>
      </trkpt>
      <trkpt lat="47.67302" lon="6.02552">
        <ele>209</ele>
        <time>2010-01-01T01:16:12Z</time>
      </trkpt>
      <trkpt lat="47.67301" lon="6.02545">
        <ele>209</ele>
        <time>2010-01-01T01:16:14Z</time>
      </trkpt>
      <trkpt lat="47.673" lon="6.02538">
        <ele>209</ele>
        <time>2010-01-01T01:16:16Z</time>
      </trkpt>
      <trkpt lat="47.67299" lon="6.02532">
        <ele>209</ele>
        <time>2010-01-01T01:16:17Z</time>
      </trkpt>
      <trkpt lat="47.67297" lon="6.02525">
        <ele>209</ele>
        <time>2010-01-01T01:16:19Z</time>
      </trkpt>
      <trkpt lat="47.67296" lon="6.02519">
        <ele>209</ele>
        <time>2010-01-01T01:16:21Z</time>
      </trkpt>
      <trkpt lat="47.67295" lon="6.02512">
        <ele>209</ele>
        <time>2010-01-01T01:16:23Z</time>
      </trkpt>
      <trkpt lat="47.67295" lon="6.02505">
        <ele>209</ele>
        <time>2010-01-01T01:16:25Z</time>
      </trkpt>
      <trkpt lat="47.67294" lon="6.02498">
        <ele>209</ele>
        <time>2010-01-01T01:16:27Z</time>
      </trkpt>
      <trkpt lat="47.67293" lon="6.02491">
        <ele>209</ele>
        <time>2010-01-01T01:16:29Z</time>
      </trkpt>
      <trkpt lat="47.67291" lon="6.02484">
        <ele>209</ele>
        <time>2010-01-01T01:16:31Z</time>
      </trkpt>
      <trkpt lat="47.6729" lon="6.02478">
        <ele>209</ele>
        <time>2010-01-01T01:16:32Z</time>
      </trkpt>
      <trkpt lat="47.67289" lon="6.02471">
        <ele>209</ele>
        <time>2010-01-01T01:16:34Z</time>
      </trkpt>
      <trkpt lat="47.67288" lon="6.02464">
        <ele>209</ele>
        <time>2010-01-01T01:16:36Z</time>
      </trkpt>
      <trkpt lat="47.67287" lon="6.02458">
        <ele>209</ele>
        <time>2010-01-01T01:16:38Z</time>
      </trkpt>
      <trkpt lat="47.67286" lon="6.0245">
        <ele>209</ele>
        <time>2010-01-01T01:16:40Z</time>
      </trkpt>
      <trkpt lat="47.67285" lon="6.02443">
        <ele>209</ele>
        <time>2010-01-01T01:16:42Z</time>
      </trkpt>
      <trkpt lat="47.67284" lon="6.02436">
        <ele>209</ele>
        <time>2010-01-01T01:16:44Z</time>
      </trkpt>
      <trkpt lat="47.67283" lon="6.02429">
        <ele>209</ele>
        <time>2010-01-01T01:16:46Z</time>
      </trkpt>
      <trkpt lat="47.67281" lon="6.02422">
        <ele>209</ele>
        <time>2010-01-01T01:16:48Z</time>
      </trkpt>
      <trkpt lat="47.67279" lon="6.02416">
        <ele>209</ele>
        <time>2010-01-01T01:16:50Z</time>
      </trkpt>
      <trkpt lat="47.67277" lon="6.02409">
        <ele>209</ele>
        <time>2010-01-01T01:16:52Z</time>
      </trkpt>
      <trkpt lat="47.67274" lon="6.02403">
        <ele>209</ele>
        <time>2010-01-01T01:16:54Z</time>
      </trkpt>
      <trkpt lat="47.67272" lon="6.02397">
        <ele>209</ele>
        <time>2010-01-01T01:16:56Z</time>
      </trkpt>
      <trkpt lat="47.67269" lon="6.02391">
        <ele>209</ele>
        <time>2010-01-01T01:16:58Z</time>
      </trkpt>
      <trkpt lat="47.67267" lon="6.02385">
        <ele>209</ele>
        <time>2010-01-01T01:16:59Z</time>
      </trkpt>
      <trkpt lat="47.67264" lon="6.02379">
        <ele>209</ele>
        <time>2010-01-01T01:17:01Z</time>
      </trkpt>
      <trkpt lat="47.67261" lon="6.02373">
        <ele>209</ele>
        <time>2010-01-01T01:17:03Z</time>
      </trkpt>
      <trkpt lat="47.67258" lon="6.02367">
        <ele>209</ele>
        <time>2010-01-01T01:17:05Z</time>
      </trkpt>
      <trkpt lat="47.67255" lon="6.02361">
        <ele>209</ele>
        <time>2010-01-01T01:17:07Z</time>
      </trkpt>
      <trkpt lat="47.67252" lon="6.02355">
        <ele>209</ele>
        <time>2010-01-01T01:17:09Z</time>
      </trkpt>
      <trkpt lat="47.67249" lon="6.02349">
        <ele>209</ele>
        <time>2010-01-01T01:17:12Z</time>
      </trkpt>
      <trkpt lat="47.67246" lon="6.02344">
        <ele>209</ele>
        <time>2010-01-01T01:17:14Z</time>
      </trkpt>
      <trkpt lat="47.67242" lon="6.02338">
        <ele>209</ele>
        <time>2010-01-01T01:17:15Z</time>
      </trkpt>
      <trkpt lat="47.67239" lon="6.02333">
        <ele>209</ele>
        <time>2010-01-01T01:17:17Z</time>
      </trkpt>
      <trkpt lat="47.67236" lon="6.02327">
        <ele>209</ele>
        <time>2010-01-01T01:17:19Z</time>
      </trkpt>
      <trkpt lat="47.67233" lon="6.02321">
        <ele>209</ele>
        <time>2010-01-01T01:17:21Z</time>
      </trkpt>
      <trkpt lat="47.67231" lon="6.02315">
        <ele>209</ele>
        <time>2010-01-01T01:17:23Z</time>
      </trkpt>
      <trkpt lat="47.67227" lon="6.02309">
        <ele>209</ele>
        <time>2010-01-01T01:17:25Z</time>
      </trkpt>
      <trkpt lat="47.67224" lon="6.02303">
        <ele>209</ele>
        <time>2010-01-01T01:17:27Z</time>
      </trkpt>
      <trkpt lat="47.67221" lon="6.02297">
        <ele>209</ele>
        <time>2010-01-01T01:17:29Z</time>
      </trkpt>
      <trkpt lat="47.67218" lon="6.02291">
        <ele>209</ele>
        <time>2010-01-01T01:17:31Z</time>
      </trkpt>
      <trkpt lat="47.67216" lon="6.02286">
        <ele>209</ele>
        <time>2010-01-01T01:17:33Z</time>
      </trkpt>
      <trkpt lat="47.67213" lon="6.0228">
        <ele>209</ele>
        <time>2010-01-01T01:17:35Z</time>
      </trkpt>
      <trkpt lat="47.67209" lon="6.02274">
        <ele>209</ele>
        <time>2010-01-01T01:17:37Z</time>
      </trkpt>
      <trkpt lat="47.67206" lon="6.02268">
        <ele>209</ele>
        <time>2010-01-01T01:17:39Z</time>
      </trkpt>
      <trkpt lat="47.67204" lon="6.02262">
        <ele>209</ele>
        <time>2010-01-01T01:17:41Z</time>
      </trkpt>
      <trkpt lat="47.672" lon="6.02256">
        <ele>209</ele>
        <time>2010-01-01T01:17:43Z</time>
      </trkpt>
      <trkpt lat="47.67197" lon="6.0225">
        <ele>209</ele>
        <time>2010-01-01T01:17:45Z</time>
      </trkpt>
      <trkpt lat="47.67194" lon="6.02244">
        <ele>209</ele>
        <time>2010-01-01T01:17:47Z</time>
      </trkpt>
      <trkpt lat="47.67191" lon="6.02237">
        <ele>209</ele>
        <time>2010-01-01T01:17:49Z</time>
      </trkpt>
      <trkpt lat="47.67189" lon="6.02231">
        <ele>209</ele>
        <time>2010-01-01T01:17:51Z</time>
      </trkpt>
      <trkpt lat="47.67185" lon="6.02225">
        <ele>209</ele>
        <time>2010-01-01T01:17:54Z</time>
      </trkpt>
      <trkpt lat="47.67182" lon="6.02218">
        <ele>209</ele>
        <time>2010-01-01T01:17:56Z</time>
      </trkpt>
      <trkpt lat="47.67179" lon="6.02212">
        <ele>209</ele>
        <time>2010-01-01T01:17:58Z</time>
      </trkpt>
      <trkpt lat="47.67176" lon="6.02206">
        <ele>209</ele>
        <time>2010-01-01T01:18:00Z</time>
      </trkpt>
      <trkpt lat="47.67173" lon="6.02199">
        <ele>209</ele>
        <time>2010-01-01T01:18:02Z</time>
      </trkpt>
      <trkpt lat="47.6717" lon="6.02193">
        <ele>209</ele>
        <time>2010-01-01T01:18:04Z</time>
      </trkpt>
      <trkpt lat="47.67168" lon="6.02186">
        <ele>209</ele>
        <time>2010-01-01T01:18:06Z</time>
      </trkpt>
      <trkpt lat="47.67164" lon="6.0218">
        <ele>209</ele>
        <time>2010-01-01T01:18:08Z</time>
      </trkpt>
      <trkpt lat="47.67162" lon="6.02173">
        <ele>209</ele>
        <time>2010-01-01T01:18:10Z</time>
      </trkpt>
      <trkpt lat="47.67158" lon="6.02166">
        <ele>209</ele>
        <time>2010-01-01T01:18:13Z</time>
      </trkpt>
      <trkpt lat="47.67156" lon="6.02159">
        <ele>209</ele>
        <time>2010-01-01T01:18:15Z</time>
      </trkpt>
      <trkpt lat="47.67153" lon="6.02153">
        <ele>209</ele>
        <time>2010-01-01T01:18:17Z</time>
      </trkpt>
      <trkpt lat="47.6715" lon="6.02147">
        <ele>209</ele>
        <time>2010-01-01T01:18:19Z</time>
      </trkpt>
      <trkpt lat="47.67147" lon="6.02141">
        <ele>209</ele>
        <time>2010-01-01T01:18:21Z</time>
      </trkpt>
      <trkpt lat="47.67145" lon="6.02135">
        <ele>209</ele>
        <time>2010-01-01T01:18:23Z</time>
      </trkpt>
      <trkpt lat="47.67142" lon="6.02129">
        <ele>209</ele>
        <time>2010-01-01T01:18:25Z</time>
      </trkpt>
      <trkpt lat="47.67139" lon="6.02122">
        <ele>209</ele>
        <time>2010-01-01T01:18:27Z</time>
      </trkpt>
      <trkpt lat="47.67136" lon="6.02116">
        <ele>209</ele>
        <time>2010-01-01T01:18:29Z</time>
      </trkpt>
      <trkpt lat="47.67133" lon="6.02109">
        <ele>209</ele>
        <time>2010-01-01T01:18:31Z</time>
      </trkpt>
      <trkpt lat="47.6713" lon="6.02103">
        <ele>209</ele>
        <time>2010-01-01T01:18:33Z</time>
      </trkpt>
      <trkpt lat="47.67128" lon="6.02097">
        <ele>209</ele>
        <time>2010-01-01T01:18:35Z</time>
      </trkpt>
      <trkpt lat="47.67126" lon="6.02091">
        <ele>209</ele>
        <time>2010-01-01T01:18:37Z</time>
      </trkpt>
      <trkpt lat="47.67123" lon="6.02085">
        <ele>209</ele>
        <time>2010-01-01T01:18:39Z</time>
      </trkpt>
      <trkpt lat="47.6712" lon="6.0208">
        <ele>209</ele>
        <time>2010-01-01T01:18:41Z</time>
      </trkpt>
      <trkpt lat="47.67117" lon="6.02073">
        <ele>209</ele>
        <time>2010-01-01T01:18:43Z</time>
      </trkpt>
      <trkpt lat="47.67114" lon="6.02067">
        <ele>209</ele>
        <time>2010-01-01T01:18:45Z</time>
      </trkpt>
      <trkpt lat="47.67111" lon="6.02061">
        <ele>209</ele>
        <time>2010-01-01T01:18:47Z</time>
      </trkpt>
      <trkpt lat="47.67108" lon="6.02054">
        <ele>209</ele>
        <time>2010-01-01T01:18:49Z</time>
      </trkpt>
      <trkpt lat="47.67105" lon="6.02048">
        <ele>209</ele>
        <time>2010-01-01T01:18:51Z</time>
      </trkpt>
      <trkpt lat="47.67102" lon="6.02042">
        <ele>209</ele>
        <time>2010-01-01T01:18:53Z</time>
      </trkpt>
      <trkpt lat="47.67099" lon="6.02036">
        <ele>209</ele>
        <time>2010-01-01T01:18:55Z</time>
      </trkpt>
      <trkpt lat="47.67096" lon="6.02029">
        <ele>209</ele>
        <time>2010-01-01T01:18:57Z</time>
      </trkpt>
      <trkpt lat="47.67093" lon="6.02022">
        <ele>209</ele>
        <time>2010-01-01T01:19:00Z</time>
      </trkpt>
      <trkpt lat="47.6709" lon="6.02015">
        <ele>209</ele>
        <time>2010-01-01T01:19:02Z</time>
      </trkpt>
      <trkpt lat="47.67088" lon="6.02008">
        <ele>209</ele>
        <time>2010-01-01T01:19:04Z</time>
      </trkpt>
      <trkpt lat="47.67088" lon="6.02">
        <ele>209</ele>
        <time>2010-01-01T01:19:06Z</time>
      </trkpt>
      <trkpt lat="47.67088" lon="6.01992">
        <ele>209</ele>
        <time>2010-01-01T01:19:08Z</time>
      </trkpt>
      <trkpt lat="47.6709" lon="6.01985">
        <ele>209</ele>
        <time>2010-01-01T01:19:10Z</time>
      </trkpt>
      <trkpt lat="47.67092" lon="6.01977">
        <ele>209</ele>
        <time>2010-01-01T01:19:13Z</time>
      </trkpt>
      <trkpt lat="47.67096" lon="6.01971">
        <ele>209</ele>
        <time>2010-01-01T01:19:15Z</time>
      </trkpt>
      <trkpt lat="47.67099" lon="6.01965">
        <ele>209</ele>
        <time>2010-01-01T01:19:17Z</time>
      </trkpt>
      <trkpt lat="47.67101" lon="6.01958">
        <ele>209</ele>
        <time>2010-01-01T01:19:19Z</time>
      </trkpt>
      <trkpt lat="47.67104" lon="6.01952">
        <ele>209</ele>
        <time>2010-01-01T01:19:21Z</time>
      </trkpt>
      <trkpt lat="47.67106" lon="6.01945">
        <ele>209</ele>
        <time>2010-01-01T01:19:23Z</time>
      </trkpt>
      <trkpt lat="47.67109" lon="6.01939">
        <ele>209</ele>
        <time>2010-01-01T01:19:25Z</time>
      </trkpt>
      <trkpt lat="47.67112" lon="6.01932">
        <ele>209</ele>
        <time>2010-01-01T01:19:27Z</time>
      </trkpt>
      <trkpt lat="47.67114" lon="6.01925">
        <ele>209</ele>
        <time>2010-01-01T01:19:29Z</time>
      </trkpt>
      <trkpt lat="47.67117" lon="6.01918">
        <ele>209</ele>
        <time>2010-01-01T01:19:31Z</time>
      </trkpt>
      <trkpt lat="47.67119" lon="6.01911">
        <ele>209</ele>
        <time>2010-01-01T01:19:33Z</time>
      </trkpt>
      <trkpt lat="47.67121" lon="6.01905">
        <ele>209</ele>
        <time>2010-01-01T01:19:35Z</time>
      </trkpt>
      <trkpt lat="47.67124" lon="6.01899">
        <ele>209</ele>
        <time>2010-01-01T01:19:37Z</time>
      </trkpt>
      <trkpt lat="47.67127" lon="6.01892">
        <ele>209</ele>
        <time>2010-01-01T01:19:40Z</time>
      </trkpt>
      <trkpt lat="47.6713" lon="6.01886">
        <ele>209</ele>
        <time>2010-01-01T01:19:42Z</time>
      </trkpt>
      <trkpt lat="47.67133" lon="6.01879">
        <ele>209</ele>
        <time>2010-01-01T01:19:44Z</time>
      </trkpt>
      <trkpt lat="47.67136" lon="6.01873">
        <ele>209</ele>
        <time>2010-01-01T01:19:46Z</time>
      </trkpt>
      <trkpt lat="47.67138" lon="6.01866">
        <ele>209</ele>
        <time>2010-01-01T01:19:48Z</time>
      </trkpt>
      <trkpt lat="47.67141" lon="6.01859">
        <ele>209</ele>
        <time>2010-01-01T01:19:50Z</time>
      </trkpt>
      <trkpt lat="47.67144" lon="6.01852">
        <ele>209</ele>
        <time>2010-01-01T01:19:52Z</time>
      </trkpt>
      <trkpt lat="47.67146" lon="6.01846">
        <ele>209</ele>
        <time>2010-01-01T01:19:54Z</time>
      </trkpt>
      <trkpt lat="47.67149" lon="6.01839">
        <ele>209</ele>
        <time>2010-01-01T01:19:56Z</time>
      </trkpt>
      <trkpt lat="47.67151" lon="6.01832">
        <ele>209</ele>
        <time>2010-01-01T01:19:58Z</time>
      </trkpt>
      <trkpt lat="47.67154" lon="6.01825">
        <ele>209</ele>
        <time>2010-01-01T01:20:00Z</time>
      </trkpt>
      <trkpt lat="47.67156" lon="6.01818">
        <ele>209</ele>
        <time>2010-01-01T01:20:03Z</time>
      </trkpt>
      <trkpt lat="47.67159" lon="6.01811">
        <ele>209</ele>
        <time>2010-01-01T01:20:05Z</time>
      </trkpt>
      <trkpt lat="47.67161" lon="6.01805">
        <ele>209</ele>
        <time>2010-01-01T01:20:07Z</time>
      </trkpt>
      <trkpt lat="47.67163" lon="6.01799">
        <ele>209</ele>
        <time>2010-01-01T01:20:09Z</time>
      </trkpt>
      <trkpt lat="47.67165" lon="6.01793">
        <ele>209</ele>
        <time>2010-01-01T01:20:10Z</time>
      </trkpt>
      <trkpt lat="47.67166" lon="6.01789">
        <ele>209</ele>
        <time>2010-01-01T01:20:12Z</time>
      </trkpt>
      <trkpt lat="47.67166" lon="6.01785">
        <ele>209</ele>
        <time>2010-01-01T01:20:13Z</time>
      </trkpt>
      <trkpt lat="47.67165" lon="6.01782">
        <ele>209</ele>
        <time>2010-01-01T01:20:13Z</time>
      </trkpt>
      <trkpt lat="47.67165" lon="6.0178">
        <ele>209</ele>
        <time>2010-01-01T01:20:14Z</time>
      </trkpt>
      <trkpt lat="47.67165" lon="6.01781">
        <ele>209</ele>
        <time>2010-01-01T01:20:14Z</time>
      </trkpt>
      <trkpt lat="47.67165" lon="6.0178">
        <ele>209</ele>
        <time>2010-01-01T01:20:15Z</time>
      </trkpt>
      <trkpt lat="47.67164" lon="6.01777">
        <ele>209</ele>
        <time>2010-01-01T01:20:15Z</time>
      </trkpt>
      <trkpt lat="47.67163" lon="6.01775">
        <ele>209</ele>
        <time>2010-01-01T01:20:16Z</time>
      </trkpt>
      <trkpt lat="47.67161" lon="6.01773">
        <ele>209</ele>
        <time>2010-01-01T01:20:17Z</time>
      </trkpt>
      <trkpt lat="47.67159" lon="6.0177">
        <ele>209</ele>
        <time>2010-01-01T01:20:18Z</time>
      </trkpt>
      <trkpt lat="47.67157" lon="6.01767">
        <ele>209</ele>
        <time>2010-01-01T01:20:19Z</time>
      </trkpt>
      <trkpt lat="47.67154" lon="6.01764">
        <ele>209</ele>
        <time>2010-01-01T01:20:21Z</time>
      </trkpt>
      <trkpt lat="47.67151" lon="6.01761">
        <ele>209</ele>
        <time>2010-01-01T01:20:22Z</time>
      </trkpt>
      <trkpt lat="47.67148" lon="6.01758">
        <ele>209</ele>
        <time>2010-01-01T01:20:24Z</time>
      </trkpt>
      <trkpt lat="47.67144" lon="6.01755">
        <ele>209</ele>
        <time>2010-01-01T01:20:25Z</time>
      </trkpt>
      <trkpt lat="47.67141" lon="6.01751">
        <ele>209</ele>
        <time>2010-01-01T01:20:27Z</time>
      </trkpt>
      <trkpt lat="47.67137" lon="6.01748">
        <ele>209</ele>
        <time>2010-01-01T01:20:29Z</time>
      </trkpt>
      <trkpt lat="47.67133" lon="6.01745">
        <ele>209</ele>
        <time>2010-01-01T01:20:30Z</time>
      </trkpt>
      <trkpt lat="47.6713" lon="6.01741">
        <ele>209</ele>
        <time>2010-01-01T01:20:32Z</time>
      </trkpt>
      <trkpt lat="47.67126" lon="6.01738">
        <ele>209</ele>
        <time>2010-01-01T01:20:34Z</time>
      </trkpt>
      <trkpt lat="47.67122" lon="6.01735">
        <ele>209</ele>
        <time>2010-01-01T01:20:36Z</time>
      </trkpt>
      <trkpt lat="47.67118" lon="6.01731">
        <ele>209</ele>
        <time>2010-01-01T01:20:38Z</time>
      </trkpt>
      <trkpt lat="47.67115" lon="6.01727">
        <ele>209</ele>
        <time>2010-01-01T01:20:39Z</time>
      </trkpt>
      <trkpt lat="47.67111" lon="6.01724">
        <ele>209</ele>
        <time>2010-01-01T01:20:41Z</time>
      </trkpt>
      <trkpt lat="47.67107" lon="6.01721">
        <ele>209</ele>
        <time>2010-01-01T01:20:43Z</time>
      </trkpt>
      <trkpt lat="47.67103" lon="6.01717">
        <ele>209</ele>
        <time>2010-01-01T01:20:45Z</time>
      </trkpt>
      <trkpt lat="47.67099" lon="6.01713">
        <ele>209</ele>
        <time>2010-01-01T01:20:47Z</time>
      </trkpt>
      <trkpt lat="47.67094" lon="6.0171">
        <ele>209</ele>
        <time>2010-01-01T01:20:49Z</time>
      </trkpt>
      <trkpt lat="47.6709" lon="6.01707">
        <ele>209</ele>
        <time>2010-01-01T01:20:51Z</time>
      </trkpt>
      <trkpt lat="47.67086" lon="6.01703">
        <ele>209</ele>
        <time>2010-01-01T01:20:52Z</time>
      </trkpt>
      <trkpt lat="47.67082" lon="6.017">
        <ele>209</ele>
        <time>2010-01-01T01:20:54Z</time>
      </trkpt>
      <trkpt lat="47.67078" lon="6.01696">
        <ele>209</ele>
        <time>2010-01-01T01:20:56Z</time>
      </trkpt>
      <trkpt lat="47.67073" lon="6.01693">
        <ele>209</ele>
        <time>2010-01-01T01:20:58Z</time>
      </trkpt>
      <trkpt lat="47.67069" lon="6.01689">
        <ele>209</ele>
        <time>2010-01-01T01:21:00Z</time>
      </trkpt>
      <trkpt lat="47.67065" lon="6.01686">
        <ele>209</ele>
        <time>2010-01-01T01:21:02Z</time>
      </trkpt>
      <trkpt lat="47.67061" lon="6.01683">
        <ele>209</ele>
        <time>2010-01-01T01:21:04Z</time>
      </trkpt>
      <trkpt lat="47.67057" lon="6.0168">
        <ele>209</ele>
        <time>2010-01-01T01:21:06Z</time>
      </trkpt>
      <trkpt lat="47.67053" lon="6.01676">
        <ele>209</ele>
        <time>2010-01-01T01:21:08Z</time>
      </trkpt>
      <trkpt lat="47.67048" lon="6.01672">
        <ele>209</ele>
        <time>2010-01-01T01:21:10Z</time>
      </trkpt>
      <trkpt lat="47.67044" lon="6.01669">
        <ele>209</ele>
        <time>2010-01-01T01:21:12Z</time>
      </trkpt>
      <trkpt lat="47.67039" lon="6.01665">
        <ele>209</ele>
        <time>2010-01-01T01:21:14Z</time>
      </trkpt>
      <trkpt lat="47.67035" lon="6.01661">
        <ele>209</ele>
        <time>2010-01-01T01:21:16Z</time>
      </trkpt>
      <trkpt lat="47.67031" lon="6.01658">
        <ele>209</ele>
        <time>2010-01-01T01:21:18Z</time>
      </trkpt>
      <trkpt lat="47.67026" lon="6.01654">
        <ele>210</ele>
        <time>2010-01-01T01:21:20Z</time>
      </trkpt>
      <trkpt lat="47.67022" lon="6.01651">
        <ele>210</ele>
        <time>2010-01-01T01:21:22Z</time>
      </trkpt>
      <trkpt lat="47.67018" lon="6.01647">
        <ele>211</ele>
        <time>2010-01-01T01:21:24Z</time>
      </trkpt>
      <trkpt lat="47.67013" lon="6.01643">
        <ele>211</ele>
        <time>2010-01-01T01:21:26Z</time>
      </trkpt>
      <trkpt lat="47.67009" lon="6.01639">
        <ele>211</ele>
        <time>2010-01-01T01:21:28Z</time>
      </trkpt>
      <trkpt lat="47.67004" lon="6.01636">
        <ele>211</ele>
        <time>2010-01-01T01:21:30Z</time>
      </trkpt>
      <trkpt lat="47.67" lon="6.01632">
        <ele>211</ele>
        <time>2010-01-01T01:21:32Z</time>
      </trkpt>
      <trkpt lat="47.66996" lon="6.01628">
        <ele>211</ele>
        <time>2010-01-01T01:21:34Z</time>
      </trkpt>
      <trkpt lat="47.66992" lon="6.01625">
        <ele>211</ele>
        <time>2010-01-01T01:21:36Z</time>
      </trkpt>
      <trkpt lat="47.66987" lon="6.01621">
        <ele>211</ele>
        <time>2010-01-01T01:21:38Z</time>
      </trkpt>
      <trkpt lat="47.66983" lon="6.01618">
        <ele>211</ele>
        <time>2010-01-01T01:21:40Z</time>
      </trkpt>
      <trkpt lat="47.66979" lon="6.01615">
        <ele>211</ele>
        <time>2010-01-01T01:21:42Z</time>
      </trkpt>
      <trkpt lat="47.66974" lon="6.01612">
        <ele>211</ele>
        <time>2010-01-01T01:21:44Z</time>
      </trkpt>
      <trkpt lat="47.6697" lon="6.01608">
        <ele>211</ele>
        <time>2010-01-01T01:21:46Z</time>
      </trkpt>
      <trkpt lat="47.66965" lon="6.01605">
        <ele>211</ele>
        <time>2010-01-01T01:21:48Z</time>
      </trkpt>
      <trkpt lat="47.66961" lon="6.01601">
        <ele>211</ele>
        <time>2010-01-01T01:21:50Z</time>
      </trkpt>
      <trkpt lat="47.66957" lon="6.01598">
        <ele>211</ele>
        <time>2010-01-01T01:21:51Z</time>
      </trkpt>
      <trkpt lat="47.66953" lon="6.01595">
        <ele>211</ele>
        <time>2010-01-01T01:21:53Z</time>
      </trkpt>
      <trkpt lat="47.66949" lon="6.01591">
        <ele>211</ele>
        <time>2010-01-01T01:21:55Z</time>
      </trkpt>
      <trkpt lat="47.66945" lon="6.01587">
        <ele>211</ele>
        <time>2010-01-01T01:21:57Z</time>
      </trkpt>
      <trkpt lat="47.66941" lon="6.01583">
        <ele>211</ele>
        <time>2010-01-01T01:21:59Z</time>
      </trkpt>
      <trkpt lat="47.66937" lon="6.0158">
        <ele>211</ele>
        <time>2010-01-01T01:22:01Z</time>
      </trkpt>
      <trkpt lat="47.66933" lon="6.01576">
        <ele>211</ele>
        <time>2010-01-01T01:22:03Z</time>
      </trkpt>
      <trkpt lat="47.66929" lon="6.01572">
        <ele>211</ele>
        <time>2010-01-01T01:22:05Z</time>
      </trkpt>
      <trkpt lat="47.66925" lon="6.01569">
        <ele>211</ele>
        <time>2010-01-01T01:22:06Z</time>
      </trkpt>
      <trkpt lat="47.66921" lon="6.01566">
        <ele>211</ele>
        <time>2010-01-01T01:22:08Z</time>
      </trkpt>
      <trkpt lat="47.66917" lon="6.01562">
        <ele>211</ele>
        <time>2010-01-01T01:22:10Z</time>
      </trkpt>
      <trkpt lat="47.66913" lon="6.01559">
        <ele>211</ele>
        <time>2010-01-01T01:22:12Z</time>
      </trkpt>
      <trkpt lat="47.66909" lon="6.01556">
        <ele>211</ele>
        <time>2010-01-01T01:22:14Z</time>
      </trkpt>
      <trkpt lat="47.66905" lon="6.01553">
        <ele>211</ele>
        <time>2010-01-01T01:22:15Z</time>
      </trkpt>
      <trkpt lat="47.66902" lon="6.01549">
        <ele>211</ele>
        <time>2010-01-01T01:22:17Z</time>
      </trkpt>
      <trkpt lat="47.66898" lon="6.01546">
        <ele>211</ele>
        <time>2010-01-01T01:22:19Z</time>
      </trkpt>
      <trkpt lat="47.66894" lon="6.01543">
        <ele>211</ele>
        <time>2010-01-01T01:22:21Z</time>
      </trkpt>
      <trkpt lat="47.6689" lon="6.01539">
        <ele>211</ele>
        <time>2010-01-01T01:22:22Z</time>
      </trkpt>
      <trkpt lat="47.66886" lon="6.01536">
        <ele>211</ele>
        <time>2010-01-01T01:22:24Z</time>
      </trkpt>
      <trkpt lat="47.66883" lon="6.01533">
        <ele>211</ele>
        <time>2010-01-01T01:22:26Z</time>
      </trkpt>
      <trkpt lat="47.66879" lon="6.01529">
        <ele>211</ele>
        <time>2010-01-01T01:22:28Z</time>
      </trkpt>
      <trkpt lat="47.66876" lon="6.01526">
        <ele>211</ele>
        <time>2010-01-01T01:22:29Z</time>
      </trkpt>
      <trkpt lat="47.66872" lon="6.01523">
        <ele>211</ele>
        <time>2010-01-01T01:22:31Z</time>
      </trkpt>
      <trkpt lat="47.66869" lon="6.0152">
        <ele>211</ele>
        <time>2010-01-01T01:22:33Z</time>
      </trkpt>
      <trkpt lat="47.66865" lon="6.01517">
        <ele>211</ele>
        <time>2010-01-01T01:22:34Z</time>
      </trkpt>
      <trkpt lat="47.66862" lon="6.01514">
        <ele>211</ele>
        <time>2010-01-01T01:22:36Z</time>
      </trkpt>
      <trkpt lat="47.66858" lon="6.01512">
        <ele>211</ele>
        <time>2010-01-01T01:22:38Z</time>
      </trkpt>
      <trkpt lat="47.66854" lon="6.01509">
        <ele>211</ele>
        <time>2010-01-01T01:22:39Z</time>
      </trkpt>
      <trkpt lat="47.6685" lon="6.01506">
        <ele>211</ele>
        <time>2010-01-01T01:22:41Z</time>
      </trkpt>
      <trkpt lat="47.66846" lon="6.01504">
        <ele>211</ele>
        <time>2010-01-01T01:22:43Z</time>
      </trkpt>
      <trkpt lat="47.66842" lon="6.01501">
        <ele>212</ele>
        <time>2010-01-01T01:22:44Z</time>
      </trkpt>
      <trkpt lat="47.66838" lon="6.01499">
        <ele>212</ele>
        <time>2010-01-01T01:22:46Z</time>
      </trkpt>
      <trkpt lat="47.66834" lon="6.01497">
        <ele>212</ele>
        <time>2010-01-01T01:22:48Z</time>
      </trkpt>
      <trkpt lat="47.6683" lon="6.01495">
        <ele>213</ele>
        <time>2010-01-01T01:22:49Z</time>
      </trkpt>
      <trkpt lat="47.66826" lon="6.01492">
        <ele>213</ele>
        <time>2010-01-01T01:22:51Z</time>
      </trkpt>
      <trkpt lat="47.66822" lon="6.0149">
        <ele>213</ele>
        <time>2010-01-01T01:22:53Z</time>
      </trkpt>
      <trkpt lat="47.66818" lon="6.01488">
        <ele>213</ele>
        <time>2010-01-01T01:22:55Z</time>
      </trkpt>
      <trkpt lat="47.66814" lon="6.01487">
        <ele>213</ele>
        <time>2010-01-01T01:22:56Z</time>
      </trkpt>
      <trkpt lat="47.66809" lon="6.01485">
        <ele>213</ele>
        <time>2010-01-01T01:22:58Z</time>
      </trkpt>
      <trkpt lat="47.66805" lon="6.01483">
        <ele>213</ele>
        <time>2010-01-01T01:23:00Z</time>
      </trkpt>
      <trkpt lat="47.668" lon="6.01482">
        <ele>213</ele>
        <time>2010-01-01T01:23:02Z</time>
      </trkpt>
      <trkpt lat="47.66796" lon="6.0148">
        <ele>213</ele>
        <time>2010-01-01T01:23:04Z</time>
      </trkpt>
      <trkpt lat="47.66791" lon="6.01479">
        <ele>213</ele>
        <time>2010-01-01T01:23:06Z</time>
      </trkpt>
      <trkpt lat="47.66786" lon="6.01478">
        <ele>213</ele>
        <time>2010-01-01T01:23:08Z</time>
      </trkpt>
      <trkpt lat="47.66782" lon="6.01477">
        <ele>214</ele>
        <time>2010-01-01T01:23:09Z</time>
      </trkpt>
      <trkpt lat="47.66778" lon="6.01475">
        <ele>214</ele>
        <time>2010-01-01T01:23:11Z</time>
      </trkpt>
      <trkpt lat="47.66773" lon="6.01475">
        <ele>214</ele>
        <time>2010-01-01T01:23:13Z</time>
      </trkpt>
      <trkpt lat="47.66769" lon="6.01473">
        <ele>215</ele>
        <time>2010-01-01T01:23:15Z</time>
      </trkpt>
      <trkpt lat="47.66765" lon="6.01472">
        <ele>215</ele>
        <time>2010-01-01T01:23:16Z</time>
      </trkpt>
      <trkpt lat="47.6676" lon="6.01471">
        <ele>215</ele>
        <time>2010-01-01T01:23:18Z</time>
      </trkpt>
      <trkpt lat="47.66756" lon="6.0147">
        <ele>215</ele>
        <time>2010-01-01T01:23:20Z</time>
      </trkpt>
      <trkpt lat="47.66752" lon="6.01468">
        <ele>215</ele>
        <time>2010-01-01T01:23:22Z</time>
      </trkpt>
      <trkpt lat="47.66747" lon="6.01467">
        <ele>215</ele>
        <time>2010-01-01T01:23:24Z</time>
      </trkpt>
      <trkpt lat="47.66743" lon="6.01465">
        <ele>215</ele>
        <time>2010-01-01T01:23:26Z</time>
      </trkpt>
      <trkpt lat="47.66738" lon="6.01463">
        <ele>215</ele>
        <time>2010-01-01T01:23:27Z</time>
      </trkpt>
      <trkpt lat="47.66733" lon="6.01461">
        <ele>215</ele>
        <time>2010-01-01T01:23:29Z</time>
      </trkpt>
      <trkpt lat="47.66729" lon="6.01459">
        <ele>215</ele>
        <time>2010-01-01T01:23:31Z</time>
      </trkpt>
      <trkpt lat="47.66725" lon="6.01458">
        <ele>215</ele>
        <time>2010-01-01T01:23:33Z</time>
      </trkpt>
      <trkpt lat="47.6672" lon="6.01456">
        <ele>215</ele>
        <time>2010-01-01T01:23:35Z</time>
      </trkpt>
      <trkpt lat="47.66716" lon="6.01454">
        <ele>215</ele>
        <time>2010-01-01T01:23:37Z</time>
      </trkpt>
      <trkpt lat="47.66711" lon="6.01452">
        <ele>215</ele>
        <time>2010-01-01T01:23:39Z</time>
      </trkpt>
      <trkpt lat="47.66707" lon="6.0145">
        <ele>215</ele>
        <time>2010-01-01T01:23:41Z</time>
      </trkpt>
      <trkpt lat="47.66702" lon="6.01447">
        <ele>215</ele>
        <time>2010-01-01T01:23:42Z</time>
      </trkpt>
      <trkpt lat="47.66698" lon="6.01445">
        <ele>215</ele>
        <time>2010-01-01T01:23:44Z</time>
      </trkpt>
      <trkpt lat="47.66693" lon="6.01443">
        <ele>215</ele>
        <time>2010-01-01T01:23:46Z</time>
      </trkpt>
      <trkpt lat="47.66689" lon="6.01441">
        <ele>215</ele>
        <time>2010-01-01T01:23:48Z</time>
      </trkpt>
      <trkpt lat="47.66684" lon="6.01438">
        <ele>215</ele>
        <time>2010-01-01T01:23:50Z</time>
      </trkpt>
      <trkpt lat="47.6668" lon="6.01436">
        <ele>215</ele>
        <time>2010-01-01T01:23:52Z</time>
      </trkpt>
      <trkpt lat="47.66676" lon="6.01434">
        <ele>215</ele>
        <time>2010-01-01T01:23:54Z</time>
      </trkpt>
      <trkpt lat="47.66671" lon="6.01432">
        <ele>215</ele>
        <time>2010-01-01T01:23:55Z</time>
      </trkpt>
      <trkpt lat="47.66667" lon="6.0143">
        <ele>215</ele>
        <time>2010-01-01T01:23:57Z</time>
      </trkpt>
      <trkpt lat="47.66662" lon="6.01427">
        <ele>215</ele>
        <time>2010-01-01T01:23:59Z</time>
      </trkpt>
      <trkpt lat="47.66658" lon="6.01425">
        <ele>215</ele>
        <time>2010-01-01T01:24:01Z</time>
      </trkpt>
      <trkpt lat="47.66653" lon="6.01422">
        <ele>215</ele>
        <time>2010-01-01T01:24:03Z</time>
      </trkpt>
      <trkpt lat="47.66649" lon="6.0142">
        <ele>215</ele>
        <time>2010-01-01T01:24:05Z</time>
      </trkpt>
      <trkpt lat="47.66644" lon="6.01417">
        <ele>216</ele>
        <time>2010-01-01T01:24:07Z</time>
      </trkpt>
      <trkpt lat="47.6664" lon="6.01415">
        <ele>216</ele>
        <time>2010-01-01T01:24:09Z</time>
      </trkpt>
      <trkpt lat="47.66636" lon="6.01412">
        <ele>217</ele>
        <time>2010-01-01T01:24:11Z</time>
      </trkpt>
      <trkpt lat="47.66632" lon="6.0141">
        <ele>217</ele>
        <time>2010-01-01T01:24:12Z</time>
      </trkpt>
      <trkpt lat="47.66627" lon="6.01407">
        <ele>217</ele>
        <time>2010-01-01T01:24:14Z</time>
      </trkpt>
      <trkpt lat="47.66623" lon="6.01405">
        <ele>217</ele>
        <time>2010-01-01T01:24:16Z</time>
      </trkpt>
      <trkpt lat="47.66618" lon="6.01402">
        <ele>217</ele>
        <time>2010-01-01T01:24:18Z</time>
      </trkpt>
      <trkpt lat="47.66613" lon="6.01399">
        <ele>217</ele>
        <time>2010-01-01T01:24:20Z</time>
      </trkpt>
      <trkpt lat="47.66609" lon="6.01396">
        <ele>217</ele>
        <time>2010-01-01T01:24:22Z</time>
      </trkpt>
      <trkpt lat="47.66604" lon="6.01393">
        <ele>217</ele>
        <time>2010-01-01T01:24:24Z</time>
      </trkpt>
      <trkpt lat="47.666" lon="6.0139">
        <ele>217</ele>
        <time>2010-01-01T01:24:26Z</time>
      </trkpt>
      <trkpt lat="47.66595" lon="6.01388">
        <ele>217</ele>
        <time>2010-01-01T01:24:28Z</time>
      </trkpt>
      <trkpt lat="47.66591" lon="6.01385">
        <ele>217</ele>
        <time>2010-01-01T01:24:30Z</time>
      </trkpt>
      <trkpt lat="47.66586" lon="6.01381">
        <ele>217</ele>
        <time>2010-01-01T01:24:32Z</time>
      </trkpt>
      <trkpt lat="47.66581" lon="6.01378">
        <ele>217</ele>
        <time>2010-01-01T01:24:34Z</time>
      </trkpt>
      <trkpt lat="47.66576" lon="6.01375">
        <ele>217</ele>
        <time>2010-01-01T01:24:36Z</time>
      </trkpt>
      <trkpt lat="47.66572" lon="6.01372">
        <ele>217</ele>
        <time>2010-01-01T01:24:38Z</time>
      </trkpt>
      <trkpt lat="47.66567" lon="6.0137">
        <ele>217</ele>
        <time>2010-01-01T01:24:40Z</time>
      </trkpt>
      <trkpt lat="47.66563" lon="6.01367">
        <ele>217</ele>
        <time>2010-01-01T01:24:42Z</time>
      </trkpt>
      <trkpt lat="47.66558" lon="6.01364">
        <ele>217</ele>
        <time>2010-01-01T01:24:44Z</time>
      </trkpt>
      <trkpt lat="47.66554" lon="6.01362">
        <ele>217</ele>
        <time>2010-01-01T01:24:46Z</time>
      </trkpt>
      <trkpt lat="47.6655" lon="6.01359">
        <ele>217</ele>
        <time>2010-01-01T01:24:48Z</time>
      </trkpt>
      <trkpt lat="47.66546" lon="6.01356">
        <ele>217</ele>
        <time>2010-01-01T01:24:50Z</time>
      </trkpt>
      <trkpt lat="47.66541" lon="6.01353">
        <ele>217</ele>
        <time>2010-01-01T01:24:52Z</time>
      </trkpt>
      <trkpt lat="47.66537" lon="6.01351">
        <ele>217</ele>
        <time>2010-01-01T01:24:54Z</time>
      </trkpt>
      <trkpt lat="47.66532" lon="6.01348">
        <ele>217</ele>
        <time>2010-01-01T01:24:55Z</time>
      </trkpt>
      <trkpt lat="47.66528" lon="6.01346">
        <ele>217</ele>
        <time>2010-01-01T01:24:57Z</time>
      </trkpt>
      <trkpt lat="47.66523" lon="6.01343">
        <ele>217</ele>
        <time>2010-01-01T01:25:00Z</time>
      </trkpt>
      <trkpt lat="47.66518" lon="6.01341">
        <ele>217</ele>
        <time>2010-01-01T01:25:02Z</time>
      </trkpt>
      <trkpt lat="47.66512" lon="6.01338">
        <ele>217</ele>
        <time>2010-01-01T01:25:04Z</time>
      </trkpt>
      <trkpt lat="47.66508" lon="6.01336">
        <ele>217</ele>
        <time>2010-01-01T01:25:06Z</time>
      </trkpt>
      <trkpt lat="47.66503" lon="6.01334">
        <ele>217</ele>
        <time>2010-01-01T01:25:08Z</time>
      </trkpt>
      <trkpt lat="47.66497" lon="6.01332">
        <ele>217</ele>
        <time>2010-01-01T01:25:10Z</time>
      </trkpt>
      <trkpt lat="47.66492" lon="6.0133">
        <ele>217</ele>
        <time>2010-01-01T01:25:12Z</time>
      </trkpt>
      <trkpt lat="47.66487" lon="6.0133">
        <ele>217</ele>
        <time>2010-01-01T01:25:14Z</time>
      </trkpt>
      <trkpt lat="47.66481" lon="6.01329">
        <ele>217</ele>
        <time>2010-01-01T01:25:17Z</time>
      </trkpt>
      <trkpt lat="47.66476" lon="6.01327">
        <ele>217</ele>
        <time>2010-01-01T01:25:19Z</time>
      </trkpt>
      <trkpt lat="47.66471" lon="6.01327">
        <ele>217</ele>
        <time>2010-01-01T01:25:21Z</time>
      </trkpt>
      <trkpt lat="47.66466" lon="6.01326">
        <ele>217</ele>
        <time>2010-01-01T01:25:23Z</time>
      </trkpt>
      <trkpt lat="47.66461" lon="6.01325">
        <ele>217</ele>
        <time>2010-01-01T01:25:25Z</time>
      </trkpt>
      <trkpt lat="47.66455" lon="6.01324">
        <ele>217</ele>
        <time>2010-01-01T01:25:27Z</time>
      </trkpt>
      <trkpt lat="47.6645" lon="6.01323">
        <ele>217</ele>
        <time>2010-01-01T01:25:29Z</time>
      </trkpt>
      <trkpt lat="47.66445" lon="6.01322">
        <ele>217</ele>
        <time>2010-01-01T01:25:31Z</time>
      </trkpt>
      <trkpt lat="47.6644" lon="6.01322">
        <ele>217</ele>
        <time>2010-01-01T01:25:33Z</time>
      </trkpt>
      <trkpt lat="47.66435" lon="6.01321">
        <ele>217</ele>
        <time>2010-01-01T01:25:35Z</time>
      </trkpt>
      <trkpt lat="47.6643" lon="6.01321">
        <ele>217</ele>
        <time>2010-01-01T01:25:37Z</time>
      </trkpt>
      <trkpt lat="47.66426" lon="6.0132">
        <ele>217</ele>
        <time>2010-01-01T01:25:39Z</time>
      </trkpt>
      <trkpt lat="47.66421" lon="6.01319">
        <ele>217</ele>
        <time>2010-01-01T01:25:41Z</time>
      </trkpt>
      <trkpt lat="47.66416" lon="6.01318">
        <ele>217</ele>
        <time>2010-01-01T01:25:43Z</time>
      </trkpt>
      <trkpt lat="47.66412" lon="6.01318">
        <ele>217</ele>
        <time>2010-01-01T01:25:45Z</time>
      </trkpt>
      <trkpt lat="47.66408" lon="6.01317">
        <ele>218</ele>
        <time>2010-01-01T01:25:46Z</time>
      </trkpt>
      <trkpt lat="47.66404" lon="6.01317">
        <ele>218</ele>
        <time>2010-01-01T01:25:48Z</time>
      </trkpt>
      <trkpt lat="47.66399" lon="6.01316">
        <ele>219</ele>
        <time>2010-01-01T01:25:50Z</time>
      </trkpt>
      <trkpt lat="47.66395" lon="6.01316">
        <ele>219</ele>
        <time>2010-01-01T01:25:51Z</time>
      </trkpt>
      <trkpt lat="47.66392" lon="6.01316">
        <ele>219</ele>
        <time>2010-01-01T01:25:53Z</time>
      </trkpt>
      <trkpt lat="47.66388" lon="6.01315">
        <ele>219</ele>
        <time>2010-01-01T01:25:54Z</time>
      </trkpt>
      <trkpt lat="47.66383" lon="6.01315">
        <ele>219</ele>
        <time>2010-01-01T01:25:56Z</time>
      </trkpt>
      <trkpt lat="47.66379" lon="6.01315">
        <ele>219</ele>
        <time>2010-01-01T01:25:58Z</time>
      </trkpt>
      <trkpt lat="47.66375" lon="6.01314">
        <ele>219</ele>
        <time>2010-01-01T01:25:59Z</time>
      </trkpt>
      <trkpt lat="47.66371" lon="6.01313">
        <ele>219</ele>
        <time>2010-01-01T01:26:01Z</time>
      </trkpt>
      <trkpt lat="47.66366" lon="6.01313">
        <ele>219</ele>
        <time>2010-01-01T01:26:03Z</time>
      </trkpt>
      <trkpt lat="47.66362" lon="6.01312">
        <ele>220</ele>
        <time>2010-01-01T01:26:05Z</time>
      </trkpt>
      <trkpt lat="47.66358" lon="6.01312">
        <ele>220</ele>
        <time>2010-01-01T01:26:06Z</time>
      </trkpt>
      <trkpt lat="47.66354" lon="6.01312">
        <ele>221</ele>
        <time>2010-01-01T01:26:08Z</time>
      </trkpt>
      <trkpt lat="47.66351" lon="6.01311">
        <ele>221</ele>
        <time>2010-01-01T01:26:09Z</time>
      </trkpt>
      <trkpt lat="47.66347" lon="6.01311">
        <ele>222</ele>
        <time>2010-01-01T01:26:11Z</time>
      </trkpt>
      <trkpt lat="47.66342" lon="6.0131">
        <ele>222</ele>
        <time>2010-01-01T01:26:13Z</time>
      </trkpt>
      <trkpt lat="47.66338" lon="6.0131">
        <ele>222</ele>
        <time>2010-01-01T01:26:14Z</time>
      </trkpt>
      <trkpt lat="47.66334" lon="6.0131">
        <ele>222</ele>
        <time>2010-01-01T01:26:16Z</time>
      </trkpt>
      <trkpt lat="47.66329" lon="6.01309">
        <ele>222</ele>
        <time>2010-01-01T01:26:18Z</time>
      </trkpt>
      <trkpt lat="47.66326" lon="6.01308">
        <ele>222</ele>
        <time>2010-01-01T01:26:19Z</time>
      </trkpt>
      <trkpt lat="47.66322" lon="6.01308">
        <ele>222</ele>
        <time>2010-01-01T01:26:21Z</time>
      </trkpt>
      <trkpt lat="47.66318" lon="6.01308">
        <ele>222</ele>
        <time>2010-01-01T01:26:22Z</time>
      </trkpt>
      <trkpt lat="47.66314" lon="6.01307">
        <ele>222</ele>
        <time>2010-01-01T01:26:24Z</time>
      </trkpt>
      <trkpt lat="47.6631" lon="6.01306">
        <ele>222</ele>
        <time>2010-01-01T01:26:26Z</time>
      </trkpt>
      <trkpt lat="47.66306" lon="6.01305">
        <ele>223</ele>
        <time>2010-01-01T01:26:27Z</time>
      </trkpt>
      <trkpt lat="47.66302" lon="6.01304">
        <ele>223</ele>
        <time>2010-01-01T01:26:29Z</time>
      </trkpt>
      <trkpt lat="47.66298" lon="6.01303">
        <ele>224</ele>
        <time>2010-01-01T01:26:31Z</time>
      </trkpt>
      <trkpt lat="47.66294" lon="6.01303">
        <ele>224</ele>
        <time>2010-01-01T01:26:32Z</time>
      </trkpt>
      <trkpt lat="47.6629" lon="6.01301">
        <ele>224</ele>
        <time>2010-01-01T01:26:34Z</time>
      </trkpt>
      <trkpt lat="47.66286" lon="6.013">
        <ele>224</ele>
        <time>2010-01-01T01:26:35Z</time>
      </trkpt>
      <trkpt lat="47.66282" lon="6.01299">
        <ele>224</ele>
        <time>2010-01-01T01:26:37Z</time>
      </trkpt>
      <trkpt lat="47.66278" lon="6.01297">
        <ele>224</ele>
        <time>2010-01-01T01:26:39Z</time>
      </trkpt>
      <trkpt lat="47.66274" lon="6.01296">
        <ele>224</ele>
        <time>2010-01-01T01:26:40Z</time>
      </trkpt>
      <trkpt lat="47.6627" lon="6.01294">
        <ele>225</ele>
        <time>2010-01-01T01:26:42Z</time>
      </trkpt>
      <trkpt lat="47.66266" lon="6.01293">
        <ele>225</ele>
        <time>2010-01-01T01:26:43Z</time>
      </trkpt>
      <trkpt lat="47.66263" lon="6.01291">
        <ele>225</ele>
        <time>2010-01-01T01:26:45Z</time>
      </trkpt>
      <trkpt lat="47.66259" lon="6.01289">
        <ele>226</ele>
        <time>2010-01-01T01:26:47Z</time>
      </trkpt>
      <trkpt lat="47.66255" lon="6.01286">
        <ele>226</ele>
        <time>2010-01-01T01:26:48Z</time>
      </trkpt>
      <trkpt lat="47.66251" lon="6.01284">
        <ele>226</ele>
        <time>2010-01-01T01:26:50Z</time>
      </trkpt>
      <trkpt lat="47.66247" lon="6.01282">
        <ele>226</ele>
        <time>2010-01-01T01:26:52Z</time>
      </trkpt>
      <trkpt lat="47.66243" lon="6.01279">
        <ele>226</ele>
        <time>2010-01-01T01:26:54Z</time>
      </trkpt>
      <trkpt lat="47.66239" lon="6.01276">
        <ele>226</ele>
        <time>2010-01-01T01:26:55Z</time>
      </trkpt>
      <trkpt lat="47.66235" lon="6.01274">
        <ele>226</ele>
        <time>2010-01-01T01:26:57Z</time>
      </trkpt>
      <trkpt lat="47.66232" lon="6.0127">
        <ele>226</ele>
        <time>2010-01-01T01:26:59Z</time>
      </trkpt>
      <trkpt lat="47.66228" lon="6.01267">
        <ele>226</ele>
        <time>2010-01-01T01:27:00Z</time>
      </trkpt>
      <trkpt lat="47.66224" lon="6.01263">
        <ele>226</ele>
        <time>2010-01-01T01:27:02Z</time>
      </trkpt>
      <trkpt lat="47.66221" lon="6.01259">
        <ele>226</ele>
        <time>2010-01-01T01:27:04Z</time>
      </trkpt>
      <trkpt lat="47.66217" lon="6.01256">
        <ele>226</ele>
        <time>2010-01-01T01:27:06Z</time>
      </trkpt>
      <trkpt lat="47.66214" lon="6.01252">
        <ele>226</ele>
        <time>2010-01-01T01:27:07Z</time>
      </trkpt>
      <trkpt lat="47.6621" lon="6.01248">
        <ele>226</ele>
        <time>2010-01-01T01:27:09Z</time>
      </trkpt>
      <trkpt lat="47.66207" lon="6.01245">
        <ele>227</ele>
        <time>2010-01-01T01:27:11Z</time>
      </trkpt>
      <trkpt lat="47.66203" lon="6.01241">
        <ele>227</ele>
        <time>2010-01-01T01:27:12Z</time>
      </trkpt>
      <trkpt lat="47.662" lon="6.01236">
        <ele>228</ele>
        <time>2010-01-01T01:27:14Z</time>
      </trkpt>
      <trkpt lat="47.66196" lon="6.01232">
        <ele>228</ele>
        <time>2010-01-01T01:27:16Z</time>
      </trkpt>
      <trkpt lat="47.66192" lon="6.01228">
        <ele>228</ele>
        <time>2010-01-01T01:27:18Z</time>
      </trkpt>
      <trkpt lat="47.66189" lon="6.01224">
        <ele>228</ele>
        <time>2010-01-01T01:27:20Z</time>
      </trkpt>
      <trkpt lat="47.66185" lon="6.0122">
        <ele>228</ele>
        <time>2010-01-01T01:27:22Z</time>
      </trkpt>
      <trkpt lat="47.66182" lon="6.01216">
        <ele>228</ele>
        <time>2010-01-01T01:27:23Z</time>
      </trkpt>
      <trkpt lat="47.66178" lon="6.01211">
        <ele>228</ele>
        <time>2010-01-01T01:27:25Z</time>
      </trkpt>
      <trkpt lat="47.66175" lon="6.01206">
        <ele>228</ele>
        <time>2010-01-01T01:27:27Z</time>
      </trkpt>
      <trkpt lat="47.66172" lon="6.01201">
        <ele>228</ele>
        <time>2010-01-01T01:27:29Z</time>
      </trkpt>
      <trkpt lat="47.66168" lon="6.01197">
        <ele>228</ele>
        <time>2010-01-01T01:27:31Z</time>
      </trkpt>
      <trkpt lat="47.66164" lon="6.01192">
        <ele>228</ele>
        <time>2010-01-01T01:27:33Z</time>
      </trkpt>
      <trkpt lat="47.6616" lon="6.01188">
        <ele>228</ele>
        <time>2010-01-01T01:27:35Z</time>
      </trkpt>
      <trkpt lat="47.66156" lon="6.01183">
        <ele>228</ele>
        <time>2010-01-01T01:27:37Z</time>
      </trkpt>
      <trkpt lat="47.66153" lon="6.01178">
        <ele>228</ele>
        <time>2010-01-01T01:27:39Z</time>
      </trkpt>
      <trkpt lat="47.66149" lon="6.01173">
        <ele>228</ele>
        <time>2010-01-01T01:27:41Z</time>
      </trkpt>
      <trkpt lat="47.66145" lon="6.01169">
        <ele>228</ele>
        <time>2010-01-01T01:27:43Z</time>
      </trkpt>
      <trkpt lat="47.66141" lon="6.01164">
        <ele>228</ele>
        <time>2010-01-01T01:27:45Z</time>
      </trkpt>
      <trkpt lat="47.66137" lon="6.01159">
        <ele>228</ele>
        <time>2010-01-01T01:27:47Z</time>
      </trkpt>
      <trkpt lat="47.66134" lon="6.01155">
        <ele>228</ele>
        <time>2010-01-01T01:27:49Z</time>
      </trkpt>
      <trkpt lat="47.6613" lon="6.0115">
        <ele>228</ele>
        <time>2010-01-01T01:27:51Z</time>
      </trkpt>
      <trkpt lat="47.66126" lon="6.01145">
        <ele>228</ele>
        <time>2010-01-01T01:27:53Z</time>
      </trkpt>
      <trkpt lat="47.66122" lon="6.0114">
        <ele>228</ele>
        <time>2010-01-01T01:27:55Z</time>
      </trkpt>
      <trkpt lat="47.66118" lon="6.01135">
        <ele>228</ele>
        <time>2010-01-01T01:27:57Z</time>
      </trkpt>
      <trkpt lat="47.66114" lon="6.01129">
        <ele>228</ele>
        <time>2010-01-01T01:27:59Z</time>
      </trkpt>
      <trkpt lat="47.66109" lon="6.01124">
        <ele>228</ele>
        <time>2010-01-01T01:28:02Z</time>
      </trkpt>
      <trkpt lat="47.66105" lon="6.01119">
        <ele>228</ele>
        <time>2010-01-01T01:28:04Z</time>
      </trkpt>
      <trkpt lat="47.66101" lon="6.01114">
        <ele>228</ele>
        <time>2010-01-01T01:28:06Z</time>
      </trkpt>
      <trkpt lat="47.66096" lon="6.01109">
        <ele>228</ele>
        <time>2010-01-01T01:28:08Z</time>
      </trkpt>
      <trkpt lat="47.66092" lon="6.01103">
        <ele>228</ele>
        <time>2010-01-01T01:28:10Z</time>
      </trkpt>
      <trkpt lat="47.66088" lon="6.01098">
        <ele>228</ele>
        <time>2010-01-01T01:28:13Z</time>
      </trkpt>
      <trkpt lat="47.66084" lon="6.01093">
        <ele>228</ele>
        <time>2010-01-01T01:28:15Z</time>
      </trkpt>
      <trkpt lat="47.66079" lon="6.01087">
        <ele>228</ele>
        <time>2010-01-01T01:28:17Z</time>
      </trkpt>
      <trkpt lat="47.66075" lon="6.01081">
        <ele>228</ele>
        <time>2010-01-01T01:28:19Z</time>
      </trkpt>
      <trkpt lat="47.6607" lon="6.01076">
        <ele>228</ele>
        <time>2010-01-01T01:28:22Z</time>
      </trkpt>
      <trkpt lat="47.66066" lon="6.01071">
        <ele>227</ele>
        <time>2010-01-01T01:28:24Z</time>
      </trkpt>
      <trkpt lat="47.66062" lon="6.01065">
        <ele>227</ele>
        <time>2010-01-01T01:28:26Z</time>
      </trkpt>
      <trkpt lat="47.66057" lon="6.0106">
        <ele>226</ele>
        <time>2010-01-01T01:28:29Z</time>
      </trkpt>
      <trkpt lat="47.66053" lon="6.01054">
        <ele>226</ele>
        <time>2010-01-01T01:28:31Z</time>
      </trkpt>
      <trkpt lat="47.66048" lon="6.01049">
        <ele>226</ele>
        <time>2010-01-01T01:28:33Z</time>
      </trkpt>
      <trkpt lat="47.66044" lon="6.01043">
        <ele>226</ele>
        <time>2010-01-01T01:28:36Z</time>
      </trkpt>
      <trkpt lat="47.66039" lon="6.01037">
        <ele>226</ele>
        <time>2010-01-01T01:28:38Z</time>
      </trkpt>
      <trkpt lat="47.66035" lon="6.01031">
        <ele>226</ele>
        <time>2010-01-01T01:28:41Z</time>
      </trkpt>
      <trkpt lat="47.6603" lon="6.01025">
        <ele>226</ele>
        <time>2010-01-01T01:28:43Z</time>
      </trkpt>
      <trkpt lat="47.66025" lon="6.01019">
        <ele>226</ele>
        <time>2010-01-01T01:28:46Z</time>
      </trkpt>
      <trkpt lat="47.66021" lon="6.01013">
        <ele>225</ele>
        <time>2010-01-01T01:28:48Z</time>
      </trkpt>
      <trkpt lat="47.66016" lon="6.01007">
        <ele>225</ele>
        <time>2010-01-01T01:28:51Z</time>
      </trkpt>
      <trkpt lat="47.66011" lon="6.01001">
        <ele>224</ele>
        <time>2010-01-01T01:28:53Z</time>
      </trkpt>
      <trkpt lat="47.66007" lon="6.00995">
        <ele>224</ele>
        <time>2010-01-01T01:28:55Z</time>
      </trkpt>
      <trkpt lat="47.66002" lon="6.0099">
        <ele>224</ele>
        <time>2010-01-01T01:28:58Z</time>
      </trkpt>
      <trkpt lat="47.65998" lon="6.00985">
        <ele>224</ele>
        <time>2010-01-01T01:29:00Z</time>
      </trkpt>
      <trkpt lat="47.65994" lon="6.00979">
        <ele>224</ele>
        <time>2010-01-01T01:29:02Z</time>
      </trkpt>
      <trkpt lat="47.65989" lon="6.00974">
        <ele>224</ele>
        <time>2010-01-01T01:29:04Z</time>
      </trkpt>
      <trkpt lat="47.65986" lon="6.0097">
        <ele>224</ele>
        <time>2010-01-01T01:29:06Z</time>
      </trkpt>
      <trkpt lat="47.65983" lon="6.00965">
        <ele>224</ele>
        <time>2010-01-01T01:29:08Z</time>
      </trkpt>
      <trkpt lat="47.65982" lon="6.0096">
        <ele>224</ele>
        <time>2010-01-01T01:29:09Z</time>
      </trkpt>
      <trkpt lat="47.65984" lon="6.00955">
        <ele>224</ele>
        <time>2010-01-01T01:29:11Z</time>
      </trkpt>
      <trkpt lat="47.65986" lon="6.00952">
        <ele>223</ele>
        <time>2010-01-01T01:29:12Z</time>
      </trkpt>
      <trkpt lat="47.65989" lon="6.00951">
        <ele>223</ele>
        <time>2010-01-01T01:29:13Z</time>
      </trkpt>
      <trkpt lat="47.65992" lon="6.0095">
        <ele>222</ele>
        <time>2010-01-01T01:29:14Z</time>
      </trkpt>
      <trkpt lat="47.65995" lon="6.00949">
        <ele>222</ele>
        <time>2010-01-01T01:29:16Z</time>
      </trkpt>
      <trkpt lat="47.65998" lon="6.00947">
        <ele>222</ele>
        <time>2010-01-01T01:29:17Z</time>
      </trkpt>
      <trkpt lat="47.66001" lon="6.00947">
        <ele>222</ele>
        <time>2010-01-01T01:29:18Z</time>
      </trkpt>
      <trkpt lat="47.66004" lon="6.00946">
        <ele>222</ele>
        <time>2010-01-01T01:29:19Z</time>
      </trkpt>
      <trkpt lat="47.66007" lon="6.00946">
        <ele>222</ele>
        <time>2010-01-01T01:29:20Z</time>
      </trkpt>
      <trkpt lat="47.66009" lon="6.00947">
        <ele>222</ele>
        <time>2010-01-01T01:29:21Z</time>
      </trkpt>
      <trkpt lat="47.66012" lon="6.00947">
        <ele>222</ele>
        <time>2010-01-01T01:29:23Z</time>
      </trkpt>
      <trkpt lat="47.66015" lon="6.00948">
        <ele>222</ele>
        <time>2010-01-01T01:29:24Z</time>
      </trkpt>
      <trkpt lat="47.66018" lon="6.00949">
        <ele>222</ele>
        <time>2010-01-01T01:29:25Z</time>
      </trkpt>
      <trkpt lat="47.66021" lon="6.0095">
        <ele>222</ele>
        <time>2010-01-01T01:29:26Z</time>
      </trkpt>
      <trkpt lat="47.66024" lon="6.00952">
        <ele>222</ele>
        <time>2010-01-01T01:29:27Z</time>
      </trkpt>
      <trkpt lat="47.66026" lon="6.00954">
        <ele>222</ele>
        <time>2010-01-01T01:29:29Z</time>
      </trkpt>
      <trkpt lat="47.66029" lon="6.00956">
        <ele>222</ele>
        <time>2010-01-01T01:29:30Z</time>
      </trkpt>
      <trkpt lat="47.66031" lon="6.00958">
        <ele>222</ele>
        <time>2010-01-01T01:29:31Z</time>
      </trkpt>
      <trkpt lat="47.66032" lon="6.00959">
        <ele>222</ele>
        <time>2010-01-01T01:29:31Z</time>
      </trkpt>
      <trkpt lat="47.66033" lon="6.0096">
        <ele>222</ele>
        <time>2010-01-01T01:29:32Z</time>
      </trkpt>
      <trkpt lat="47.66034" lon="6.00961">
        <ele>222</ele>
        <time>2010-01-01T01:29:32Z</time>
      </trkpt>
      <trkpt lat="47.66036" lon="6.00961">
        <ele>222</ele>
        <time>2010-01-01T01:29:33Z</time>
      </trkpt>
      <trkpt lat="47.66037" lon="6.00962">
        <ele>222</ele>
        <time>2010-01-01T01:29:33Z</time>
      </trkpt>
      <trkpt lat="47.66039" lon="6.00964">
        <ele>222</ele>
        <time>2010-01-01T01:29:34Z</time>
      </trkpt>
      <trkpt lat="47.66041" lon="6.00966">
        <ele>222</ele>
        <time>2010-01-01T01:29:35Z</time>
      </trkpt>
      <trkpt lat="47.66043" lon="6.00968">
        <ele>222</ele>
        <time>2010-01-01T01:29:36Z</time>
      </trkpt>
      <trkpt lat="47.66046" lon="6.0097">
        <ele>222</ele>
        <time>2010-01-01T01:29:37Z</time>
      </trkpt>
      <trkpt lat="47.66048" lon="6.00972">
        <ele>222</ele>
        <time>2010-01-01T01:29:39Z</time>
      </trkpt>
      <trkpt lat="47.66051" lon="6.00975">
        <ele>222</ele>
        <time>2010-01-01T01:29:40Z</time>
      </trkpt>
      <trkpt lat="47.66053" lon="6.00977">
        <ele>222</ele>
        <time>2010-01-01T01:29:41Z</time>
      </trkpt>
      <trkpt lat="47.66056" lon="6.0098">
        <ele>222</ele>
        <time>2010-01-01T01:29:42Z</time>
      </trkpt>
      <trkpt lat="47.66059" lon="6.00982">
        <ele>222</ele>
        <time>2010-01-01T01:29:44Z</time>
      </trkpt>
      <trkpt lat="47.66062" lon="6.00984">
        <ele>222</ele>
        <time>2010-01-01T01:29:45Z</time>
      </trkpt>
      <trkpt lat="47.66065" lon="6.00987">
        <ele>222</ele>
        <time>2010-01-01T01:29:47Z</time>
      </trkpt>
      <trkpt lat="47.66068" lon="6.0099">
        <ele>222</ele>
        <time>2010-01-01T01:29:48Z</time>
      </trkpt>
      <trkpt lat="47.66072" lon="6.00993">
        <ele>222</ele>
        <time>2010-01-01T01:29:50Z</time>
      </trkpt>
      <trkpt lat="47.66075" lon="6.00997">
        <ele>222</ele>
        <time>2010-01-01T01:29:51Z</time>
      </trkpt>
      <trkpt lat="47.66078" lon="6.01">
        <ele>222</ele>
        <time>2010-01-01T01:29:53Z</time>
      </trkpt>
      <trkpt lat="47.66082" lon="6.01004">
        <ele>222</ele>
        <time>2010-01-01T01:29:55Z</time>
      </trkpt>
      <trkpt lat="47.66085" lon="6.01007">
        <ele>222</ele>
        <time>2010-01-01T01:29:56Z</time>
      </trkpt>
      <trkpt lat="47.66089" lon="6.01011">
        <ele>222</ele>
        <time>2010-01-01T01:29:58Z</time>
      </trkpt>
      <trkpt lat="47.66093" lon="6.01015">
        <ele>222</ele>
        <time>2010-01-01T01:30:00Z</time>
      </trkpt>
      <trkpt lat="47.66097" lon="6.01018">
        <ele>222</ele>
        <time>2010-01-01T01:30:02Z</time>
      </trkpt>
      <trkpt lat="47.66101" lon="6.01022">
        <ele>222</ele>
        <time>2010-01-01T01:30:04Z</time>
      </trkpt>
      <trkpt lat="47.66105" lon="6.01025">
        <ele>222</ele>
        <time>2010-01-01T01:30:05Z</time>
      </trkpt>
      <trkpt lat="47.66108" lon="6.01028">
        <ele>222</ele>
        <time>2010-01-01T01:30:07Z</time>
      </trkpt>
      <trkpt lat="47.66112" lon="6.01032">
        <ele>222</ele>
        <time>2010-01-01T01:30:09Z</time>
      </trkpt>
      <trkpt lat="47.66117" lon="6.01035">
        <ele>222</ele>
        <time>2010-01-01T01:30:11Z</time>
      </trkpt>
      <trkpt lat="47.6612" lon="6.01039">
        <ele>222</ele>
        <time>2010-01-01T01:30:13Z</time>
      </trkpt>
      <trkpt lat="47.66125" lon="6.01042">
        <ele>222</ele>
        <time>2010-01-01T01:30:15Z</time>
      </trkpt>
      <trkpt lat="47.66129" lon="6.01046">
        <ele>222</ele>
        <time>2010-01-01T01:30:17Z</time>
      </trkpt>
      <trkpt lat="47.66133" lon="6.01049">
        <ele>222</ele>
        <time>2010-01-01T01:30:18Z</time>
      </trkpt>
      <trkpt lat="47.66137" lon="6.01052">
        <ele>222</ele>
        <time>2010-01-01T01:30:20Z</time>
      </trkpt>
      <trkpt lat="47.66142" lon="6.01054">
        <ele>222</ele>
        <time>2010-01-01T01:30:22Z</time>
      </trkpt>
      <trkpt lat="47.66146" lon="6.01056">
        <ele>222</ele>
        <time>2010-01-01T01:30:24Z</time>
      </trkpt>
      <trkpt lat="47.66151" lon="6.01056">
        <ele>222</ele>
        <time>2010-01-01T01:30:26Z</time>
      </trkpt>
      <trkpt lat="47.66156" lon="6.01056">
        <ele>222</ele>
        <time>2010-01-01T01:30:28Z</time>
      </trkpt>
      <trkpt lat="47.6616" lon="6.01056">
        <ele>222</ele>
        <time>2010-01-01T01:30:30Z</time>
      </trkpt>
      <trkpt lat="47.66165" lon="6.01056">
        <ele>222</ele>
        <time>2010-01-01T01:30:32Z</time>
      </trkpt>
      <trkpt lat="47.6617" lon="6.01055">
        <ele>222</ele>
        <time>2010-01-01T01:30:34Z</time>
      </trkpt>
      <trkpt lat="47.66175" lon="6.01054">
        <ele>222</ele>
        <time>2010-01-01T01:30:36Z</time>
      </trkpt>
      <trkpt lat="47.6618" lon="6.01054">
        <ele>222</ele>
        <time>2010-01-01T01:30:38Z</time>
      </trkpt>
      <trkpt lat="47.66185" lon="6.01054">
        <ele>222</ele>
        <time>2010-01-01T01:30:39Z</time>
      </trkpt>
      <trkpt lat="47.66189" lon="6.01054">
        <ele>222</ele>
        <time>2010-01-01T01:30:41Z</time>
      </trkpt>
      <trkpt lat="47.66194" lon="6.01053">
        <ele>222</ele>
        <time>2010-01-01T01:30:43Z</time>
      </trkpt>
      <trkpt lat="47.66198" lon="6.01053">
        <ele>222</ele>
        <time>2010-01-01T01:30:45Z</time>
      </trkpt>
      <trkpt lat="47.66203" lon="6.01052">
        <ele>222</ele>
        <time>2010-01-01T01:30:47Z</time>
      </trkpt>
      <trkpt lat="47.66207" lon="6.01052">
        <ele>222</ele>
        <time>2010-01-01T01:30:48Z</time>
      </trkpt>
      <trkpt lat="47.66211" lon="6.01052">
        <ele>222</ele>
        <time>2010-01-01T01:30:50Z</time>
      </trkpt>
      <trkpt lat="47.66216" lon="6.01051">
        <ele>222</ele>
        <time>2010-01-01T01:30:52Z</time>
      </trkpt>
      <trkpt lat="47.66221" lon="6.01051">
        <ele>222</ele>
        <time>2010-01-01T01:30:54Z</time>
      </trkpt>
      <trkpt lat="47.66225" lon="6.01051">
        <ele>222</ele>
        <time>2010-01-01T01:30:56Z</time>
      </trkpt>
      <trkpt lat="47.6623" lon="6.01051">
        <ele>222</ele>
        <time>2010-01-01T01:30:58Z</time>
      </trkpt>
      <trkpt lat="47.66234" lon="6.01051">
        <ele>222</ele>
        <time>2010-01-01T01:30:59Z</time>
      </trkpt>
      <trkpt lat="47.66239" lon="6.01051">
        <ele>222</ele>
        <time>2010-01-01T01:31:01Z</time>
      </trkpt>
      <trkpt lat="47.66244" lon="6.01051">
        <ele>222</ele>
        <time>2010-01-01T01:31:03Z</time>
      </trkpt>
      <trkpt lat="47.66248" lon="6.0105">
        <ele>222</ele>
        <time>2010-01-01T01:31:05Z</time>
      </trkpt>
      <trkpt lat="47.66253" lon="6.01048">
        <ele>222</ele>
        <time>2010-01-01T01:31:07Z</time>
      </trkpt>
      <trkpt lat="47.66257" lon="6.01045">
        <ele>223</ele>
        <time>2010-01-01T01:31:09Z</time>
      </trkpt>
      <trkpt lat="47.66262" lon="6.01042">
        <ele>223</ele>
        <time>2010-01-01T01:31:11Z</time>
      </trkpt>
      <trkpt lat="47.66266" lon="6.01039">
        <ele>224</ele>
        <time>2010-01-01T01:31:13Z</time>
      </trkpt>
      <trkpt lat="47.6627" lon="6.01036">
        <ele>224</ele>
        <time>2010-01-01T01:31:14Z</time>
      </trkpt>
      <trkpt lat="47.66274" lon="6.01033">
        <ele>224</ele>
        <time>2010-01-01T01:31:16Z</time>
      </trkpt>
      <trkpt lat="47.66279" lon="6.01029">
        <ele>224</ele>
        <time>2010-01-01T01:31:18Z</time>
      </trkpt>
      <trkpt lat="47.66283" lon="6.01026">
        <ele>224</ele>
        <time>2010-01-01T01:31:20Z</time>
      </trkpt>
      <trkpt lat="47.66287" lon="6.01023">
        <ele>224</ele>
        <time>2010-01-01T01:31:22Z</time>
      </trkpt>
      <trkpt lat="47.66291" lon="6.0102">
        <ele>224</ele>
        <time>2010-01-01T01:31:24Z</time>
      </trkpt>
      <trkpt lat="47.66295" lon="6.01017">
        <ele>224</ele>
        <time>2010-01-01T01:31:26Z</time>
      </trkpt>
      <trkpt lat="47.66299" lon="6.01014">
        <ele>224</ele>
        <time>2010-01-01T01:31:28Z</time>
      </trkpt>
      <trkpt lat="47.66303" lon="6.01011">
        <ele>224</ele>
        <time>2010-01-01T01:31:29Z</time>
      </trkpt>
      <trkpt lat="47.66307" lon="6.01008">
        <ele>224</ele>
        <time>2010-01-01T01:31:31Z</time>
      </trkpt>
      <trkpt lat="47.66311" lon="6.01004">
        <ele>224</ele>
        <time>2010-01-01T01:31:33Z</time>
      </trkpt>
      <trkpt lat="47.66315" lon="6.01001">
        <ele>224</ele>
        <time>2010-01-01T01:31:35Z</time>
      </trkpt>
      <trkpt lat="47.66319" lon="6.00997">
        <ele>224</ele>
        <time>2010-01-01T01:31:37Z</time>
      </trkpt>
      <trkpt lat="47.66323" lon="6.00994">
        <ele>224</ele>
        <time>2010-01-01T01:31:39Z</time>
      </trkpt>
      <trkpt lat="47.66327" lon="6.00991">
        <ele>224</ele>
        <time>2010-01-01T01:31:40Z</time>
      </trkpt>
      <trkpt lat="47.66332" lon="6.00988">
        <ele>224</ele>
        <time>2010-01-01T01:31:42Z</time>
      </trkpt>
      <trkpt lat="47.66336" lon="6.00985">
        <ele>224</ele>
        <time>2010-01-01T01:31:44Z</time>
      </trkpt>
      <trkpt lat="47.66341" lon="6.00982">
        <ele>224</ele>
        <time>2010-01-01T01:31:46Z</time>
      </trkpt>
      <trkpt lat="47.66345" lon="6.00978">
        <ele>224</ele>
        <time>2010-01-01T01:31:48Z</time>
      </trkpt>
      <trkpt lat="47.66349" lon="6.00974">
        <ele>224</ele>
        <time>2010-01-01T01:31:50Z</time>
      </trkpt>
      <trkpt lat="47.66353" lon="6.0097">
        <ele>224</ele>
        <time>2010-01-01T01:31:52Z</time>
      </trkpt>
      <trkpt lat="47.66357" lon="6.00966">
        <ele>224</ele>
        <time>2010-01-01T01:31:54Z</time>
      </trkpt>
      <trkpt lat="47.66361" lon="6.00962">
        <ele>224</ele>
        <time>2010-01-01T01:31:56Z</time>
      </trkpt>
      <trkpt lat="47.66365" lon="6.00958">
        <ele>224</ele>
        <time>2010-01-01T01:31:58Z</time>
      </trkpt>
      <trkpt lat="47.66369" lon="6.00954">
        <ele>224</ele>
        <time>2010-01-01T01:32:00Z</time>
      </trkpt>
      <trkpt lat="47.66373" lon="6.0095">
        <ele>224</ele>
        <time>2010-01-01T01:32:02Z</time>
      </trkpt>
      <trkpt lat="47.66377" lon="6.00945">
        <ele>224</ele>
        <time>2010-01-01T01:32:04Z</time>
      </trkpt>
      <trkpt lat="47.6638" lon="6.00939">
        <ele>224</ele>
        <time>2010-01-01T01:32:06Z</time>
      </trkpt>
      <trkpt lat="47.66384" lon="6.00934">
        <ele>224</ele>
        <time>2010-01-01T01:32:08Z</time>
      </trkpt>
      <trkpt lat="47.66387" lon="6.00928">
        <ele>224</ele>
        <time>2010-01-01T01:32:10Z</time>
      </trkpt>
      <trkpt lat="47.6639" lon="6.00923">
        <ele>224</ele>
        <time>2010-01-01T01:32:12Z</time>
      </trkpt>
      <trkpt lat="47.66393" lon="6.00918">
        <ele>224</ele>
        <time>2010-01-01T01:32:14Z</time>
      </trkpt>
      <trkpt lat="47.66397" lon="6.00913">
        <ele>224</ele>
        <time>2010-01-01T01:32:16Z</time>
      </trkpt>
      <trkpt lat="47.664" lon="6.00908">
        <ele>224</ele>
        <time>2010-01-01T01:32:18Z</time>
      </trkpt>
      <trkpt lat="47.66404" lon="6.00903">
        <ele>224</ele>
        <time>2010-01-01T01:32:20Z</time>
      </trkpt>
      <trkpt lat="47.66408" lon="6.00898">
        <ele>224</ele>
        <time>2010-01-01T01:32:22Z</time>
      </trkpt>
      <trkpt lat="47.66411" lon="6.00893">
        <ele>224</ele>
        <time>2010-01-01T01:32:24Z</time>
      </trkpt>
      <trkpt lat="47.66415" lon="6.00888">
        <ele>224</ele>
        <time>2010-01-01T01:32:25Z</time>
      </trkpt>
      <trkpt lat="47.66418" lon="6.00883">
        <ele>224</ele>
        <time>2010-01-01T01:32:27Z</time>
      </trkpt>
      <trkpt lat="47.66421" lon="6.00878">
        <ele>224</ele>
        <time>2010-01-01T01:32:29Z</time>
      </trkpt>
      <trkpt lat="47.66425" lon="6.00874">
        <ele>224</ele>
        <time>2010-01-01T01:32:31Z</time>
      </trkpt>
      <trkpt lat="47.66428" lon="6.00869">
        <ele>224</ele>
        <time>2010-01-01T01:32:33Z</time>
      </trkpt>
      <trkpt lat="47.66432" lon="6.00863">
        <ele>224</ele>
        <time>2010-01-01T01:32:35Z</time>
      </trkpt>
      <trkpt lat="47.66436" lon="6.00859">
        <ele>224</ele>
        <time>2010-01-01T01:32:37Z</time>
      </trkpt>
      <trkpt lat="47.66439" lon="6.00854">
        <ele>224</ele>
        <time>2010-01-01T01:32:39Z</time>
      </trkpt>
      <trkpt lat="47.66443" lon="6.00849">
        <ele>224</ele>
        <time>2010-01-01T01:32:41Z</time>
      </trkpt>
      <trkpt lat="47.66446" lon="6.00844">
        <ele>224</ele>
        <time>2010-01-01T01:32:43Z</time>
      </trkpt>
      <trkpt lat="47.6645" lon="6.00839">
        <ele>225</ele>
        <time>2010-01-01T01:32:45Z</time>
      </trkpt>
      <trkpt lat="47.66453" lon="6.00835">
        <ele>225</ele>
        <time>2010-01-01T01:32:47Z</time>
      </trkpt>
      <trkpt lat="47.66457" lon="6.00829">
        <ele>226</ele>
        <time>2010-01-01T01:32:49Z</time>
      </trkpt>
      <trkpt lat="47.6646" lon="6.00824">
        <ele>226</ele>
        <time>2010-01-01T01:32:51Z</time>
      </trkpt>
      <trkpt lat="47.66463" lon="6.00819">
        <ele>226</ele>
        <time>2010-01-01T01:32:52Z</time>
      </trkpt>
      <trkpt lat="47.66467" lon="6.00814">
        <ele>226</ele>
        <time>2010-01-01T01:32:54Z</time>
      </trkpt>
      <trkpt lat="47.6647" lon="6.00809">
        <ele>226</ele>
        <time>2010-01-01T01:32:56Z</time>
      </trkpt>
      <trkpt lat="47.66473" lon="6.00805">
        <ele>226</ele>
        <time>2010-01-01T01:32:58Z</time>
      </trkpt>
      <trkpt lat="47.66477" lon="6.00799">
        <ele>226</ele>
        <time>2010-01-01T01:33:00Z</time>
      </trkpt>
      <trkpt lat="47.6648" lon="6.00794">
        <ele>226</ele>
        <time>2010-01-01T01:33:02Z</time>
      </trkpt>
      <trkpt lat="47.66483" lon="6.00789">
        <ele>226</ele>
        <time>2010-01-01T01:33:04Z</time>
      </trkpt>
      <trkpt lat="47.66486" lon="6.00784">
        <ele>226</ele>
        <time>2010-01-01T01:33:06Z</time>
      </trkpt>
      <trkpt lat="47.66489" lon="6.0078">
        <ele>226</ele>
        <time>2010-01-01T01:33:07Z</time>
      </trkpt>
      <trkpt lat="47.66492" lon="6.00776">
        <ele>226</ele>
        <time>2010-01-01T01:33:09Z</time>
      </trkpt>
      <trkpt lat="47.66495" lon="6.00772">
        <ele>226</ele>
        <time>2010-01-01T01:33:10Z</time>
      </trkpt>
      <trkpt lat="47.66498" lon="6.00769">
        <ele>226</ele>
        <time>2010-01-01T01:33:12Z</time>
      </trkpt>
      <trkpt lat="47.66501" lon="6.00764">
        <ele>226</ele>
        <time>2010-01-01T01:33:14Z</time>
      </trkpt>
      <trkpt lat="47.66504" lon="6.0076">
        <ele>226</ele>
        <time>2010-01-01T01:33:15Z</time>
      </trkpt>
      <trkpt lat="47.66508" lon="6.00755">
        <ele>226</ele>
        <time>2010-01-01T01:33:17Z</time>
      </trkpt>
      <trkpt lat="47.66511" lon="6.00751">
        <ele>226</ele>
        <time>2010-01-01T01:33:19Z</time>
      </trkpt>
      <trkpt lat="47.66514" lon="6.00747">
        <ele>226</ele>
        <time>2010-01-01T01:33:21Z</time>
      </trkpt>
      <trkpt lat="47.66518" lon="6.00742">
        <ele>226</ele>
        <time>2010-01-01T01:33:23Z</time>
      </trkpt>
      <trkpt lat="47.66521" lon="6.00737">
        <ele>226</ele>
        <time>2010-01-01T01:33:25Z</time>
      </trkpt>
      <trkpt lat="47.66525" lon="6.00731">
        <ele>226</ele>
        <time>2010-01-01T01:33:27Z</time>
      </trkpt>
      <trkpt lat="47.66528" lon="6.00726">
        <ele>226</ele>
        <time>2010-01-01T01:33:29Z</time>
      </trkpt>
      <trkpt lat="47.66531" lon="6.0072">
        <ele>227</ele>
        <time>2010-01-01T01:33:31Z</time>
      </trkpt>
      <trkpt lat="47.66535" lon="6.00713">
        <ele>227</ele>
        <time>2010-01-01T01:33:33Z</time>
      </trkpt>
      <trkpt lat="47.66538" lon="6.00707">
        <ele>228</ele>
        <time>2010-01-01T01:33:35Z</time>
      </trkpt>
      <trkpt lat="47.66541" lon="6.00702">
        <ele>228</ele>
        <time>2010-01-01T01:33:37Z</time>
      </trkpt>
      <trkpt lat="47.66544" lon="6.00696">
        <ele>228</ele>
        <time>2010-01-01T01:33:39Z</time>
      </trkpt>
      <trkpt lat="47.66547" lon="6.00691">
        <ele>228</ele>
        <time>2010-01-01T01:33:41Z</time>
      </trkpt>
      <trkpt lat="47.6655" lon="6.00686">
        <ele>228</ele>
        <time>2010-01-01T01:33:42Z</time>
      </trkpt>
      <trkpt lat="47.66553" lon="6.00682">
        <ele>228</ele>
        <time>2010-01-01T01:33:44Z</time>
      </trkpt>
      <trkpt lat="47.66556" lon="6.00677">
        <ele>228</ele>
        <time>2010-01-01T01:33:46Z</time>
      </trkpt>
      <trkpt lat="47.66558" lon="6.00672">
        <ele>228</ele>
        <time>2010-01-01T01:33:47Z</time>
      </trkpt>
      <trkpt lat="47.6656" lon="6.00666">
        <ele>228</ele>
        <time>2010-01-01T01:33:49Z</time>
      </trkpt>
      <trkpt lat="47.66562" lon="6.00661">
        <ele>228</ele>
        <time>2010-01-01T01:33:51Z</time>
      </trkpt>
      <trkpt lat="47.66564" lon="6.00657">
        <ele>228</ele>
        <time>2010-01-01T01:33:52Z</time>
      </trkpt>
      <trkpt lat="47.66566" lon="6.00653">
        <ele>228</ele>
        <time>2010-01-01T01:33:54Z</time>
      </trkpt>
      <trkpt lat="47.66568" lon="6.00649">
        <ele>228</ele>
        <time>2010-01-01T01:33:55Z</time>
      </trkpt>
      <trkpt lat="47.66569" lon="6.00646">
        <ele>228</ele>
        <time>2010-01-01T01:33:56Z</time>
      </trkpt>
      <trkpt lat="47.66571" lon="6.00643">
        <ele>228</ele>
        <time>2010-01-01T01:33:57Z</time>
      </trkpt>
      <trkpt lat="47.66572" lon="6.00639">
        <ele>228</ele>
        <time>2010-01-01T01:33:58Z</time>
      </trkpt>
      <trkpt lat="47.66573" lon="6.00634">
        <ele>228</ele>
        <time>2010-01-01T01:33:59Z</time>
      </trkpt>
      <trkpt lat="47.66574" lon="6.0063">
        <ele>228</ele>
        <time>2010-01-01T01:34:01Z</time>
      </trkpt>
      <trkpt lat="47.66576" lon="6.00627">
        <ele>228</ele>
        <time>2010-01-01T01:34:02Z</time>
      </trkpt>
      <trkpt lat="47.66576" lon="6.00623">
        <ele>228</ele>
        <time>2010-01-01T01:34:03Z</time>
      </trkpt>
      <trkpt lat="47.66577" lon="6.00619">
        <ele>228</ele>
        <time>2010-01-01T01:34:04Z</time>
      </trkpt>
      <trkpt lat="47.66578" lon="6.00616">
        <ele>228</ele>
        <time>2010-01-01T01:34:05Z</time>
      </trkpt>
      <trkpt lat="47.66579" lon="6.00612">
        <ele>228</ele>
        <time>2010-01-01T01:34:06Z</time>
      </trkpt>
      <trkpt lat="47.6658" lon="6.00608">
        <ele>228</ele>
        <time>2010-01-01T01:34:07Z</time>
      </trkpt>
      <trkpt lat="47.66582" lon="6.00605">
        <ele>229</ele>
        <time>2010-01-01T01:34:08Z</time>
      </trkpt>
      <trkpt lat="47.66583" lon="6.00601">
        <ele>229</ele>
        <time>2010-01-01T01:34:09Z</time>
      </trkpt>
      <trkpt lat="47.66585" lon="6.00597">
        <ele>230</ele>
        <time>2010-01-01T01:34:10Z</time>
      </trkpt>
      <trkpt lat="47.66587" lon="6.00593">
        <ele>230</ele>
        <time>2010-01-01T01:34:12Z</time>
      </trkpt>
      <trkpt lat="47.66588" lon="6.00589">
        <ele>230</ele>
        <time>2010-01-01T01:34:13Z</time>
      </trkpt>
      <trkpt lat="47.6659" lon="6.00585">
        <ele>230</ele>
        <time>2010-01-01T01:34:14Z</time>
      </trkpt>
      <trkpt lat="47.66592" lon="6.00581">
        <ele>230</ele>
        <time>2010-01-01T01:34:16Z</time>
      </trkpt>
      <trkpt lat="47.66595" lon="6.00578">
        <ele>230</ele>
        <time>2010-01-01T01:34:17Z</time>
      </trkpt>
      <trkpt lat="47.66597" lon="6.00574">
        <ele>230</ele>
        <time>2010-01-01T01:34:18Z</time>
      </trkpt>
      <trkpt lat="47.66599" lon="6.0057">
        <ele>230</ele>
        <time>2010-01-01T01:34:20Z</time>
      </trkpt>
      <trkpt lat="47.66601" lon="6.00566">
        <ele>230</ele>
        <time>2010-01-01T01:34:21Z</time>
      </trkpt>
      <trkpt lat="47.66602" lon="6.00561">
        <ele>230</ele>
        <time>2010-01-01T01:34:22Z</time>
      </trkpt>
      <trkpt lat="47.66605" lon="6.00557">
        <ele>230</ele>
        <time>2010-01-01T01:34:24Z</time>
      </trkpt>
      <trkpt lat="47.66607" lon="6.00553">
        <ele>230</ele>
        <time>2010-01-01T01:34:25Z</time>
      </trkpt>
      <trkpt lat="47.66609" lon="6.00549">
        <ele>230</ele>
        <time>2010-01-01T01:34:26Z</time>
      </trkpt>
      <trkpt lat="47.66611" lon="6.00545">
        <ele>230</ele>
        <time>2010-01-01T01:34:28Z</time>
      </trkpt>
      <trkpt lat="47.66613" lon="6.00541">
        <ele>230</ele>
        <time>2010-01-01T01:34:29Z</time>
      </trkpt>
      <trkpt lat="47.66615" lon="6.00537">
        <ele>230</ele>
        <time>2010-01-01T01:34:31Z</time>
      </trkpt>
      <trkpt lat="47.66617" lon="6.00533">
        <ele>230</ele>
        <time>2010-01-01T01:34:32Z</time>
      </trkpt>
      <trkpt lat="47.66619" lon="6.00529">
        <ele>230</ele>
        <time>2010-01-01T01:34:33Z</time>
      </trkpt>
      <trkpt lat="47.66621" lon="6.00525">
        <ele>230</ele>
        <time>2010-01-01T01:34:35Z</time>
      </trkpt>
      <trkpt lat="47.66623" lon="6.00521">
        <ele>230</ele>
        <time>2010-01-01T01:34:36Z</time>
      </trkpt>
      <trkpt lat="47.66625" lon="6.00517">
        <ele>230</ele>
        <time>2010-01-01T01:34:37Z</time>
      </trkpt>
      <trkpt lat="47.66627" lon="6.00513">
        <ele>230</ele>
        <time>2010-01-01T01:34:39Z</time>
      </trkpt>
      <trkpt lat="47.6663" lon="6.00508">
        <ele>230</ele>
        <time>2010-01-01T01:34:40Z</time>
      </trkpt>
      <trkpt lat="47.66632" lon="6.00504">
        <ele>230</ele>
        <time>2010-01-01T01:34:42Z</time>
      </trkpt>
      <trkpt lat="47.66635" lon="6.00499">
        <ele>230</ele>
        <time>2010-01-01T01:34:43Z</time>
      </trkpt>
      <trkpt lat="47.66637" lon="6.00494">
        <ele>230</ele>
        <time>2010-01-01T01:34:45Z</time>
      </trkpt>
      <trkpt lat="47.6664" lon="6.00489">
        <ele>231</ele>
        <time>2010-01-01T01:34:47Z</time>
      </trkpt>
      <trkpt lat="47.66642" lon="6.00484">
        <ele>231</ele>
        <time>2010-01-01T01:34:49Z</time>
      </trkpt>
      <trkpt lat="47.66645" lon="6.0048">
        <ele>232</ele>
        <time>2010-01-01T01:34:50Z</time>
      </trkpt>
      <trkpt lat="47.66648" lon="6.00475">
        <ele>232</ele>
        <time>2010-01-01T01:34:52Z</time>
      </trkpt>
      <trkpt lat="47.66651" lon="6.0047">
        <ele>232</ele>
        <time>2010-01-01T01:34:54Z</time>
      </trkpt>
      <trkpt lat="47.66653" lon="6.00466">
        <ele>232</ele>
        <time>2010-01-01T01:34:55Z</time>
      </trkpt>
      <trkpt lat="47.66656" lon="6.00461">
        <ele>232</ele>
        <time>2010-01-01T01:34:57Z</time>
      </trkpt>
      <trkpt lat="47.66659" lon="6.00457">
        <ele>232</ele>
        <time>2010-01-01T01:34:58Z</time>
      </trkpt>
      <trkpt lat="47.66661" lon="6.00453">
        <ele>232</ele>
        <time>2010-01-01T01:35:00Z</time>
      </trkpt>
      <trkpt lat="47.66664" lon="6.00449">
        <ele>232</ele>
        <time>2010-01-01T01:35:01Z</time>
      </trkpt>
      <trkpt lat="47.66667" lon="6.00446">
        <ele>232</ele>
        <time>2010-01-01T01:35:03Z</time>
      </trkpt>
      <trkpt lat="47.6667" lon="6.00442">
        <ele>232</ele>
        <time>2010-01-01T01:35:05Z</time>
      </trkpt>
      <trkpt lat="47.66673" lon="6.00438">
        <ele>232</ele>
        <time>2010-01-01T01:35:06Z</time>
      </trkpt>
      <trkpt lat="47.66676" lon="6.00434">
        <ele>232</ele>
        <time>2010-01-01T01:35:08Z</time>
      </trkpt>
      <trkpt lat="47.66678" lon="6.0043">
        <ele>232</ele>
        <time>2010-01-01T01:35:09Z</time>
      </trkpt>
      <trkpt lat="47.66681" lon="6.00426">
        <ele>232</ele>
        <time>2010-01-01T01:35:11Z</time>
      </trkpt>
      <trkpt lat="47.66684" lon="6.00422">
        <ele>232</ele>
        <time>2010-01-01T01:35:12Z</time>
      </trkpt>
      <trkpt lat="47.66686" lon="6.00418">
        <ele>232</ele>
        <time>2010-01-01T01:35:14Z</time>
      </trkpt>
      <trkpt lat="47.66689" lon="6.00414">
        <ele>232</ele>
        <time>2010-01-01T01:35:15Z</time>
      </trkpt>
      <trkpt lat="47.66691" lon="6.0041">
        <ele>232</ele>
        <time>2010-01-01T01:35:17Z</time>
      </trkpt>
      <trkpt lat="47.66694" lon="6.00406">
        <ele>232</ele>
        <time>2010-01-01T01:35:18Z</time>
      </trkpt>
      <trkpt lat="47.66696" lon="6.00402">
        <ele>233</ele>
        <time>2010-01-01T01:35:19Z</time>
      </trkpt>
      <trkpt lat="47.66699" lon="6.00398">
        <ele>233</ele>
        <time>2010-01-01T01:35:21Z</time>
      </trkpt>
      <trkpt lat="47.66701" lon="6.00394">
        <ele>233</ele>
        <time>2010-01-01T01:35:23Z</time>
      </trkpt>
      <trkpt lat="47.66704" lon="6.0039">
        <ele>234</ele>
        <time>2010-01-01T01:35:24Z</time>
      </trkpt>
      <trkpt lat="47.66706" lon="6.00386">
        <ele>234</ele>
        <time>2010-01-01T01:35:25Z</time>
      </trkpt>
      <trkpt lat="47.66708" lon="6.00381">
        <ele>234</ele>
        <time>2010-01-01T01:35:27Z</time>
      </trkpt>
      <trkpt lat="47.6671" lon="6.00377">
        <ele>234</ele>
        <time>2010-01-01T01:35:28Z</time>
      </trkpt>
      <trkpt lat="47.66712" lon="6.00372">
        <ele>234</ele>
        <time>2010-01-01T01:35:30Z</time>
      </trkpt>
      <trkpt lat="47.66713" lon="6.00367">
        <ele>234</ele>
        <time>2010-01-01T01:35:31Z</time>
      </trkpt>
      <trkpt lat="47.66716" lon="6.00362">
        <ele>234</ele>
        <time>2010-01-01T01:35:33Z</time>
      </trkpt>
      <trkpt lat="47.66718" lon="6.00357">
        <ele>234</ele>
        <time>2010-01-01T01:35:35Z</time>
      </trkpt>
      <trkpt lat="47.6672" lon="6.00352">
        <ele>234</ele>
        <time>2010-01-01T01:35:36Z</time>
      </trkpt>
      <trkpt lat="47.66722" lon="6.00347">
        <ele>235</ele>
        <time>2010-01-01T01:35:38Z</time>
      </trkpt>
      <trkpt lat="47.66723" lon="6.00342">
        <ele>235</ele>
        <time>2010-01-01T01:35:39Z</time>
      </trkpt>
      <trkpt lat="47.66724" lon="6.00336">
        <ele>235</ele>
        <time>2010-01-01T01:35:41Z</time>
      </trkpt>
      <trkpt lat="47.66726" lon="6.0033">
        <ele>236</ele>
        <time>2010-01-01T01:35:42Z</time>
      </trkpt>
      <trkpt lat="47.66727" lon="6.00325">
        <ele>236</ele>
        <time>2010-01-01T01:35:44Z</time>
      </trkpt>
      <trkpt lat="47.66728" lon="6.0032">
        <ele>236</ele>
        <time>2010-01-01T01:35:45Z</time>
      </trkpt>
      <trkpt lat="47.66729" lon="6.00314">
        <ele>236</ele>
        <time>2010-01-01T01:35:47Z</time>
      </trkpt>
      <trkpt lat="47.6673" lon="6.00309">
        <ele>236</ele>
        <time>2010-01-01T01:35:48Z</time>
      </trkpt>
      <trkpt lat="47.66732" lon="6.00304">
        <ele>236</ele>
        <time>2010-01-01T01:35:50Z</time>
      </trkpt>
      <trkpt lat="47.66733" lon="6.00299">
        <ele>236</ele>
        <time>2010-01-01T01:35:51Z</time>
      </trkpt>
      <trkpt lat="47.66734" lon="6.00293">
        <ele>236</ele>
        <time>2010-01-01T01:35:53Z</time>
      </trkpt>
      <trkpt lat="47.66735" lon="6.00288">
        <ele>236</ele>
        <time>2010-01-01T01:35:55Z</time>
      </trkpt>
      <trkpt lat="47.66737" lon="6.00282">
        <ele>236</ele>
        <time>2010-01-01T01:35:56Z</time>
      </trkpt>
      <trkpt lat="47.66738" lon="6.00276">
        <ele>236</ele>
        <time>2010-01-01T01:35:58Z</time>
      </trkpt>
      <trkpt lat="47.66739" lon="6.0027">
        <ele>236</ele>
        <time>2010-01-01T01:35:59Z</time>
      </trkpt>
      <trkpt lat="47.6674" lon="6.00265">
        <ele>236</ele>
        <time>2010-01-01T01:36:01Z</time>
      </trkpt>
      <trkpt lat="47.66742" lon="6.00258">
        <ele>237</ele>
        <time>2010-01-01T01:36:03Z</time>
      </trkpt>
      <trkpt lat="47.66743" lon="6.00252">
        <ele>237</ele>
        <time>2010-01-01T01:36:05Z</time>
      </trkpt>
      <trkpt lat="47.66744" lon="6.00246">
        <ele>238</ele>
        <time>2010-01-01T01:36:06Z</time>
      </trkpt>
      <trkpt lat="47.66745" lon="6.0024">
        <ele>238</ele>
        <time>2010-01-01T01:36:08Z</time>
      </trkpt>
      <trkpt lat="47.66746" lon="6.00234">
        <ele>238</ele>
        <time>2010-01-01T01:36:09Z</time>
      </trkpt>
      <trkpt lat="47.66747" lon="6.00228">
        <ele>238</ele>
        <time>2010-01-01T01:36:11Z</time>
      </trkpt>
      <trkpt lat="47.66748" lon="6.00223">
        <ele>238</ele>
        <time>2010-01-01T01:36:13Z</time>
      </trkpt>
      <trkpt lat="47.66749" lon="6.00217">
        <ele>238</ele>
        <time>2010-01-01T01:36:14Z</time>
      </trkpt>
      <trkpt lat="47.6675" lon="6.00212">
        <ele>238</ele>
        <time>2010-01-01T01:36:16Z</time>
      </trkpt>
      <trkpt lat="47.6675" lon="6.00206">
        <ele>238</ele>
        <time>2010-01-01T01:36:17Z</time>
      </trkpt>
      <trkpt lat="47.66751" lon="6.002">
        <ele>238</ele>
        <time>2010-01-01T01:36:19Z</time>
      </trkpt>
      <trkpt lat="47.66753" lon="6.00194">
        <ele>238</ele>
        <time>2010-01-01T01:36:21Z</time>
      </trkpt>
      <trkpt lat="47.66754" lon="6.00188">
        <ele>238</ele>
        <time>2010-01-01T01:36:22Z</time>
      </trkpt>
      <trkpt lat="47.66755" lon="6.00182">
        <ele>238</ele>
        <time>2010-01-01T01:36:24Z</time>
      </trkpt>
      <trkpt lat="47.66756" lon="6.00176">
        <ele>238</ele>
        <time>2010-01-01T01:36:26Z</time>
      </trkpt>
      <trkpt lat="47.66757" lon="6.0017">
        <ele>238</ele>
        <time>2010-01-01T01:36:27Z</time>
      </trkpt>
      <trkpt lat="47.66757" lon="6.00164">
        <ele>238</ele>
        <time>2010-01-01T01:36:29Z</time>
      </trkpt>
      <trkpt lat="47.66758" lon="6.00158">
        <ele>238</ele>
        <time>2010-01-01T01:36:31Z</time>
      </trkpt>
      <trkpt lat="47.66759" lon="6.00152">
        <ele>239</ele>
        <time>2010-01-01T01:36:32Z</time>
      </trkpt>
      <trkpt lat="47.6676" lon="6.00146">
        <ele>239</ele>
        <time>2010-01-01T01:36:34Z</time>
      </trkpt>
      <trkpt lat="47.6676" lon="6.0014">
        <ele>240</ele>
        <time>2010-01-01T01:36:36Z</time>
      </trkpt>
      <trkpt lat="47.66761" lon="6.00134">
        <ele>240</ele>
        <time>2010-01-01T01:36:37Z</time>
      </trkpt>
      <trkpt lat="47.66762" lon="6.00128">
        <ele>240</ele>
        <time>2010-01-01T01:36:39Z</time>
      </trkpt>
      <trkpt lat="47.66763" lon="6.00123">
        <ele>240</ele>
        <time>2010-01-01T01:36:40Z</time>
      </trkpt>
      <trkpt lat="47.66763" lon="6.00117">
        <ele>240</ele>
        <time>2010-01-01T01:36:42Z</time>
      </trkpt>
      <trkpt lat="47.66765" lon="6.00111">
        <ele>240</ele>
        <time>2010-01-01T01:36:44Z</time>
      </trkpt>
      <trkpt lat="47.66766" lon="6.00106">
        <ele>240</ele>
        <time>2010-01-01T01:36:45Z</time>
      </trkpt>
      <trkpt lat="47.66768" lon="6.00101">
        <ele>240</ele>
        <time>2010-01-01T01:36:47Z</time>
      </trkpt>
      <trkpt lat="47.6677" lon="6.00096">
        <ele>240</ele>
        <time>2010-01-01T01:36:48Z</time>
      </trkpt>
      <trkpt lat="47.66773" lon="6.00091">
        <ele>240</ele>
        <time>2010-01-01T01:36:50Z</time>
      </trkpt>
      <trkpt lat="47.66775" lon="6.00088">
        <ele>240</ele>
        <time>2010-01-01T01:36:51Z</time>
      </trkpt>
      <trkpt lat="47.66777" lon="6.00085">
        <ele>240</ele>
        <time>2010-01-01T01:36:52Z</time>
      </trkpt>
      <trkpt lat="47.66778" lon="6.00083">
        <ele>240</ele>
        <time>2010-01-01T01:36:53Z</time>
      </trkpt>
      <trkpt lat="47.66779" lon="6.00081">
        <ele>240</ele>
        <time>2010-01-01T01:36:54Z</time>
      </trkpt>
      <trkpt lat="47.66779" lon="6.00079">
        <ele>240</ele>
        <time>2010-01-01T01:36:54Z</time>
      </trkpt>
      <trkpt lat="47.6678" lon="6.00078">
        <ele>240</ele>
        <time>2010-01-01T01:36:54Z</time>
      </trkpt>
      <trkpt lat="47.6678" lon="6.00078">
        <ele>240</ele>
        <time>2010-01-01T01:36:55Z</time>
      </trkpt>
      <trkpt lat="47.66781" lon="6.00077">
        <ele>240</ele>
        <time>2010-01-01T01:36:55Z</time>
      </trkpt>
      <trkpt lat="47.66782" lon="6.00075">
        <ele>240</ele>
        <time>2010-01-01T01:36:56Z</time>
      </trkpt>
      <trkpt lat="47.66784" lon="6.00074">
        <ele>240</ele>
        <time>2010-01-01T01:36:57Z</time>
      </trkpt>
      <trkpt lat="47.66786" lon="6.00071">
        <ele>240</ele>
        <time>2010-01-01T01:36:57Z</time>
      </trkpt>
      <trkpt lat="47.66787" lon="6.00069">
        <ele>240</ele>
        <time>2010-01-01T01:36:58Z</time>
      </trkpt>
      <trkpt lat="47.6679" lon="6.00066">
        <ele>240</ele>
        <time>2010-01-01T01:37:00Z</time>
      </trkpt>
      <trkpt lat="47.66792" lon="6.00063">
        <ele>240</ele>
        <time>2010-01-01T01:37:01Z</time>
      </trkpt>
      <trkpt lat="47.66794" lon="6.0006">
        <ele>240</ele>
        <time>2010-01-01T01:37:02Z</time>
      </trkpt>
      <trkpt lat="47.66797" lon="6.00056">
        <ele>240</ele>
        <time>2010-01-01T01:37:03Z</time>
      </trkpt>
      <trkpt lat="47.66799" lon="6.00053">
        <ele>240</ele>
        <time>2010-01-01T01:37:05Z</time>
      </trkpt>
      <trkpt lat="47.66801" lon="6.00049">
        <ele>240</ele>
        <time>2010-01-01T01:37:06Z</time>
      </trkpt>
      <trkpt lat="47.66803" lon="6.00045">
        <ele>240</ele>
        <time>2010-01-01T01:37:07Z</time>
      </trkpt>
      <trkpt lat="47.66804" lon="6.00041">
        <ele>240</ele>
        <time>2010-01-01T01:37:09Z</time>
      </trkpt>
      <trkpt lat="47.66806" lon="6.00037">
        <ele>240</ele>
        <time>2010-01-01T01:37:10Z</time>
      </trkpt>
      <trkpt lat="47.66809" lon="6.00033">
        <ele>240</ele>
        <time>2010-01-01T01:37:11Z</time>
      </trkpt>
      <trkpt lat="47.66811" lon="6.0003">
        <ele>240</ele>
        <time>2010-01-01T01:37:12Z</time>
      </trkpt>
      <trkpt lat="47.66812" lon="6.00027">
        <ele>241</ele>
        <time>2010-01-01T01:37:14Z</time>
      </trkpt>
      <trkpt lat="47.66814" lon="6.00023">
        <ele>241</ele>
        <time>2010-01-01T01:37:15Z</time>
      </trkpt>
      <trkpt lat="47.66816" lon="6.00019">
        <ele>242</ele>
        <time>2010-01-01T01:37:16Z</time>
      </trkpt>
      <trkpt lat="47.66818" lon="6.00015">
        <ele>242</ele>
        <time>2010-01-01T01:37:17Z</time>
      </trkpt>
      <trkpt lat="47.66819" lon="6.00012">
        <ele>242</ele>
        <time>2010-01-01T01:37:19Z</time>
      </trkpt>
      <trkpt lat="47.66821" lon="6.00007">
        <ele>242</ele>
        <time>2010-01-01T01:37:20Z</time>
      </trkpt>
      <trkpt lat="47.66822" lon="6.00003">
        <ele>242</ele>
        <time>2010-01-01T01:37:21Z</time>
      </trkpt>
      <trkpt lat="47.66823" lon="5.99999">
        <ele>242</ele>
        <time>2010-01-01T01:37:22Z</time>
      </trkpt>
      <trkpt lat="47.66824" lon="5.99995">
        <ele>242</ele>
        <time>2010-01-01T01:37:24Z</time>
      </trkpt>
      <trkpt lat="47.66825" lon="5.9999">
        <ele>242</ele>
        <time>2010-01-01T01:37:25Z</time>
      </trkpt>
      <trkpt lat="47.66827" lon="5.99985">
        <ele>242</ele>
        <time>2010-01-01T01:37:26Z</time>
      </trkpt>
      <trkpt lat="47.66828" lon="5.99981">
        <ele>242</ele>
        <time>2010-01-01T01:37:28Z</time>
      </trkpt>
      <trkpt lat="47.6683" lon="5.99977">
        <ele>242</ele>
        <time>2010-01-01T01:37:29Z</time>
      </trkpt>
      <trkpt lat="47.66831" lon="5.99974">
        <ele>242</ele>
        <time>2010-01-01T01:37:30Z</time>
      </trkpt>
      <trkpt lat="47.66833" lon="5.9997">
        <ele>242</ele>
        <time>2010-01-01T01:37:31Z</time>
      </trkpt>
      <trkpt lat="47.66834" lon="5.99967">
        <ele>243</ele>
        <time>2010-01-01T01:37:32Z</time>
      </trkpt>
      <trkpt lat="47.66835" lon="5.99964">
        <ele>243</ele>
        <time>2010-01-01T01:37:33Z</time>
      </trkpt>
      <trkpt lat="47.66837" lon="5.99961">
        <ele>243</ele>
        <time>2010-01-01T01:37:34Z</time>
      </trkpt>
      <trkpt lat="47.66838" lon="5.99957">
        <ele>244</ele>
        <time>2010-01-01T01:37:35Z</time>
      </trkpt>
      <trkpt lat="47.6684" lon="5.99954">
        <ele>244</ele>
        <time>2010-01-01T01:37:36Z</time>
      </trkpt>
      <trkpt lat="47.66842" lon="5.9995">
        <ele>244</ele>
        <time>2010-01-01T01:37:38Z</time>
      </trkpt>
      <trkpt lat="47.66844" lon="5.99946">
        <ele>244</ele>
        <time>2010-01-01T01:37:39Z</time>
      </trkpt>
      <trkpt lat="47.66845" lon="5.99943">
        <ele>244</ele>
        <time>2010-01-01T01:37:40Z</time>
      </trkpt>
      <trkpt lat="47.66847" lon="5.99939">
        <ele>244</ele>
        <time>2010-01-01T01:37:41Z</time>
      </trkpt>
      <trkpt lat="47.66849" lon="5.99936">
        <ele>244</ele>
        <time>2010-01-01T01:37:42Z</time>
      </trkpt>
      <trkpt lat="47.6685" lon="5.99931">
        <ele>244</ele>
        <time>2010-01-01T01:37:44Z</time>
      </trkpt>
      <trkpt lat="47.66852" lon="5.99927">
        <ele>244</ele>
        <time>2010-01-01T01:37:45Z</time>
      </trkpt>
      <trkpt lat="47.66853" lon="5.99923">
        <ele>245</ele>
        <time>2010-01-01T01:37:46Z</time>
      </trkpt>
      <trkpt lat="47.66855" lon="5.9992">
        <ele>245</ele>
        <time>2010-01-01T01:37:47Z</time>
      </trkpt>
      <trkpt lat="47.66857" lon="5.99918">
        <ele>246</ele>
        <time>2010-01-01T01:37:48Z</time>
      </trkpt>
      <trkpt lat="47.6686" lon="5.99915">
        <ele>246</ele>
        <time>2010-01-01T01:37:50Z</time>
      </trkpt>
      <trkpt lat="47.66862" lon="5.99912">
        <ele>246</ele>
        <time>2010-01-01T01:37:51Z</time>
      </trkpt>
      <trkpt lat="47.66864" lon="5.9991">
        <ele>246</ele>
        <time>2010-01-01T01:37:52Z</time>
      </trkpt>
      <trkpt lat="47.66866" lon="5.99907">
        <ele>246</ele>
        <time>2010-01-01T01:37:53Z</time>
      </trkpt>
      <trkpt lat="47.66868" lon="5.99905">
        <ele>246</ele>
        <time>2010-01-01T01:37:54Z</time>
      </trkpt>
      <trkpt lat="47.6687" lon="5.99901">
        <ele>246</ele>
        <time>2010-01-01T01:37:55Z</time>
      </trkpt>
      <trkpt lat="47.66872" lon="5.99899">
        <ele>246</ele>
        <time>2010-01-01T01:37:56Z</time>
      </trkpt>
      <trkpt lat="47.66874" lon="5.99895">
        <ele>246</ele>
        <time>2010-01-01T01:37:57Z</time>
      </trkpt>
      <trkpt lat="47.66876" lon="5.99892">
        <ele>246</ele>
        <time>2010-01-01T01:37:59Z</time>
      </trkpt>
      <trkpt lat="47.66878" lon="5.99888">
        <ele>246</ele>
        <time>2010-01-01T01:38:00Z</time>
      </trkpt>
      <trkpt lat="47.66879" lon="5.99885">
        <ele>246</ele>
        <time>2010-01-01T01:38:01Z</time>
      </trkpt>
      <trkpt lat="47.6688" lon="5.99881">
        <ele>246</ele>
        <time>2010-01-01T01:38:02Z</time>
      </trkpt>
      <trkpt lat="47.6688" lon="5.99877">
        <ele>246</ele>
        <time>2010-01-01T01:38:03Z</time>
      </trkpt>
      <trkpt lat="47.66881" lon="5.99874">
        <ele>246</ele>
        <time>2010-01-01T01:38:04Z</time>
      </trkpt>
      <trkpt lat="47.66882" lon="5.9987">
        <ele>246</ele>
        <time>2010-01-01T01:38:05Z</time>
      </trkpt>
      <trkpt lat="47.66883" lon="5.99866">
        <ele>246</ele>
        <time>2010-01-01T01:38:06Z</time>
      </trkpt>
      <trkpt lat="47.66885" lon="5.99862">
        <ele>246</ele>
        <time>2010-01-01T01:38:07Z</time>
      </trkpt>
      <trkpt lat="47.66886" lon="5.99858">
        <ele>246</ele>
        <time>2010-01-01T01:38:09Z</time>
      </trkpt>
      <trkpt lat="47.66888" lon="5.99856">
        <ele>247</ele>
        <time>2010-01-01T01:38:09Z</time>
      </trkpt>
      <trkpt lat="47.66889" lon="5.99854">
        <ele>247</ele>
        <time>2010-01-01T01:38:10Z</time>
      </trkpt>
      <trkpt lat="47.66891" lon="5.99852">
        <ele>248</ele>
        <time>2010-01-01T01:38:11Z</time>
      </trkpt>
      <trkpt lat="47.66893" lon="5.9985">
        <ele>248</ele>
        <time>2010-01-01T01:38:12Z</time>
      </trkpt>
      <trkpt lat="47.66895" lon="5.99848">
        <ele>248</ele>
        <time>2010-01-01T01:38:13Z</time>
      </trkpt>
      <trkpt lat="47.66898" lon="5.99847">
        <ele>248</ele>
        <time>2010-01-01T01:38:14Z</time>
      </trkpt>
      <trkpt lat="47.669" lon="5.99846">
        <ele>248</ele>
        <time>2010-01-01T01:38:15Z</time>
      </trkpt>
      <trkpt lat="47.66902" lon="5.99845">
        <ele>248</ele>
        <time>2010-01-01T01:38:16Z</time>
      </trkpt>
      <trkpt lat="47.66905" lon="5.99844">
        <ele>248</ele>
        <time>2010-01-01T01:38:17Z</time>
      </trkpt>
      <trkpt lat="47.66907" lon="5.99843">
        <ele>248</ele>
        <time>2010-01-01T01:38:18Z</time>
      </trkpt>
      <trkpt lat="47.6691" lon="5.99841">
        <ele>248</ele>
        <time>2010-01-01T01:38:19Z</time>
      </trkpt>
      <trkpt lat="47.66912" lon="5.9984">
        <ele>248</ele>
        <time>2010-01-01T01:38:20Z</time>
      </trkpt>
      <trkpt lat="47.66915" lon="5.99838">
        <ele>248</ele>
        <time>2010-01-01T01:38:22Z</time>
      </trkpt>
      <trkpt lat="47.66917" lon="5.99836">
        <ele>248</ele>
        <time>2010-01-01T01:38:23Z</time>
      </trkpt>
      <trkpt lat="47.6692" lon="5.99835">
        <ele>248</ele>
        <time>2010-01-01T01:38:24Z</time>
      </trkpt>
      <trkpt lat="47.66922" lon="5.99834">
        <ele>248</ele>
        <time>2010-01-01T01:38:24Z</time>
      </trkpt>
      <trkpt lat="47.66923" lon="5.99833">
        <ele>248</ele>
        <time>2010-01-01T01:38:25Z</time>
      </trkpt>
      <trkpt lat="47.66924" lon="5.99833">
        <ele>248</ele>
        <time>2010-01-01T01:38:25Z</time>
      </trkpt>
      <trkpt lat="47.66925" lon="5.9983">
        <ele>248</ele>
        <time>2010-01-01T01:38:26Z</time>
      </trkpt>
      <trkpt lat="47.66925" lon="5.9983">
        <ele>248</ele>
        <time>2010-01-01T01:38:26Z</time>
      </trkpt>
      <trkpt lat="47.66926" lon="5.99829">
        <ele>248</ele>
        <time>2010-01-01T01:38:27Z</time>
      </trkpt>
      <trkpt lat="47.66927" lon="5.99829">
        <ele>248</ele>
        <time>2010-01-01T01:38:27Z</time>
      </trkpt>
      <trkpt lat="47.66929" lon="5.99829">
        <ele>248</ele>
        <time>2010-01-01T01:38:28Z</time>
      </trkpt>
      <trkpt lat="47.66931" lon="5.99828">
        <ele>248</ele>
        <time>2010-01-01T01:38:29Z</time>
      </trkpt>
      <trkpt lat="47.66933" lon="5.99827">
        <ele>248</ele>
        <time>2010-01-01T01:38:30Z</time>
      </trkpt>
      <trkpt lat="47.66936" lon="5.99827">
        <ele>248</ele>
        <time>2010-01-01T01:38:31Z</time>
      </trkpt>
      <trkpt lat="47.66938" lon="5.99827">
        <ele>248</ele>
        <time>2010-01-01T01:38:32Z</time>
      </trkpt>
      <trkpt lat="47.66941" lon="5.99827">
        <ele>247</ele>
        <time>2010-01-01T01:38:33Z</time>
      </trkpt>
      <trkpt lat="47.66944" lon="5.99826">
        <ele>247</ele>
        <time>2010-01-01T01:38:34Z</time>
      </trkpt>
      <trkpt lat="47.66947" lon="5.99826">
        <ele>246</ele>
        <time>2010-01-01T01:38:35Z</time>
      </trkpt>
      <trkpt lat="47.66951" lon="5.99825">
        <ele>246</ele>
        <time>2010-01-01T01:38:37Z</time>
      </trkpt>
      <trkpt lat="47.66953" lon="5.99825">
        <ele>246</ele>
        <time>2010-01-01T01:38:38Z</time>
      </trkpt>
      <trkpt lat="47.66956" lon="5.99825">
        <ele>246</ele>
        <time>2010-01-01T01:38:39Z</time>
      </trkpt>
      <trkpt lat="47.66959" lon="5.99825">
        <ele>246</ele>
        <time>2010-01-01T01:38:40Z</time>
      </trkpt>
      <trkpt lat="47.66961" lon="5.99826">
        <ele>246</ele>
        <time>2010-01-01T01:38:41Z</time>
      </trkpt>
      <trkpt lat="47.66964" lon="5.99826">
        <ele>246</ele>
        <time>2010-01-01T01:38:42Z</time>
      </trkpt>
      <trkpt lat="47.66967" lon="5.99826">
        <ele>246</ele>
        <time>2010-01-01T01:38:43Z</time>
      </trkpt>
      <trkpt lat="47.66969" lon="5.99827">
        <ele>246</ele>
        <time>2010-01-01T01:38:44Z</time>
      </trkpt>
      <trkpt lat="47.66972" lon="5.99827">
        <ele>246</ele>
        <time>2010-01-01T01:38:45Z</time>
      </trkpt>
      <trkpt lat="47.66975" lon="5.99827">
        <ele>246</ele>
        <time>2010-01-01T01:38:46Z</time>
      </trkpt>
      <trkpt lat="47.66977" lon="5.99828">
        <ele>246</ele>
        <time>2010-01-01T01:38:48Z</time>
      </trkpt>
      <trkpt lat="47.6698" lon="5.99828">
        <ele>246</ele>
        <time>2010-01-01T01:38:48Z</time>
      </trkpt>
      <trkpt lat="47.66982" lon="5.99828">
        <ele>246</ele>
        <time>2010-01-01T01:38:49Z</time>
      </trkpt>
      <trkpt lat="47.66985" lon="5.99827">
        <ele>246</ele>
        <time>2010-01-01T01:38:50Z</time>
      </trkpt>
      <trkpt lat="47.66987" lon="5.99826">
        <ele>246</ele>
        <time>2010-01-01T01:38:51Z</time>
      </trkpt>
      <trkpt lat="47.66988" lon="5.99825">
        <ele>246</ele>
        <time>2010-01-01T01:38:52Z</time>
      </trkpt>
      <trkpt lat="47.6699" lon="5.99824">
        <ele>246</ele>
        <time>2010-01-01T01:38:53Z</time>
      </trkpt>
      <trkpt lat="47.66992" lon="5.99823">
        <ele>246</ele>
        <time>2010-01-01T01:38:54Z</time>
      </trkpt>
      <trkpt lat="47.66994" lon="5.99821">
        <ele>246</ele>
        <time>2010-01-01T01:38:55Z</time>
      </trkpt>
      <trkpt lat="47.66996" lon="5.9982">
        <ele>246</ele>
        <time>2010-01-01T01:38:56Z</time>
      </trkpt>
      <trkpt lat="47.66998" lon="5.99819">
        <ele>247</ele>
        <time>2010-01-01T01:38:56Z</time>
      </trkpt>
      <trkpt lat="47.67" lon="5.99817">
        <ele>247</ele>
        <time>2010-01-01T01:38:57Z</time>
      </trkpt>
      <trkpt lat="47.67002" lon="5.99816">
        <ele>248</ele>
        <time>2010-01-01T01:38:58Z</time>
      </trkpt>
      <trkpt lat="47.67004" lon="5.99815">
        <ele>248</ele>
        <time>2010-01-01T01:38:59Z</time>
      </trkpt>
      <trkpt lat="47.67006" lon="5.99814">
        <ele>248</ele>
        <time>2010-01-01T01:39:00Z</time>
      </trkpt>
      <trkpt lat="47.67009" lon="5.99812">
        <ele>248</ele>
        <time>2010-01-01T01:39:01Z</time>
      </trkpt>
      <trkpt lat="47.67012" lon="5.9981">
        <ele>248</ele>
        <time>2010-01-01T01:39:02Z</time>
      </trkpt>
      <trkpt lat="47.67015" lon="5.99808">
        <ele>248</ele>
        <time>2010-01-01T01:39:03Z</time>
      </trkpt>
      <trkpt lat="47.67018" lon="5.99806">
        <ele>248</ele>
        <time>2010-01-01T01:39:05Z</time>
      </trkpt>
      <trkpt lat="47.67021" lon="5.99804">
        <ele>248</ele>
        <time>2010-01-01T01:39:06Z</time>
      </trkpt>
      <trkpt lat="47.67023" lon="5.99803">
        <ele>248</ele>
        <time>2010-01-01T01:39:07Z</time>
      </trkpt>
      <trkpt lat="47.67026" lon="5.99802">
        <ele>248</ele>
        <time>2010-01-01T01:39:08Z</time>
      </trkpt>
      <trkpt lat="47.67028" lon="5.99802">
        <ele>248</ele>
        <time>2010-01-01T01:39:09Z</time>
      </trkpt>
      <trkpt lat="47.67031" lon="5.99801">
        <ele>248</ele>
        <time>2010-01-01T01:39:10Z</time>
      </trkpt>
      <trkpt lat="47.67034" lon="5.998">
        <ele>248</ele>
        <time>2010-01-01T01:39:12Z</time>
      </trkpt>
      <trkpt lat="47.67037" lon="5.99799">
        <ele>248</ele>
        <time>2010-01-01T01:39:13Z</time>
      </trkpt>
      <trkpt lat="47.6704" lon="5.99798">
        <ele>248</ele>
        <time>2010-01-01T01:39:14Z</time>
      </trkpt>
      <trkpt lat="47.67043" lon="5.99798">
        <ele>248</ele>
        <time>2010-01-01T01:39:15Z</time>
      </trkpt>
      <trkpt lat="47.67047" lon="5.99796">
        <ele>248</ele>
        <time>2010-01-01T01:39:17Z</time>
      </trkpt>
      <trkpt lat="47.6705" lon="5.99794">
        <ele>248</ele>
        <time>2010-01-01T01:39:18Z</time>
      </trkpt>
      <trkpt lat="47.67054" lon="5.99792">
        <ele>248</ele>
        <time>2010-01-01T01:39:20Z</time>
      </trkpt>
      <trkpt lat="47.67057" lon="5.9979">
        <ele>248</ele>
        <time>2010-01-01T01:39:21Z</time>
      </trkpt>
      <trkpt lat="47.6706" lon="5.99787">
        <ele>248</ele>
        <time>2010-01-01T01:39:23Z</time>
      </trkpt>
      <trkpt lat="47.67063" lon="5.99785">
        <ele>248</ele>
        <time>2010-01-01T01:39:24Z</time>
      </trkpt>
      <trkpt lat="47.67066" lon="5.99784">
        <ele>248</ele>
        <time>2010-01-01T01:39:25Z</time>
      </trkpt>
      <trkpt lat="47.67069" lon="5.99783">
        <ele>248</ele>
        <time>2010-01-01T01:39:26Z</time>
      </trkpt>
      <trkpt lat="47.67072" lon="5.99783">
        <ele>248</ele>
        <time>2010-01-01T01:39:27Z</time>
      </trkpt>
      <trkpt lat="47.67075" lon="5.99782">
        <ele>248</ele>
        <time>2010-01-01T01:39:29Z</time>
      </trkpt>
      <trkpt lat="47.67079" lon="5.99781">
        <ele>248</ele>
        <time>2010-01-01T01:39:30Z</time>
      </trkpt>
      <trkpt lat="47.67082" lon="5.9978">
        <ele>248</ele>
        <time>2010-01-01T01:39:32Z</time>
      </trkpt>
      <trkpt lat="47.67086" lon="5.9978">
        <ele>248</ele>
        <time>2010-01-01T01:39:33Z</time>
      </trkpt>
      <trkpt lat="47.67089" lon="5.99779">
        <ele>248</ele>
        <time>2010-01-01T01:39:35Z</time>
      </trkpt>
      <trkpt lat="47.67093" lon="5.99778">
        <ele>248</ele>
        <time>2010-01-01T01:39:36Z</time>
      </trkpt>
      <trkpt lat="47.67096" lon="5.99776">
        <ele>248</ele>
        <time>2010-01-01T01:39:37Z</time>
      </trkpt>
      <trkpt lat="47.67099" lon="5.99775">
        <ele>248</ele>
        <time>2010-01-01T01:39:39Z</time>
      </trkpt>
      <trkpt lat="47.67102" lon="5.99773">
        <ele>248</ele>
        <time>2010-01-01T01:39:40Z</time>
      </trkpt>
      <trkpt lat="47.67105" lon="5.99772">
        <ele>248</ele>
        <time>2010-01-01T01:39:41Z</time>
      </trkpt>
      <trkpt lat="47.67108" lon="5.99772">
        <ele>249</ele>
        <time>2010-01-01T01:39:42Z</time>
      </trkpt>
      <trkpt lat="47.67111" lon="5.99771">
        <ele>249</ele>
        <time>2010-01-01T01:39:44Z</time>
      </trkpt>
      <trkpt lat="47.67114" lon="5.99771">
        <ele>250</ele>
        <time>2010-01-01T01:39:45Z</time>
      </trkpt>
      <trkpt lat="47.67117" lon="5.9977">
        <ele>250</ele>
        <time>2010-01-01T01:39:46Z</time>
      </trkpt>
      <trkpt lat="47.6712" lon="5.9977">
        <ele>251</ele>
        <time>2010-01-01T01:39:47Z</time>
      </trkpt>
      <trkpt lat="47.67123" lon="5.9977">
        <ele>251</ele>
        <time>2010-01-01T01:39:49Z</time>
      </trkpt>
      <trkpt lat="47.67126" lon="5.9977">
        <ele>251</ele>
        <time>2010-01-01T01:39:50Z</time>
      </trkpt>
      <trkpt lat="47.6713" lon="5.99769">
        <ele>251</ele>
        <time>2010-01-01T01:39:51Z</time>
      </trkpt>
      <trkpt lat="47.67133" lon="5.99769">
        <ele>251</ele>
        <time>2010-01-01T01:39:52Z</time>
      </trkpt>
      <trkpt lat="47.67136" lon="5.99768">
        <ele>251</ele>
        <time>2010-01-01T01:39:54Z</time>
      </trkpt>
      <trkpt lat="47.67139" lon="5.99768">
        <ele>251</ele>
        <time>2010-01-01T01:39:55Z</time>
      </trkpt>
      <trkpt lat="47.67142" lon="5.99768">
        <ele>251</ele>
        <time>2010-01-01T01:39:56Z</time>
      </trkpt>
      <trkpt lat="47.67145" lon="5.99768">
        <ele>252</ele>
        <time>2010-01-01T01:39:57Z</time>
      </trkpt>
      <trkpt lat="47.67148" lon="5.99767">
        <ele>252</ele>
        <time>2010-01-01T01:39:59Z</time>
      </trkpt>
      <trkpt lat="47.67152" lon="5.99767">
        <ele>253</ele>
        <time>2010-01-01T01:40:00Z</time>
      </trkpt>
      <trkpt lat="47.67154" lon="5.99767">
        <ele>253</ele>
        <time>2010-01-01T01:40:01Z</time>
      </trkpt>
      <trkpt lat="47.67157" lon="5.99766">
        <ele>253</ele>
        <time>2010-01-01T01:40:02Z</time>
      </trkpt>
      <trkpt lat="47.6716" lon="5.99766">
        <ele>253</ele>
        <time>2010-01-01T01:40:03Z</time>
      </trkpt>
      <trkpt lat="47.67162" lon="5.99766">
        <ele>253</ele>
        <time>2010-01-01T01:40:04Z</time>
      </trkpt>
      <trkpt lat="47.67165" lon="5.99765">
        <ele>253</ele>
        <time>2010-01-01T01:40:05Z</time>
      </trkpt>
      <trkpt lat="47.67168" lon="5.99765">
        <ele>253</ele>
        <time>2010-01-01T01:40:06Z</time>
      </trkpt>
      <trkpt lat="47.67171" lon="5.99765">
        <ele>253</ele>
        <time>2010-01-01T01:40:08Z</time>
      </trkpt>
      <trkpt lat="47.67174" lon="5.99765">
        <ele>253</ele>
        <time>2010-01-01T01:40:09Z</time>
      </trkpt>
      <trkpt lat="47.67177" lon="5.99764">
        <ele>253</ele>
        <time>2010-01-01T01:40:10Z</time>
      </trkpt>
      <trkpt lat="47.6718" lon="5.99764">
        <ele>253</ele>
        <time>2010-01-01T01:40:11Z</time>
      </trkpt>
      <trkpt lat="47.67183" lon="5.99764">
        <ele>253</ele>
        <time>2010-01-01T01:40:12Z</time>
      </trkpt>
      <trkpt lat="47.67185" lon="5.99765">
        <ele>253</ele>
        <time>2010-01-01T01:40:13Z</time>
      </trkpt>
      <trkpt lat="47.67188" lon="5.99765">
        <ele>253</ele>
        <time>2010-01-01T01:40:15Z</time>
      </trkpt>
      <trkpt lat="47.67191" lon="5.99766">
        <ele>253</ele>
        <time>2010-01-01T01:40:16Z</time>
      </trkpt>
      <trkpt lat="47.67194" lon="5.99767">
        <ele>253</ele>
        <time>2010-01-01T01:40:17Z</time>
      </trkpt>
      <trkpt lat="47.67197" lon="5.99769">
        <ele>253</ele>
        <time>2010-01-01T01:40:18Z</time>
      </trkpt>
      <trkpt lat="47.67199" lon="5.99771">
        <ele>253</ele>
        <time>2010-01-01T01:40:19Z</time>
      </trkpt>
      <trkpt lat="47.67203" lon="5.99773">
        <ele>253</ele>
        <time>2010-01-01T01:40:21Z</time>
      </trkpt>
      <trkpt lat="47.67206" lon="5.99774">
        <ele>253</ele>
        <time>2010-01-01T01:40:22Z</time>
      </trkpt>
      <trkpt lat="47.6721" lon="5.99776">
        <ele>253</ele>
        <time>2010-01-01T01:40:24Z</time>
      </trkpt>
      <trkpt lat="47.67214" lon="5.99778">
        <ele>253</ele>
        <time>2010-01-01T01:40:26Z</time>
      </trkpt>
      <trkpt lat="47.67218" lon="5.9978">
        <ele>253</ele>
        <time>2010-01-01T01:40:27Z</time>
      </trkpt>
      <trkpt lat="47.67222" lon="5.99782">
        <ele>253</ele>
        <time>2010-01-01T01:40:29Z</time>
      </trkpt>
      <trkpt lat="47.67224" lon="5.99783">
        <ele>253</ele>
        <time>2010-01-01T01:40:30Z</time>
      </trkpt>
      <trkpt lat="47.67227" lon="5.99785">
        <ele>253</ele>
        <time>2010-01-01T01:40:31Z</time>
      </trkpt>
      <trkpt lat="47.6723" lon="5.99787">
        <ele>253</ele>
        <time>2010-01-01T01:40:32Z</time>
      </trkpt>
      <trkpt lat="47.67232" lon="5.99789">
        <ele>253</ele>
        <time>2010-01-01T01:40:33Z</time>
      </trkpt>
      <trkpt lat="47.67234" lon="5.9979">
        <ele>253</ele>
        <time>2010-01-01T01:40:34Z</time>
      </trkpt>
      <trkpt lat="47.67237" lon="5.99792">
        <ele>253</ele>
        <time>2010-01-01T01:40:35Z</time>
      </trkpt>
      <trkpt lat="47.67239" lon="5.99793">
        <ele>253</ele>
        <time>2010-01-01T01:40:36Z</time>
      </trkpt>
      <trkpt lat="47.6724" lon="5.99794">
        <ele>253</ele>
        <time>2010-01-01T01:40:37Z</time>
      </trkpt>
      <trkpt lat="47.67242" lon="5.99795">
        <ele>253</ele>
        <time>2010-01-01T01:40:38Z</time>
      </trkpt>
      <trkpt lat="47.67245" lon="5.99795">
        <ele>253</ele>
        <time>2010-01-01T01:40:39Z</time>
      </trkpt>
      <trkpt lat="47.67247" lon="5.99796">
        <ele>253</ele>
        <time>2010-01-01T01:40:40Z</time>
      </trkpt>
      <trkpt lat="47.6725" lon="5.99796">
        <ele>253</ele>
        <time>2010-01-01T01:40:41Z</time>
      </trkpt>
      <trkpt lat="47.67252" lon="5.99796">
        <ele>253</ele>
        <time>2010-01-01T01:40:41Z</time>
      </trkpt>
      <trkpt lat="47.67253" lon="5.99796">
        <ele>253</ele>
        <time>2010-01-01T01:40:42Z</time>
      </trkpt>
      <trkpt lat="47.67253" lon="5.99797">
        <ele>253</ele>
        <time>2010-01-01T01:40:42Z</time>
      </trkpt>
      <trkpt lat="47.67255" lon="5.99797">
        <ele>253</ele>
        <time>2010-01-01T01:40:43Z</time>
      </trkpt>
      <trkpt lat="47.67257" lon="5.99798">
        <ele>253</ele>
        <time>2010-01-01T01:40:44Z</time>
      </trkpt>
      <trkpt lat="47.67258" lon="5.99799">
        <ele>253</ele>
        <time>2010-01-01T01:40:44Z</time>
      </trkpt>
      <trkpt lat="47.6726" lon="5.99799">
        <ele>253</ele>
        <time>2010-01-01T01:40:45Z</time>
      </trkpt>
      <trkpt lat="47.67261" lon="5.99798">
        <ele>253</ele>
        <time>2010-01-01T01:40:45Z</time>
      </trkpt>
      <trkpt lat="47.67264" lon="5.99798">
        <ele>253</ele>
        <time>2010-01-01T01:40:46Z</time>
      </trkpt>
      <trkpt lat="47.67265" lon="5.99799">
        <ele>253</ele>
        <time>2010-01-01T01:40:47Z</time>
      </trkpt>
      <trkpt lat="47.67266" lon="5.99801">
        <ele>253</ele>
        <time>2010-01-01T01:40:48Z</time>
      </trkpt>
      <trkpt lat="47.67268" lon="5.99803">
        <ele>253</ele>
        <time>2010-01-01T01:40:49Z</time>
      </trkpt>
      <trkpt lat="47.67269" lon="5.99805">
        <ele>253</ele>
        <time>2010-01-01T01:40:49Z</time>
      </trkpt>
      <trkpt lat="47.67271" lon="5.99806">
        <ele>253</ele>
        <time>2010-01-01T01:40:50Z</time>
      </trkpt>
      <trkpt lat="47.67273" lon="5.99808">
        <ele>253</ele>
        <time>2010-01-01T01:40:51Z</time>
      </trkpt>
      <trkpt lat="47.67276" lon="5.99809">
        <ele>253</ele>
        <time>2010-01-01T01:40:52Z</time>
      </trkpt>
      <trkpt lat="47.6728" lon="5.9981">
        <ele>253</ele>
        <time>2010-01-01T01:40:54Z</time>
      </trkpt>
      <trkpt lat="47.67283" lon="5.9981">
        <ele>253</ele>
        <time>2010-01-01T01:40:55Z</time>
      </trkpt>
      <trkpt lat="47.67286" lon="5.9981">
        <ele>253</ele>
        <time>2010-01-01T01:40:56Z</time>
      </trkpt>
      <trkpt lat="47.67289" lon="5.9981">
        <ele>253</ele>
        <time>2010-01-01T01:40:57Z</time>
      </trkpt>
      <trkpt lat="47.67292" lon="5.99809">
        <ele>253</ele>
        <time>2010-01-01T01:40:59Z</time>
      </trkpt>
      <trkpt lat="47.67295" lon="5.99808">
        <ele>253</ele>
        <time>2010-01-01T01:41:00Z</time>
      </trkpt>
      <trkpt lat="47.67297" lon="5.99807">
        <ele>253</ele>
        <time>2010-01-01T01:41:01Z</time>
      </trkpt>
      <trkpt lat="47.67298" lon="5.99805">
        <ele>253</ele>
        <time>2010-01-01T01:41:02Z</time>
      </trkpt>
      <trkpt lat="47.67299" lon="5.99803">
        <ele>253</ele>
        <time>2010-01-01T01:41:02Z</time>
      </trkpt>
      <trkpt lat="47.67299" lon="5.998">
        <ele>253</ele>
        <time>2010-01-01T01:41:03Z</time>
      </trkpt>
      <trkpt lat="47.67299" lon="5.99798">
        <ele>253</ele>
        <time>2010-01-01T01:41:03Z</time>
      </trkpt>
      <trkpt lat="47.67298" lon="5.99796">
        <ele>253</ele>
        <time>2010-01-01T01:41:04Z</time>
      </trkpt>
      <trkpt lat="47.67299" lon="5.99794">
        <ele>253</ele>
        <time>2010-01-01T01:41:04Z</time>
      </trkpt>
      <trkpt lat="47.67299" lon="5.99792">
        <ele>253</ele>
        <time>2010-01-01T01:41:05Z</time>
      </trkpt>
      <trkpt lat="47.67298" lon="5.9979">
        <ele>253</ele>
        <time>2010-01-01T01:41:06Z</time>
      </trkpt>
      <trkpt lat="47.67298" lon="5.99789">
        <ele>253</ele>
        <time>2010-01-01T01:41:06Z</time>
      </trkpt>
      <trkpt lat="47.67298" lon="5.99788">
        <ele>253</ele>
        <time>2010-01-01T01:41:06Z</time>
      </trkpt>
      <trkpt lat="47.67298" lon="5.99787">
        <ele>253</ele>
        <time>2010-01-01T01:41:06Z</time>
      </trkpt>
      <trkpt lat="47.67298" lon="5.99785">
        <ele>253</ele>
        <time>2010-01-01T01:41:07Z</time>
      </trkpt>
      <trkpt lat="47.67297" lon="5.99782">
        <ele>253</ele>
        <time>2010-01-01T01:41:08Z</time>
      </trkpt>
      <trkpt lat="47.67297" lon="5.9978">
        <ele>253</ele>
        <time>2010-01-01T01:41:08Z</time>
      </trkpt>
      <trkpt lat="47.67297" lon="5.99778">
        <ele>253</ele>
        <time>2010-01-01T01:41:09Z</time>
      </trkpt>
      <trkpt lat="47.67296" lon="5.99777">
        <ele>253</ele>
        <time>2010-01-01T01:41:09Z</time>
      </trkpt>
      <trkpt lat="47.67296" lon="5.99775">
        <ele>253</ele>
        <time>2010-01-01T01:41:10Z</time>
      </trkpt>
      <trkpt lat="47.67295" lon="5.99773">
        <ele>253</ele>
        <time>2010-01-01T01:41:11Z</time>
      </trkpt>
      <trkpt lat="47.67294" lon="5.9977">
        <ele>253</ele>
        <time>2010-01-01T01:41:11Z</time>
      </trkpt>
      <trkpt lat="47.67292" lon="5.99768">
        <ele>253</ele>
        <time>2010-01-01T01:41:12Z</time>
      </trkpt>
      <trkpt lat="47.67292" lon="5.99765">
        <ele>253</ele>
        <time>2010-01-01T01:41:13Z</time>
      </trkpt>
      <trkpt lat="47.67291" lon="5.99763">
        <ele>254</ele>
        <time>2010-01-01T01:41:14Z</time>
      </trkpt>
      <trkpt lat="47.6729" lon="5.9976">
        <ele>254</ele>
        <time>2010-01-01T01:41:14Z</time>
      </trkpt>
      <trkpt lat="47.6729" lon="5.99758">
        <ele>254</ele>
        <time>2010-01-01T01:41:15Z</time>
      </trkpt>
      <trkpt lat="47.67289" lon="5.99756">
        <ele>255</ele>
        <time>2010-01-01T01:41:16Z</time>
      </trkpt>
      <trkpt lat="47.67288" lon="5.99754">
        <ele>255</ele>
        <time>2010-01-01T01:41:16Z</time>
      </trkpt>
      <trkpt lat="47.67288" lon="5.99751">
        <ele>255</ele>
        <time>2010-01-01T01:41:17Z</time>
      </trkpt>
      <trkpt lat="47.67287" lon="5.99749">
        <ele>255</ele>
        <time>2010-01-01T01:41:18Z</time>
      </trkpt>
      <trkpt lat="47.67286" lon="5.99747">
        <ele>255</ele>
        <time>2010-01-01T01:41:18Z</time>
      </trkpt>
      <trkpt lat="47.67285" lon="5.99745">
        <ele>255</ele>
        <time>2010-01-01T01:41:19Z</time>
      </trkpt>
      <trkpt lat="47.67284" lon="5.99744">
        <ele>255</ele>
        <time>2010-01-01T01:41:20Z</time>
      </trkpt>
      <trkpt lat="47.67284" lon="5.99742">
        <ele>255</ele>
        <time>2010-01-01T01:41:20Z</time>
      </trkpt>
      <trkpt lat="47.67283" lon="5.9974">
        <ele>256</ele>
        <time>2010-01-01T01:41:21Z</time>
      </trkpt>
      <trkpt lat="47.67282" lon="5.99739">
        <ele>256</ele>
        <time>2010-01-01T01:41:21Z</time>
      </trkpt>
      <trkpt lat="47.67282" lon="5.99737">
        <ele>256</ele>
        <time>2010-01-01T01:41:21Z</time>
      </trkpt>
      <trkpt lat="47.67282" lon="5.99736">
        <ele>257</ele>
        <time>2010-01-01T01:41:22Z</time>
      </trkpt>
      <trkpt lat="47.67281" lon="5.99734">
        <ele>257</ele>
        <time>2010-01-01T01:41:22Z</time>
      </trkpt>
      <trkpt lat="47.67281" lon="5.99732">
        <ele>257</ele>
        <time>2010-01-01T01:41:23Z</time>
      </trkpt>
      <trkpt lat="47.6728" lon="5.9973">
        <ele>257</ele>
        <time>2010-01-01T01:41:24Z</time>
      </trkpt>
      <trkpt lat="47.6728" lon="5.99728">
        <ele>257</ele>
        <time>2010-01-01T01:41:24Z</time>
      </trkpt>
      <trkpt lat="47.67279" lon="5.99726">
        <ele>257</ele>
        <time>2010-01-01T01:41:25Z</time>
      </trkpt>
      <trkpt lat="47.67279" lon="5.99725">
        <ele>257</ele>
        <time>2010-01-01T01:41:25Z</time>
      </trkpt>
      <trkpt lat="47.67279" lon="5.99724">
        <ele>257</ele>
        <time>2010-01-01T01:41:25Z</time>
      </trkpt>
      <trkpt lat="47.67278" lon="5.99722">
        <ele>257</ele>
        <time>2010-01-01T01:41:26Z</time>
      </trkpt>
      <trkpt lat="47.67278" lon="5.9972">
        <ele>257</ele>
        <time>2010-01-01T01:41:26Z</time>
      </trkpt>
      <trkpt lat="47.67277" lon="5.99718">
        <ele>257</ele>
        <time>2010-01-01T01:41:27Z</time>
      </trkpt>
      <trkpt lat="47.67276" lon="5.99717">
        <ele>258</ele>
        <time>2010-01-01T01:41:28Z</time>
      </trkpt>
      <trkpt lat="47.67276" lon="5.99716">
        <ele>258</ele>
        <time>2010-01-01T01:41:28Z</time>
      </trkpt>
      <trkpt lat="47.67275" lon="5.99715">
        <ele>259</ele>
        <time>2010-01-01T01:41:28Z</time>
      </trkpt>
      <trkpt lat="47.67274" lon="5.99713">
        <ele>259</ele>
        <time>2010-01-01T01:41:29Z</time>
      </trkpt>
      <trkpt lat="47.67273" lon="5.99712">
        <ele>259</ele>
        <time>2010-01-01T01:41:29Z</time>
      </trkpt>
      <trkpt lat="47.67273" lon="5.99711">
        <ele>259</ele>
        <time>2010-01-01T01:41:30Z</time>
      </trkpt>
      <trkpt lat="47.67273" lon="5.99711">
        <ele>259</ele>
        <time>2010-01-01T01:41:30Z</time>
      </trkpt>
      <trkpt lat="47.67272" lon="5.9971">
        <ele>259</ele>
        <time>2010-01-01T01:41:30Z</time>
      </trkpt>
      <trkpt lat="47.67271" lon="5.9971">
        <ele>259</ele>
        <time>2010-01-01T01:41:30Z</time>
      </trkpt>
      <trkpt lat="47.67271" lon="5.99709">
        <ele>259</ele>
        <time>2010-01-01T01:41:31Z</time>
      </trkpt>
      <trkpt lat="47.6727" lon="5.99707">
        <ele>259</ele>
        <time>2010-01-01T01:41:31Z</time>
      </trkpt>
      <trkpt lat="47.6727" lon="5.99706">
        <ele>260</ele>
        <time>2010-01-01T01:41:32Z</time>
      </trkpt>
      <trkpt lat="47.67268" lon="5.99703">
        <ele>260</ele>
        <time>2010-01-01T01:41:32Z</time>
      </trkpt>
      <trkpt lat="47.67267" lon="5.997">
        <ele>261</ele>
        <time>2010-01-01T01:41:33Z</time>
      </trkpt>
      <trkpt lat="47.67266" lon="5.99697">
        <ele>261</ele>
        <time>2010-01-01T01:41:34Z</time>
      </trkpt>
      <trkpt lat="47.67265" lon="5.99696">
        <ele>261</ele>
        <time>2010-01-01T01:41:35Z</time>
      </trkpt>
      <trkpt lat="47.67264" lon="5.99694">
        <ele>261</ele>
        <time>2010-01-01T01:41:36Z</time>
      </trkpt>
      <trkpt lat="47.67263" lon="5.99693">
        <ele>261</ele>
        <time>2010-01-01T01:41:36Z</time>
      </trkpt>
      <trkpt lat="47.67261" lon="5.99689">
        <ele>261</ele>
        <time>2010-01-01T01:41:37Z</time>
      </trkpt>
      <trkpt lat="47.67259" lon="5.99685">
        <ele>262</ele>
        <time>2010-01-01T01:41:38Z</time>
      </trkpt>
      <trkpt lat="47.67258" lon="5.99682">
        <ele>262</ele>
        <time>2010-01-01T01:41:39Z</time>
      </trkpt>
      <trkpt lat="47.67257" lon="5.99681">
        <ele>263</ele>
        <time>2010-01-01T01:41:40Z</time>
      </trkpt>
      <trkpt lat="47.67256" lon="5.99679">
        <ele>263</ele>
        <time>2010-01-01T01:41:41Z</time>
      </trkpt>
      <trkpt lat="47.67254" lon="5.99676">
        <ele>263</ele>
        <time>2010-01-01T01:41:42Z</time>
      </trkpt>
      <trkpt lat="47.67253" lon="5.99672">
        <ele>263</ele>
        <time>2010-01-01T01:41:43Z</time>
      </trkpt>
      <trkpt lat="47.67251" lon="5.99668">
        <ele>263</ele>
        <time>2010-01-01T01:41:44Z</time>
      </trkpt>
      <trkpt lat="47.67249" lon="5.99665">
        <ele>264</ele>
        <time>2010-01-01T01:41:45Z</time>
      </trkpt>
      <trkpt lat="47.67248" lon="5.99662">
        <ele>264</ele>
        <time>2010-01-01T01:41:46Z</time>
      </trkpt>
      <trkpt lat="47.67247" lon="5.99661">
        <ele>265</ele>
        <time>2010-01-01T01:41:47Z</time>
      </trkpt>
      <trkpt lat="47.67246" lon="5.9966">
        <ele>265</ele>
        <time>2010-01-01T01:41:47Z</time>
      </trkpt>
      <trkpt lat="47.67245" lon="5.99658">
        <ele>266</ele>
        <time>2010-01-01T01:41:48Z</time>
      </trkpt>
      <trkpt lat="47.67245" lon="5.99658">
        <ele>266</ele>
        <time>2010-01-01T01:41:48Z</time>
      </trkpt>
      <trkpt lat="47.67245" lon="5.99658">
        <ele>267</ele>
        <time>2010-01-01T01:41:48Z</time>
      </trkpt>
      <trkpt lat="47.67245" lon="5.99657">
        <ele>268</ele>
        <time>2010-01-01T01:41:48Z</time>
      </trkpt>
      <trkpt lat="47.67243" lon="5.99651">
        <ele>270</ele>
        <time>2010-01-01T01:41:50Z</time>
      </trkpt>
      <trkpt lat="47.67243" lon="5.99648">
        <ele>270</ele>
        <time>2010-01-01T01:41:51Z</time>
      </trkpt>
      <trkpt lat="47.67242" lon="5.99647">
        <ele>270</ele>
        <time>2010-01-01T01:41:51Z</time>
      </trkpt>
      <trkpt lat="47.67242" lon="5.99646">
        <ele>270</ele>
        <time>2010-01-01T01:41:51Z</time>
      </trkpt>
      <trkpt lat="47.67242" lon="5.99645">
        <ele>270</ele>
        <time>2010-01-01T01:41:52Z</time>
      </trkpt>
      <trkpt lat="47.67242" lon="5.99644">
        <ele>271</ele>
        <time>2010-01-01T01:41:52Z</time>
      </trkpt>
      <trkpt lat="47.67241" lon="5.99642">
        <ele>272</ele>
        <time>2010-01-01T01:41:53Z</time>
      </trkpt>
      <trkpt lat="47.6724" lon="5.9964">
        <ele>272</ele>
        <time>2010-01-01T01:41:53Z</time>
      </trkpt>
      <trkpt lat="47.67239" lon="5.99637">
        <ele>272</ele>
        <time>2010-01-01T01:41:54Z</time>
      </trkpt>
      <trkpt lat="47.67238" lon="5.99635">
        <ele>272</ele>
        <time>2010-01-01T01:41:55Z</time>
      </trkpt>
      <trkpt lat="47.67237" lon="5.99633">
        <ele>272</ele>
        <time>2010-01-01T01:41:55Z</time>
      </trkpt>
      <trkpt lat="47.67236" lon="5.99631">
        <ele>272</ele>
        <time>2010-01-01T01:41:56Z</time>
      </trkpt>
      <trkpt lat="47.67235" lon="5.99629">
        <ele>272</ele>
        <time>2010-01-01T01:41:57Z</time>
      </trkpt>
      <trkpt lat="47.67235" lon="5.99628">
        <ele>272</ele>
        <time>2010-01-01T01:41:57Z</time>
      </trkpt>
      <trkpt lat="47.67234" lon="5.99626">
        <ele>272</ele>
        <time>2010-01-01T01:41:58Z</time>
      </trkpt>
      <trkpt lat="47.67234" lon="5.99625">
        <ele>272</ele>
        <time>2010-01-01T01:41:58Z</time>
      </trkpt>
      <trkpt lat="47.67234" lon="5.99623">
        <ele>272</ele>
        <time>2010-01-01T01:41:58Z</time>
      </trkpt>
      <trkpt lat="47.67234" lon="5.99622">
        <ele>272</ele>
        <time>2010-01-01T01:41:59Z</time>
      </trkpt>
      <trkpt lat="47.67233" lon="5.99621">
        <ele>272</ele>
        <time>2010-01-01T01:41:59Z</time>
      </trkpt>
      <trkpt lat="47.67233" lon="5.9962">
        <ele>272</ele>
        <time>2010-01-01T01:41:59Z</time>
      </trkpt>
      <trkpt lat="47.67233" lon="5.99618">
        <ele>273</ele>
        <time>2010-01-01T01:42:00Z</time>
      </trkpt>
      <trkpt lat="47.67232" lon="5.99617">
        <ele>273</ele>
        <time>2010-01-01T01:42:00Z</time>
      </trkpt>
      <trkpt lat="47.67232" lon="5.99616">
        <ele>274</ele>
        <time>2010-01-01T01:42:01Z</time>
      </trkpt>
      <trkpt lat="47.67232" lon="5.99615">
        <ele>274</ele>
        <time>2010-01-01T01:42:01Z</time>
      </trkpt>
      <trkpt lat="47.67232" lon="5.99615">
        <ele>274</ele>
        <time>2010-01-01T01:42:01Z</time>
      </trkpt>
      <trkpt lat="47.67231" lon="5.99613">
        <ele>274</ele>
        <time>2010-01-01T01:42:01Z</time>
      </trkpt>
      <trkpt lat="47.6723" lon="5.99611">
        <ele>274</ele>
        <time>2010-01-01T01:42:02Z</time>
      </trkpt>
      <trkpt lat="47.6723" lon="5.99609">
        <ele>274</ele>
        <time>2010-01-01T01:42:03Z</time>
      </trkpt>
      <trkpt lat="47.67229" lon="5.99607">
        <ele>274</ele>
        <time>2010-01-01T01:42:03Z</time>
      </trkpt>
      <trkpt lat="47.67228" lon="5.99605">
        <ele>274</ele>
        <time>2010-01-01T01:42:04Z</time>
      </trkpt>
      <trkpt lat="47.67227" lon="5.99604">
        <ele>274</ele>
        <time>2010-01-01T01:42:04Z</time>
      </trkpt>
      <trkpt lat="47.67226" lon="5.99603">
        <ele>274</ele>
        <time>2010-01-01T01:42:05Z</time>
      </trkpt>
      <trkpt lat="47.67226" lon="5.99601">
        <ele>274</ele>
        <time>2010-01-01T01:42:05Z</time>
      </trkpt>
      <trkpt lat="47.67225" lon="5.99599">
        <ele>275</ele>
        <time>2010-01-01T01:42:06Z</time>
      </trkpt>
      <trkpt lat="47.67224" lon="5.99596">
        <ele>275</ele>
        <time>2010-01-01T01:42:07Z</time>
      </trkpt>
      <trkpt lat="47.67222" lon="5.99594">
        <ele>276</ele>
        <time>2010-01-01T01:42:08Z</time>
      </trkpt>
      <trkpt lat="47.67221" lon="5.99591">
        <ele>276</ele>
        <time>2010-01-01T01:42:09Z</time>
      </trkpt>
      <trkpt lat="47.6722" lon="5.99588">
        <ele>276</ele>
        <time>2010-01-01T01:42:09Z</time>
      </trkpt>
      <trkpt lat="47.67219" lon="5.99585">
        <ele>276</ele>
        <time>2010-01-01T01:42:11Z</time>
      </trkpt>
      <trkpt lat="47.67218" lon="5.99582">
        <ele>276</ele>
        <time>2010-01-01T01:42:11Z</time>
      </trkpt>
      <trkpt lat="47.67217" lon="5.9958">
        <ele>276</ele>
        <time>2010-01-01T01:42:12Z</time>
      </trkpt>
      <trkpt lat="47.67216" lon="5.99577">
        <ele>277</ele>
        <time>2010-01-01T01:42:13Z</time>
      </trkpt>
      <trkpt lat="47.67215" lon="5.99575">
        <ele>277</ele>
        <time>2010-01-01T01:42:14Z</time>
      </trkpt>
      <trkpt lat="47.67214" lon="5.99573">
        <ele>277</ele>
        <time>2010-01-01T01:42:14Z</time>
      </trkpt>
      <trkpt lat="47.67214" lon="5.9957">
        <ele>278</ele>
        <time>2010-01-01T01:42:15Z</time>
      </trkpt>
      <trkpt lat="47.67214" lon="5.99568">
        <ele>278</ele>
        <time>2010-01-01T01:42:16Z</time>
      </trkpt>
      <trkpt lat="47.67214" lon="5.99565">
        <ele>278</ele>
        <time>2010-01-01T01:42:16Z</time>
      </trkpt>
      <trkpt lat="47.67213" lon="5.99562">
        <ele>278</ele>
        <time>2010-01-01T01:42:17Z</time>
      </trkpt>
      <trkpt lat="47.67212" lon="5.99561">
        <ele>278</ele>
        <time>2010-01-01T01:42:18Z</time>
      </trkpt>
      <trkpt lat="47.67211" lon="5.99561">
        <ele>278</ele>
        <time>2010-01-01T01:42:18Z</time>
      </trkpt>
      <trkpt lat="47.67211" lon="5.99562">
        <ele>278</ele>
        <time>2010-01-01T01:42:18Z</time>
      </trkpt>
      <trkpt lat="47.67211" lon="5.99563">
        <ele>281</ele>
        <time>2010-01-01T01:42:19Z</time>
      </trkpt>
      <trkpt lat="47.67211" lon="5.99563">
        <ele>281</ele>
        <time>2010-01-01T01:42:19Z</time>
      </trkpt>
      <trkpt lat="47.67211" lon="5.99564">
        <ele>280</ele>
        <time>2010-01-01T01:42:19Z</time>
      </trkpt>
      <trkpt lat="47.6721" lon="5.99564">
        <ele>279</ele>
        <time>2010-01-01T01:42:19Z</time>
      </trkpt>
      <trkpt lat="47.6721" lon="5.99564">
        <ele>280</ele>
        <time>2010-01-01T01:42:19Z</time>
      </trkpt>
      <trkpt lat="47.6721" lon="5.99564">
        <ele>280</ele>
        <time>2010-01-01T01:42:19Z</time>
      </trkpt>
      <trkpt lat="47.6721" lon="5.99562">
        <ele>280</ele>
        <time>2010-01-01T01:42:20Z</time>
      </trkpt>
      <trkpt lat="47.67209" lon="5.9956">
        <ele>280</ele>
        <time>2010-01-01T01:42:20Z</time>
      </trkpt>
      <trkpt lat="47.67208" lon="5.99558">
        <ele>280</ele>
        <time>2010-01-01T01:42:21Z</time>
      </trkpt>
      <trkpt lat="47.67207" lon="5.99556">
        <ele>280</ele>
        <time>2010-01-01T01:42:22Z</time>
      </trkpt>
      <trkpt lat="47.67205" lon="5.99553">
        <ele>280</ele>
        <time>2010-01-01T01:42:23Z</time>
      </trkpt>
      <trkpt lat="47.67204" lon="5.99551">
        <ele>280</ele>
        <time>2010-01-01T01:42:24Z</time>
      </trkpt>
      <trkpt lat="47.67202" lon="5.9955">
        <ele>280</ele>
        <time>2010-01-01T01:42:24Z</time>
      </trkpt>
      <trkpt lat="47.67201" lon="5.99548">
        <ele>280</ele>
        <time>2010-01-01T01:42:25Z</time>
      </trkpt>
      <trkpt lat="47.672" lon="5.99546">
        <ele>280</ele>
        <time>2010-01-01T01:42:26Z</time>
      </trkpt>
      <trkpt lat="47.67198" lon="5.99543">
        <ele>280</ele>
        <time>2010-01-01T01:42:27Z</time>
      </trkpt>
      <trkpt lat="47.67198" lon="5.99541">
        <ele>280</ele>
        <time>2010-01-01T01:42:27Z</time>
      </trkpt>
      <trkpt lat="47.67197" lon="5.99538">
        <ele>280</ele>
        <time>2010-01-01T01:42:28Z</time>
      </trkpt>
      <trkpt lat="47.67196" lon="5.99536">
        <ele>280</ele>
        <time>2010-01-01T01:42:29Z</time>
      </trkpt>
      <trkpt lat="47.67195" lon="5.99533">
        <ele>280</ele>
        <time>2010-01-01T01:42:30Z</time>
      </trkpt>
      <trkpt lat="47.67194" lon="5.99531">
        <ele>280</ele>
        <time>2010-01-01T01:42:30Z</time>
      </trkpt>
      <trkpt lat="47.67194" lon="5.99528">
        <ele>280</ele>
        <time>2010-01-01T01:42:31Z</time>
      </trkpt>
      <trkpt lat="47.67193" lon="5.99525">
        <ele>280</ele>
        <time>2010-01-01T01:42:32Z</time>
      </trkpt>
      <trkpt lat="47.67192" lon="5.99523">
        <ele>280</ele>
        <time>2010-01-01T01:42:33Z</time>
      </trkpt>
      <trkpt lat="47.67191" lon="5.9952">
        <ele>280</ele>
        <time>2010-01-01T01:42:34Z</time>
      </trkpt>
      <trkpt lat="47.6719" lon="5.99517">
        <ele>280</ele>
        <time>2010-01-01T01:42:35Z</time>
      </trkpt>
      <trkpt lat="47.67189" lon="5.99514">
        <ele>281</ele>
        <time>2010-01-01T01:42:35Z</time>
      </trkpt>
      <trkpt lat="47.67188" lon="5.99512">
        <ele>281</ele>
        <time>2010-01-01T01:42:36Z</time>
      </trkpt>
      <trkpt lat="47.67187" lon="5.9951">
        <ele>282</ele>
        <time>2010-01-01T01:42:37Z</time>
      </trkpt>
      <trkpt lat="47.67186" lon="5.99508">
        <ele>282</ele>
        <time>2010-01-01T01:42:37Z</time>
      </trkpt>
      <trkpt lat="47.67186" lon="5.99505">
        <ele>282</ele>
        <time>2010-01-01T01:42:38Z</time>
      </trkpt>
      <trkpt lat="47.67184" lon="5.99503">
        <ele>282</ele>
        <time>2010-01-01T01:42:39Z</time>
      </trkpt>
      <trkpt lat="47.67183" lon="5.99503">
        <ele>282</ele>
        <time>2010-01-01T01:42:39Z</time>
      </trkpt>
      <trkpt lat="47.67182" lon="5.99504">
        <ele>282</ele>
        <time>2010-01-01T01:42:40Z</time>
      </trkpt>
      <trkpt lat="47.67181" lon="5.99506">
        <ele>282</ele>
        <time>2010-01-01T01:42:40Z</time>
      </trkpt>
      <trkpt lat="47.67181" lon="5.99508">
        <ele>282</ele>
        <time>2010-01-01T01:42:41Z</time>
      </trkpt>
      <trkpt lat="47.6718" lon="5.9951">
        <ele>282</ele>
        <time>2010-01-01T01:42:42Z</time>
      </trkpt>
      <trkpt lat="47.67178" lon="5.99512">
        <ele>282</ele>
        <time>2010-01-01T01:42:43Z</time>
      </trkpt>
      <trkpt lat="47.67177" lon="5.99515">
        <ele>282</ele>
        <time>2010-01-01T01:42:43Z</time>
      </trkpt>
      <trkpt lat="47.67177" lon="5.99517">
        <ele>282</ele>
        <time>2010-01-01T01:42:44Z</time>
      </trkpt>
      <trkpt lat="47.67175" lon="5.9952">
        <ele>282</ele>
        <time>2010-01-01T01:42:45Z</time>
      </trkpt>
      <trkpt lat="47.67174" lon="5.99523">
        <ele>282</ele>
        <time>2010-01-01T01:42:46Z</time>
      </trkpt>
      <trkpt lat="47.67173" lon="5.99527">
        <ele>282</ele>
        <time>2010-01-01T01:42:47Z</time>
      </trkpt>
      <trkpt lat="47.67171" lon="5.99531">
        <ele>282</ele>
        <time>2010-01-01T01:42:48Z</time>
      </trkpt>
      <trkpt lat="47.67171" lon="5.99535">
        <ele>281</ele>
        <time>2010-01-01T01:42:49Z</time>
      </trkpt>
      <trkpt lat="47.67171" lon="5.99538">
        <ele>281</ele>
        <time>2010-01-01T01:42:50Z</time>
      </trkpt>
      <trkpt lat="47.67171" lon="5.99543">
        <ele>280</ele>
        <time>2010-01-01T01:42:52Z</time>
      </trkpt>
      <trkpt lat="47.67172" lon="5.99547">
        <ele>280</ele>
        <time>2010-01-01T01:42:53Z</time>
      </trkpt>
      <trkpt lat="47.67172" lon="5.99551">
        <ele>280</ele>
        <time>2010-01-01T01:42:54Z</time>
      </trkpt>
      <trkpt lat="47.67174" lon="5.99554">
        <ele>279</ele>
        <time>2010-01-01T01:42:55Z</time>
      </trkpt>
      <trkpt lat="47.67175" lon="5.99557">
        <ele>279</ele>
        <time>2010-01-01T01:42:56Z</time>
      </trkpt>
      <trkpt lat="47.67175" lon="5.99561">
        <ele>278</ele>
        <time>2010-01-01T01:42:57Z</time>
      </trkpt>
      <trkpt lat="47.67175" lon="5.99565">
        <ele>278</ele>
        <time>2010-01-01T01:42:58Z</time>
      </trkpt>
      <trkpt lat="47.67175" lon="5.99568">
        <ele>278</ele>
        <time>2010-01-01T01:42:59Z</time>
      </trkpt>
      <trkpt lat="47.67175" lon="5.99572">
        <ele>277</ele>
        <time>2010-01-01T01:43:00Z</time>
      </trkpt>
      <trkpt lat="47.67175" lon="5.99576">
        <ele>277</ele>
        <time>2010-01-01T01:43:01Z</time>
      </trkpt>
      <trkpt lat="47.67175" lon="5.9958">
        <ele>276</ele>
        <time>2010-01-01T01:43:02Z</time>
      </trkpt>
      <trkpt lat="47.67175" lon="5.99586">
        <ele>276</ele>
        <time>2010-01-01T01:43:04Z</time>
      </trkpt>
      <trkpt lat="47.67176" lon="5.99592">
        <ele>275</ele>
        <time>2010-01-01T01:43:05Z</time>
      </trkpt>
      <trkpt lat="47.67178" lon="5.99597">
        <ele>275</ele>
        <time>2010-01-01T01:43:07Z</time>
      </trkpt>
      <trkpt lat="47.6718" lon="5.99601">
        <ele>274</ele>
        <time>2010-01-01T01:43:08Z</time>
      </trkpt>
      <trkpt lat="47.67181" lon="5.99605">
        <ele>274</ele>
        <time>2010-01-01T01:43:09Z</time>
      </trkpt>
      <trkpt lat="47.67182" lon="5.9961">
        <ele>274</ele>
        <time>2010-01-01T01:43:11Z</time>
      </trkpt>
      <trkpt lat="47.67183" lon="5.99616">
        <ele>273</ele>
        <time>2010-01-01T01:43:12Z</time>
      </trkpt>
      <trkpt lat="47.67183" lon="5.99621">
        <ele>273</ele>
        <time>2010-01-01T01:43:14Z</time>
      </trkpt>
      <trkpt lat="47.67184" lon="5.99626">
        <ele>272</ele>
        <time>2010-01-01T01:43:15Z</time>
      </trkpt>
      <trkpt lat="47.67184" lon="5.9963">
        <ele>272</ele>
        <time>2010-01-01T01:43:16Z</time>
      </trkpt>
      <trkpt lat="47.67185" lon="5.99635">
        <ele>271</ele>
        <time>2010-01-01T01:43:17Z</time>
      </trkpt>
      <trkpt lat="47.67186" lon="5.9964">
        <ele>271</ele>
        <time>2010-01-01T01:43:19Z</time>
      </trkpt>
      <trkpt lat="47.67188" lon="5.99643">
        <ele>271</ele>
        <time>2010-01-01T01:43:20Z</time>
      </trkpt>
      <trkpt lat="47.67189" lon="5.99646">
        <ele>270</ele>
        <time>2010-01-01T01:43:21Z</time>
      </trkpt>
      <trkpt lat="47.67191" lon="5.9965">
        <ele>270</ele>
        <time>2010-01-01T01:43:22Z</time>
      </trkpt>
      <trkpt lat="47.67193" lon="5.99653">
        <ele>269</ele>
        <time>2010-01-01T01:43:23Z</time>
      </trkpt>
      <trkpt lat="47.67195" lon="5.99658">
        <ele>269</ele>
        <time>2010-01-01T01:43:25Z</time>
      </trkpt>
      <trkpt lat="47.67197" lon="5.99663">
        <ele>269</ele>
        <time>2010-01-01T01:43:26Z</time>
      </trkpt>
      <trkpt lat="47.67199" lon="5.99668">
        <ele>268</ele>
        <time>2010-01-01T01:43:28Z</time>
      </trkpt>
      <trkpt lat="47.672" lon="5.99672">
        <ele>268</ele>
        <time>2010-01-01T01:43:29Z</time>
      </trkpt>
      <trkpt lat="47.67202" lon="5.99676">
        <ele>267</ele>
        <time>2010-01-01T01:43:31Z</time>
      </trkpt>
      <trkpt lat="47.67204" lon="5.99679">
        <ele>266</ele>
        <time>2010-01-01T01:43:32Z</time>
      </trkpt>
      <trkpt lat="47.67207" lon="5.99682">
        <ele>266</ele>
        <time>2010-01-01T01:43:33Z</time>
      </trkpt>
      <trkpt lat="47.67209" lon="5.99685">
        <ele>265</ele>
        <time>2010-01-01T01:43:34Z</time>
      </trkpt>
      <trkpt lat="47.6721" lon="5.99687">
        <ele>265</ele>
        <time>2010-01-01T01:43:35Z</time>
      </trkpt>
      <trkpt lat="47.67212" lon="5.99689">
        <ele>265</ele>
        <time>2010-01-01T01:43:36Z</time>
      </trkpt>
      <trkpt lat="47.67213" lon="5.9969">
        <ele>265</ele>
        <time>2010-01-01T01:43:36Z</time>
      </trkpt>
      <trkpt lat="47.67215" lon="5.99692">
        <ele>264</ele>
        <time>2010-01-01T01:43:37Z</time>
      </trkpt>
      <trkpt lat="47.67217" lon="5.99693">
        <ele>264</ele>
        <time>2010-01-01T01:43:38Z</time>
      </trkpt>
      <trkpt lat="47.67219" lon="5.99694">
        <ele>263</ele>
        <time>2010-01-01T01:43:39Z</time>
      </trkpt>
      <trkpt lat="47.67221" lon="5.99696">
        <ele>263</ele>
        <time>2010-01-01T01:43:40Z</time>
      </trkpt>
      <trkpt lat="47.67223" lon="5.99698">
        <ele>262</ele>
        <time>2010-01-01T01:43:41Z</time>
      </trkpt>
      <trkpt lat="47.67225" lon="5.99699">
        <ele>262</ele>
        <time>2010-01-01T01:43:42Z</time>
      </trkpt>
      <trkpt lat="47.67227" lon="5.997">
        <ele>262</ele>
        <time>2010-01-01T01:43:43Z</time>
      </trkpt>
      <trkpt lat="47.67228" lon="5.99703">
        <ele>262</ele>
        <time>2010-01-01T01:43:43Z</time>
      </trkpt>
      <trkpt lat="47.6723" lon="5.99706">
        <ele>262</ele>
        <time>2010-01-01T01:43:45Z</time>
      </trkpt>
      <trkpt lat="47.67232" lon="5.9971">
        <ele>262</ele>
        <time>2010-01-01T01:43:46Z</time>
      </trkpt>
      <trkpt lat="47.67234" lon="5.99713">
        <ele>262</ele>
        <time>2010-01-01T01:43:47Z</time>
      </trkpt>
      <trkpt lat="47.67236" lon="5.99718">
        <ele>262</ele>
        <time>2010-01-01T01:43:48Z</time>
      </trkpt>
      <trkpt lat="47.67238" lon="5.99723">
        <ele>261</ele>
        <time>2010-01-01T01:43:50Z</time>
      </trkpt>
      <trkpt lat="47.6724" lon="5.99728">
        <ele>261</ele>
        <time>2010-01-01T01:43:52Z</time>
      </trkpt>
      <trkpt lat="47.67242" lon="5.99734">
        <ele>261</ele>
        <time>2010-01-01T01:43:53Z</time>
      </trkpt>
      <trkpt lat="47.67243" lon="5.99739">
        <ele>260</ele>
        <time>2010-01-01T01:43:55Z</time>
      </trkpt>
      <trkpt lat="47.67245" lon="5.99744">
        <ele>260</ele>
        <time>2010-01-01T01:43:57Z</time>
      </trkpt>
      <trkpt lat="47.67247" lon="5.9975">
        <ele>260</ele>
        <time>2010-01-01T01:43:58Z</time>
      </trkpt>
      <trkpt lat="47.67249" lon="5.99755">
        <ele>259</ele>
        <time>2010-01-01T01:44:00Z</time>
      </trkpt>
      <trkpt lat="47.67251" lon="5.9976">
        <ele>258</ele>
        <time>2010-01-01T01:44:02Z</time>
      </trkpt>
      <trkpt lat="47.67253" lon="5.99764">
        <ele>258</ele>
        <time>2010-01-01T01:44:03Z</time>
      </trkpt>
      <trkpt lat="47.67255" lon="5.99767">
        <ele>258</ele>
        <time>2010-01-01T01:44:04Z</time>
      </trkpt>
      <trkpt lat="47.67256" lon="5.99769">
        <ele>258</ele>
        <time>2010-01-01T01:44:04Z</time>
      </trkpt>
      <trkpt lat="47.67257" lon="5.99771">
        <ele>258</ele>
        <time>2010-01-01T01:44:05Z</time>
      </trkpt>
      <trkpt lat="47.67259" lon="5.99773">
        <ele>257</ele>
        <time>2010-01-01T01:44:06Z</time>
      </trkpt>
      <trkpt lat="47.6726" lon="5.99775">
        <ele>257</ele>
        <time>2010-01-01T01:44:07Z</time>
      </trkpt>
      <trkpt lat="47.67261" lon="5.99777">
        <ele>256</ele>
        <time>2010-01-01T01:44:08Z</time>
      </trkpt>
      <trkpt lat="47.67262" lon="5.9978">
        <ele>256</ele>
        <time>2010-01-01T01:44:08Z</time>
      </trkpt>
      <trkpt lat="47.67261" lon="5.99784">
        <ele>256</ele>
        <time>2010-01-01T01:44:09Z</time>
      </trkpt>
      <trkpt lat="47.6726" lon="5.99785">
        <ele>256</ele>
        <time>2010-01-01T01:44:10Z</time>
      </trkpt>
      <trkpt lat="47.67259" lon="5.99787">
        <ele>256</ele>
        <time>2010-01-01T01:44:11Z</time>
      </trkpt>
      <trkpt lat="47.67258" lon="5.99789">
        <ele>256</ele>
        <time>2010-01-01T01:44:11Z</time>
      </trkpt>
      <trkpt lat="47.67256" lon="5.9979">
        <ele>256</ele>
        <time>2010-01-01T01:44:12Z</time>
      </trkpt>
      <trkpt lat="47.67254" lon="5.99791">
        <ele>256</ele>
        <time>2010-01-01T01:44:13Z</time>
      </trkpt>
      <trkpt lat="47.67252" lon="5.9979">
        <ele>256</ele>
        <time>2010-01-01T01:44:14Z</time>
      </trkpt>
      <trkpt lat="47.6725" lon="5.9979">
        <ele>256</ele>
        <time>2010-01-01T01:44:15Z</time>
      </trkpt>
      <trkpt lat="47.67248" lon="5.99789">
        <ele>256</ele>
        <time>2010-01-01T01:44:16Z</time>
      </trkpt>
      <trkpt lat="47.67245" lon="5.99788">
        <ele>256</ele>
        <time>2010-01-01T01:44:16Z</time>
      </trkpt>
      <trkpt lat="47.67243" lon="5.99787">
        <ele>256</ele>
        <time>2010-01-01T01:44:17Z</time>
      </trkpt>
      <trkpt lat="47.67241" lon="5.99787">
        <ele>256</ele>
        <time>2010-01-01T01:44:18Z</time>
      </trkpt>
      <trkpt lat="47.67239" lon="5.99786">
        <ele>256</ele>
        <time>2010-01-01T01:44:19Z</time>
      </trkpt>
      <trkpt lat="47.67238" lon="5.99785">
        <ele>256</ele>
        <time>2010-01-01T01:44:19Z</time>
      </trkpt>
      <trkpt lat="47.67236" lon="5.99785">
        <ele>256</ele>
        <time>2010-01-01T01:44:20Z</time>
      </trkpt>
      <trkpt lat="47.67235" lon="5.99784">
        <ele>256</ele>
        <time>2010-01-01T01:44:21Z</time>
      </trkpt>
      <trkpt lat="47.67233" lon="5.99783">
        <ele>256</ele>
        <time>2010-01-01T01:44:21Z</time>
      </trkpt>
      <trkpt lat="47.67232" lon="5.99782">
        <ele>256</ele>
        <time>2010-01-01T01:44:22Z</time>
      </trkpt>
      <trkpt lat="47.67229" lon="5.9978">
        <ele>256</ele>
        <time>2010-01-01T01:44:23Z</time>
      </trkpt>
      <trkpt lat="47.67228" lon="5.99779">
        <ele>256</ele>
        <time>2010-01-01T01:44:24Z</time>
      </trkpt>
      <trkpt lat="47.67227" lon="5.99778">
        <ele>256</ele>
        <time>2010-01-01T01:44:24Z</time>
      </trkpt>
      <trkpt lat="47.67225" lon="5.99777">
        <ele>256</ele>
        <time>2010-01-01T01:44:25Z</time>
      </trkpt>
      <trkpt lat="47.67223" lon="5.99775">
        <ele>256</ele>
        <time>2010-01-01T01:44:26Z</time>
      </trkpt>
      <trkpt lat="47.67221" lon="5.99774">
        <ele>256</ele>
        <time>2010-01-01T01:44:27Z</time>
      </trkpt>
      <trkpt lat="47.67219" lon="5.99773">
        <ele>256</ele>
        <time>2010-01-01T01:44:28Z</time>
      </trkpt>
      <trkpt lat="47.67217" lon="5.99772">
        <ele>256</ele>
        <time>2010-01-01T01:44:29Z</time>
      </trkpt>
      <trkpt lat="47.67215" lon="5.99771">
        <ele>256</ele>
        <time>2010-01-01T01:44:30Z</time>
      </trkpt>
      <trkpt lat="47.67212" lon="5.99769">
        <ele>256</ele>
        <time>2010-01-01T01:44:31Z</time>
      </trkpt>
      <trkpt lat="47.6721" lon="5.99768">
        <ele>256</ele>
        <time>2010-01-01T01:44:32Z</time>
      </trkpt>
      <trkpt lat="47.67207" lon="5.99767">
        <ele>256</ele>
        <time>2010-01-01T01:44:33Z</time>
      </trkpt>
      <trkpt lat="47.67204" lon="5.99766">
        <ele>256</ele>
        <time>2010-01-01T01:44:34Z</time>
      </trkpt>
      <trkpt lat="47.67202" lon="5.99765">
        <ele>256</ele>
        <time>2010-01-01T01:44:35Z</time>
      </trkpt>
      <trkpt lat="47.672" lon="5.99764">
        <ele>256</ele>
        <time>2010-01-01T01:44:36Z</time>
      </trkpt>
      <trkpt lat="47.67198" lon="5.99763">
        <ele>256</ele>
        <time>2010-01-01T01:44:37Z</time>
      </trkpt>
      <trkpt lat="47.67196" lon="5.99762">
        <ele>256</ele>
        <time>2010-01-01T01:44:38Z</time>
      </trkpt>
      <trkpt lat="47.67193" lon="5.99762">
        <ele>256</ele>
        <time>2010-01-01T01:44:39Z</time>
      </trkpt>
      <trkpt lat="47.6719" lon="5.99761">
        <ele>256</ele>
        <time>2010-01-01T01:44:40Z</time>
      </trkpt>
      <trkpt lat="47.67188" lon="5.9976">
        <ele>256</ele>
        <time>2010-01-01T01:44:41Z</time>
      </trkpt>
      <trkpt lat="47.67185" lon="5.9976">
        <ele>256</ele>
        <time>2010-01-01T01:44:42Z</time>
      </trkpt>
      <trkpt lat="47.67182" lon="5.9976">
        <ele>256</ele>
        <time>2010-01-01T01:44:43Z</time>
      </trkpt>
      <trkpt lat="47.67179" lon="5.9976">
        <ele>256</ele>
        <time>2010-01-01T01:44:44Z</time>
      </trkpt>
      <trkpt lat="47.67176" lon="5.9976">
        <ele>256</ele>
        <time>2010-01-01T01:44:45Z</time>
      </trkpt>
      <trkpt lat="47.67174" lon="5.9976">
        <ele>256</ele>
        <time>2010-01-01T01:44:46Z</time>
      </trkpt>
      <trkpt lat="47.67172" lon="5.9976">
        <ele>256</ele>
        <time>2010-01-01T01:44:47Z</time>
      </trkpt>
      <trkpt lat="47.67169" lon="5.99761">
        <ele>256</ele>
        <time>2010-01-01T01:44:48Z</time>
      </trkpt>
      <trkpt lat="47.67166" lon="5.99761">
        <ele>256</ele>
        <time>2010-01-01T01:44:50Z</time>
      </trkpt>
      <trkpt lat="47.67163" lon="5.99761">
        <ele>256</ele>
        <time>2010-01-01T01:44:51Z</time>
      </trkpt>
      <trkpt lat="47.6716" lon="5.99761">
        <ele>256</ele>
        <time>2010-01-01T01:44:52Z</time>
      </trkpt>
      <trkpt lat="47.67157" lon="5.99761">
        <ele>256</ele>
        <time>2010-01-01T01:44:53Z</time>
      </trkpt>
      <trkpt lat="47.67154" lon="5.99761">
        <ele>256</ele>
        <time>2010-01-01T01:44:54Z</time>
      </trkpt>
      <trkpt lat="47.67151" lon="5.9976">
        <ele>256</ele>
        <time>2010-01-01T01:44:55Z</time>
      </trkpt>
      <trkpt lat="47.67148" lon="5.99761">
        <ele>256</ele>
        <time>2010-01-01T01:44:57Z</time>
      </trkpt>
      <trkpt lat="47.67145" lon="5.99761">
        <ele>256</ele>
        <time>2010-01-01T01:44:58Z</time>
      </trkpt>
      <trkpt lat="47.67141" lon="5.99761">
        <ele>256</ele>
        <time>2010-01-01T01:45:00Z</time>
      </trkpt>
      <trkpt lat="47.67136" lon="5.99762">
        <ele>256</ele>
        <time>2010-01-01T01:45:01Z</time>
      </trkpt>
      <trkpt lat="47.67131" lon="5.99762">
        <ele>256</ele>
        <time>2010-01-01T01:45:03Z</time>
      </trkpt>
      <trkpt lat="47.67127" lon="5.99763">
        <ele>256</ele>
        <time>2010-01-01T01:45:05Z</time>
      </trkpt>
      <trkpt lat="47.67121" lon="5.99764">
        <ele>256</ele>
        <time>2010-01-01T01:45:08Z</time>
      </trkpt>
      <trkpt lat="47.67115" lon="5.99767">
        <ele>256</ele>
        <time>2010-01-01T01:45:10Z</time>
      </trkpt>
      <trkpt lat="47.67104" lon="5.99771">
        <ele>255</ele>
        <time>2010-01-01T01:45:15Z</time>
      </trkpt>
      <trkpt lat="47.67098" lon="5.99773">
        <ele>255</ele>
        <time>2010-01-01T01:45:17Z</time>
      </trkpt>
      <trkpt lat="47.67092" lon="5.99774">
        <ele>254</ele>
        <time>2010-01-01T01:45:19Z</time>
      </trkpt>
      <trkpt lat="47.67087" lon="5.99776">
        <ele>254</ele>
        <time>2010-01-01T01:45:22Z</time>
      </trkpt>
      <trkpt lat="47.67082" lon="5.99777">
        <ele>254</ele>
        <time>2010-01-01T01:45:23Z</time>
      </trkpt>
      <trkpt lat="47.67078" lon="5.99779">
        <ele>254</ele>
        <time>2010-01-01T01:45:25Z</time>
      </trkpt>
      <trkpt lat="47.67073" lon="5.9978">
        <ele>254</ele>
        <time>2010-01-01T01:45:27Z</time>
      </trkpt>
      <trkpt lat="47.67069" lon="5.99782">
        <ele>254</ele>
        <time>2010-01-01T01:45:29Z</time>
      </trkpt>
      <trkpt lat="47.67065" lon="5.99783">
        <ele>254</ele>
        <time>2010-01-01T01:45:31Z</time>
      </trkpt>
      <trkpt lat="47.67061" lon="5.99785">
        <ele>254</ele>
        <time>2010-01-01T01:45:32Z</time>
      </trkpt>
      <trkpt lat="47.67057" lon="5.99787">
        <ele>254</ele>
        <time>2010-01-01T01:45:34Z</time>
      </trkpt>
      <trkpt lat="47.67053" lon="5.99789">
        <ele>254</ele>
        <time>2010-01-01T01:45:36Z</time>
      </trkpt>
      <trkpt lat="47.6705" lon="5.99791">
        <ele>254</ele>
        <time>2010-01-01T01:45:37Z</time>
      </trkpt>
      <trkpt lat="47.67046" lon="5.99793">
        <ele>254</ele>
        <time>2010-01-01T01:45:39Z</time>
      </trkpt>
      <trkpt lat="47.67042" lon="5.99794">
        <ele>254</ele>
        <time>2010-01-01T01:45:40Z</time>
      </trkpt>
      <trkpt lat="47.67038" lon="5.99796">
        <ele>254</ele>
        <time>2010-01-01T01:45:42Z</time>
      </trkpt>
      <trkpt lat="47.67034" lon="5.99797">
        <ele>254</ele>
        <time>2010-01-01T01:45:44Z</time>
      </trkpt>
      <trkpt lat="47.6703" lon="5.99799">
        <ele>254</ele>
        <time>2010-01-01T01:45:45Z</time>
      </trkpt>
      <trkpt lat="47.67026" lon="5.99801">
        <ele>254</ele>
        <time>2010-01-01T01:45:47Z</time>
      </trkpt>
      <trkpt lat="47.67023" lon="5.99802">
        <ele>254</ele>
        <time>2010-01-01T01:45:48Z</time>
      </trkpt>
      <trkpt lat="47.67019" lon="5.99804">
        <ele>254</ele>
        <time>2010-01-01T01:45:50Z</time>
      </trkpt>
      <trkpt lat="47.67015" lon="5.99806">
        <ele>254</ele>
        <time>2010-01-01T01:45:51Z</time>
      </trkpt>
      <trkpt lat="47.67011" lon="5.99809">
        <ele>254</ele>
        <time>2010-01-01T01:45:53Z</time>
      </trkpt>
      <trkpt lat="47.67007" lon="5.99811">
        <ele>253</ele>
        <time>2010-01-01T01:45:55Z</time>
      </trkpt>
      <trkpt lat="47.67003" lon="5.99814">
        <ele>253</ele>
        <time>2010-01-01T01:45:57Z</time>
      </trkpt>
      <trkpt lat="47.66997" lon="5.99816">
        <ele>253</ele>
        <time>2010-01-01T01:45:59Z</time>
      </trkpt>
      <trkpt lat="47.66992" lon="5.99819">
        <ele>252</ele>
        <time>2010-01-01T01:46:01Z</time>
      </trkpt>
      <trkpt lat="47.66987" lon="5.9982">
        <ele>252</ele>
        <time>2010-01-01T01:46:04Z</time>
      </trkpt>
      <trkpt lat="47.66981" lon="5.9982">
        <ele>252</ele>
        <time>2010-01-01T01:46:06Z</time>
      </trkpt>
      <trkpt lat="47.66975" lon="5.99819">
        <ele>251</ele>
        <time>2010-01-01T01:46:08Z</time>
      </trkpt>
      <trkpt lat="47.66969" lon="5.99819">
        <ele>250</ele>
        <time>2010-01-01T01:46:11Z</time>
      </trkpt>
      <trkpt lat="47.66963" lon="5.99819">
        <ele>250</ele>
        <time>2010-01-01T01:46:13Z</time>
      </trkpt>
      <trkpt lat="47.66957" lon="5.99821">
        <ele>250</ele>
        <time>2010-01-01T01:46:15Z</time>
      </trkpt>
      <trkpt lat="47.66952" lon="5.99822">
        <ele>250</ele>
        <time>2010-01-01T01:46:18Z</time>
      </trkpt>
      <trkpt lat="47.66947" lon="5.99823">
        <ele>250</ele>
        <time>2010-01-01T01:46:19Z</time>
      </trkpt>
      <trkpt lat="47.66944" lon="5.99824">
        <ele>250</ele>
        <time>2010-01-01T01:46:21Z</time>
      </trkpt>
      <trkpt lat="47.66941" lon="5.99825">
        <ele>250</ele>
        <time>2010-01-01T01:46:22Z</time>
      </trkpt>
      <trkpt lat="47.66938" lon="5.99825">
        <ele>250</ele>
        <time>2010-01-01T01:46:23Z</time>
      </trkpt>
      <trkpt lat="47.66935" lon="5.99825">
        <ele>250</ele>
        <time>2010-01-01T01:46:25Z</time>
      </trkpt>
      <trkpt lat="47.66932" lon="5.99826">
        <ele>250</ele>
        <time>2010-01-01T01:46:26Z</time>
      </trkpt>
      <trkpt lat="47.66929" lon="5.99827">
        <ele>250</ele>
        <time>2010-01-01T01:46:27Z</time>
      </trkpt>
      <trkpt lat="47.66927" lon="5.99827">
        <ele>250</ele>
        <time>2010-01-01T01:46:28Z</time>
      </trkpt>
      <trkpt lat="47.66926" lon="5.99826">
        <ele>250</ele>
        <time>2010-01-01T01:46:28Z</time>
      </trkpt>
      <trkpt lat="47.66925" lon="5.99824">
        <ele>250</ele>
        <time>2010-01-01T01:46:29Z</time>
      </trkpt>
      <trkpt lat="47.66924" lon="5.99823">
        <ele>250</ele>
        <time>2010-01-01T01:46:29Z</time>
      </trkpt>
      <trkpt lat="47.66923" lon="5.9982">
        <ele>250</ele>
        <time>2010-01-01T01:46:30Z</time>
      </trkpt>
      <trkpt lat="47.66922" lon="5.99818">
        <ele>250</ele>
        <time>2010-01-01T01:46:31Z</time>
      </trkpt>
      <trkpt lat="47.66921" lon="5.99816">
        <ele>250</ele>
        <time>2010-01-01T01:46:31Z</time>
      </trkpt>
      <trkpt lat="47.6692" lon="5.99813">
        <ele>250</ele>
        <time>2010-01-01T01:46:32Z</time>
      </trkpt>
      <trkpt lat="47.66919" lon="5.99812">
        <ele>250</ele>
        <time>2010-01-01T01:46:33Z</time>
      </trkpt>
      <trkpt lat="47.66918" lon="5.9981">
        <ele>250</ele>
        <time>2010-01-01T01:46:33Z</time>
      </trkpt>
      <trkpt lat="47.66917" lon="5.99809">
        <ele>250</ele>
        <time>2010-01-01T01:46:34Z</time>
      </trkpt>
      <trkpt lat="47.66916" lon="5.99807">
        <ele>250</ele>
        <time>2010-01-01T01:46:35Z</time>
      </trkpt>
      <trkpt lat="47.66915" lon="5.99804">
        <ele>250</ele>
        <time>2010-01-01T01:46:35Z</time>
      </trkpt>
      <trkpt lat="47.66914" lon="5.99803">
        <ele>251</ele>
        <time>2010-01-01T01:46:36Z</time>
      </trkpt>
      <trkpt lat="47.66913" lon="5.99801">
        <ele>251</ele>
        <time>2010-01-01T01:46:37Z</time>
      </trkpt>
      <trkpt lat="47.66912" lon="5.998">
        <ele>251</ele>
        <time>2010-01-01T01:46:37Z</time>
      </trkpt>
      <trkpt lat="47.66911" lon="5.99798">
        <ele>252</ele>
        <time>2010-01-01T01:46:38Z</time>
      </trkpt>
      <trkpt lat="47.6691" lon="5.99797">
        <ele>252</ele>
        <time>2010-01-01T01:46:38Z</time>
      </trkpt>
      <trkpt lat="47.66909" lon="5.99795">
        <ele>252</ele>
        <time>2010-01-01T01:46:39Z</time>
      </trkpt>
      <trkpt lat="47.66908" lon="5.99793">
        <ele>252</ele>
        <time>2010-01-01T01:46:40Z</time>
      </trkpt>
      <trkpt lat="47.66907" lon="5.99791">
        <ele>252</ele>
        <time>2010-01-01T01:46:40Z</time>
      </trkpt>
      <trkpt lat="47.66906" lon="5.99789">
        <ele>252</ele>
        <time>2010-01-01T01:46:41Z</time>
      </trkpt>
      <trkpt lat="47.66905" lon="5.99786">
        <ele>252</ele>
        <time>2010-01-01T01:46:42Z</time>
      </trkpt>
      <trkpt lat="47.66905" lon="5.99784">
        <ele>252</ele>
        <time>2010-01-01T01:46:42Z</time>
      </trkpt>
      <trkpt lat="47.66904" lon="5.99782">
        <ele>252</ele>
        <time>2010-01-01T01:46:43Z</time>
      </trkpt>
      <trkpt lat="47.66903" lon="5.9978">
        <ele>253</ele>
        <time>2010-01-01T01:46:44Z</time>
      </trkpt>
      <trkpt lat="47.66902" lon="5.99778">
        <ele>253</ele>
        <time>2010-01-01T01:46:45Z</time>
      </trkpt>
      <trkpt lat="47.66901" lon="5.99776">
        <ele>253</ele>
        <time>2010-01-01T01:46:45Z</time>
      </trkpt>
      <trkpt lat="47.669" lon="5.99774">
        <ele>254</ele>
        <time>2010-01-01T01:46:46Z</time>
      </trkpt>
      <trkpt lat="47.669" lon="5.99772">
        <ele>254</ele>
        <time>2010-01-01T01:46:46Z</time>
      </trkpt>
      <trkpt lat="47.66899" lon="5.9977">
        <ele>254</ele>
        <time>2010-01-01T01:46:47Z</time>
      </trkpt>
      <trkpt lat="47.66898" lon="5.99768">
        <ele>254</ele>
        <time>2010-01-01T01:46:48Z</time>
      </trkpt>
      <trkpt lat="47.66898" lon="5.99767">
        <ele>254</ele>
        <time>2010-01-01T01:46:48Z</time>
      </trkpt>
      <trkpt lat="47.66897" lon="5.99763">
        <ele>256</ele>
        <time>2010-01-01T01:46:49Z</time>
      </trkpt>
      <trkpt lat="47.66896" lon="5.99762">
        <ele>256</ele>
        <time>2010-01-01T01:46:49Z</time>
      </trkpt>
      <trkpt lat="47.66896" lon="5.99761">
        <ele>256</ele>
        <time>2010-01-01T01:46:50Z</time>
      </trkpt>
      <trkpt lat="47.66896" lon="5.99759">
        <ele>256</ele>
        <time>2010-01-01T01:46:50Z</time>
      </trkpt>
      <trkpt lat="47.66895" lon="5.99758">
        <ele>256</ele>
        <time>2010-01-01T01:46:51Z</time>
      </trkpt>
      <trkpt lat="47.66895" lon="5.99756">
        <ele>256</ele>
        <time>2010-01-01T01:46:51Z</time>
      </trkpt>
      <trkpt lat="47.66894" lon="5.99756">
        <ele>256</ele>
        <time>2010-01-01T01:46:51Z</time>
      </trkpt>
      <trkpt lat="47.66894" lon="5.99756">
        <ele>256</ele>
        <time>2010-01-01T01:46:51Z</time>
      </trkpt>
      <trkpt lat="47.66893" lon="5.99753">
        <ele>256</ele>
        <time>2010-01-01T01:46:52Z</time>
      </trkpt>
      <trkpt lat="47.66893" lon="5.99753">
        <ele>257</ele>
        <time>2010-01-01T01:46:52Z</time>
      </trkpt>
      <trkpt lat="47.66893" lon="5.99752">
        <ele>257</ele>
        <time>2010-01-01T01:46:52Z</time>
      </trkpt>
      <trkpt lat="47.66892" lon="5.99751">
        <ele>258</ele>
        <time>2010-01-01T01:46:53Z</time>
      </trkpt>
      <trkpt lat="47.66892" lon="5.99751">
        <ele>258</ele>
        <time>2010-01-01T01:46:53Z</time>
      </trkpt>
      <trkpt lat="47.66891" lon="5.9975">
        <ele>258</ele>
        <time>2010-01-01T01:46:53Z</time>
      </trkpt>
      <trkpt lat="47.6689" lon="5.99748">
        <ele>258</ele>
        <time>2010-01-01T01:46:54Z</time>
      </trkpt>
      <trkpt lat="47.6689" lon="5.99747">
        <ele>258</ele>
        <time>2010-01-01T01:46:54Z</time>
      </trkpt>
      <trkpt lat="47.66889" lon="5.99746">
        <ele>258</ele>
        <time>2010-01-01T01:46:55Z</time>
      </trkpt>
      <trkpt lat="47.66889" lon="5.99744">
        <ele>258</ele>
        <time>2010-01-01T01:46:55Z</time>
      </trkpt>
      <trkpt lat="47.66888" lon="5.99743">
        <ele>258</ele>
        <time>2010-01-01T01:46:56Z</time>
      </trkpt>
      <trkpt lat="47.66887" lon="5.99742">
        <ele>258</ele>
        <time>2010-01-01T01:46:56Z</time>
      </trkpt>
      <trkpt lat="47.66887" lon="5.99741">
        <ele>259</ele>
        <time>2010-01-01T01:46:56Z</time>
      </trkpt>
      <trkpt lat="47.66886" lon="5.99741">
        <ele>259</ele>
        <time>2010-01-01T01:46:57Z</time>
      </trkpt>
      <trkpt lat="47.66886" lon="5.9974">
        <ele>260</ele>
        <time>2010-01-01T01:46:57Z</time>
      </trkpt>
      <trkpt lat="47.66885" lon="5.99739">
        <ele>260</ele>
        <time>2010-01-01T01:46:57Z</time>
      </trkpt>
      <trkpt lat="47.66885" lon="5.99738">
        <ele>260</ele>
        <time>2010-01-01T01:46:58Z</time>
      </trkpt>
      <trkpt lat="47.66885" lon="5.99736">
        <ele>260</ele>
        <time>2010-01-01T01:46:58Z</time>
      </trkpt>
      <trkpt lat="47.66884" lon="5.99735">
        <ele>260</ele>
        <time>2010-01-01T01:46:58Z</time>
      </trkpt>
      <trkpt lat="47.66884" lon="5.99734">
        <ele>260</ele>
        <time>2010-01-01T01:46:59Z</time>
      </trkpt>
      <trkpt lat="47.66883" lon="5.99733">
        <ele>260</ele>
        <time>2010-01-01T01:46:59Z</time>
      </trkpt>
      <trkpt lat="47.66882" lon="5.99732">
        <ele>260</ele>
        <time>2010-01-01T01:46:59Z</time>
      </trkpt>
      <trkpt lat="47.66882" lon="5.99731">
        <ele>260</ele>
        <time>2010-01-01T01:47:00Z</time>
      </trkpt>
      <trkpt lat="47.66881" lon="5.9973">
        <ele>260</ele>
        <time>2010-01-01T01:47:00Z</time>
      </trkpt>
      <trkpt lat="47.66881" lon="5.99729">
        <ele>260</ele>
        <time>2010-01-01T01:47:01Z</time>
      </trkpt>
      <trkpt lat="47.6688" lon="5.99728">
        <ele>261</ele>
        <time>2010-01-01T01:47:01Z</time>
      </trkpt>
      <trkpt lat="47.6688" lon="5.99726">
        <ele>261</ele>
        <time>2010-01-01T01:47:01Z</time>
      </trkpt>
      <trkpt lat="47.66879" lon="5.99725">
        <ele>262</ele>
        <time>2010-01-01T01:47:02Z</time>
      </trkpt>
      <trkpt lat="47.66879" lon="5.99725">
        <ele>262</ele>
        <time>2010-01-01T01:47:02Z</time>
      </trkpt>
      <trkpt lat="47.66879" lon="5.99723">
        <ele>262</ele>
        <time>2010-01-01T01:47:02Z</time>
      </trkpt>
      <trkpt lat="47.66879" lon="5.99722">
        <ele>262</ele>
        <time>2010-01-01T01:47:03Z</time>
      </trkpt>
      <trkpt lat="47.66878" lon="5.99721">
        <ele>262</ele>
        <time>2010-01-01T01:47:03Z</time>
      </trkpt>
      <trkpt lat="47.66878" lon="5.9972">
        <ele>262</ele>
        <time>2010-01-01T01:47:03Z</time>
      </trkpt>
      <trkpt lat="47.66878" lon="5.99718">
        <ele>262</ele>
        <time>2010-01-01T01:47:04Z</time>
      </trkpt>
      <trkpt lat="47.66877" lon="5.99718">
        <ele>262</ele>
        <time>2010-01-01T01:47:04Z</time>
      </trkpt>
      <trkpt lat="47.66876" lon="5.99717">
        <ele>262</ele>
        <time>2010-01-01T01:47:04Z</time>
      </trkpt>
      <trkpt lat="47.66876" lon="5.99715">
        <ele>262</ele>
        <time>2010-01-01T01:47:05Z</time>
      </trkpt>
      <trkpt lat="47.66876" lon="5.99714">
        <ele>262</ele>
        <time>2010-01-01T01:47:05Z</time>
      </trkpt>
      <trkpt lat="47.66875" lon="5.99713">
        <ele>262</ele>
        <time>2010-01-01T01:47:05Z</time>
      </trkpt>
      <trkpt lat="47.66874" lon="5.99712">
        <ele>262</ele>
        <time>2010-01-01T01:47:06Z</time>
      </trkpt>
      <trkpt lat="47.66874" lon="5.99711">
        <ele>262</ele>
        <time>2010-01-01T01:47:06Z</time>
      </trkpt>
      <trkpt lat="47.66873" lon="5.9971">
        <ele>262</ele>
        <time>2010-01-01T01:47:07Z</time>
      </trkpt>
      <trkpt lat="47.66873" lon="5.99709">
        <ele>263</ele>
        <time>2010-01-01T01:47:07Z</time>
      </trkpt>
      <trkpt lat="47.66872" lon="5.99708">
        <ele>263</ele>
        <time>2010-01-01T01:47:07Z</time>
      </trkpt>
      <trkpt lat="47.66872" lon="5.99707">
        <ele>264</ele>
        <time>2010-01-01T01:47:08Z</time>
      </trkpt>
      <trkpt lat="47.66871" lon="5.99707">
        <ele>264</ele>
        <time>2010-01-01T01:47:08Z</time>
      </trkpt>
      <trkpt lat="47.66871" lon="5.99706">
        <ele>264</ele>
        <time>2010-01-01T01:47:08Z</time>
      </trkpt>
      <trkpt lat="47.66871" lon="5.99705">
        <ele>264</ele>
        <time>2010-01-01T01:47:08Z</time>
      </trkpt>
      <trkpt lat="47.6687" lon="5.99704">
        <ele>264</ele>
        <time>2010-01-01T01:47:09Z</time>
      </trkpt>
      <trkpt lat="47.66869" lon="5.99704">
        <ele>264</ele>
        <time>2010-01-01T01:47:09Z</time>
      </trkpt>
      <trkpt lat="47.66868" lon="5.99703">
        <ele>264</ele>
        <time>2010-01-01T01:47:09Z</time>
      </trkpt>
      <trkpt lat="47.66868" lon="5.99703">
        <ele>264</ele>
        <time>2010-01-01T01:47:10Z</time>
      </trkpt>
      <trkpt lat="47.66867" lon="5.99702">
        <ele>264</ele>
        <time>2010-01-01T01:47:10Z</time>
      </trkpt>
      <trkpt lat="47.66866" lon="5.99701">
        <ele>264</ele>
        <time>2010-01-01T01:47:10Z</time>
      </trkpt>
      <trkpt lat="47.66867" lon="5.99701">
        <ele>264</ele>
        <time>2010-01-01T01:47:10Z</time>
      </trkpt>
      <trkpt lat="47.66866" lon="5.99699">
        <ele>264</ele>
        <time>2010-01-01T01:47:11Z</time>
      </trkpt>
      <trkpt lat="47.66865" lon="5.99697">
        <ele>264</ele>
        <time>2010-01-01T01:47:12Z</time>
      </trkpt>
      <trkpt lat="47.66863" lon="5.99695">
        <ele>264</ele>
        <time>2010-01-01T01:47:12Z</time>
      </trkpt>
      <trkpt lat="47.66862" lon="5.99694">
        <ele>264</ele>
        <time>2010-01-01T01:47:13Z</time>
      </trkpt>
      <trkpt lat="47.66861" lon="5.99691">
        <ele>265</ele>
        <time>2010-01-01T01:47:14Z</time>
      </trkpt>
      <trkpt lat="47.6686" lon="5.99689">
        <ele>265</ele>
        <time>2010-01-01T01:47:14Z</time>
      </trkpt>
      <trkpt lat="47.66859" lon="5.99687">
        <ele>265</ele>
        <time>2010-01-01T01:47:15Z</time>
      </trkpt>
      <trkpt lat="47.66858" lon="5.99686">
        <ele>266</ele>
        <time>2010-01-01T01:47:16Z</time>
      </trkpt>
      <trkpt lat="47.66857" lon="5.99684">
        <ele>266</ele>
        <time>2010-01-01T01:47:16Z</time>
      </trkpt>
      <trkpt lat="47.66856" lon="5.99682">
        <ele>266</ele>
        <time>2010-01-01T01:47:17Z</time>
      </trkpt>
      <trkpt lat="47.66855" lon="5.9968">
        <ele>266</ele>
        <time>2010-01-01T01:47:18Z</time>
      </trkpt>
      <trkpt lat="47.66854" lon="5.99678">
        <ele>266</ele>
        <time>2010-01-01T01:47:18Z</time>
      </trkpt>
      <trkpt lat="47.66853" lon="5.99677">
        <ele>266</ele>
        <time>2010-01-01T01:47:19Z</time>
      </trkpt>
      <trkpt lat="47.66852" lon="5.99676">
        <ele>266</ele>
        <time>2010-01-01T01:47:19Z</time>
      </trkpt>
      <trkpt lat="47.6685" lon="5.99674">
        <ele>266</ele>
        <time>2010-01-01T01:47:20Z</time>
      </trkpt>
      <trkpt lat="47.66849" lon="5.99673">
        <ele>266</ele>
        <time>2010-01-01T01:47:21Z</time>
      </trkpt>
      <trkpt lat="47.66847" lon="5.99672">
        <ele>267</ele>
        <time>2010-01-01T01:47:21Z</time>
      </trkpt>
      <trkpt lat="47.66846" lon="5.99671">
        <ele>267</ele>
        <time>2010-01-01T01:47:22Z</time>
      </trkpt>
      <trkpt lat="47.66845" lon="5.9967">
        <ele>268</ele>
        <time>2010-01-01T01:47:23Z</time>
      </trkpt>
      <trkpt lat="47.66843" lon="5.99669">
        <ele>268</ele>
        <time>2010-01-01T01:47:23Z</time>
      </trkpt>
      <trkpt lat="47.66842" lon="5.99667">
        <ele>268</ele>
        <time>2010-01-01T01:47:24Z</time>
      </trkpt>
      <trkpt lat="47.66841" lon="5.99665">
        <ele>268</ele>
        <time>2010-01-01T01:47:25Z</time>
      </trkpt>
      <trkpt lat="47.6684" lon="5.99663">
        <ele>268</ele>
        <time>2010-01-01T01:47:25Z</time>
      </trkpt>
      <trkpt lat="47.66839" lon="5.99662">
        <ele>268</ele>
        <time>2010-01-01T01:47:26Z</time>
      </trkpt>
      <trkpt lat="47.66838" lon="5.99659">
        <ele>268</ele>
        <time>2010-01-01T01:47:27Z</time>
      </trkpt>
      <trkpt lat="47.66836" lon="5.99658">
        <ele>268</ele>
        <time>2010-01-01T01:47:27Z</time>
      </trkpt>
      <trkpt lat="47.66835" lon="5.99656">
        <ele>268</ele>
        <time>2010-01-01T01:47:28Z</time>
      </trkpt>
      <trkpt lat="47.66834" lon="5.99655">
        <ele>268</ele>
        <time>2010-01-01T01:47:28Z</time>
      </trkpt>
      <trkpt lat="47.66833" lon="5.99653">
        <ele>268</ele>
        <time>2010-01-01T01:47:29Z</time>
      </trkpt>
      <trkpt lat="47.66832" lon="5.99652">
        <ele>268</ele>
        <time>2010-01-01T01:47:30Z</time>
      </trkpt>
      <trkpt lat="47.66831" lon="5.9965">
        <ele>268</ele>
        <time>2010-01-01T01:47:30Z</time>
      </trkpt>
      <trkpt lat="47.6683" lon="5.99649">
        <ele>268</ele>
        <time>2010-01-01T01:47:31Z</time>
      </trkpt>
      <trkpt lat="47.66829" lon="5.99648">
        <ele>269</ele>
        <time>2010-01-01T01:47:31Z</time>
      </trkpt>
      <trkpt lat="47.66828" lon="5.99646">
        <ele>269</ele>
        <time>2010-01-01T01:47:32Z</time>
      </trkpt>
      <trkpt lat="47.66826" lon="5.99645">
        <ele>270</ele>
        <time>2010-01-01T01:47:33Z</time>
      </trkpt>
      <trkpt lat="47.66825" lon="5.99643">
        <ele>270</ele>
        <time>2010-01-01T01:47:33Z</time>
      </trkpt>
      <trkpt lat="47.66824" lon="5.99641">
        <ele>270</ele>
        <time>2010-01-01T01:47:34Z</time>
      </trkpt>
      <trkpt lat="47.66823" lon="5.99639">
        <ele>270</ele>
        <time>2010-01-01T01:47:35Z</time>
      </trkpt>
      <trkpt lat="47.66821" lon="5.99638">
        <ele>270</ele>
        <time>2010-01-01T01:47:35Z</time>
      </trkpt>
      <trkpt lat="47.66821" lon="5.99636">
        <ele>270</ele>
        <time>2010-01-01T01:47:36Z</time>
      </trkpt>
      <trkpt lat="47.6682" lon="5.99634">
        <ele>270</ele>
        <time>2010-01-01T01:47:37Z</time>
      </trkpt>
      <trkpt lat="47.6682" lon="5.99632">
        <ele>270</ele>
        <time>2010-01-01T01:47:37Z</time>
      </trkpt>
      <trkpt lat="47.66819" lon="5.9963">
        <ele>270</ele>
        <time>2010-01-01T01:47:38Z</time>
      </trkpt>
      <trkpt lat="47.66818" lon="5.99628">
        <ele>270</ele>
        <time>2010-01-01T01:47:38Z</time>
      </trkpt>
      <trkpt lat="47.66817" lon="5.99627">
        <ele>270</ele>
        <time>2010-01-01T01:47:39Z</time>
      </trkpt>
      <trkpt lat="47.66817" lon="5.99626">
        <ele>270</ele>
        <time>2010-01-01T01:47:39Z</time>
      </trkpt>
      <trkpt lat="47.66817" lon="5.99625">
        <ele>270</ele>
        <time>2010-01-01T01:47:39Z</time>
      </trkpt>
      <trkpt lat="47.66817" lon="5.99624">
        <ele>270</ele>
        <time>2010-01-01T01:47:40Z</time>
      </trkpt>
      <trkpt lat="47.66816" lon="5.99623">
        <ele>270</ele>
        <time>2010-01-01T01:47:40Z</time>
      </trkpt>
      <trkpt lat="47.66816" lon="5.99623">
        <ele>270</ele>
        <time>2010-01-01T01:47:40Z</time>
      </trkpt>
      <trkpt lat="47.66815" lon="5.99621">
        <ele>272</ele>
        <time>2010-01-01T01:47:41Z</time>
      </trkpt>
      <trkpt lat="47.66814" lon="5.99621">
        <ele>272</ele>
        <time>2010-01-01T01:47:41Z</time>
      </trkpt>
      <trkpt lat="47.66813" lon="5.99619">
        <ele>272</ele>
        <time>2010-01-01T01:47:42Z</time>
      </trkpt>
      <trkpt lat="47.66811" lon="5.99617">
        <ele>272</ele>
        <time>2010-01-01T01:47:42Z</time>
      </trkpt>
      <trkpt lat="47.6681" lon="5.99616">
        <ele>272</ele>
        <time>2010-01-01T01:47:43Z</time>
      </trkpt>
      <trkpt lat="47.66809" lon="5.99614">
        <ele>272</ele>
        <time>2010-01-01T01:47:44Z</time>
      </trkpt>
      <trkpt lat="47.66807" lon="5.99612">
        <ele>272</ele>
        <time>2010-01-01T01:47:45Z</time>
      </trkpt>
      <trkpt lat="47.66805" lon="5.9961">
        <ele>272</ele>
        <time>2010-01-01T01:47:46Z</time>
      </trkpt>
      <trkpt lat="47.66803" lon="5.99608">
        <ele>272</ele>
        <time>2010-01-01T01:47:47Z</time>
      </trkpt>
      <trkpt lat="47.66801" lon="5.99605">
        <ele>272</ele>
        <time>2010-01-01T01:47:48Z</time>
      </trkpt>
      <trkpt lat="47.66799" lon="5.99603">
        <ele>272</ele>
        <time>2010-01-01T01:47:49Z</time>
      </trkpt>
      <trkpt lat="47.66798" lon="5.996">
        <ele>272</ele>
        <time>2010-01-01T01:47:50Z</time>
      </trkpt>
      <trkpt lat="47.66797" lon="5.99597">
        <ele>272</ele>
        <time>2010-01-01T01:47:51Z</time>
      </trkpt>
      <trkpt lat="47.66795" lon="5.99594">
        <ele>272</ele>
        <time>2010-01-01T01:47:51Z</time>
      </trkpt>
      <trkpt lat="47.66794" lon="5.99592">
        <ele>272</ele>
        <time>2010-01-01T01:47:52Z</time>
      </trkpt>
      <trkpt lat="47.66792" lon="5.9959">
        <ele>272</ele>
        <time>2010-01-01T01:47:53Z</time>
      </trkpt>
      <trkpt lat="47.66791" lon="5.99588">
        <ele>272</ele>
        <time>2010-01-01T01:47:54Z</time>
      </trkpt>
      <trkpt lat="47.66789" lon="5.99586">
        <ele>273</ele>
        <time>2010-01-01T01:47:55Z</time>
      </trkpt>
      <trkpt lat="47.66787" lon="5.99584">
        <ele>273</ele>
        <time>2010-01-01T01:47:56Z</time>
      </trkpt>
      <trkpt lat="47.66786" lon="5.99582">
        <ele>274</ele>
        <time>2010-01-01T01:47:57Z</time>
      </trkpt>
      <trkpt lat="47.66784" lon="5.99579">
        <ele>274</ele>
        <time>2010-01-01T01:47:58Z</time>
      </trkpt>
      <trkpt lat="47.66783" lon="5.99577">
        <ele>275</ele>
        <time>2010-01-01T01:47:58Z</time>
      </trkpt>
      <trkpt lat="47.66782" lon="5.99574">
        <ele>275</ele>
        <time>2010-01-01T01:47:59Z</time>
      </trkpt>
      <trkpt lat="47.6678" lon="5.99571">
        <ele>275</ele>
        <time>2010-01-01T01:48:00Z</time>
      </trkpt>
      <trkpt lat="47.66779" lon="5.99568">
        <ele>275</ele>
        <time>2010-01-01T01:48:01Z</time>
      </trkpt>
      <trkpt lat="47.66777" lon="5.99565">
        <ele>275</ele>
        <time>2010-01-01T01:48:02Z</time>
      </trkpt>
      <trkpt lat="47.66775" lon="5.99562">
        <ele>275</ele>
        <time>2010-01-01T01:48:03Z</time>
      </trkpt>
      <trkpt lat="47.66774" lon="5.9956">
        <ele>275</ele>
        <time>2010-01-01T01:48:04Z</time>
      </trkpt>
      <trkpt lat="47.66773" lon="5.99558">
        <ele>275</ele>
        <time>2010-01-01T01:48:05Z</time>
      </trkpt>
      <trkpt lat="47.66772" lon="5.99556">
        <ele>275</ele>
        <time>2010-01-01T01:48:06Z</time>
      </trkpt>
      <trkpt lat="47.6677" lon="5.99553">
        <ele>275</ele>
        <time>2010-01-01T01:48:07Z</time>
      </trkpt>
      <trkpt lat="47.66769" lon="5.9955">
        <ele>275</ele>
        <time>2010-01-01T01:48:08Z</time>
      </trkpt>
      <trkpt lat="47.66767" lon="5.99548">
        <ele>275</ele>
        <time>2010-01-01T01:48:09Z</time>
      </trkpt>
      <trkpt lat="47.66765" lon="5.99545">
        <ele>275</ele>
        <time>2010-01-01T01:48:10Z</time>
      </trkpt>
      <trkpt lat="47.66764" lon="5.99542">
        <ele>275</ele>
        <time>2010-01-01T01:48:11Z</time>
      </trkpt>
      <trkpt lat="47.66762" lon="5.9954">
        <ele>275</ele>
        <time>2010-01-01T01:48:12Z</time>
      </trkpt>
      <trkpt lat="47.66761" lon="5.99537">
        <ele>275</ele>
        <time>2010-01-01T01:48:13Z</time>
      </trkpt>
      <trkpt lat="47.66759" lon="5.99534">
        <ele>275</ele>
        <time>2010-01-01T01:48:13Z</time>
      </trkpt>
      <trkpt lat="47.66758" lon="5.99532">
        <ele>275</ele>
        <time>2010-01-01T01:48:14Z</time>
      </trkpt>
      <trkpt lat="47.66756" lon="5.99531">
        <ele>275</ele>
        <time>2010-01-01T01:48:15Z</time>
      </trkpt>
      <trkpt lat="47.66755" lon="5.99529">
        <ele>275</ele>
        <time>2010-01-01T01:48:16Z</time>
      </trkpt>
      <trkpt lat="47.66754" lon="5.99527">
        <ele>275</ele>
        <time>2010-01-01T01:48:16Z</time>
      </trkpt>
      <trkpt lat="47.66753" lon="5.99525">
        <ele>275</ele>
        <time>2010-01-01T01:48:17Z</time>
      </trkpt>
      <trkpt lat="47.66751" lon="5.99523">
        <ele>275</ele>
        <time>2010-01-01T01:48:18Z</time>
      </trkpt>
      <trkpt lat="47.6675" lon="5.99522">
        <ele>275</ele>
        <time>2010-01-01T01:48:18Z</time>
      </trkpt>
      <trkpt lat="47.66748" lon="5.9952">
        <ele>275</ele>
        <time>2010-01-01T01:48:20Z</time>
      </trkpt>
      <trkpt lat="47.66745" lon="5.99517">
        <ele>275</ele>
        <time>2010-01-01T01:48:21Z</time>
      </trkpt>
      <trkpt lat="47.66743" lon="5.99513">
        <ele>275</ele>
        <time>2010-01-01T01:48:22Z</time>
      </trkpt>
      <trkpt lat="47.66741" lon="5.9951">
        <ele>275</ele>
        <time>2010-01-01T01:48:23Z</time>
      </trkpt>
      <trkpt lat="47.66739" lon="5.99508">
        <ele>275</ele>
        <time>2010-01-01T01:48:24Z</time>
      </trkpt>
      <trkpt lat="47.66737" lon="5.99506">
        <ele>275</ele>
        <time>2010-01-01T01:48:25Z</time>
      </trkpt>
      <trkpt lat="47.66734" lon="5.99502">
        <ele>275</ele>
        <time>2010-01-01T01:48:27Z</time>
      </trkpt>
      <trkpt lat="47.66732" lon="5.995">
        <ele>275</ele>
        <time>2010-01-01T01:48:28Z</time>
      </trkpt>
      <trkpt lat="47.66729" lon="5.99497">
        <ele>275</ele>
        <time>2010-01-01T01:48:29Z</time>
      </trkpt>
      <trkpt lat="47.66727" lon="5.99494">
        <ele>275</ele>
        <time>2010-01-01T01:48:30Z</time>
      </trkpt>
      <trkpt lat="47.66725" lon="5.99491">
        <ele>275</ele>
        <time>2010-01-01T01:48:31Z</time>
      </trkpt>
      <trkpt lat="47.66724" lon="5.99488">
        <ele>275</ele>
        <time>2010-01-01T01:48:33Z</time>
      </trkpt>
      <trkpt lat="47.66722" lon="5.99485">
        <ele>275</ele>
        <time>2010-01-01T01:48:34Z</time>
      </trkpt>
      <trkpt lat="47.66719" lon="5.99482">
        <ele>275</ele>
        <time>2010-01-01T01:48:35Z</time>
      </trkpt>
      <trkpt lat="47.66718" lon="5.99479">
        <ele>275</ele>
        <time>2010-01-01T01:48:36Z</time>
      </trkpt>
      <trkpt lat="47.66716" lon="5.99475">
        <ele>275</ele>
        <time>2010-01-01T01:48:37Z</time>
      </trkpt>
      <trkpt lat="47.66714" lon="5.99472">
        <ele>275</ele>
        <time>2010-01-01T01:48:38Z</time>
      </trkpt>
      <trkpt lat="47.66713" lon="5.99468">
        <ele>275</ele>
        <time>2010-01-01T01:48:39Z</time>
      </trkpt>
      <trkpt lat="47.66711" lon="5.99465">
        <ele>275</ele>
        <time>2010-01-01T01:48:41Z</time>
      </trkpt>
      <trkpt lat="47.66709" lon="5.99463">
        <ele>275</ele>
        <time>2010-01-01T01:48:41Z</time>
      </trkpt>
      <trkpt lat="47.66708" lon="5.9946">
        <ele>275</ele>
        <time>2010-01-01T01:48:42Z</time>
      </trkpt>
      <trkpt lat="47.66707" lon="5.99458">
        <ele>275</ele>
        <time>2010-01-01T01:48:43Z</time>
      </trkpt>
      <trkpt lat="47.66704" lon="5.99454">
        <ele>275</ele>
        <time>2010-01-01T01:48:44Z</time>
      </trkpt>
      <trkpt lat="47.66703" lon="5.99451">
        <ele>275</ele>
        <time>2010-01-01T01:48:46Z</time>
      </trkpt>
      <trkpt lat="47.66702" lon="5.99448">
        <ele>275</ele>
        <time>2010-01-01T01:48:46Z</time>
      </trkpt>
      <trkpt lat="47.667" lon="5.99445">
        <ele>275</ele>
        <time>2010-01-01T01:48:48Z</time>
      </trkpt>
      <trkpt lat="47.66698" lon="5.99443">
        <ele>275</ele>
        <time>2010-01-01T01:48:49Z</time>
      </trkpt>
      <trkpt lat="47.66695" lon="5.9944">
        <ele>275</ele>
        <time>2010-01-01T01:48:50Z</time>
      </trkpt>
      <trkpt lat="47.66693" lon="5.99437">
        <ele>275</ele>
        <time>2010-01-01T01:48:51Z</time>
      </trkpt>
      <trkpt lat="47.66691" lon="5.99434">
        <ele>275</ele>
        <time>2010-01-01T01:48:52Z</time>
      </trkpt>
      <trkpt lat="47.66688" lon="5.99431">
        <ele>275</ele>
        <time>2010-01-01T01:48:54Z</time>
      </trkpt>
      <trkpt lat="47.66685" lon="5.99426">
        <ele>275</ele>
        <time>2010-01-01T01:48:55Z</time>
      </trkpt>
      <trkpt lat="47.66682" lon="5.99421">
        <ele>275</ele>
        <time>2010-01-01T01:48:57Z</time>
      </trkpt>
      <trkpt lat="47.66679" lon="5.99417">
        <ele>275</ele>
        <time>2010-01-01T01:48:59Z</time>
      </trkpt>
      <trkpt lat="47.66677" lon="5.99413">
        <ele>275</ele>
        <time>2010-01-01T01:49:00Z</time>
      </trkpt>
      <trkpt lat="47.66674" lon="5.99408">
        <ele>275</ele>
        <time>2010-01-01T01:49:02Z</time>
      </trkpt>
      <trkpt lat="47.66671" lon="5.99404">
        <ele>275</ele>
        <time>2010-01-01T01:49:04Z</time>
      </trkpt>
      <trkpt lat="47.66668" lon="5.99399">
        <ele>275</ele>
        <time>2010-01-01T01:49:05Z</time>
      </trkpt>
      <trkpt lat="47.66666" lon="5.99394">
        <ele>275</ele>
        <time>2010-01-01T01:49:07Z</time>
      </trkpt>
      <trkpt lat="47.66663" lon="5.9939">
        <ele>274</ele>
        <time>2010-01-01T01:49:08Z</time>
      </trkpt>
      <trkpt lat="47.66661" lon="5.99387">
        <ele>274</ele>
        <time>2010-01-01T01:49:10Z</time>
      </trkpt>
      <trkpt lat="47.66659" lon="5.99383">
        <ele>273</ele>
        <time>2010-01-01T01:49:11Z</time>
      </trkpt>
      <trkpt lat="47.66656" lon="5.99379">
        <ele>273</ele>
        <time>2010-01-01T01:49:13Z</time>
      </trkpt>
      <trkpt lat="47.66654" lon="5.99375">
        <ele>272</ele>
        <time>2010-01-01T01:49:14Z</time>
      </trkpt>
      <trkpt lat="47.66652" lon="5.99371">
        <ele>272</ele>
        <time>2010-01-01T01:49:15Z</time>
      </trkpt>
      <trkpt lat="47.66651" lon="5.99368">
        <ele>272</ele>
        <time>2010-01-01T01:49:16Z</time>
      </trkpt>
      <trkpt lat="47.66649" lon="5.99365">
        <ele>272</ele>
        <time>2010-01-01T01:49:17Z</time>
      </trkpt>
      <trkpt lat="47.66648" lon="5.99363">
        <ele>272</ele>
        <time>2010-01-01T01:49:18Z</time>
      </trkpt>
      <trkpt lat="47.66645" lon="5.99361">
        <ele>272</ele>
        <time>2010-01-01T01:49:19Z</time>
      </trkpt>
      <trkpt lat="47.66644" lon="5.99359">
        <ele>272</ele>
        <time>2010-01-01T01:49:20Z</time>
      </trkpt>
      <trkpt lat="47.66643" lon="5.99357">
        <ele>272</ele>
        <time>2010-01-01T01:49:21Z</time>
      </trkpt>
      <trkpt lat="47.66641" lon="5.99354">
        <ele>271</ele>
        <time>2010-01-01T01:49:22Z</time>
      </trkpt>
      <trkpt lat="47.66638" lon="5.99351">
        <ele>271</ele>
        <time>2010-01-01T01:49:23Z</time>
      </trkpt>
      <trkpt lat="47.66637" lon="5.99348">
        <ele>271</ele>
        <time>2010-01-01T01:49:24Z</time>
      </trkpt>
      <trkpt lat="47.66635" lon="5.99346">
        <ele>270</ele>
        <time>2010-01-01T01:49:25Z</time>
      </trkpt>
      <trkpt lat="47.66634" lon="5.99345">
        <ele>270</ele>
        <time>2010-01-01T01:49:26Z</time>
      </trkpt>
      <trkpt lat="47.66633" lon="5.99344">
        <ele>270</ele>
        <time>2010-01-01T01:49:26Z</time>
      </trkpt>
      <trkpt lat="47.66633" lon="5.99344">
        <ele>270</ele>
        <time>2010-01-01T01:49:26Z</time>
      </trkpt>
      <trkpt lat="47.66633" lon="5.99344">
        <ele>270</ele>
        <time>2010-01-01T01:49:26Z</time>
      </trkpt>
      <trkpt lat="47.66633" lon="5.99344">
        <ele>271</ele>
        <time>2010-01-01T01:49:26Z</time>
      </trkpt>
      <trkpt lat="47.66631" lon="5.99342">
        <ele>271</ele>
        <time>2010-01-01T01:49:27Z</time>
      </trkpt>
      <trkpt lat="47.66629" lon="5.99339">
        <ele>271</ele>
        <time>2010-01-01T01:49:28Z</time>
      </trkpt>
      <trkpt lat="47.66627" lon="5.99335">
        <ele>271</ele>
        <time>2010-01-01T01:49:29Z</time>
      </trkpt>
      <trkpt lat="47.66624" lon="5.99331">
        <ele>270</ele>
        <time>2010-01-01T01:49:31Z</time>
      </trkpt>
      <trkpt lat="47.66621" lon="5.99327">
        <ele>270</ele>
        <time>2010-01-01T01:49:33Z</time>
      </trkpt>
      <trkpt lat="47.66619" lon="5.99323">
        <ele>270</ele>
        <time>2010-01-01T01:49:34Z</time>
      </trkpt>
      <trkpt lat="47.66617" lon="5.9932">
        <ele>269</ele>
        <time>2010-01-01T01:49:35Z</time>
      </trkpt>
      <trkpt lat="47.66615" lon="5.99318">
        <ele>269</ele>
        <time>2010-01-01T01:49:36Z</time>
      </trkpt>
      <trkpt lat="47.66613" lon="5.99315">
        <ele>269</ele>
        <time>2010-01-01T01:49:37Z</time>
      </trkpt>
      <trkpt lat="47.6661" lon="5.99312">
        <ele>269</ele>
        <time>2010-01-01T01:49:39Z</time>
      </trkpt>
      <trkpt lat="47.66608" lon="5.99309">
        <ele>268</ele>
        <time>2010-01-01T01:49:40Z</time>
      </trkpt>
      <trkpt lat="47.66606" lon="5.99307">
        <ele>268</ele>
        <time>2010-01-01T01:49:41Z</time>
      </trkpt>
      <trkpt lat="47.66604" lon="5.99304">
        <ele>268</ele>
        <time>2010-01-01T01:49:42Z</time>
      </trkpt>
      <trkpt lat="47.66602" lon="5.99301">
        <ele>267</ele>
        <time>2010-01-01T01:49:43Z</time>
      </trkpt>
      <trkpt lat="47.66601" lon="5.99298">
        <ele>267</ele>
        <time>2010-01-01T01:49:44Z</time>
      </trkpt>
      <trkpt lat="47.66599" lon="5.99296">
        <ele>267</ele>
        <time>2010-01-01T01:49:45Z</time>
      </trkpt>
      <trkpt lat="47.66598" lon="5.99293">
        <ele>267</ele>
        <time>2010-01-01T01:49:46Z</time>
      </trkpt>
      <trkpt lat="47.66596" lon="5.99292">
        <ele>267</ele>
        <time>2010-01-01T01:49:46Z</time>
      </trkpt>
      <trkpt lat="47.66596" lon="5.99291">
        <ele>267</ele>
        <time>2010-01-01T01:49:47Z</time>
      </trkpt>
      <trkpt lat="47.66596" lon="5.99291">
        <ele>267</ele>
        <time>2010-01-01T01:49:47Z</time>
      </trkpt>
      <trkpt lat="47.66595" lon="5.9929">
        <ele>267</ele>
        <time>2010-01-01T01:49:47Z</time>
      </trkpt>
      <trkpt lat="47.66595" lon="5.9929">
        <ele>267</ele>
        <time>2010-01-01T01:49:47Z</time>
      </trkpt>
      <trkpt lat="47.66594" lon="5.9929">
        <ele>267</ele>
        <time>2010-01-01T01:49:48Z</time>
      </trkpt>
      <trkpt lat="47.66593" lon="5.99291">
        <ele>267</ele>
        <time>2010-01-01T01:49:48Z</time>
      </trkpt>
      <trkpt lat="47.66592" lon="5.99292">
        <ele>267</ele>
        <time>2010-01-01T01:49:49Z</time>
      </trkpt>
      <trkpt lat="47.6659" lon="5.99294">
        <ele>267</ele>
        <time>2010-01-01T01:49:49Z</time>
      </trkpt>
      <trkpt lat="47.66589" lon="5.99295">
        <ele>267</ele>
        <time>2010-01-01T01:49:50Z</time>
      </trkpt>
      <trkpt lat="47.66588" lon="5.99297">
        <ele>267</ele>
        <time>2010-01-01T01:49:51Z</time>
      </trkpt>
      <trkpt lat="47.66587" lon="5.99298">
        <ele>267</ele>
        <time>2010-01-01T01:49:51Z</time>
      </trkpt>
      <trkpt lat="47.66586" lon="5.993">
        <ele>267</ele>
        <time>2010-01-01T01:49:52Z</time>
      </trkpt>
      <trkpt lat="47.66584" lon="5.99302">
        <ele>267</ele>
        <time>2010-01-01T01:49:53Z</time>
      </trkpt>
      <trkpt lat="47.66583" lon="5.99302">
        <ele>267</ele>
        <time>2010-01-01T01:49:53Z</time>
      </trkpt>
      <trkpt lat="47.66582" lon="5.99303">
        <ele>267</ele>
        <time>2010-01-01T01:49:54Z</time>
      </trkpt>
      <trkpt lat="47.66582" lon="5.99303">
        <ele>267</ele>
        <time>2010-01-01T01:49:54Z</time>
      </trkpt>
      <trkpt lat="47.66581" lon="5.99303">
        <ele>267</ele>
        <time>2010-01-01T01:49:54Z</time>
      </trkpt>
      <trkpt lat="47.66579" lon="5.99302">
        <ele>267</ele>
        <time>2010-01-01T01:49:55Z</time>
      </trkpt>
      <trkpt lat="47.66578" lon="5.99302">
        <ele>267</ele>
        <time>2010-01-01T01:49:55Z</time>
      </trkpt>
      <trkpt lat="47.66576" lon="5.99301">
        <ele>267</ele>
        <time>2010-01-01T01:49:56Z</time>
      </trkpt>
      <trkpt lat="47.66573" lon="5.99301">
        <ele>267</ele>
        <time>2010-01-01T01:49:57Z</time>
      </trkpt>
      <trkpt lat="47.6657" lon="5.993">
        <ele>267</ele>
        <time>2010-01-01T01:49:58Z</time>
      </trkpt>
      <trkpt lat="47.66568" lon="5.99299">
        <ele>267</ele>
        <time>2010-01-01T01:49:59Z</time>
      </trkpt>
      <trkpt lat="47.66565" lon="5.99298">
        <ele>267</ele>
        <time>2010-01-01T01:50:00Z</time>
      </trkpt>
      <trkpt lat="47.66562" lon="5.99296">
        <ele>267</ele>
        <time>2010-01-01T01:50:02Z</time>
      </trkpt>
      <trkpt lat="47.66559" lon="5.99294">
        <ele>267</ele>
        <time>2010-01-01T01:50:03Z</time>
      </trkpt>
      <trkpt lat="47.66556" lon="5.99293">
        <ele>267</ele>
        <time>2010-01-01T01:50:04Z</time>
      </trkpt>
      <trkpt lat="47.66553" lon="5.99293">
        <ele>267</ele>
        <time>2010-01-01T01:50:06Z</time>
      </trkpt>
      <trkpt lat="47.66549" lon="5.99292">
        <ele>267</ele>
        <time>2010-01-01T01:50:07Z</time>
      </trkpt>
      <trkpt lat="47.66546" lon="5.99292">
        <ele>267</ele>
        <time>2010-01-01T01:50:08Z</time>
      </trkpt>
      <trkpt lat="47.66543" lon="5.99292">
        <ele>267</ele>
        <time>2010-01-01T01:50:10Z</time>
      </trkpt>
      <trkpt lat="47.6654" lon="5.99293">
        <ele>267</ele>
        <time>2010-01-01T01:50:11Z</time>
      </trkpt>
      <trkpt lat="47.66537" lon="5.99293">
        <ele>267</ele>
        <time>2010-01-01T01:50:12Z</time>
      </trkpt>
      <trkpt lat="47.66534" lon="5.99294">
        <ele>266</ele>
        <time>2010-01-01T01:50:13Z</time>
      </trkpt>
      <trkpt lat="47.6653" lon="5.99293">
        <ele>266</ele>
        <time>2010-01-01T01:50:15Z</time>
      </trkpt>
      <trkpt lat="47.66527" lon="5.99294">
        <ele>266</ele>
        <time>2010-01-01T01:50:16Z</time>
      </trkpt>
      <trkpt lat="47.66525" lon="5.99294">
        <ele>265</ele>
        <time>2010-01-01T01:50:17Z</time>
      </trkpt>
      <trkpt lat="47.66522" lon="5.99294">
        <ele>265</ele>
        <time>2010-01-01T01:50:18Z</time>
      </trkpt>
      <trkpt lat="47.6652" lon="5.99293">
        <ele>265</ele>
        <time>2010-01-01T01:50:19Z</time>
      </trkpt>
      <trkpt lat="47.66518" lon="5.99292">
        <ele>265</ele>
        <time>2010-01-01T01:50:20Z</time>
      </trkpt>
      <trkpt lat="47.66516" lon="5.99291">
        <ele>265</ele>
        <time>2010-01-01T01:50:21Z</time>
      </trkpt>
      <trkpt lat="47.66513" lon="5.99291">
        <ele>265</ele>
        <time>2010-01-01T01:50:22Z</time>
      </trkpt>
      <trkpt lat="47.6651" lon="5.99291">
        <ele>265</ele>
        <time>2010-01-01T01:50:23Z</time>
      </trkpt>
      <trkpt lat="47.66506" lon="5.99291">
        <ele>265</ele>
        <time>2010-01-01T01:50:24Z</time>
      </trkpt>
      <trkpt lat="47.66503" lon="5.99291">
        <ele>265</ele>
        <time>2010-01-01T01:50:26Z</time>
      </trkpt>
      <trkpt lat="47.66501" lon="5.9929">
        <ele>265</ele>
        <time>2010-01-01T01:50:27Z</time>
      </trkpt>
      <trkpt lat="47.66499" lon="5.99289">
        <ele>265</ele>
        <time>2010-01-01T01:50:28Z</time>
      </trkpt>
      <trkpt lat="47.66496" lon="5.99288">
        <ele>265</ele>
        <time>2010-01-01T01:50:29Z</time>
      </trkpt>
      <trkpt lat="47.66494" lon="5.99287">
        <ele>265</ele>
        <time>2010-01-01T01:50:30Z</time>
      </trkpt>
      <trkpt lat="47.66491" lon="5.99285">
        <ele>265</ele>
        <time>2010-01-01T01:50:31Z</time>
      </trkpt>
      <trkpt lat="47.66488" lon="5.99284">
        <ele>264</ele>
        <time>2010-01-01T01:50:32Z</time>
      </trkpt>
      <trkpt lat="47.66484" lon="5.99283">
        <ele>264</ele>
        <time>2010-01-01T01:50:34Z</time>
      </trkpt>
      <trkpt lat="47.66481" lon="5.99282">
        <ele>263</ele>
        <time>2010-01-01T01:50:35Z</time>
      </trkpt>
      <trkpt lat="47.66479" lon="5.99282">
        <ele>263</ele>
        <time>2010-01-01T01:50:36Z</time>
      </trkpt>
      <trkpt lat="47.66475" lon="5.9928">
        <ele>263</ele>
        <time>2010-01-01T01:50:37Z</time>
      </trkpt>
      <trkpt lat="47.66472" lon="5.99277">
        <ele>263</ele>
        <time>2010-01-01T01:50:39Z</time>
      </trkpt>
      <trkpt lat="47.66469" lon="5.99276">
        <ele>263</ele>
        <time>2010-01-01T01:50:40Z</time>
      </trkpt>
      <trkpt lat="47.66465" lon="5.99273">
        <ele>263</ele>
        <time>2010-01-01T01:50:42Z</time>
      </trkpt>
      <trkpt lat="47.66461" lon="5.99269">
        <ele>263</ele>
        <time>2010-01-01T01:50:44Z</time>
      </trkpt>
      <trkpt lat="47.66457" lon="5.99266">
        <ele>262</ele>
        <time>2010-01-01T01:50:46Z</time>
      </trkpt>
      <trkpt lat="47.66453" lon="5.99262">
        <ele>262</ele>
        <time>2010-01-01T01:50:47Z</time>
      </trkpt>
      <trkpt lat="47.6645" lon="5.99258">
        <ele>261</ele>
        <time>2010-01-01T01:50:49Z</time>
      </trkpt>
      <trkpt lat="47.66447" lon="5.99253">
        <ele>261</ele>
        <time>2010-01-01T01:50:51Z</time>
      </trkpt>
      <trkpt lat="47.66443" lon="5.99247">
        <ele>260</ele>
        <time>2010-01-01T01:50:53Z</time>
      </trkpt>
      <trkpt lat="47.66439" lon="5.99242">
        <ele>260</ele>
        <time>2010-01-01T01:50:55Z</time>
      </trkpt>
      <trkpt lat="47.66436" lon="5.99235">
        <ele>260</ele>
        <time>2010-01-01T01:50:58Z</time>
      </trkpt>
      <trkpt lat="47.66432" lon="5.99228">
        <ele>260</ele>
        <time>2010-01-01T01:51:00Z</time>
      </trkpt>
      <trkpt lat="47.66428" lon="5.99222">
        <ele>260</ele>
        <time>2010-01-01T01:51:02Z</time>
      </trkpt>
      <trkpt lat="47.66425" lon="5.99217">
        <ele>260</ele>
        <time>2010-01-01T01:51:04Z</time>
      </trkpt>
      <trkpt lat="47.66421" lon="5.99212">
        <ele>260</ele>
        <time>2010-01-01T01:51:06Z</time>
      </trkpt>
      <trkpt lat="47.66417" lon="5.99209">
        <ele>259</ele>
        <time>2010-01-01T01:51:08Z</time>
      </trkpt>
      <trkpt lat="47.66413" lon="5.99206">
        <ele>259</ele>
        <time>2010-01-01T01:51:10Z</time>
      </trkpt>
      <trkpt lat="47.66408" lon="5.99204">
        <ele>258</ele>
        <time>2010-01-01T01:51:12Z</time>
      </trkpt>
      <trkpt lat="47.66404" lon="5.99203">
        <ele>258</ele>
        <time>2010-01-01T01:51:13Z</time>
      </trkpt>
      <trkpt lat="47.66399" lon="5.99205">
        <ele>258</ele>
        <time>2010-01-01T01:51:15Z</time>
      </trkpt>
      <trkpt lat="47.66396" lon="5.99208">
        <ele>258</ele>
        <time>2010-01-01T01:51:17Z</time>
      </trkpt>
      <trkpt lat="47.66393" lon="5.99211">
        <ele>258</ele>
        <time>2010-01-01T01:51:18Z</time>
      </trkpt>
      <trkpt lat="47.6639" lon="5.99215">
        <ele>258</ele>
        <time>2010-01-01T01:51:20Z</time>
      </trkpt>
      <trkpt lat="47.66385" lon="5.99219">
        <ele>258</ele>
        <time>2010-01-01T01:51:22Z</time>
      </trkpt>
      <trkpt lat="47.66382" lon="5.99222">
        <ele>258</ele>
        <time>2010-01-01T01:51:24Z</time>
      </trkpt>
      <trkpt lat="47.66378" lon="5.99226">
        <ele>257</ele>
        <time>2010-01-01T01:51:26Z</time>
      </trkpt>
      <trkpt lat="47.66374" lon="5.9923">
        <ele>257</ele>
        <time>2010-01-01T01:51:28Z</time>
      </trkpt>
      <trkpt lat="47.6637" lon="5.99234">
        <ele>256</ele>
        <time>2010-01-01T01:51:30Z</time>
      </trkpt>
      <trkpt lat="47.66365" lon="5.99237">
        <ele>256</ele>
        <time>2010-01-01T01:51:32Z</time>
      </trkpt>
      <trkpt lat="47.6636" lon="5.9924">
        <ele>256</ele>
        <time>2010-01-01T01:51:34Z</time>
      </trkpt>
      <trkpt lat="47.66355" lon="5.99244">
        <ele>256</ele>
        <time>2010-01-01T01:51:36Z</time>
      </trkpt>
      <trkpt lat="47.6635" lon="5.99248">
        <ele>256</ele>
        <time>2010-01-01T01:51:38Z</time>
      </trkpt>
      <trkpt lat="47.66346" lon="5.99252">
        <ele>256</ele>
        <time>2010-01-01T01:51:40Z</time>
      </trkpt>
      <trkpt lat="47.66341" lon="5.99256">
        <ele>256</ele>
        <time>2010-01-01T01:51:43Z</time>
      </trkpt>
      <trkpt lat="47.66336" lon="5.9926">
        <ele>255</ele>
        <time>2010-01-01T01:51:45Z</time>
      </trkpt>
      <trkpt lat="47.66331" lon="5.99264">
        <ele>255</ele>
        <time>2010-01-01T01:51:47Z</time>
      </trkpt>
      <trkpt lat="47.66326" lon="5.99268">
        <ele>254</ele>
        <time>2010-01-01T01:51:49Z</time>
      </trkpt>
      <trkpt lat="47.66321" lon="5.99273">
        <ele>254</ele>
        <time>2010-01-01T01:51:52Z</time>
      </trkpt>
      <trkpt lat="47.66316" lon="5.9928">
        <ele>253</ele>
        <time>2010-01-01T01:51:54Z</time>
      </trkpt>
      <trkpt lat="47.66312" lon="5.99288">
        <ele>253</ele>
        <time>2010-01-01T01:51:57Z</time>
      </trkpt>
      <trkpt lat="47.66308" lon="5.99296">
        <ele>253</ele>
        <time>2010-01-01T01:52:00Z</time>
      </trkpt>
      <trkpt lat="47.66304" lon="5.99304">
        <ele>252</ele>
        <time>2010-01-01T01:52:02Z</time>
      </trkpt>
      <trkpt lat="47.66301" lon="5.99311">
        <ele>252</ele>
        <time>2010-01-01T01:52:05Z</time>
      </trkpt>
      <trkpt lat="47.66298" lon="5.99319">
        <ele>252</ele>
        <time>2010-01-01T01:52:07Z</time>
      </trkpt>
      <trkpt lat="47.66294" lon="5.99326">
        <ele>252</ele>
        <time>2010-01-01T01:52:10Z</time>
      </trkpt>
      <trkpt lat="47.66291" lon="5.99332">
        <ele>252</ele>
        <time>2010-01-01T01:52:12Z</time>
      </trkpt>
      <trkpt lat="47.66288" lon="5.99338">
        <ele>252</ele>
        <time>2010-01-01T01:52:14Z</time>
      </trkpt>
      <trkpt lat="47.66287" lon="5.99343">
        <ele>252</ele>
        <time>2010-01-01T01:52:15Z</time>
      </trkpt>
      <trkpt lat="47.66286" lon="5.99348">
        <ele>252</ele>
        <time>2010-01-01T01:52:17Z</time>
      </trkpt>
      <trkpt lat="47.66284" lon="5.99353">
        <ele>252</ele>
        <time>2010-01-01T01:52:18Z</time>
      </trkpt>
      <trkpt lat="47.66283" lon="5.99359">
        <ele>252</ele>
        <time>2010-01-01T01:52:20Z</time>
      </trkpt>
      <trkpt lat="47.66282" lon="5.99364">
        <ele>252</ele>
        <time>2010-01-01T01:52:21Z</time>
      </trkpt>
      <trkpt lat="47.66279" lon="5.99368">
        <ele>252</ele>
        <time>2010-01-01T01:52:23Z</time>
      </trkpt>
      <trkpt lat="47.66277" lon="5.99372">
        <ele>252</ele>
        <time>2010-01-01T01:52:24Z</time>
      </trkpt>
      <trkpt lat="47.66275" lon="5.99376">
        <ele>252</ele>
        <time>2010-01-01T01:52:25Z</time>
      </trkpt>
      <trkpt lat="47.66272" lon="5.99379">
        <ele>252</ele>
        <time>2010-01-01T01:52:27Z</time>
      </trkpt>
      <trkpt lat="47.6627" lon="5.99383">
        <ele>252</ele>
        <time>2010-01-01T01:52:28Z</time>
      </trkpt>
      <trkpt lat="47.66267" lon="5.99387">
        <ele>252</ele>
        <time>2010-01-01T01:52:30Z</time>
      </trkpt>
      <trkpt lat="47.66265" lon="5.9939">
        <ele>253</ele>
        <time>2010-01-01T01:52:31Z</time>
      </trkpt>
      <trkpt lat="47.66262" lon="5.99394">
        <ele>253</ele>
        <time>2010-01-01T01:52:32Z</time>
      </trkpt>
      <trkpt lat="47.6626" lon="5.99398">
        <ele>253</ele>
        <time>2010-01-01T01:52:34Z</time>
      </trkpt>
      <trkpt lat="47.66257" lon="5.99402">
        <ele>254</ele>
        <time>2010-01-01T01:52:35Z</time>
      </trkpt>
      <trkpt lat="47.66254" lon="5.99406">
        <ele>254</ele>
        <time>2010-01-01T01:52:37Z</time>
      </trkpt>
      <trkpt lat="47.66252" lon="5.99409">
        <ele>254</ele>
        <time>2010-01-01T01:52:38Z</time>
      </trkpt>
      <trkpt lat="47.66249" lon="5.99412">
        <ele>254</ele>
        <time>2010-01-01T01:52:40Z</time>
      </trkpt>
      <trkpt lat="47.66246" lon="5.99416">
        <ele>254</ele>
        <time>2010-01-01T01:52:41Z</time>
      </trkpt>
      <trkpt lat="47.66243" lon="5.99419">
        <ele>254</ele>
        <time>2010-01-01T01:52:43Z</time>
      </trkpt>
      <trkpt lat="47.66241" lon="5.99423">
        <ele>254</ele>
        <time>2010-01-01T01:52:44Z</time>
      </trkpt>
      <trkpt lat="47.66238" lon="5.99427">
        <ele>254</ele>
        <time>2010-01-01T01:52:46Z</time>
      </trkpt>
      <trkpt lat="47.66236" lon="5.99431">
        <ele>254</ele>
        <time>2010-01-01T01:52:47Z</time>
      </trkpt>
      <trkpt lat="47.66234" lon="5.99434">
        <ele>255</ele>
        <time>2010-01-01T01:52:48Z</time>
      </trkpt>
      <trkpt lat="47.66232" lon="5.99438">
        <ele>255</ele>
        <time>2010-01-01T01:52:50Z</time>
      </trkpt>
      <trkpt lat="47.66229" lon="5.99442">
        <ele>256</ele>
        <time>2010-01-01T01:52:51Z</time>
      </trkpt>
      <trkpt lat="47.66227" lon="5.99445">
        <ele>256</ele>
        <time>2010-01-01T01:52:52Z</time>
      </trkpt>
      <trkpt lat="47.66224" lon="5.99449">
        <ele>256</ele>
        <time>2010-01-01T01:52:54Z</time>
      </trkpt>
      <trkpt lat="47.66222" lon="5.99452">
        <ele>256</ele>
        <time>2010-01-01T01:52:55Z</time>
      </trkpt>
      <trkpt lat="47.66219" lon="5.99456">
        <ele>256</ele>
        <time>2010-01-01T01:52:57Z</time>
      </trkpt>
      <trkpt lat="47.66216" lon="5.99459">
        <ele>256</ele>
        <time>2010-01-01T01:52:58Z</time>
      </trkpt>
      <trkpt lat="47.66214" lon="5.9946">
        <ele>256</ele>
        <time>2010-01-01T01:52:59Z</time>
      </trkpt>
      <trkpt lat="47.66211" lon="5.9946">
        <ele>257</ele>
        <time>2010-01-01T01:53:00Z</time>
      </trkpt>
      <trkpt lat="47.6621" lon="5.99458">
        <ele>257</ele>
        <time>2010-01-01T01:53:01Z</time>
      </trkpt>
      <trkpt lat="47.66208" lon="5.99456">
        <ele>257</ele>
        <time>2010-01-01T01:53:02Z</time>
      </trkpt>
      <trkpt lat="47.66208" lon="5.99454">
        <ele>258</ele>
        <time>2010-01-01T01:53:02Z</time>
      </trkpt>
      <trkpt lat="47.66207" lon="5.99453">
        <ele>258</ele>
        <time>2010-01-01T01:53:03Z</time>
      </trkpt>
      <trkpt lat="47.66206" lon="5.99452">
        <ele>258</ele>
        <time>2010-01-01T01:53:03Z</time>
      </trkpt>
      <trkpt lat="47.66205" lon="5.9945">
        <ele>258</ele>
        <time>2010-01-01T01:53:04Z</time>
      </trkpt>
      <trkpt lat="47.66204" lon="5.99448">
        <ele>258</ele>
        <time>2010-01-01T01:53:05Z</time>
      </trkpt>
      <trkpt lat="47.66202" lon="5.99444">
        <ele>258</ele>
        <time>2010-01-01T01:53:06Z</time>
      </trkpt>
      <trkpt lat="47.66201" lon="5.99442">
        <ele>258</ele>
        <time>2010-01-01T01:53:07Z</time>
      </trkpt>
      <trkpt lat="47.66199" lon="5.99438">
        <ele>258</ele>
        <time>2010-01-01T01:53:08Z</time>
      </trkpt>
      <trkpt lat="47.66198" lon="5.99435">
        <ele>258</ele>
        <time>2010-01-01T01:53:09Z</time>
      </trkpt>
      <trkpt lat="47.66196" lon="5.99432">
        <ele>258</ele>
        <time>2010-01-01T01:53:10Z</time>
      </trkpt>
      <trkpt lat="47.66194" lon="5.99428">
        <ele>258</ele>
        <time>2010-01-01T01:53:11Z</time>
      </trkpt>
      <trkpt lat="47.66192" lon="5.99425">
        <ele>258</ele>
        <time>2010-01-01T01:53:12Z</time>
      </trkpt>
      <trkpt lat="47.66191" lon="5.99421">
        <ele>258</ele>
        <time>2010-01-01T01:53:13Z</time>
      </trkpt>
      <trkpt lat="47.66189" lon="5.99417">
        <ele>258</ele>
        <time>2010-01-01T01:53:15Z</time>
      </trkpt>
      <trkpt lat="47.66186" lon="5.99414">
        <ele>258</ele>
        <time>2010-01-01T01:53:16Z</time>
      </trkpt>
      <trkpt lat="47.66184" lon="5.9941">
        <ele>258</ele>
        <time>2010-01-01T01:53:17Z</time>
      </trkpt>
      <trkpt lat="47.66182" lon="5.99405">
        <ele>258</ele>
        <time>2010-01-01T01:53:19Z</time>
      </trkpt>
      <trkpt lat="47.6618" lon="5.99401">
        <ele>258</ele>
        <time>2010-01-01T01:53:20Z</time>
      </trkpt>
      <trkpt lat="47.66177" lon="5.99397">
        <ele>258</ele>
        <time>2010-01-01T01:53:22Z</time>
      </trkpt>
      <trkpt lat="47.66175" lon="5.99392">
        <ele>258</ele>
        <time>2010-01-01T01:53:23Z</time>
      </trkpt>
      <trkpt lat="47.66173" lon="5.99388">
        <ele>258</ele>
        <time>2010-01-01T01:53:25Z</time>
      </trkpt>
      <trkpt lat="47.6617" lon="5.99384">
        <ele>258</ele>
        <time>2010-01-01T01:53:26Z</time>
      </trkpt>
      <trkpt lat="47.66168" lon="5.99379">
        <ele>258</ele>
        <time>2010-01-01T01:53:28Z</time>
      </trkpt>
      <trkpt lat="47.66165" lon="5.99375">
        <ele>258</ele>
        <time>2010-01-01T01:53:30Z</time>
      </trkpt>
      <trkpt lat="47.66163" lon="5.99371">
        <ele>258</ele>
        <time>2010-01-01T01:53:31Z</time>
      </trkpt>
      <trkpt lat="47.6616" lon="5.99366">
        <ele>258</ele>
        <time>2010-01-01T01:53:33Z</time>
      </trkpt>
      <trkpt lat="47.66158" lon="5.99362">
        <ele>258</ele>
        <time>2010-01-01T01:53:34Z</time>
      </trkpt>
      <trkpt lat="47.66155" lon="5.99357">
        <ele>258</ele>
        <time>2010-01-01T01:53:36Z</time>
      </trkpt>
      <trkpt lat="47.66152" lon="5.99352">
        <ele>258</ele>
        <time>2010-01-01T01:53:38Z</time>
      </trkpt>
      <trkpt lat="47.66149" lon="5.99346">
        <ele>258</ele>
        <time>2010-01-01T01:53:40Z</time>
      </trkpt>
      <trkpt lat="47.66147" lon="5.99341">
        <ele>258</ele>
        <time>2010-01-01T01:53:41Z</time>
      </trkpt>
      <trkpt lat="47.66144" lon="5.99336">
        <ele>258</ele>
        <time>2010-01-01T01:53:43Z</time>
      </trkpt>
      <trkpt lat="47.66141" lon="5.99331">
        <ele>258</ele>
        <time>2010-01-01T01:53:45Z</time>
      </trkpt>
      <trkpt lat="47.66139" lon="5.99326">
        <ele>258</ele>
        <time>2010-01-01T01:53:46Z</time>
      </trkpt>
      <trkpt lat="47.66136" lon="5.99321">
        <ele>258</ele>
        <time>2010-01-01T01:53:48Z</time>
      </trkpt>
      <trkpt lat="47.66133" lon="5.99316">
        <ele>258</ele>
        <time>2010-01-01T01:53:50Z</time>
      </trkpt>
      <trkpt lat="47.66131" lon="5.99311">
        <ele>258</ele>
        <time>2010-01-01T01:53:52Z</time>
      </trkpt>
      <trkpt lat="47.66128" lon="5.99305">
        <ele>258</ele>
        <time>2010-01-01T01:53:54Z</time>
      </trkpt>
      <trkpt lat="47.66125" lon="5.993">
        <ele>258</ele>
        <time>2010-01-01T01:53:55Z</time>
      </trkpt>
      <trkpt lat="47.66122" lon="5.99294">
        <ele>258</ele>
        <time>2010-01-01T01:53:57Z</time>
      </trkpt>
      <trkpt lat="47.66119" lon="5.99289">
        <ele>258</ele>
        <time>2010-01-01T01:53:59Z</time>
      </trkpt>
      <trkpt lat="47.66117" lon="5.99284">
        <ele>258</ele>
        <time>2010-01-01T01:54:01Z</time>
      </trkpt>
      <trkpt lat="47.66114" lon="5.99278">
        <ele>258</ele>
        <time>2010-01-01T01:54:03Z</time>
      </trkpt>
      <trkpt lat="47.66111" lon="5.99273">
        <ele>258</ele>
        <time>2010-01-01T01:54:05Z</time>
      </trkpt>
      <trkpt lat="47.66108" lon="5.99268">
        <ele>258</ele>
        <time>2010-01-01T01:54:06Z</time>
      </trkpt>
      <trkpt lat="47.66105" lon="5.99262">
        <ele>258</ele>
        <time>2010-01-01T01:54:08Z</time>
      </trkpt>
      <trkpt lat="47.66102" lon="5.99257">
        <ele>258</ele>
        <time>2010-01-01T01:54:10Z</time>
      </trkpt>
      <trkpt lat="47.661" lon="5.99251">
        <ele>258</ele>
        <time>2010-01-01T01:54:12Z</time>
      </trkpt>
      <trkpt lat="47.66097" lon="5.99246">
        <ele>258</ele>
        <time>2010-01-01T01:54:14Z</time>
      </trkpt>
      <trkpt lat="47.66094" lon="5.9924">
        <ele>258</ele>
        <time>2010-01-01T01:54:16Z</time>
      </trkpt>
      <trkpt lat="47.66091" lon="5.99235">
        <ele>258</ele>
        <time>2010-01-01T01:54:18Z</time>
      </trkpt>
      <trkpt lat="47.66088" lon="5.99229">
        <ele>258</ele>
        <time>2010-01-01T01:54:20Z</time>
      </trkpt>
      <trkpt lat="47.66085" lon="5.99224">
        <ele>258</ele>
        <time>2010-01-01T01:54:21Z</time>
      </trkpt>
      <trkpt lat="47.66082" lon="5.99218">
        <ele>258</ele>
        <time>2010-01-01T01:54:23Z</time>
      </trkpt>
      <trkpt lat="47.66079" lon="5.99212">
        <ele>258</ele>
        <time>2010-01-01T01:54:25Z</time>
      </trkpt>
      <trkpt lat="47.66076" lon="5.99207">
        <ele>258</ele>
        <time>2010-01-01T01:54:27Z</time>
      </trkpt>
      <trkpt lat="47.66073" lon="5.99202">
        <ele>258</ele>
        <time>2010-01-01T01:54:29Z</time>
      </trkpt>
      <trkpt lat="47.6607" lon="5.99197">
        <ele>258</ele>
        <time>2010-01-01T01:54:31Z</time>
      </trkpt>
      <trkpt lat="47.66067" lon="5.99191">
        <ele>258</ele>
        <time>2010-01-01T01:54:33Z</time>
      </trkpt>
      <trkpt lat="47.66064" lon="5.99185">
        <ele>258</ele>
        <time>2010-01-01T01:54:35Z</time>
      </trkpt>
      <trkpt lat="47.66061" lon="5.99179">
        <ele>258</ele>
        <time>2010-01-01T01:54:37Z</time>
      </trkpt>
      <trkpt lat="47.66058" lon="5.99173">
        <ele>257</ele>
        <time>2010-01-01T01:54:39Z</time>
      </trkpt>
      <trkpt lat="47.66055" lon="5.99167">
        <ele>257</ele>
        <time>2010-01-01T01:54:41Z</time>
      </trkpt>
      <trkpt lat="47.66053" lon="5.99162">
        <ele>257</ele>
        <time>2010-01-01T01:54:43Z</time>
      </trkpt>
      <trkpt lat="47.6605" lon="5.99156">
        <ele>256</ele>
        <time>2010-01-01T01:54:45Z</time>
      </trkpt>
      <trkpt lat="47.66047" lon="5.9915">
        <ele>256</ele>
        <time>2010-01-01T01:54:47Z</time>
      </trkpt>
      <trkpt lat="47.66044" lon="5.99144">
        <ele>256</ele>
        <time>2010-01-01T01:54:49Z</time>
      </trkpt>
      <trkpt lat="47.6604" lon="5.99139">
        <ele>256</ele>
        <time>2010-01-01T01:54:50Z</time>
      </trkpt>
      <trkpt lat="47.66038" lon="5.99133">
        <ele>256</ele>
        <time>2010-01-01T01:54:52Z</time>
      </trkpt>
      <trkpt lat="47.66034" lon="5.99127">
        <ele>256</ele>
        <time>2010-01-01T01:54:55Z</time>
      </trkpt>
      <trkpt lat="47.66031" lon="5.99121">
        <ele>256</ele>
        <time>2010-01-01T01:54:57Z</time>
      </trkpt>
      <trkpt lat="47.66028" lon="5.99116">
        <ele>256</ele>
        <time>2010-01-01T01:54:58Z</time>
      </trkpt>
      <trkpt lat="47.66025" lon="5.9911">
        <ele>256</ele>
        <time>2010-01-01T01:55:00Z</time>
      </trkpt>
      <trkpt lat="47.66022" lon="5.99104">
        <ele>256</ele>
        <time>2010-01-01T01:55:02Z</time>
      </trkpt>
      <trkpt lat="47.66019" lon="5.99099">
        <ele>256</ele>
        <time>2010-01-01T01:55:04Z</time>
      </trkpt>
      <trkpt lat="47.66017" lon="5.99093">
        <ele>256</ele>
        <time>2010-01-01T01:55:06Z</time>
      </trkpt>
      <trkpt lat="47.66013" lon="5.99087">
        <ele>256</ele>
        <time>2010-01-01T01:55:08Z</time>
      </trkpt>
      <trkpt lat="47.6601" lon="5.99081">
        <ele>256</ele>
        <time>2010-01-01T01:55:10Z</time>
      </trkpt>
      <trkpt lat="47.66007" lon="5.99076">
        <ele>256</ele>
        <time>2010-01-01T01:55:12Z</time>
      </trkpt>
      <trkpt lat="47.66004" lon="5.9907">
        <ele>256</ele>
        <time>2010-01-01T01:55:14Z</time>
      </trkpt>
      <trkpt lat="47.66001" lon="5.99064">
        <ele>256</ele>
        <time>2010-01-01T01:55:16Z</time>
      </trkpt>
      <trkpt lat="47.65998" lon="5.99058">
        <ele>256</ele>
        <time>2010-01-01T01:55:18Z</time>
      </trkpt>
      <trkpt lat="47.65995" lon="5.99052">
        <ele>256</ele>
        <time>2010-01-01T01:55:20Z</time>
      </trkpt>
      <trkpt lat="47.65992" lon="5.99046">
        <ele>256</ele>
        <time>2010-01-01T01:55:22Z</time>
      </trkpt>
      <trkpt lat="47.65989" lon="5.99039">
        <ele>256</ele>
        <time>2010-01-01T01:55:24Z</time>
      </trkpt>
      <trkpt lat="47.65986" lon="5.99034">
        <ele>256</ele>
        <time>2010-01-01T01:55:26Z</time>
      </trkpt>
      <trkpt lat="47.65983" lon="5.99029">
        <ele>256</ele>
        <time>2010-01-01T01:55:28Z</time>
      </trkpt>
      <trkpt lat="47.65979" lon="5.99025">
        <ele>257</ele>
        <time>2010-01-01T01:55:30Z</time>
      </trkpt>
      <trkpt lat="47.65976" lon="5.99022">
        <ele>257</ele>
        <time>2010-01-01T01:55:32Z</time>
      </trkpt>
      <trkpt lat="47.65971" lon="5.99019">
        <ele>257</ele>
        <time>2010-01-01T01:55:33Z</time>
      </trkpt>
      <trkpt lat="47.65967" lon="5.99017">
        <ele>257</ele>
        <time>2010-01-01T01:55:35Z</time>
      </trkpt>
      <trkpt lat="47.65962" lon="5.99015">
        <ele>257</ele>
        <time>2010-01-01T01:55:37Z</time>
      </trkpt>
      <trkpt lat="47.65957" lon="5.99013">
        <ele>257</ele>
        <time>2010-01-01T01:55:39Z</time>
      </trkpt>
      <trkpt lat="47.65952" lon="5.99011">
        <ele>256</ele>
        <time>2010-01-01T01:55:41Z</time>
      </trkpt>
      <trkpt lat="47.65947" lon="5.99009">
        <ele>256</ele>
        <time>2010-01-01T01:55:43Z</time>
      </trkpt>
      <trkpt lat="47.65943" lon="5.99008">
        <ele>256</ele>
        <time>2010-01-01T01:55:45Z</time>
      </trkpt>
      <trkpt lat="47.65938" lon="5.99005">
        <ele>256</ele>
        <time>2010-01-01T01:55:47Z</time>
      </trkpt>
      <trkpt lat="47.65933" lon="5.99003">
        <ele>256</ele>
        <time>2010-01-01T01:55:49Z</time>
      </trkpt>
      <trkpt lat="47.65928" lon="5.99001">
        <ele>256</ele>
        <time>2010-01-01T01:55:52Z</time>
      </trkpt>
      <trkpt lat="47.65922" lon="5.98999">
        <ele>256</ele>
        <time>2010-01-01T01:55:54Z</time>
      </trkpt>
      <trkpt lat="47.65917" lon="5.98997">
        <ele>256</ele>
        <time>2010-01-01T01:55:56Z</time>
      </trkpt>
      <trkpt lat="47.65912" lon="5.98994">
        <ele>256</ele>
        <time>2010-01-01T01:55:58Z</time>
      </trkpt>
      <trkpt lat="47.65907" lon="5.98993">
        <ele>256</ele>
        <time>2010-01-01T01:56:00Z</time>
      </trkpt>
      <trkpt lat="47.65902" lon="5.9899">
        <ele>256</ele>
        <time>2010-01-01T01:56:02Z</time>
      </trkpt>
      <trkpt lat="47.65897" lon="5.98989">
        <ele>256</ele>
        <time>2010-01-01T01:56:04Z</time>
      </trkpt>
      <trkpt lat="47.65892" lon="5.98987">
        <ele>256</ele>
        <time>2010-01-01T01:56:06Z</time>
      </trkpt>
      <trkpt lat="47.65888" lon="5.98985">
        <ele>256</ele>
        <time>2010-01-01T01:56:08Z</time>
      </trkpt>
      <trkpt lat="47.65883" lon="5.98983">
        <ele>256</ele>
        <time>2010-01-01T01:56:10Z</time>
      </trkpt>
      <trkpt lat="47.65878" lon="5.98981">
        <ele>255</ele>
        <time>2010-01-01T01:56:12Z</time>
      </trkpt>
      <trkpt lat="47.65874" lon="5.98976">
        <ele>255</ele>
        <time>2010-01-01T01:56:14Z</time>
      </trkpt>
      <trkpt lat="47.65871" lon="5.9897">
        <ele>254</ele>
        <time>2010-01-01T01:56:16Z</time>
      </trkpt>
      <trkpt lat="47.6587" lon="5.98963">
        <ele>254</ele>
        <time>2010-01-01T01:56:18Z</time>
      </trkpt>
      <trkpt lat="47.6587" lon="5.98955">
        <ele>254</ele>
        <time>2010-01-01T01:56:20Z</time>
      </trkpt>
      <trkpt lat="47.65871" lon="5.98948">
        <ele>254</ele>
        <time>2010-01-01T01:56:22Z</time>
      </trkpt>
      <trkpt lat="47.65872" lon="5.98941">
        <ele>254</ele>
        <time>2010-01-01T01:56:24Z</time>
      </trkpt>
      <trkpt lat="47.65873" lon="5.98935">
        <ele>254</ele>
        <time>2010-01-01T01:56:26Z</time>
      </trkpt>
      <trkpt lat="47.65874" lon="5.98928">
        <ele>254</ele>
        <time>2010-01-01T01:56:28Z</time>
      </trkpt>
      <trkpt lat="47.65875" lon="5.98922">
        <ele>254</ele>
        <time>2010-01-01T01:56:30Z</time>
      </trkpt>
      <trkpt lat="47.65876" lon="5.98915">
        <ele>254</ele>
        <time>2010-01-01T01:56:32Z</time>
      </trkpt>
      <trkpt lat="47.65877" lon="5.98909">
        <ele>254</ele>
        <time>2010-01-01T01:56:33Z</time>
      </trkpt>
      <trkpt lat="47.65878" lon="5.98902">
        <ele>254</ele>
        <time>2010-01-01T01:56:35Z</time>
      </trkpt>
      <trkpt lat="47.65879" lon="5.98895">
        <ele>254</ele>
        <time>2010-01-01T01:56:37Z</time>
      </trkpt>
      <trkpt lat="47.6588" lon="5.98889">
        <ele>254</ele>
        <time>2010-01-01T01:56:39Z</time>
      </trkpt>
      <trkpt lat="47.65881" lon="5.98882">
        <ele>254</ele>
        <time>2010-01-01T01:56:41Z</time>
      </trkpt>
      <trkpt lat="47.65882" lon="5.98875">
        <ele>253</ele>
        <time>2010-01-01T01:56:43Z</time>
      </trkpt>
      <trkpt lat="47.65882" lon="5.98869">
        <ele>253</ele>
        <time>2010-01-01T01:56:44Z</time>
      </trkpt>
      <trkpt lat="47.65883" lon="5.98865">
        <ele>252</ele>
        <time>2010-01-01T01:56:46Z</time>
      </trkpt>
      <trkpt lat="47.65884" lon="5.9886">
        <ele>252</ele>
        <time>2010-01-01T01:56:47Z</time>
      </trkpt>
      <trkpt lat="47.65885" lon="5.98856">
        <ele>252</ele>
        <time>2010-01-01T01:56:48Z</time>
      </trkpt>
      <trkpt lat="47.65887" lon="5.98848">
        <ele>252</ele>
        <time>2010-01-01T01:56:50Z</time>
      </trkpt>
      <trkpt lat="47.65888" lon="5.9884">
        <ele>252</ele>
        <time>2010-01-01T01:56:52Z</time>
      </trkpt>
      <trkpt lat="47.65889" lon="5.98832">
        <ele>251</ele>
        <time>2010-01-01T01:56:55Z</time>
      </trkpt>
      <trkpt lat="47.6589" lon="5.98824">
        <ele>251</ele>
        <time>2010-01-01T01:56:57Z</time>
      </trkpt>
      <trkpt lat="47.65891" lon="5.98815">
        <ele>250</ele>
        <time>2010-01-01T01:56:59Z</time>
      </trkpt>
      <trkpt lat="47.65892" lon="5.98807">
        <ele>250</ele>
        <time>2010-01-01T01:57:02Z</time>
      </trkpt>
      <trkpt lat="47.65893" lon="5.98798">
        <ele>250</ele>
        <time>2010-01-01T01:57:04Z</time>
      </trkpt>
      <trkpt lat="47.65894" lon="5.98788">
        <ele>250</ele>
        <time>2010-01-01T01:57:07Z</time>
      </trkpt>
      <trkpt lat="47.65894" lon="5.98779">
        <ele>250</ele>
        <time>2010-01-01T01:57:09Z</time>
      </trkpt>
      <trkpt lat="47.65895" lon="5.9877">
        <ele>249</ele>
        <time>2010-01-01T01:57:12Z</time>
      </trkpt>
      <trkpt lat="47.65896" lon="5.9876">
        <ele>249</ele>
        <time>2010-01-01T01:57:14Z</time>
      </trkpt>
      <trkpt lat="47.65898" lon="5.9875">
        <ele>248</ele>
        <time>2010-01-01T01:57:17Z</time>
      </trkpt>
      <trkpt lat="47.65899" lon="5.9874">
        <ele>248</ele>
        <time>2010-01-01T01:57:20Z</time>
      </trkpt>
      <trkpt lat="47.659" lon="5.98729">
        <ele>247</ele>
        <time>2010-01-01T01:57:23Z</time>
      </trkpt>
      <trkpt lat="47.659" lon="5.98719">
        <ele>247</ele>
        <time>2010-01-01T01:57:26Z</time>
      </trkpt>
      <trkpt lat="47.65901" lon="5.98707">
        <ele>246</ele>
        <time>2010-01-01T01:57:29Z</time>
      </trkpt>
      <trkpt lat="47.65902" lon="5.98697">
        <ele>246</ele>
        <time>2010-01-01T01:57:31Z</time>
      </trkpt>
      <trkpt lat="47.65902" lon="5.98687">
        <ele>245</ele>
        <time>2010-01-01T01:57:34Z</time>
      </trkpt>
      <trkpt lat="47.65902" lon="5.98677">
        <ele>245</ele>
        <time>2010-01-01T01:57:37Z</time>
      </trkpt>
      <trkpt lat="47.65902" lon="5.98667">
        <ele>244</ele>
        <time>2010-01-01T01:57:39Z</time>
      </trkpt>
      <trkpt lat="47.65902" lon="5.98657">
        <ele>244</ele>
        <time>2010-01-01T01:57:42Z</time>
      </trkpt>
      <trkpt lat="47.65902" lon="5.98647">
        <ele>243</ele>
        <time>2010-01-01T01:57:45Z</time>
      </trkpt>
      <trkpt lat="47.65902" lon="5.98636">
        <ele>243</ele>
        <time>2010-01-01T01:57:48Z</time>
      </trkpt>
      <trkpt lat="47.65902" lon="5.98625">
        <ele>242</ele>
        <time>2010-01-01T01:57:51Z</time>
      </trkpt>
      <trkpt lat="47.65902" lon="5.98615">
        <ele>242</ele>
        <time>2010-01-01T01:57:54Z</time>
      </trkpt>
      <trkpt lat="47.65902" lon="5.98604">
        <ele>242</ele>
        <time>2010-01-01T01:57:57Z</time>
      </trkpt>
      <trkpt lat="47.65903" lon="5.98592">
        <ele>241</ele>
        <time>2010-01-01T01:58:00Z</time>
      </trkpt>
      <trkpt lat="47.65904" lon="5.98581">
        <ele>240</ele>
        <time>2010-01-01T01:58:03Z</time>
      </trkpt>
      <trkpt lat="47.65904" lon="5.98571">
        <ele>239</ele>
        <time>2010-01-01T01:58:06Z</time>
      </trkpt>
      <trkpt lat="47.65905" lon="5.98561">
        <ele>239</ele>
        <time>2010-01-01T01:58:08Z</time>
      </trkpt>
      <trkpt lat="47.65906" lon="5.98552">
        <ele>238</ele>
        <time>2010-01-01T01:58:11Z</time>
      </trkpt>
      <trkpt lat="47.65905" lon="5.98542">
        <ele>238</ele>
        <time>2010-01-01T01:58:13Z</time>
      </trkpt>
      <trkpt lat="47.659" lon="5.98535">
        <ele>237</ele>
        <time>2010-01-01T01:58:16Z</time>
      </trkpt>
      <trkpt lat="47.65895" lon="5.9853">
        <ele>236</ele>
        <time>2010-01-01T01:58:19Z</time>
      </trkpt>
      <trkpt lat="47.65889" lon="5.98525">
        <ele>236</ele>
        <time>2010-01-01T01:58:21Z</time>
      </trkpt>
      <trkpt lat="47.65883" lon="5.98522">
        <ele>235</ele>
        <time>2010-01-01T01:58:24Z</time>
      </trkpt>
      <trkpt lat="47.65877" lon="5.98518">
        <ele>234</ele>
        <time>2010-01-01T01:58:26Z</time>
      </trkpt>
      <trkpt lat="47.65871" lon="5.98514">
        <ele>234</ele>
        <time>2010-01-01T01:58:29Z</time>
      </trkpt>
      <trkpt lat="47.65865" lon="5.9851">
        <ele>234</ele>
        <time>2010-01-01T01:58:32Z</time>
      </trkpt>
      <trkpt lat="47.65858" lon="5.98506">
        <ele>233</ele>
        <time>2010-01-01T01:58:34Z</time>
      </trkpt>
      <trkpt lat="47.65852" lon="5.98501">
        <ele>233</ele>
        <time>2010-01-01T01:58:37Z</time>
      </trkpt>
      <trkpt lat="47.65846" lon="5.98496">
        <ele>232</ele>
        <time>2010-01-01T01:58:40Z</time>
      </trkpt>
      <trkpt lat="47.6584" lon="5.98491">
        <ele>232</ele>
        <time>2010-01-01T01:58:43Z</time>
      </trkpt>
      <trkpt lat="47.65833" lon="5.98487">
        <ele>232</ele>
        <time>2010-01-01T01:58:46Z</time>
      </trkpt>
      <trkpt lat="47.65827" lon="5.98482">
        <ele>231</ele>
        <time>2010-01-01T01:58:48Z</time>
      </trkpt>
      <trkpt lat="47.65822" lon="5.98478">
        <ele>231</ele>
        <time>2010-01-01T01:58:51Z</time>
      </trkpt>
      <trkpt lat="47.65817" lon="5.98474">
        <ele>230</ele>
        <time>2010-01-01T01:58:53Z</time>
      </trkpt>
      <trkpt lat="47.65814" lon="5.98472">
        <ele>230</ele>
        <time>2010-01-01T01:58:55Z</time>
      </trkpt>
      <trkpt lat="47.65812" lon="5.98468">
        <ele>229</ele>
        <time>2010-01-01T01:58:56Z</time>
      </trkpt>
      <trkpt lat="47.65813" lon="5.98464">
        <ele>229</ele>
        <time>2010-01-01T01:58:57Z</time>
      </trkpt>
      <trkpt lat="47.65815" lon="5.98459">
        <ele>228</ele>
        <time>2010-01-01T01:58:58Z</time>
      </trkpt>
      <trkpt lat="47.65818" lon="5.98454">
        <ele>228</ele>
        <time>2010-01-01T01:59:00Z</time>
      </trkpt>
      <trkpt lat="47.65822" lon="5.98448">
        <ele>227</ele>
        <time>2010-01-01T01:59:02Z</time>
      </trkpt>
      <trkpt lat="47.65825" lon="5.98443">
        <ele>226</ele>
        <time>2010-01-01T01:59:04Z</time>
      </trkpt>
      <trkpt lat="47.65827" lon="5.98439">
        <ele>226</ele>
        <time>2010-01-01T01:59:06Z</time>
      </trkpt>
      <trkpt lat="47.65829" lon="5.98435">
        <ele>225</ele>
        <time>2010-01-01T01:59:07Z</time>
      </trkpt>
      <trkpt lat="47.65831" lon="5.98431">
        <ele>225</ele>
        <time>2010-01-01T01:59:08Z</time>
      </trkpt>
      <trkpt lat="47.65834" lon="5.98427">
        <ele>224</ele>
        <time>2010-01-01T01:59:10Z</time>
      </trkpt>
      <trkpt lat="47.65836" lon="5.98422">
        <ele>224</ele>
        <time>2010-01-01T01:59:12Z</time>
      </trkpt>
      <trkpt lat="47.65839" lon="5.98416">
        <ele>223</ele>
        <time>2010-01-01T01:59:13Z</time>
      </trkpt>
      <trkpt lat="47.6584" lon="5.9841">
        <ele>223</ele>
        <time>2010-01-01T01:59:15Z</time>
      </trkpt>
      <trkpt lat="47.65841" lon="5.98406">
        <ele>223</ele>
        <time>2010-01-01T01:59:16Z</time>
      </trkpt>
      <trkpt lat="47.65841" lon="5.98405">
        <ele>223</ele>
        <time>2010-01-01T01:59:17Z</time>
      </trkpt>
      <trkpt lat="47.65841" lon="5.98404">
        <ele>223</ele>
        <time>2010-01-01T01:59:17Z</time>
      </trkpt>
      <trkpt lat="47.65841" lon="5.98405">
        <ele>222</ele>
        <time>2010-01-01T01:59:17Z</time>
      </trkpt>
      <trkpt lat="47.65843" lon="5.98403">
        <ele>221</ele>
        <time>2010-01-01T01:59:18Z</time>
      </trkpt>
      <trkpt lat="47.65844" lon="5.98401">
        <ele>221</ele>
        <time>2010-01-01T01:59:18Z</time>
      </trkpt>
      <trkpt lat="47.65846" lon="5.98398">
        <ele>221</ele>
        <time>2010-01-01T01:59:19Z</time>
      </trkpt>
      <trkpt lat="47.65847" lon="5.98394">
        <ele>221</ele>
        <time>2010-01-01T01:59:21Z</time>
      </trkpt>
      <trkpt lat="47.65849" lon="5.9839">
        <ele>221</ele>
        <time>2010-01-01T01:59:22Z</time>
      </trkpt>
      <trkpt lat="47.65851" lon="5.98385">
        <ele>221</ele>
        <time>2010-01-01T01:59:24Z</time>
      </trkpt>
      <trkpt lat="47.65854" lon="5.98379">
        <ele>221</ele>
        <time>2010-01-01T01:59:26Z</time>
      </trkpt>
      <trkpt lat="47.65856" lon="5.98372">
        <ele>221</ele>
        <time>2010-01-01T01:59:28Z</time>
      </trkpt>
      <trkpt lat="47.65859" lon="5.98365">
        <ele>221</ele>
        <time>2010-01-01T01:59:30Z</time>
      </trkpt>
      <trkpt lat="47.65862" lon="5.98356">
        <ele>220</ele>
        <time>2010-01-01T01:59:33Z</time>
      </trkpt>
      <trkpt lat="47.65864" lon="5.98348">
        <ele>219</ele>
        <time>2010-01-01T01:59:35Z</time>
      </trkpt>
      <trkpt lat="47.65865" lon="5.9834">
        <ele>219</ele>
        <time>2010-01-01T01:59:37Z</time>
      </trkpt>
      <trkpt lat="47.65865" lon="5.98332">
        <ele>218</ele>
        <time>2010-01-01T01:59:39Z</time>
      </trkpt>
      <trkpt lat="47.65865" lon="5.98325">
        <ele>218</ele>
        <time>2010-01-01T01:59:41Z</time>
      </trkpt>
      <trkpt lat="47.65863" lon="5.98318">
        <ele>218</ele>
        <time>2010-01-01T01:59:43Z</time>
      </trkpt>
      <trkpt lat="47.65861" lon="5.98313">
        <ele>217</ele>
        <time>2010-01-01T01:59:45Z</time>
      </trkpt>
      <trkpt lat="47.65861" lon="5.98307">
        <ele>217</ele>
        <time>2010-01-01T01:59:46Z</time>
      </trkpt>
      <trkpt lat="47.65862" lon="5.983">
        <ele>216</ele>
        <time>2010-01-01T01:59:48Z</time>
      </trkpt>
      <trkpt lat="47.65865" lon="5.98295">
        <ele>216</ele>
        <time>2010-01-01T01:59:50Z</time>
      </trkpt>
      <trkpt lat="47.65869" lon="5.98291">
        <ele>215</ele>
        <time>2010-01-01T01:59:52Z</time>
      </trkpt>
      <trkpt lat="47.65873" lon="5.98286">
        <ele>215</ele>
        <time>2010-01-01T01:59:54Z</time>
      </trkpt>
      <trkpt lat="47.65876" lon="5.98281">
        <ele>214</ele>
        <time>2010-01-01T01:59:56Z</time>
      </trkpt>
      <trkpt lat="47.6588" lon="5.98276">
        <ele>214</ele>
        <time>2010-01-01T01:59:58Z</time>
      </trkpt>
      <trkpt lat="47.65883" lon="5.9827">
        <ele>214</ele>
        <time>2010-01-01T02:00:00Z</time>
      </trkpt>
      <trkpt lat="47.65887" lon="5.98264">
        <ele>214</ele>
        <time>2010-01-01T02:00:02Z</time>
      </trkpt>
      <trkpt lat="47.6589" lon="5.98258">
        <ele>214</ele>
        <time>2010-01-01T02:00:04Z</time>
      </trkpt>
      <trkpt lat="47.65893" lon="5.98252">
        <ele>214</ele>
        <time>2010-01-01T02:00:06Z</time>
      </trkpt>
      <trkpt lat="47.65896" lon="5.98246">
        <ele>214</ele>
        <time>2010-01-01T02:00:08Z</time>
      </trkpt>
      <trkpt lat="47.65899" lon="5.9824">
        <ele>214</ele>
        <time>2010-01-01T02:00:10Z</time>
      </trkpt>
      <trkpt lat="47.65902" lon="5.98234">
        <ele>214</ele>
        <time>2010-01-01T02:00:12Z</time>
      </trkpt>
      <trkpt lat="47.65906" lon="5.98227">
        <ele>214</ele>
        <time>2010-01-01T02:00:14Z</time>
      </trkpt>
      <trkpt lat="47.65908" lon="5.98222">
        <ele>214</ele>
        <time>2010-01-01T02:00:16Z</time>
      </trkpt>
      <trkpt lat="47.65912" lon="5.98216">
        <ele>214</ele>
        <time>2010-01-01T02:00:18Z</time>
      </trkpt>
      <trkpt lat="47.65915" lon="5.98211">
        <ele>214</ele>
        <time>2010-01-01T02:00:20Z</time>
      </trkpt>
      <trkpt lat="47.65918" lon="5.98205">
        <ele>214</ele>
        <time>2010-01-01T02:00:22Z</time>
      </trkpt>
      <trkpt lat="47.65921" lon="5.982">
        <ele>214</ele>
        <time>2010-01-01T02:00:24Z</time>
      </trkpt>
      <trkpt lat="47.65924" lon="5.98195">
        <ele>214</ele>
        <time>2010-01-01T02:00:26Z</time>
      </trkpt>
      <trkpt lat="47.65927" lon="5.98189">
        <ele>214</ele>
        <time>2010-01-01T02:00:28Z</time>
      </trkpt>
      <trkpt lat="47.6593" lon="5.98184">
        <ele>214</ele>
        <time>2010-01-01T02:00:30Z</time>
      </trkpt>
      <trkpt lat="47.65933" lon="5.98178">
        <ele>213</ele>
        <time>2010-01-01T02:00:32Z</time>
      </trkpt>
      <trkpt lat="47.65936" lon="5.98173">
        <ele>213</ele>
        <time>2010-01-01T02:00:34Z</time>
      </trkpt>
      <trkpt lat="47.6594" lon="5.98168">
        <ele>213</ele>
        <time>2010-01-01T02:00:35Z</time>
      </trkpt>
      <trkpt lat="47.65943" lon="5.98163">
        <ele>214</ele>
        <time>2010-01-01T02:00:37Z</time>
      </trkpt>
      <trkpt lat="47.65946" lon="5.98157">
        <ele>214</ele>
        <time>2010-01-01T02:00:39Z</time>
      </trkpt>
      <trkpt lat="47.65949" lon="5.98152">
        <ele>215</ele>
        <time>2010-01-01T02:00:41Z</time>
      </trkpt>
      <trkpt lat="47.65953" lon="5.98147">
        <ele>215</ele>
        <time>2010-01-01T02:00:43Z</time>
      </trkpt>
      <trkpt lat="47.65956" lon="5.98141">
        <ele>215</ele>
        <time>2010-01-01T02:00:45Z</time>
      </trkpt>
      <trkpt lat="47.6596" lon="5.98136">
        <ele>215</ele>
        <time>2010-01-01T02:00:47Z</time>
      </trkpt>
      <trkpt lat="47.65963" lon="5.98131">
        <ele>215</ele>
        <time>2010-01-01T02:00:49Z</time>
      </trkpt>
      <trkpt lat="47.65966" lon="5.98125">
        <ele>215</ele>
        <time>2010-01-01T02:00:51Z</time>
      </trkpt>
      <trkpt lat="47.65969" lon="5.98119">
        <ele>215</ele>
        <time>2010-01-01T02:00:53Z</time>
      </trkpt>
      <trkpt lat="47.65972" lon="5.98114">
        <ele>215</ele>
        <time>2010-01-01T02:00:55Z</time>
      </trkpt>
      <trkpt lat="47.65976" lon="5.98109">
        <ele>215</ele>
        <time>2010-01-01T02:00:57Z</time>
      </trkpt>
      <trkpt lat="47.65979" lon="5.98103">
        <ele>215</ele>
        <time>2010-01-01T02:00:59Z</time>
      </trkpt>
      <trkpt lat="47.65982" lon="5.98097">
        <ele>215</ele>
        <time>2010-01-01T02:01:01Z</time>
      </trkpt>
      <trkpt lat="47.65985" lon="5.98092">
        <ele>215</ele>
        <time>2010-01-01T02:01:03Z</time>
      </trkpt>
      <trkpt lat="47.65989" lon="5.98087">
        <ele>215</ele>
        <time>2010-01-01T02:01:05Z</time>
      </trkpt>
      <trkpt lat="47.65992" lon="5.98081">
        <ele>215</ele>
        <time>2010-01-01T02:01:07Z</time>
      </trkpt>
      <trkpt lat="47.65995" lon="5.98076">
        <ele>215</ele>
        <time>2010-01-01T02:01:09Z</time>
      </trkpt>
      <trkpt lat="47.65998" lon="5.98071">
        <ele>215</ele>
        <time>2010-01-01T02:01:11Z</time>
      </trkpt>
      <trkpt lat="47.66001" lon="5.98065">
        <ele>215</ele>
        <time>2010-01-01T02:01:13Z</time>
      </trkpt>
      <trkpt lat="47.66004" lon="5.98059">
        <ele>215</ele>
        <time>2010-01-01T02:01:15Z</time>
      </trkpt>
      <trkpt lat="47.66007" lon="5.98054">
        <ele>215</ele>
        <time>2010-01-01T02:01:16Z</time>
      </trkpt>
      <trkpt lat="47.6601" lon="5.98048">
        <ele>215</ele>
        <time>2010-01-01T02:01:18Z</time>
      </trkpt>
      <trkpt lat="47.66013" lon="5.98043">
        <ele>215</ele>
        <time>2010-01-01T02:01:20Z</time>
      </trkpt>
      <trkpt lat="47.66016" lon="5.98037">
        <ele>215</ele>
        <time>2010-01-01T02:01:22Z</time>
      </trkpt>
      <trkpt lat="47.66019" lon="5.98031">
        <ele>215</ele>
        <time>2010-01-01T02:01:24Z</time>
      </trkpt>
      <trkpt lat="47.66022" lon="5.98025">
        <ele>215</ele>
        <time>2010-01-01T02:01:26Z</time>
      </trkpt>
      <trkpt lat="47.66025" lon="5.98019">
        <ele>216</ele>
        <time>2010-01-01T02:01:28Z</time>
      </trkpt>
      <trkpt lat="47.66028" lon="5.98014">
        <ele>216</ele>
        <time>2010-01-01T02:01:30Z</time>
      </trkpt>
      <trkpt lat="47.66031" lon="5.98008">
        <ele>217</ele>
        <time>2010-01-01T02:01:32Z</time>
      </trkpt>
      <trkpt lat="47.66034" lon="5.98002">
        <ele>217</ele>
        <time>2010-01-01T02:01:34Z</time>
      </trkpt>
      <trkpt lat="47.66037" lon="5.97996">
        <ele>217</ele>
        <time>2010-01-01T02:01:36Z</time>
      </trkpt>
      <trkpt lat="47.6604" lon="5.97991">
        <ele>217</ele>
        <time>2010-01-01T02:01:38Z</time>
      </trkpt>
      <trkpt lat="47.66042" lon="5.97985">
        <ele>217</ele>
        <time>2010-01-01T02:01:40Z</time>
      </trkpt>
      <trkpt lat="47.66045" lon="5.97979">
        <ele>217</ele>
        <time>2010-01-01T02:01:42Z</time>
      </trkpt>
      <trkpt lat="47.66048" lon="5.97973">
        <ele>217</ele>
        <time>2010-01-01T02:01:44Z</time>
      </trkpt>
      <trkpt lat="47.66051" lon="5.97967">
        <ele>217</ele>
        <time>2010-01-01T02:01:46Z</time>
      </trkpt>
      <trkpt lat="47.66054" lon="5.97961">
        <ele>217</ele>
        <time>2010-01-01T02:01:48Z</time>
      </trkpt>
      <trkpt lat="47.66057" lon="5.97955">
        <ele>217</ele>
        <time>2010-01-01T02:01:50Z</time>
      </trkpt>
      <trkpt lat="47.6606" lon="5.97948">
        <ele>217</ele>
        <time>2010-01-01T02:01:52Z</time>
      </trkpt>
      <trkpt lat="47.66063" lon="5.97943">
        <ele>217</ele>
        <time>2010-01-01T02:01:54Z</time>
      </trkpt>
      <trkpt lat="47.66066" lon="5.97936">
        <ele>217</ele>
        <time>2010-01-01T02:01:56Z</time>
      </trkpt>
      <trkpt lat="47.66069" lon="5.9793">
        <ele>217</ele>
        <time>2010-01-01T02:01:58Z</time>
      </trkpt>
      <trkpt lat="47.66072" lon="5.97924">
        <ele>217</ele>
        <time>2010-01-01T02:02:00Z</time>
      </trkpt>
      <trkpt lat="47.66075" lon="5.97917">
        <ele>217</ele>
        <time>2010-01-01T02:02:02Z</time>
      </trkpt>
      <trkpt lat="47.66078" lon="5.97911">
        <ele>217</ele>
        <time>2010-01-01T02:02:04Z</time>
      </trkpt>
      <trkpt lat="47.66081" lon="5.97905">
        <ele>217</ele>
        <time>2010-01-01T02:02:06Z</time>
      </trkpt>
      <trkpt lat="47.66084" lon="5.97898">
        <ele>217</ele>
        <time>2010-01-01T02:02:08Z</time>
      </trkpt>
      <trkpt lat="47.66087" lon="5.97892">
        <ele>217</ele>
        <time>2010-01-01T02:02:11Z</time>
      </trkpt>
      <trkpt lat="47.6609" lon="5.97885">
        <ele>217</ele>
        <time>2010-01-01T02:02:13Z</time>
      </trkpt>
      <trkpt lat="47.66093" lon="5.97879">
        <ele>217</ele>
        <time>2010-01-01T02:02:15Z</time>
      </trkpt>
      <trkpt lat="47.66096" lon="5.97873">
        <ele>217</ele>
        <time>2010-01-01T02:02:17Z</time>
      </trkpt>
      <trkpt lat="47.66099" lon="5.97866">
        <ele>217</ele>
        <time>2010-01-01T02:02:19Z</time>
      </trkpt>
      <trkpt lat="47.66103" lon="5.9786">
        <ele>217</ele>
        <time>2010-01-01T02:02:21Z</time>
      </trkpt>
      <trkpt lat="47.66106" lon="5.97854">
        <ele>217</ele>
        <time>2010-01-01T02:02:23Z</time>
      </trkpt>
      <trkpt lat="47.66109" lon="5.97847">
        <ele>217</ele>
        <time>2010-01-01T02:02:25Z</time>
      </trkpt>
      <trkpt lat="47.66112" lon="5.97841">
        <ele>217</ele>
        <time>2010-01-01T02:02:27Z</time>
      </trkpt>
      <trkpt lat="47.66115" lon="5.97835">
        <ele>217</ele>
        <time>2010-01-01T02:02:30Z</time>
      </trkpt>
      <trkpt lat="47.66118" lon="5.97829">
        <ele>217</ele>
        <time>2010-01-01T02:02:32Z</time>
      </trkpt>
      <trkpt lat="47.66121" lon="5.97822">
        <ele>217</ele>
        <time>2010-01-01T02:02:34Z</time>
      </trkpt>
      <trkpt lat="47.66124" lon="5.97816">
        <ele>217</ele>
        <time>2010-01-01T02:02:36Z</time>
      </trkpt>
      <trkpt lat="47.66127" lon="5.9781">
        <ele>217</ele>
        <time>2010-01-01T02:02:38Z</time>
      </trkpt>
      <trkpt lat="47.66131" lon="5.97804">
        <ele>217</ele>
        <time>2010-01-01T02:02:40Z</time>
      </trkpt>
      <trkpt lat="47.66134" lon="5.97797">
        <ele>217</ele>
        <time>2010-01-01T02:02:42Z</time>
      </trkpt>
      <trkpt lat="47.66137" lon="5.97791">
        <ele>217</ele>
        <time>2010-01-01T02:02:44Z</time>
      </trkpt>
      <trkpt lat="47.6614" lon="5.97785">
        <ele>217</ele>
        <time>2010-01-01T02:02:47Z</time>
      </trkpt>
      <trkpt lat="47.66144" lon="5.97777">
        <ele>217</ele>
        <time>2010-01-01T02:02:49Z</time>
      </trkpt>
      <trkpt lat="47.66147" lon="5.97771">
        <ele>217</ele>
        <time>2010-01-01T02:02:51Z</time>
      </trkpt>
      <trkpt lat="47.6615" lon="5.97764">
        <ele>217</ele>
        <time>2010-01-01T02:02:53Z</time>
      </trkpt>
      <trkpt lat="47.66154" lon="5.97757">
        <ele>217</ele>
        <time>2010-01-01T02:02:56Z</time>
      </trkpt>
      <trkpt lat="47.66157" lon="5.97751">
        <ele>217</ele>
        <time>2010-01-01T02:02:58Z</time>
      </trkpt>
      <trkpt lat="47.6616" lon="5.97744">
        <ele>217</ele>
        <time>2010-01-01T02:03:00Z</time>
      </trkpt>
      <trkpt lat="47.66164" lon="5.97737">
        <ele>217</ele>
        <time>2010-01-01T02:03:02Z</time>
      </trkpt>
      <trkpt lat="47.66168" lon="5.9773">
        <ele>217</ele>
        <time>2010-01-01T02:03:05Z</time>
      </trkpt>
      <trkpt lat="47.66171" lon="5.97724">
        <ele>217</ele>
        <time>2010-01-01T02:03:07Z</time>
      </trkpt>
      <trkpt lat="47.66175" lon="5.97717">
        <ele>217</ele>
        <time>2010-01-01T02:03:09Z</time>
      </trkpt>
      <trkpt lat="47.66179" lon="5.97711">
        <ele>217</ele>
        <time>2010-01-01T02:03:12Z</time>
      </trkpt>
      <trkpt lat="47.66183" lon="5.97705">
        <ele>217</ele>
        <time>2010-01-01T02:03:14Z</time>
      </trkpt>
      <trkpt lat="47.66187" lon="5.97699">
        <ele>217</ele>
        <time>2010-01-01T02:03:16Z</time>
      </trkpt>
      <trkpt lat="47.66191" lon="5.97693">
        <ele>217</ele>
        <time>2010-01-01T02:03:18Z</time>
      </trkpt>
      <trkpt lat="47.66195" lon="5.97688">
        <ele>217</ele>
        <time>2010-01-01T02:03:21Z</time>
      </trkpt>
      <trkpt lat="47.66199" lon="5.97681">
        <ele>217</ele>
        <time>2010-01-01T02:03:23Z</time>
      </trkpt>
      <trkpt lat="47.66203" lon="5.97675">
        <ele>217</ele>
        <time>2010-01-01T02:03:25Z</time>
      </trkpt>
      <trkpt lat="47.66207" lon="5.97669">
        <ele>217</ele>
        <time>2010-01-01T02:03:28Z</time>
      </trkpt>
      <trkpt lat="47.66211" lon="5.97663">
        <ele>217</ele>
        <time>2010-01-01T02:03:30Z</time>
      </trkpt>
      <trkpt lat="47.66215" lon="5.97657">
        <ele>217</ele>
        <time>2010-01-01T02:03:32Z</time>
      </trkpt>
      <trkpt lat="47.6622" lon="5.97651">
        <ele>217</ele>
        <time>2010-01-01T02:03:35Z</time>
      </trkpt>
      <trkpt lat="47.66224" lon="5.97644">
        <ele>217</ele>
        <time>2010-01-01T02:03:37Z</time>
      </trkpt>
      <trkpt lat="47.66229" lon="5.97638">
        <ele>217</ele>
        <time>2010-01-01T02:03:40Z</time>
      </trkpt>
      <trkpt lat="47.66233" lon="5.97633">
        <ele>217</ele>
        <time>2010-01-01T02:03:42Z</time>
      </trkpt>
      <trkpt lat="47.66237" lon="5.97627">
        <ele>217</ele>
        <time>2010-01-01T02:03:44Z</time>
      </trkpt>
      <trkpt lat="47.6624" lon="5.97621">
        <ele>217</ele>
        <time>2010-01-01T02:03:46Z</time>
      </trkpt>
      <trkpt lat="47.66244" lon="5.97616">
        <ele>217</ele>
        <time>2010-01-01T02:03:48Z</time>
      </trkpt>
      <trkpt lat="47.66248" lon="5.9761">
        <ele>217</ele>
        <time>2010-01-01T02:03:50Z</time>
      </trkpt>
      <trkpt lat="47.66251" lon="5.97604">
        <ele>217</ele>
        <time>2010-01-01T02:03:53Z</time>
      </trkpt>
      <trkpt lat="47.66255" lon="5.97599">
        <ele>217</ele>
        <time>2010-01-01T02:03:55Z</time>
      </trkpt>
      <trkpt lat="47.66259" lon="5.97593">
        <ele>217</ele>
        <time>2010-01-01T02:03:57Z</time>
      </trkpt>
      <trkpt lat="47.66263" lon="5.97589">
        <ele>217</ele>
        <time>2010-01-01T02:03:59Z</time>
      </trkpt>
      <trkpt lat="47.66267" lon="5.97585">
        <ele>217</ele>
        <time>2010-01-01T02:04:01Z</time>
      </trkpt>
      <trkpt lat="47.66272" lon="5.97581">
        <ele>217</ele>
        <time>2010-01-01T02:04:03Z</time>
      </trkpt>
      <trkpt lat="47.66276" lon="5.97579">
        <ele>217</ele>
        <time>2010-01-01T02:04:05Z</time>
      </trkpt>
      <trkpt lat="47.66281" lon="5.97576">
        <ele>217</ele>
        <time>2010-01-01T02:04:07Z</time>
      </trkpt>
      <trkpt lat="47.66286" lon="5.97575">
        <ele>217</ele>
        <time>2010-01-01T02:04:09Z</time>
      </trkpt>
      <trkpt lat="47.6629" lon="5.97573">
        <ele>217</ele>
        <time>2010-01-01T02:04:11Z</time>
      </trkpt>
      <trkpt lat="47.66295" lon="5.97571">
        <ele>217</ele>
        <time>2010-01-01T02:04:13Z</time>
      </trkpt>
      <trkpt lat="47.66299" lon="5.97569">
        <ele>217</ele>
        <time>2010-01-01T02:04:14Z</time>
      </trkpt>
      <trkpt lat="47.66303" lon="5.97567">
        <ele>217</ele>
        <time>2010-01-01T02:04:16Z</time>
      </trkpt>
      <trkpt lat="47.66308" lon="5.97566">
        <ele>217</ele>
        <time>2010-01-01T02:04:18Z</time>
      </trkpt>
      <trkpt lat="47.66312" lon="5.97564">
        <ele>217</ele>
        <time>2010-01-01T02:04:20Z</time>
      </trkpt>
      <trkpt lat="47.66317" lon="5.97562">
        <ele>217</ele>
        <time>2010-01-01T02:04:22Z</time>
      </trkpt>
      <trkpt lat="47.66321" lon="5.97561">
        <ele>217</ele>
        <time>2010-01-01T02:04:24Z</time>
      </trkpt>
      <trkpt lat="47.66326" lon="5.97559">
        <ele>218</ele>
        <time>2010-01-01T02:04:25Z</time>
      </trkpt>
      <trkpt lat="47.6633" lon="5.97557">
        <ele>218</ele>
        <time>2010-01-01T02:04:27Z</time>
      </trkpt>
      <trkpt lat="47.66335" lon="5.97555">
        <ele>219</ele>
        <time>2010-01-01T02:04:29Z</time>
      </trkpt>
      <trkpt lat="47.66339" lon="5.97553">
        <ele>219</ele>
        <time>2010-01-01T02:04:31Z</time>
      </trkpt>
      <trkpt lat="47.66344" lon="5.97551">
        <ele>219</ele>
        <time>2010-01-01T02:04:33Z</time>
      </trkpt>
      <trkpt lat="47.66348" lon="5.97548">
        <ele>219</ele>
        <time>2010-01-01T02:04:35Z</time>
      </trkpt>
      <trkpt lat="47.66352" lon="5.97546">
        <ele>219</ele>
        <time>2010-01-01T02:04:37Z</time>
      </trkpt>
      <trkpt lat="47.66357" lon="5.97543">
        <ele>219</ele>
        <time>2010-01-01T02:04:39Z</time>
      </trkpt>
      <trkpt lat="47.66361" lon="5.97541">
        <ele>219</ele>
        <time>2010-01-01T02:04:40Z</time>
      </trkpt>
      <trkpt lat="47.66366" lon="5.97538">
        <ele>219</ele>
        <time>2010-01-01T02:04:42Z</time>
      </trkpt>
      <trkpt lat="47.6637" lon="5.97536">
        <ele>219</ele>
        <time>2010-01-01T02:04:44Z</time>
      </trkpt>
      <trkpt lat="47.66375" lon="5.97533">
        <ele>219</ele>
        <time>2010-01-01T02:04:46Z</time>
      </trkpt>
      <trkpt lat="47.66379" lon="5.9753">
        <ele>219</ele>
        <time>2010-01-01T02:04:48Z</time>
      </trkpt>
      <trkpt lat="47.66384" lon="5.97527">
        <ele>219</ele>
        <time>2010-01-01T02:04:50Z</time>
      </trkpt>
      <trkpt lat="47.66388" lon="5.97524">
        <ele>219</ele>
        <time>2010-01-01T02:04:52Z</time>
      </trkpt>
      <trkpt lat="47.66392" lon="5.9752">
        <ele>219</ele>
        <time>2010-01-01T02:04:54Z</time>
      </trkpt>
      <trkpt lat="47.66396" lon="5.97517">
        <ele>219</ele>
        <time>2010-01-01T02:04:56Z</time>
      </trkpt>
      <trkpt lat="47.664" lon="5.97513">
        <ele>219</ele>
        <time>2010-01-01T02:04:58Z</time>
      </trkpt>
      <trkpt lat="47.66403" lon="5.97509">
        <ele>219</ele>
        <time>2010-01-01T02:04:59Z</time>
      </trkpt>
      <trkpt lat="47.66407" lon="5.97505">
        <ele>219</ele>
        <time>2010-01-01T02:05:01Z</time>
      </trkpt>
      <trkpt lat="47.66411" lon="5.975">
        <ele>219</ele>
        <time>2010-01-01T02:05:03Z</time>
      </trkpt>
      <trkpt lat="47.66415" lon="5.97495">
        <ele>219</ele>
        <time>2010-01-01T02:05:05Z</time>
      </trkpt>
      <trkpt lat="47.66418" lon="5.97489">
        <ele>219</ele>
        <time>2010-01-01T02:05:07Z</time>
      </trkpt>
      <trkpt lat="47.66422" lon="5.97484">
        <ele>219</ele>
        <time>2010-01-01T02:05:09Z</time>
      </trkpt>
      <trkpt lat="47.66425" lon="5.97479">
        <ele>219</ele>
        <time>2010-01-01T02:05:11Z</time>
      </trkpt>
      <trkpt lat="47.66429" lon="5.97473">
        <ele>219</ele>
        <time>2010-01-01T02:05:13Z</time>
      </trkpt>
      <trkpt lat="47.66432" lon="5.97467">
        <ele>219</ele>
        <time>2010-01-01T02:05:15Z</time>
      </trkpt>
      <trkpt lat="47.66435" lon="5.97461">
        <ele>219</ele>
        <time>2010-01-01T02:05:18Z</time>
      </trkpt>
      <trkpt lat="47.66438" lon="5.97456">
        <ele>219</ele>
        <time>2010-01-01T02:05:20Z</time>
      </trkpt>
      <trkpt lat="47.66441" lon="5.9745">
        <ele>219</ele>
        <time>2010-01-01T02:05:22Z</time>
      </trkpt>
      <trkpt lat="47.66444" lon="5.97443">
        <ele>219</ele>
        <time>2010-01-01T02:05:24Z</time>
      </trkpt>
      <trkpt lat="47.66447" lon="5.97437">
        <ele>219</ele>
        <time>2010-01-01T02:05:26Z</time>
      </trkpt>
      <trkpt lat="47.66451" lon="5.9743">
        <ele>219</ele>
        <time>2010-01-01T02:05:28Z</time>
      </trkpt>
      <trkpt lat="47.66454" lon="5.97423">
        <ele>219</ele>
        <time>2010-01-01T02:05:30Z</time>
      </trkpt>
      <trkpt lat="47.66457" lon="5.97416">
        <ele>219</ele>
        <time>2010-01-01T02:05:32Z</time>
      </trkpt>
      <trkpt lat="47.6646" lon="5.9741">
        <ele>219</ele>
        <time>2010-01-01T02:05:35Z</time>
      </trkpt>
      <trkpt lat="47.66463" lon="5.97403">
        <ele>219</ele>
        <time>2010-01-01T02:05:37Z</time>
      </trkpt>
      <trkpt lat="47.66465" lon="5.97396">
        <ele>219</ele>
        <time>2010-01-01T02:05:39Z</time>
      </trkpt>
      <trkpt lat="47.66468" lon="5.97389">
        <ele>219</ele>
        <time>2010-01-01T02:05:41Z</time>
      </trkpt>
      <trkpt lat="47.6647" lon="5.97381">
        <ele>219</ele>
        <time>2010-01-01T02:05:43Z</time>
      </trkpt>
      <trkpt lat="47.66472" lon="5.97374">
        <ele>219</ele>
        <time>2010-01-01T02:05:46Z</time>
      </trkpt>
      <trkpt lat="47.66474" lon="5.97366">
        <ele>219</ele>
        <time>2010-01-01T02:05:48Z</time>
      </trkpt>
      <trkpt lat="47.66476" lon="5.97358">
        <ele>219</ele>
        <time>2010-01-01T02:05:50Z</time>
      </trkpt>
      <trkpt lat="47.66478" lon="5.9735">
        <ele>219</ele>
        <time>2010-01-01T02:05:52Z</time>
      </trkpt>
      <trkpt lat="47.6648" lon="5.97342">
        <ele>219</ele>
        <time>2010-01-01T02:05:55Z</time>
      </trkpt>
      <trkpt lat="47.66482" lon="5.97334">
        <ele>219</ele>
        <time>2010-01-01T02:05:57Z</time>
      </trkpt>
      <trkpt lat="47.66484" lon="5.97326">
        <ele>219</ele>
        <time>2010-01-01T02:05:59Z</time>
      </trkpt>
      <trkpt lat="47.66486" lon="5.97319">
        <ele>219</ele>
        <time>2010-01-01T02:06:01Z</time>
      </trkpt>
      <trkpt lat="47.66488" lon="5.97311">
        <ele>219</ele>
        <time>2010-01-01T02:06:03Z</time>
      </trkpt>
      <trkpt lat="47.66489" lon="5.97304">
        <ele>219</ele>
        <time>2010-01-01T02:06:06Z</time>
      </trkpt>
      <trkpt lat="47.66491" lon="5.97296">
        <ele>219</ele>
        <time>2010-01-01T02:06:08Z</time>
      </trkpt>
      <trkpt lat="47.66492" lon="5.97289">
        <ele>219</ele>
        <time>2010-01-01T02:06:10Z</time>
      </trkpt>
      <trkpt lat="47.66494" lon="5.97282">
        <ele>219</ele>
        <time>2010-01-01T02:06:12Z</time>
      </trkpt>
      <trkpt lat="47.66495" lon="5.97275">
        <ele>219</ele>
        <time>2010-01-01T02:06:14Z</time>
      </trkpt>
      <trkpt lat="47.66497" lon="5.97269">
        <ele>219</ele>
        <time>2010-01-01T02:06:16Z</time>
      </trkpt>
      <trkpt lat="47.66499" lon="5.97262">
        <ele>219</ele>
        <time>2010-01-01T02:06:18Z</time>
      </trkpt>
      <trkpt lat="47.66501" lon="5.97255">
        <ele>218</ele>
        <time>2010-01-01T02:06:20Z</time>
      </trkpt>
      <trkpt lat="47.66504" lon="5.9725">
        <ele>218</ele>
        <time>2010-01-01T02:06:21Z</time>
      </trkpt>
      <trkpt lat="47.66507" lon="5.97248">
        <ele>217</ele>
        <time>2010-01-01T02:06:23Z</time>
      </trkpt>
      <trkpt lat="47.66512" lon="5.97249">
        <ele>217</ele>
        <time>2010-01-01T02:06:25Z</time>
      </trkpt>
      <trkpt lat="47.66516" lon="5.97254">
        <ele>217</ele>
        <time>2010-01-01T02:06:27Z</time>
      </trkpt>
      <trkpt lat="47.66518" lon="5.97259">
        <ele>217</ele>
        <time>2010-01-01T02:06:28Z</time>
      </trkpt>
      <trkpt lat="47.6652" lon="5.97266">
        <ele>217</ele>
        <time>2010-01-01T02:06:30Z</time>
      </trkpt>
      <trkpt lat="47.66521" lon="5.97272">
        <ele>217</ele>
        <time>2010-01-01T02:06:32Z</time>
      </trkpt>
      <trkpt lat="47.66523" lon="5.97279">
        <ele>217</ele>
        <time>2010-01-01T02:06:34Z</time>
      </trkpt>
      <trkpt lat="47.66524" lon="5.97286">
        <ele>217</ele>
        <time>2010-01-01T02:06:36Z</time>
      </trkpt>
      <trkpt lat="47.66526" lon="5.97292">
        <ele>217</ele>
        <time>2010-01-01T02:06:38Z</time>
      </trkpt>
      <trkpt lat="47.66528" lon="5.97298">
        <ele>217</ele>
        <time>2010-01-01T02:06:40Z</time>
      </trkpt>
      <trkpt lat="47.6653" lon="5.97305">
        <ele>217</ele>
        <time>2010-01-01T02:06:42Z</time>
      </trkpt>
      <trkpt lat="47.66531" lon="5.97311">
        <ele>217</ele>
        <time>2010-01-01T02:06:43Z</time>
      </trkpt>
      <trkpt lat="47.66533" lon="5.97317">
        <ele>217</ele>
        <time>2010-01-01T02:06:45Z</time>
      </trkpt>
      <trkpt lat="47.66535" lon="5.97323">
        <ele>217</ele>
        <time>2010-01-01T02:06:47Z</time>
      </trkpt>
      <trkpt lat="47.66536" lon="5.97329">
        <ele>217</ele>
        <time>2010-01-01T02:06:49Z</time>
      </trkpt>
      <trkpt lat="47.66537" lon="5.97335">
        <ele>217</ele>
        <time>2010-01-01T02:06:50Z</time>
      </trkpt>
      <trkpt lat="47.66539" lon="5.97341">
        <ele>217</ele>
        <time>2010-01-01T02:06:52Z</time>
      </trkpt>
      <trkpt lat="47.6654" lon="5.97347">
        <ele>217</ele>
        <time>2010-01-01T02:06:54Z</time>
      </trkpt>
      <trkpt lat="47.66542" lon="5.97353">
        <ele>217</ele>
        <time>2010-01-01T02:06:56Z</time>
      </trkpt>
      <trkpt lat="47.66544" lon="5.9736">
        <ele>217</ele>
        <time>2010-01-01T02:06:57Z</time>
      </trkpt>
      <trkpt lat="47.66545" lon="5.97366">
        <ele>217</ele>
        <time>2010-01-01T02:06:59Z</time>
      </trkpt>
      <trkpt lat="47.66547" lon="5.97372">
        <ele>218</ele>
        <time>2010-01-01T02:07:01Z</time>
      </trkpt>
      <trkpt lat="47.66549" lon="5.97378">
        <ele>218</ele>
        <time>2010-01-01T02:07:03Z</time>
      </trkpt>
      <trkpt lat="47.6655" lon="5.97383">
        <ele>219</ele>
        <time>2010-01-01T02:07:04Z</time>
      </trkpt>
      <trkpt lat="47.66552" lon="5.97389">
        <ele>219</ele>
        <time>2010-01-01T02:07:06Z</time>
      </trkpt>
      <trkpt lat="47.66554" lon="5.97396">
        <ele>219</ele>
        <time>2010-01-01T02:07:08Z</time>
      </trkpt>
      <trkpt lat="47.66555" lon="5.97402">
        <ele>219</ele>
        <time>2010-01-01T02:07:10Z</time>
      </trkpt>
      <trkpt lat="47.66557" lon="5.97408">
        <ele>219</ele>
        <time>2010-01-01T02:07:11Z</time>
      </trkpt>
      <trkpt lat="47.66558" lon="5.97414">
        <ele>219</ele>
        <time>2010-01-01T02:07:13Z</time>
      </trkpt>
      <trkpt lat="47.66559" lon="5.97419">
        <ele>219</ele>
        <time>2010-01-01T02:07:15Z</time>
      </trkpt>
      <trkpt lat="47.66561" lon="5.97425">
        <ele>219</ele>
        <time>2010-01-01T02:07:16Z</time>
      </trkpt>
      <trkpt lat="47.66562" lon="5.9743">
        <ele>220</ele>
        <time>2010-01-01T02:07:18Z</time>
      </trkpt>
      <trkpt lat="47.66564" lon="5.97435">
        <ele>220</ele>
        <time>2010-01-01T02:07:19Z</time>
      </trkpt>
      <trkpt lat="47.66565" lon="5.9744">
        <ele>220</ele>
        <time>2010-01-01T02:07:21Z</time>
      </trkpt>
      <trkpt lat="47.66567" lon="5.97446">
        <ele>221</ele>
        <time>2010-01-01T02:07:22Z</time>
      </trkpt>
      <trkpt lat="47.66568" lon="5.97451">
        <ele>221</ele>
        <time>2010-01-01T02:07:24Z</time>
      </trkpt>
      <trkpt lat="47.66569" lon="5.97456">
        <ele>221</ele>
        <time>2010-01-01T02:07:25Z</time>
      </trkpt>
      <trkpt lat="47.6657" lon="5.97462">
        <ele>221</ele>
        <time>2010-01-01T02:07:27Z</time>
      </trkpt>
      <trkpt lat="47.66571" lon="5.97467">
        <ele>221</ele>
        <time>2010-01-01T02:07:28Z</time>
      </trkpt>
      <trkpt lat="47.66573" lon="5.97472">
        <ele>221</ele>
        <time>2010-01-01T02:07:30Z</time>
      </trkpt>
      <trkpt lat="47.66575" lon="5.97476">
        <ele>221</ele>
        <time>2010-01-01T02:07:31Z</time>
      </trkpt>
      <trkpt lat="47.66577" lon="5.9748">
        <ele>222</ele>
        <time>2010-01-01T02:07:33Z</time>
      </trkpt>
      <trkpt lat="47.6658" lon="5.97483">
        <ele>222</ele>
        <time>2010-01-01T02:07:34Z</time>
      </trkpt>
      <trkpt lat="47.66583" lon="5.97484">
        <ele>222</ele>
        <time>2010-01-01T02:07:35Z</time>
      </trkpt>
      <trkpt lat="47.66586" lon="5.97483">
        <ele>223</ele>
        <time>2010-01-01T02:07:36Z</time>
      </trkpt>
      <trkpt lat="47.66588" lon="5.97481">
        <ele>223</ele>
        <time>2010-01-01T02:07:38Z</time>
      </trkpt>
      <trkpt lat="47.66591" lon="5.97479">
        <ele>223</ele>
        <time>2010-01-01T02:07:39Z</time>
      </trkpt>
      <trkpt lat="47.66593" lon="5.97476">
        <ele>223</ele>
        <time>2010-01-01T02:07:40Z</time>
      </trkpt>
      <trkpt lat="47.66596" lon="5.97474">
        <ele>223</ele>
        <time>2010-01-01T02:07:41Z</time>
      </trkpt>
      <trkpt lat="47.66598" lon="5.97472">
        <ele>223</ele>
        <time>2010-01-01T02:07:42Z</time>
      </trkpt>
      <trkpt lat="47.666" lon="5.9747">
        <ele>223</ele>
        <time>2010-01-01T02:07:43Z</time>
      </trkpt>
      <trkpt lat="47.66602" lon="5.97467">
        <ele>223</ele>
        <time>2010-01-01T02:07:44Z</time>
      </trkpt>
      <trkpt lat="47.66605" lon="5.97465">
        <ele>223</ele>
        <time>2010-01-01T02:07:45Z</time>
      </trkpt>
      <trkpt lat="47.66607" lon="5.97463">
        <ele>223</ele>
        <time>2010-01-01T02:07:47Z</time>
      </trkpt>
      <trkpt lat="47.6661" lon="5.9746">
        <ele>223</ele>
        <time>2010-01-01T02:07:48Z</time>
      </trkpt>
      <trkpt lat="47.66613" lon="5.97458">
        <ele>223</ele>
        <time>2010-01-01T02:07:49Z</time>
      </trkpt>
      <trkpt lat="47.66616" lon="5.97455">
        <ele>223</ele>
        <time>2010-01-01T02:07:51Z</time>
      </trkpt>
      <trkpt lat="47.66619" lon="5.97451">
        <ele>223</ele>
        <time>2010-01-01T02:07:52Z</time>
      </trkpt>
      <trkpt lat="47.66622" lon="5.97448">
        <ele>223</ele>
        <time>2010-01-01T02:07:54Z</time>
      </trkpt>
      <trkpt lat="47.66625" lon="5.97445">
        <ele>223</ele>
        <time>2010-01-01T02:07:55Z</time>
      </trkpt>
      <trkpt lat="47.66628" lon="5.97442">
        <ele>223</ele>
        <time>2010-01-01T02:07:57Z</time>
      </trkpt>
      <trkpt lat="47.66631" lon="5.97439">
        <ele>223</ele>
        <time>2010-01-01T02:07:58Z</time>
      </trkpt>
      <trkpt lat="47.66635" lon="5.97435">
        <ele>223</ele>
        <time>2010-01-01T02:08:00Z</time>
      </trkpt>
      <trkpt lat="47.66638" lon="5.97432">
        <ele>223</ele>
        <time>2010-01-01T02:08:01Z</time>
      </trkpt>
      <trkpt lat="47.66641" lon="5.97429">
        <ele>223</ele>
        <time>2010-01-01T02:08:03Z</time>
      </trkpt>
      <trkpt lat="47.66643" lon="5.97425">
        <ele>223</ele>
        <time>2010-01-01T02:08:04Z</time>
      </trkpt>
      <trkpt lat="47.66647" lon="5.97422">
        <ele>223</ele>
        <time>2010-01-01T02:08:06Z</time>
      </trkpt>
      <trkpt lat="47.6665" lon="5.97419">
        <ele>223</ele>
        <time>2010-01-01T02:08:07Z</time>
      </trkpt>
      <trkpt lat="47.66653" lon="5.97415">
        <ele>223</ele>
        <time>2010-01-01T02:08:09Z</time>
      </trkpt>
      <trkpt lat="47.66657" lon="5.97413">
        <ele>223</ele>
        <time>2010-01-01T02:08:11Z</time>
      </trkpt>
      <trkpt lat="47.66661" lon="5.9741">
        <ele>223</ele>
        <time>2010-01-01T02:08:13Z</time>
      </trkpt>
      <trkpt lat="47.66665" lon="5.97406">
        <ele>223</ele>
        <time>2010-01-01T02:08:14Z</time>
      </trkpt>
      <trkpt lat="47.66669" lon="5.97402">
        <ele>223</ele>
        <time>2010-01-01T02:08:16Z</time>
      </trkpt>
      <trkpt lat="47.66673" lon="5.97398">
        <ele>223</ele>
        <time>2010-01-01T02:08:18Z</time>
      </trkpt>
      <trkpt lat="47.66677" lon="5.97394">
        <ele>223</ele>
        <time>2010-01-01T02:08:20Z</time>
      </trkpt>
      <trkpt lat="47.66681" lon="5.97389">
        <ele>223</ele>
        <time>2010-01-01T02:08:22Z</time>
      </trkpt>
      <trkpt lat="47.66685" lon="5.97385">
        <ele>223</ele>
        <time>2010-01-01T02:08:24Z</time>
      </trkpt>
      <trkpt lat="47.66689" lon="5.97382">
        <ele>223</ele>
        <time>2010-01-01T02:08:26Z</time>
      </trkpt>
      <trkpt lat="47.66692" lon="5.97378">
        <ele>223</ele>
        <time>2010-01-01T02:08:28Z</time>
      </trkpt>
      <trkpt lat="47.66696" lon="5.97374">
        <ele>223</ele>
        <time>2010-01-01T02:08:29Z</time>
      </trkpt>
      <trkpt lat="47.667" lon="5.9737">
        <ele>223</ele>
        <time>2010-01-01T02:08:31Z</time>
      </trkpt>
      <trkpt lat="47.66703" lon="5.97366">
        <ele>223</ele>
        <time>2010-01-01T02:08:33Z</time>
      </trkpt>
      <trkpt lat="47.66707" lon="5.97363">
        <ele>223</ele>
        <time>2010-01-01T02:08:35Z</time>
      </trkpt>
      <trkpt lat="47.6671" lon="5.97363">
        <ele>223</ele>
        <time>2010-01-01T02:08:36Z</time>
      </trkpt>
      <trkpt lat="47.66714" lon="5.97365">
        <ele>223</ele>
        <time>2010-01-01T02:08:38Z</time>
      </trkpt>
      <trkpt lat="47.66717" lon="5.97368">
        <ele>222</ele>
        <time>2010-01-01T02:08:39Z</time>
      </trkpt>
      <trkpt lat="47.6672" lon="5.9737">
        <ele>222</ele>
        <time>2010-01-01T02:08:41Z</time>
      </trkpt>
      <trkpt lat="47.66723" lon="5.97373">
        <ele>221</ele>
        <time>2010-01-01T02:08:42Z</time>
      </trkpt>
      <trkpt lat="47.66726" lon="5.97376">
        <ele>221</ele>
        <time>2010-01-01T02:08:44Z</time>
      </trkpt>
      <trkpt lat="47.66729" lon="5.97379">
        <ele>221</ele>
        <time>2010-01-01T02:08:45Z</time>
      </trkpt>
      <trkpt lat="47.66732" lon="5.97381">
        <ele>221</ele>
        <time>2010-01-01T02:08:46Z</time>
      </trkpt>
      <trkpt lat="47.66735" lon="5.97384">
        <ele>221</ele>
        <time>2010-01-01T02:08:48Z</time>
      </trkpt>
      <trkpt lat="47.66737" lon="5.97386">
        <ele>221</ele>
        <time>2010-01-01T02:08:49Z</time>
      </trkpt>
      <trkpt lat="47.66739" lon="5.97388">
        <ele>221</ele>
        <time>2010-01-01T02:08:50Z</time>
      </trkpt>
      <trkpt lat="47.66741" lon="5.97391">
        <ele>221</ele>
        <time>2010-01-01T02:08:51Z</time>
      </trkpt>
      <trkpt lat="47.66741" lon="5.97395">
        <ele>221</ele>
        <time>2010-01-01T02:08:52Z</time>
      </trkpt>
      <trkpt lat="47.66741" lon="5.974">
        <ele>221</ele>
        <time>2010-01-01T02:08:53Z</time>
      </trkpt>
      <trkpt lat="47.66741" lon="5.97405">
        <ele>221</ele>
        <time>2010-01-01T02:08:54Z</time>
      </trkpt>
      <trkpt lat="47.66741" lon="5.9741">
        <ele>221</ele>
        <time>2010-01-01T02:08:56Z</time>
      </trkpt>
      <trkpt lat="47.6674" lon="5.97414">
        <ele>221</ele>
        <time>2010-01-01T02:08:57Z</time>
      </trkpt>
      <trkpt lat="47.6674" lon="5.97417">
        <ele>221</ele>
        <time>2010-01-01T02:08:58Z</time>
      </trkpt>
      <trkpt lat="47.66739" lon="5.9742">
        <ele>221</ele>
        <time>2010-01-01T02:08:59Z</time>
      </trkpt>
      <trkpt lat="47.66738" lon="5.97423">
        <ele>221</ele>
        <time>2010-01-01T02:09:00Z</time>
      </trkpt>
      <trkpt lat="47.66736" lon="5.97424">
        <ele>221</ele>
        <time>2010-01-01T02:09:00Z</time>
      </trkpt>
      <trkpt lat="47.66735" lon="5.97423">
        <ele>222</ele>
        <time>2010-01-01T02:09:01Z</time>
      </trkpt>
      <trkpt lat="47.66734" lon="5.97422">
        <ele>223</ele>
        <time>2010-01-01T02:09:01Z</time>
      </trkpt>
      <trkpt lat="47.66734" lon="5.97422">
        <ele>223</ele>
        <time>2010-01-01T02:09:01Z</time>
      </trkpt>
    </trkseg>
  </trk>
</gpx>